<?xml version="1.0" encoding="UTF-8" standalone="no" ?>
<gpx xmlns="http://www.topografix.com/GPX/1/1" xmlns:xsi="http://www.w3.org/2001/XMLSchema-instance" xsi:schemaLocation="http://www.topografix.com/GPX/1/1 http://www.topografix.com/GPX/1/1/gpx.xsd" version="1.1" creator="VisuGPX - https://www.visugpx.com">
  <metadata>
    <name>Course à pied le matin</name>
  </metadata>
  <trk>
    <name><![CDATA[Course à pied le matin_1]]></name>
    <trkseg>
      <trkpt lat="43.64742" lon="1.37634">
        <ele>148</ele>
        <time>2023-05-31T05:31:56Z</time>
      </trkpt>
      <trkpt lat="43.64745" lon="1.37631">
        <ele>148</ele>
        <time>2023-05-31T05:31:57Z</time>
      </trkpt>
      <trkpt lat="43.64745" lon="1.37631">
        <ele>148</ele>
        <time>2023-05-31T05:31:58Z</time>
      </trkpt>
      <trkpt lat="43.64747" lon="1.37629">
        <ele>147</ele>
        <time>2023-05-31T05:31:59Z</time>
      </trkpt>
      <trkpt lat="43.64749" lon="1.37627">
        <ele>147</ele>
        <time>2023-05-31T05:32:00Z</time>
      </trkpt>
      <trkpt lat="43.6475" lon="1.37625">
        <ele>147</ele>
        <time>2023-05-31T05:32:01Z</time>
      </trkpt>
      <trkpt lat="43.6475" lon="1.37625">
        <ele>147</ele>
        <time>2023-05-31T05:32:02Z</time>
      </trkpt>
      <trkpt lat="43.64754" lon="1.37622">
        <ele>147</ele>
        <time>2023-05-31T05:32:03Z</time>
      </trkpt>
      <trkpt lat="43.64754" lon="1.37622">
        <ele>147</ele>
        <time>2023-05-31T05:32:04Z</time>
      </trkpt>
      <trkpt lat="43.64757" lon="1.37617">
        <ele>147</ele>
        <time>2023-05-31T05:32:05Z</time>
      </trkpt>
      <trkpt lat="43.64757" lon="1.37617">
        <ele>148</ele>
        <time>2023-05-31T05:32:06Z</time>
      </trkpt>
      <trkpt lat="43.64761" lon="1.37613">
        <ele>148</ele>
        <time>2023-05-31T05:32:07Z</time>
      </trkpt>
      <trkpt lat="43.64762" lon="1.37613">
        <ele>148</ele>
        <time>2023-05-31T05:32:08Z</time>
      </trkpt>
      <trkpt lat="43.64763" lon="1.37611">
        <ele>148</ele>
        <time>2023-05-31T05:32:09Z</time>
      </trkpt>
      <trkpt lat="43.64763" lon="1.37611">
        <ele>148</ele>
        <time>2023-05-31T05:32:10Z</time>
      </trkpt>
      <trkpt lat="43.64766" lon="1.3761">
        <ele>148</ele>
        <time>2023-05-31T05:32:11Z</time>
      </trkpt>
      <trkpt lat="43.64768" lon="1.37609">
        <ele>148</ele>
        <time>2023-05-31T05:32:12Z</time>
      </trkpt>
      <trkpt lat="43.6477" lon="1.37608">
        <ele>148</ele>
        <time>2023-05-31T05:32:13Z</time>
      </trkpt>
      <trkpt lat="43.64772" lon="1.37607">
        <ele>148</ele>
        <time>2023-05-31T05:32:14Z</time>
      </trkpt>
      <trkpt lat="43.64774" lon="1.37606">
        <ele>148</ele>
        <time>2023-05-31T05:32:15Z</time>
      </trkpt>
      <trkpt lat="43.64776" lon="1.37605">
        <ele>148</ele>
        <time>2023-05-31T05:32:16Z</time>
      </trkpt>
      <trkpt lat="43.64778" lon="1.37603">
        <ele>148</ele>
        <time>2023-05-31T05:32:17Z</time>
      </trkpt>
      <trkpt lat="43.6478" lon="1.37601">
        <ele>148</ele>
        <time>2023-05-31T05:32:18Z</time>
      </trkpt>
      <trkpt lat="43.64783" lon="1.376">
        <ele>148</ele>
        <time>2023-05-31T05:32:19Z</time>
      </trkpt>
      <trkpt lat="43.64785" lon="1.376">
        <ele>148</ele>
        <time>2023-05-31T05:32:20Z</time>
      </trkpt>
      <trkpt lat="43.64787" lon="1.37599">
        <ele>148</ele>
        <time>2023-05-31T05:32:21Z</time>
      </trkpt>
      <trkpt lat="43.64789" lon="1.37598">
        <ele>148</ele>
        <time>2023-05-31T05:32:22Z</time>
      </trkpt>
      <trkpt lat="43.64789" lon="1.37598">
        <ele>148</ele>
        <time>2023-05-31T05:32:23Z</time>
      </trkpt>
      <trkpt lat="43.64793" lon="1.37597">
        <ele>148</ele>
        <time>2023-05-31T05:32:24Z</time>
      </trkpt>
      <trkpt lat="43.64793" lon="1.37597">
        <ele>148</ele>
        <time>2023-05-31T05:32:25Z</time>
      </trkpt>
      <trkpt lat="43.64798" lon="1.37598">
        <ele>148</ele>
        <time>2023-05-31T05:32:26Z</time>
      </trkpt>
      <trkpt lat="43.64799" lon="1.37599">
        <ele>148</ele>
        <time>2023-05-31T05:32:27Z</time>
      </trkpt>
      <trkpt lat="43.64801" lon="1.376">
        <ele>148</ele>
        <time>2023-05-31T05:32:28Z</time>
      </trkpt>
      <trkpt lat="43.64803" lon="1.37602">
        <ele>148</ele>
        <time>2023-05-31T05:32:29Z</time>
      </trkpt>
      <trkpt lat="43.64805" lon="1.37604">
        <ele>148</ele>
        <time>2023-05-31T05:32:30Z</time>
      </trkpt>
      <trkpt lat="43.64807" lon="1.37605">
        <ele>148</ele>
        <time>2023-05-31T05:32:31Z</time>
      </trkpt>
      <trkpt lat="43.64809" lon="1.37606">
        <ele>148</ele>
        <time>2023-05-31T05:32:32Z</time>
      </trkpt>
      <trkpt lat="43.64811" lon="1.37608">
        <ele>148</ele>
        <time>2023-05-31T05:32:33Z</time>
      </trkpt>
      <trkpt lat="43.64813" lon="1.3761">
        <ele>148</ele>
        <time>2023-05-31T05:32:34Z</time>
      </trkpt>
      <trkpt lat="43.64815" lon="1.37611">
        <ele>148</ele>
        <time>2023-05-31T05:32:35Z</time>
      </trkpt>
      <trkpt lat="43.64817" lon="1.37613">
        <ele>148</ele>
        <time>2023-05-31T05:32:36Z</time>
      </trkpt>
      <trkpt lat="43.64819" lon="1.37615">
        <ele>148</ele>
        <time>2023-05-31T05:32:37Z</time>
      </trkpt>
      <trkpt lat="43.64821" lon="1.37616">
        <ele>149</ele>
        <time>2023-05-31T05:32:38Z</time>
      </trkpt>
      <trkpt lat="43.64823" lon="1.37619">
        <ele>149</ele>
        <time>2023-05-31T05:32:39Z</time>
      </trkpt>
      <trkpt lat="43.64823" lon="1.37619">
        <ele>149</ele>
        <time>2023-05-31T05:32:40Z</time>
      </trkpt>
      <trkpt lat="43.64829" lon="1.37622">
        <ele>149</ele>
        <time>2023-05-31T05:32:41Z</time>
      </trkpt>
      <trkpt lat="43.6483" lon="1.37623">
        <ele>148</ele>
        <time>2023-05-31T05:32:42Z</time>
      </trkpt>
      <trkpt lat="43.6483" lon="1.37623">
        <ele>148</ele>
        <time>2023-05-31T05:32:43Z</time>
      </trkpt>
      <trkpt lat="43.64834" lon="1.37625">
        <ele>148</ele>
        <time>2023-05-31T05:32:44Z</time>
      </trkpt>
      <trkpt lat="43.64837" lon="1.37627">
        <ele>148</ele>
        <time>2023-05-31T05:32:45Z</time>
      </trkpt>
      <trkpt lat="43.6484" lon="1.37629">
        <ele>148</ele>
        <time>2023-05-31T05:32:46Z</time>
      </trkpt>
      <trkpt lat="43.6484" lon="1.37629">
        <ele>148</ele>
        <time>2023-05-31T05:32:47Z</time>
      </trkpt>
      <trkpt lat="43.64845" lon="1.37635">
        <ele>148</ele>
        <time>2023-05-31T05:32:48Z</time>
      </trkpt>
      <trkpt lat="43.64846" lon="1.37636">
        <ele>148</ele>
        <time>2023-05-31T05:32:49Z</time>
      </trkpt>
      <trkpt lat="43.64846" lon="1.37636">
        <ele>148</ele>
        <time>2023-05-31T05:32:50Z</time>
      </trkpt>
      <trkpt lat="43.6485" lon="1.37639">
        <ele>148</ele>
        <time>2023-05-31T05:32:51Z</time>
      </trkpt>
      <trkpt lat="43.6485" lon="1.37639">
        <ele>148</ele>
        <time>2023-05-31T05:32:52Z</time>
      </trkpt>
      <trkpt lat="43.64851" lon="1.37641">
        <ele>148</ele>
        <time>2023-05-31T05:32:53Z</time>
      </trkpt>
      <trkpt lat="43.64851" lon="1.37641">
        <ele>148</ele>
        <time>2023-05-31T05:32:54Z</time>
      </trkpt>
      <trkpt lat="43.64859" lon="1.37645">
        <ele>148</ele>
        <time>2023-05-31T05:32:55Z</time>
      </trkpt>
      <trkpt lat="43.6486" lon="1.37646">
        <ele>148</ele>
        <time>2023-05-31T05:32:56Z</time>
      </trkpt>
      <trkpt lat="43.64862" lon="1.37648">
        <ele>148</ele>
        <time>2023-05-31T05:32:57Z</time>
      </trkpt>
      <trkpt lat="43.64864" lon="1.3765">
        <ele>148</ele>
        <time>2023-05-31T05:32:58Z</time>
      </trkpt>
      <trkpt lat="43.64866" lon="1.37652">
        <ele>148</ele>
        <time>2023-05-31T05:32:59Z</time>
      </trkpt>
      <trkpt lat="43.64868" lon="1.37655">
        <ele>148</ele>
        <time>2023-05-31T05:33:00Z</time>
      </trkpt>
      <trkpt lat="43.64868" lon="1.37655">
        <ele>148</ele>
        <time>2023-05-31T05:33:01Z</time>
      </trkpt>
      <trkpt lat="43.64871" lon="1.37661">
        <ele>148</ele>
        <time>2023-05-31T05:33:02Z</time>
      </trkpt>
      <trkpt lat="43.64873" lon="1.37664">
        <ele>148</ele>
        <time>2023-05-31T05:33:03Z</time>
      </trkpt>
      <trkpt lat="43.64873" lon="1.37667">
        <ele>148</ele>
        <time>2023-05-31T05:33:04Z</time>
      </trkpt>
      <trkpt lat="43.64873" lon="1.37667">
        <ele>148</ele>
        <time>2023-05-31T05:33:05Z</time>
      </trkpt>
      <trkpt lat="43.64875" lon="1.37673">
        <ele>148</ele>
        <time>2023-05-31T05:33:06Z</time>
      </trkpt>
      <trkpt lat="43.64875" lon="1.37673">
        <ele>148</ele>
        <time>2023-05-31T05:33:07Z</time>
      </trkpt>
      <trkpt lat="43.64876" lon="1.37677">
        <ele>148</ele>
        <time>2023-05-31T05:33:08Z</time>
      </trkpt>
      <trkpt lat="43.64877" lon="1.37681">
        <ele>148</ele>
        <time>2023-05-31T05:33:09Z</time>
      </trkpt>
      <trkpt lat="43.64878" lon="1.37684">
        <ele>148</ele>
        <time>2023-05-31T05:33:10Z</time>
      </trkpt>
      <trkpt lat="43.64879" lon="1.37688">
        <ele>148</ele>
        <time>2023-05-31T05:33:11Z</time>
      </trkpt>
      <trkpt lat="43.64879" lon="1.37688">
        <ele>148</ele>
        <time>2023-05-31T05:33:12Z</time>
      </trkpt>
      <trkpt lat="43.64881" lon="1.37695">
        <ele>148</ele>
        <time>2023-05-31T05:33:13Z</time>
      </trkpt>
      <trkpt lat="43.64881" lon="1.37695">
        <ele>148</ele>
        <time>2023-05-31T05:33:14Z</time>
      </trkpt>
      <trkpt lat="43.64883" lon="1.37703">
        <ele>147</ele>
        <time>2023-05-31T05:33:15Z</time>
      </trkpt>
      <trkpt lat="43.64884" lon="1.37704">
        <ele>147</ele>
        <time>2023-05-31T05:33:16Z</time>
      </trkpt>
      <trkpt lat="43.64884" lon="1.37707">
        <ele>147</ele>
        <time>2023-05-31T05:33:17Z</time>
      </trkpt>
      <trkpt lat="43.64885" lon="1.3771">
        <ele>147</ele>
        <time>2023-05-31T05:33:18Z</time>
      </trkpt>
      <trkpt lat="43.64886" lon="1.37713">
        <ele>148</ele>
        <time>2023-05-31T05:33:19Z</time>
      </trkpt>
      <trkpt lat="43.64886" lon="1.37713">
        <ele>148</ele>
        <time>2023-05-31T05:33:20Z</time>
      </trkpt>
      <trkpt lat="43.64887" lon="1.37716">
        <ele>147</ele>
        <time>2023-05-31T05:33:21Z</time>
      </trkpt>
      <trkpt lat="43.64887" lon="1.37719">
        <ele>147</ele>
        <time>2023-05-31T05:33:22Z</time>
      </trkpt>
      <trkpt lat="43.64888" lon="1.37723">
        <ele>147</ele>
        <time>2023-05-31T05:33:23Z</time>
      </trkpt>
      <trkpt lat="43.64889" lon="1.37726">
        <ele>147</ele>
        <time>2023-05-31T05:33:24Z</time>
      </trkpt>
      <trkpt lat="43.6489" lon="1.37729">
        <ele>147</ele>
        <time>2023-05-31T05:33:25Z</time>
      </trkpt>
      <trkpt lat="43.64891" lon="1.37732">
        <ele>148</ele>
        <time>2023-05-31T05:33:26Z</time>
      </trkpt>
      <trkpt lat="43.64891" lon="1.37732">
        <ele>148</ele>
        <time>2023-05-31T05:33:27Z</time>
      </trkpt>
      <trkpt lat="43.64891" lon="1.37735">
        <ele>147</ele>
        <time>2023-05-31T05:33:28Z</time>
      </trkpt>
      <trkpt lat="43.64892" lon="1.37738">
        <ele>147</ele>
        <time>2023-05-31T05:33:29Z</time>
      </trkpt>
      <trkpt lat="43.64892" lon="1.37741">
        <ele>147</ele>
        <time>2023-05-31T05:33:30Z</time>
      </trkpt>
      <trkpt lat="43.64893" lon="1.37743">
        <ele>147</ele>
        <time>2023-05-31T05:33:31Z</time>
      </trkpt>
      <trkpt lat="43.64894" lon="1.37746">
        <ele>147</ele>
        <time>2023-05-31T05:33:32Z</time>
      </trkpt>
      <trkpt lat="43.64895" lon="1.3775">
        <ele>147</ele>
        <time>2023-05-31T05:33:33Z</time>
      </trkpt>
      <trkpt lat="43.64896" lon="1.37753">
        <ele>147</ele>
        <time>2023-05-31T05:33:34Z</time>
      </trkpt>
      <trkpt lat="43.64897" lon="1.37757">
        <ele>147</ele>
        <time>2023-05-31T05:33:35Z</time>
      </trkpt>
      <trkpt lat="43.64898" lon="1.3776">
        <ele>147</ele>
        <time>2023-05-31T05:33:36Z</time>
      </trkpt>
      <trkpt lat="43.64899" lon="1.37763">
        <ele>147</ele>
        <time>2023-05-31T05:33:37Z</time>
      </trkpt>
      <trkpt lat="43.649" lon="1.37766">
        <ele>147</ele>
        <time>2023-05-31T05:33:38Z</time>
      </trkpt>
      <trkpt lat="43.649" lon="1.37769">
        <ele>147</ele>
        <time>2023-05-31T05:33:39Z</time>
      </trkpt>
      <trkpt lat="43.649" lon="1.37769">
        <ele>147</ele>
        <time>2023-05-31T05:33:40Z</time>
      </trkpt>
      <trkpt lat="43.64902" lon="1.37775">
        <ele>147</ele>
        <time>2023-05-31T05:33:41Z</time>
      </trkpt>
      <trkpt lat="43.64902" lon="1.37775">
        <ele>147</ele>
        <time>2023-05-31T05:33:42Z</time>
      </trkpt>
      <trkpt lat="43.64902" lon="1.37777">
        <ele>147</ele>
        <time>2023-05-31T05:33:43Z</time>
      </trkpt>
      <trkpt lat="43.64903" lon="1.37781">
        <ele>147</ele>
        <time>2023-05-31T05:33:44Z</time>
      </trkpt>
      <trkpt lat="43.64904" lon="1.37785">
        <ele>147</ele>
        <time>2023-05-31T05:33:45Z</time>
      </trkpt>
      <trkpt lat="43.64904" lon="1.37788">
        <ele>147</ele>
        <time>2023-05-31T05:33:46Z</time>
      </trkpt>
      <trkpt lat="43.64905" lon="1.37792">
        <ele>147</ele>
        <time>2023-05-31T05:33:47Z</time>
      </trkpt>
      <trkpt lat="43.64906" lon="1.37794">
        <ele>147</ele>
        <time>2023-05-31T05:33:48Z</time>
      </trkpt>
      <trkpt lat="43.64907" lon="1.37797">
        <ele>147</ele>
        <time>2023-05-31T05:33:49Z</time>
      </trkpt>
      <trkpt lat="43.64907" lon="1.378">
        <ele>147</ele>
        <time>2023-05-31T05:33:50Z</time>
      </trkpt>
      <trkpt lat="43.64908" lon="1.37803">
        <ele>147</ele>
        <time>2023-05-31T05:33:51Z</time>
      </trkpt>
      <trkpt lat="43.64909" lon="1.37806">
        <ele>147</ele>
        <time>2023-05-31T05:33:52Z</time>
      </trkpt>
      <trkpt lat="43.6491" lon="1.37809">
        <ele>147</ele>
        <time>2023-05-31T05:33:53Z</time>
      </trkpt>
      <trkpt lat="43.6491" lon="1.37812">
        <ele>147</ele>
        <time>2023-05-31T05:33:54Z</time>
      </trkpt>
      <trkpt lat="43.6491" lon="1.37812">
        <ele>147</ele>
        <time>2023-05-31T05:33:55Z</time>
      </trkpt>
      <trkpt lat="43.64912" lon="1.37818">
        <ele>147</ele>
        <time>2023-05-31T05:33:56Z</time>
      </trkpt>
      <trkpt lat="43.64912" lon="1.37818">
        <ele>147</ele>
        <time>2023-05-31T05:33:57Z</time>
      </trkpt>
      <trkpt lat="43.64913" lon="1.37824">
        <ele>147</ele>
        <time>2023-05-31T05:33:58Z</time>
      </trkpt>
      <trkpt lat="43.64914" lon="1.37827">
        <ele>147</ele>
        <time>2023-05-31T05:33:59Z</time>
      </trkpt>
      <trkpt lat="43.64915" lon="1.3783">
        <ele>147</ele>
        <time>2023-05-31T05:34:00Z</time>
      </trkpt>
      <trkpt lat="43.64916" lon="1.37832">
        <ele>147</ele>
        <time>2023-05-31T05:34:01Z</time>
      </trkpt>
      <trkpt lat="43.64916" lon="1.37832">
        <ele>147</ele>
        <time>2023-05-31T05:34:02Z</time>
      </trkpt>
      <trkpt lat="43.64917" lon="1.37835">
        <ele>147</ele>
        <time>2023-05-31T05:34:03Z</time>
      </trkpt>
      <trkpt lat="43.64917" lon="1.37835">
        <ele>147</ele>
        <time>2023-05-31T05:34:04Z</time>
      </trkpt>
      <trkpt lat="43.64917" lon="1.37838">
        <ele>147</ele>
        <time>2023-05-31T05:34:05Z</time>
      </trkpt>
      <trkpt lat="43.64918" lon="1.37841">
        <ele>147</ele>
        <time>2023-05-31T05:34:06Z</time>
      </trkpt>
      <trkpt lat="43.64918" lon="1.37844">
        <ele>147</ele>
        <time>2023-05-31T05:34:07Z</time>
      </trkpt>
      <trkpt lat="43.6492" lon="1.37848">
        <ele>147</ele>
        <time>2023-05-31T05:34:08Z</time>
      </trkpt>
      <trkpt lat="43.64921" lon="1.37851">
        <ele>147</ele>
        <time>2023-05-31T05:34:09Z</time>
      </trkpt>
      <trkpt lat="43.64923" lon="1.37854">
        <ele>147</ele>
        <time>2023-05-31T05:34:10Z</time>
      </trkpt>
      <trkpt lat="43.64925" lon="1.37857">
        <ele>147</ele>
        <time>2023-05-31T05:34:11Z</time>
      </trkpt>
      <trkpt lat="43.64925" lon="1.37857">
        <ele>147</ele>
        <time>2023-05-31T05:34:12Z</time>
      </trkpt>
      <trkpt lat="43.64929" lon="1.37861">
        <ele>146</ele>
        <time>2023-05-31T05:34:13Z</time>
      </trkpt>
      <trkpt lat="43.6493" lon="1.37863">
        <ele>146</ele>
        <time>2023-05-31T05:34:14Z</time>
      </trkpt>
      <trkpt lat="43.6493" lon="1.37863">
        <ele>146</ele>
        <time>2023-05-31T05:34:15Z</time>
      </trkpt>
      <trkpt lat="43.64931" lon="1.37865">
        <ele>146</ele>
        <time>2023-05-31T05:34:16Z</time>
      </trkpt>
      <trkpt lat="43.64932" lon="1.37868">
        <ele>146</ele>
        <time>2023-05-31T05:34:17Z</time>
      </trkpt>
      <trkpt lat="43.64933" lon="1.37871">
        <ele>146</ele>
        <time>2023-05-31T05:34:18Z</time>
      </trkpt>
      <trkpt lat="43.64934" lon="1.37873">
        <ele>146</ele>
        <time>2023-05-31T05:34:19Z</time>
      </trkpt>
      <trkpt lat="43.64938" lon="1.37877">
        <ele>146</ele>
        <time>2023-05-31T05:34:20Z</time>
      </trkpt>
      <trkpt lat="43.64938" lon="1.37878">
        <ele>146</ele>
        <time>2023-05-31T05:34:21Z</time>
      </trkpt>
      <trkpt lat="43.64938" lon="1.37878">
        <ele>146</ele>
        <time>2023-05-31T05:34:22Z</time>
      </trkpt>
      <trkpt lat="43.6494" lon="1.3788">
        <ele>146</ele>
        <time>2023-05-31T05:34:23Z</time>
      </trkpt>
      <trkpt lat="43.64942" lon="1.37883">
        <ele>146</ele>
        <time>2023-05-31T05:34:24Z</time>
      </trkpt>
      <trkpt lat="43.64943" lon="1.37885">
        <ele>146</ele>
        <time>2023-05-31T05:34:25Z</time>
      </trkpt>
      <trkpt lat="43.64944" lon="1.37889">
        <ele>146</ele>
        <time>2023-05-31T05:34:26Z</time>
      </trkpt>
      <trkpt lat="43.64944" lon="1.37892">
        <ele>146</ele>
        <time>2023-05-31T05:34:27Z</time>
      </trkpt>
      <trkpt lat="43.64945" lon="1.37896">
        <ele>146</ele>
        <time>2023-05-31T05:34:28Z</time>
      </trkpt>
      <trkpt lat="43.64945" lon="1.37899">
        <ele>146</ele>
        <time>2023-05-31T05:34:29Z</time>
      </trkpt>
      <trkpt lat="43.64945" lon="1.37903">
        <ele>146</ele>
        <time>2023-05-31T05:34:30Z</time>
      </trkpt>
      <trkpt lat="43.64945" lon="1.37906">
        <ele>146</ele>
        <time>2023-05-31T05:34:31Z</time>
      </trkpt>
      <trkpt lat="43.64945" lon="1.37909">
        <ele>146</ele>
        <time>2023-05-31T05:34:32Z</time>
      </trkpt>
      <trkpt lat="43.64944" lon="1.37912">
        <ele>146</ele>
        <time>2023-05-31T05:34:33Z</time>
      </trkpt>
      <trkpt lat="43.64945" lon="1.37914">
        <ele>146</ele>
        <time>2023-05-31T05:34:34Z</time>
      </trkpt>
      <trkpt lat="43.64945" lon="1.37915">
        <ele>146</ele>
        <time>2023-05-31T05:34:35Z</time>
      </trkpt>
      <trkpt lat="43.64945" lon="1.37917">
        <ele>146</ele>
        <time>2023-05-31T05:34:36Z</time>
      </trkpt>
      <trkpt lat="43.64946" lon="1.37918">
        <ele>146</ele>
        <time>2023-05-31T05:34:37Z</time>
      </trkpt>
      <trkpt lat="43.64946" lon="1.3792">
        <ele>146</ele>
        <time>2023-05-31T05:34:38Z</time>
      </trkpt>
      <trkpt lat="43.64949" lon="1.37931">
        <ele>146</ele>
        <time>2023-05-31T05:34:39Z</time>
      </trkpt>
      <trkpt lat="43.6495" lon="1.37934">
        <ele>146</ele>
        <time>2023-05-31T05:34:40Z</time>
      </trkpt>
      <trkpt lat="43.64951" lon="1.37938">
        <ele>146</ele>
        <time>2023-05-31T05:34:41Z</time>
      </trkpt>
      <trkpt lat="43.64952" lon="1.37942">
        <ele>146</ele>
        <time>2023-05-31T05:34:42Z</time>
      </trkpt>
      <trkpt lat="43.64952" lon="1.37944">
        <ele>146</ele>
        <time>2023-05-31T05:34:43Z</time>
      </trkpt>
      <trkpt lat="43.64952" lon="1.37944">
        <ele>146</ele>
        <time>2023-05-31T05:34:44Z</time>
      </trkpt>
      <trkpt lat="43.64954" lon="1.37947">
        <ele>146</ele>
        <time>2023-05-31T05:34:45Z</time>
      </trkpt>
      <trkpt lat="43.64955" lon="1.3795">
        <ele>146</ele>
        <time>2023-05-31T05:34:46Z</time>
      </trkpt>
      <trkpt lat="43.64956" lon="1.37954">
        <ele>146</ele>
        <time>2023-05-31T05:34:47Z</time>
      </trkpt>
      <trkpt lat="43.64957" lon="1.37957">
        <ele>146</ele>
        <time>2023-05-31T05:34:48Z</time>
      </trkpt>
      <trkpt lat="43.64958" lon="1.3796">
        <ele>146</ele>
        <time>2023-05-31T05:34:49Z</time>
      </trkpt>
      <trkpt lat="43.64958" lon="1.37963">
        <ele>146</ele>
        <time>2023-05-31T05:34:50Z</time>
      </trkpt>
      <trkpt lat="43.64959" lon="1.37966">
        <ele>146</ele>
        <time>2023-05-31T05:34:51Z</time>
      </trkpt>
      <trkpt lat="43.64959" lon="1.37969">
        <ele>146</ele>
        <time>2023-05-31T05:34:52Z</time>
      </trkpt>
      <trkpt lat="43.64959" lon="1.37971">
        <ele>146</ele>
        <time>2023-05-31T05:34:53Z</time>
      </trkpt>
      <trkpt lat="43.64961" lon="1.37976">
        <ele>146</ele>
        <time>2023-05-31T05:34:54Z</time>
      </trkpt>
      <trkpt lat="43.64963" lon="1.3798">
        <ele>146</ele>
        <time>2023-05-31T05:34:55Z</time>
      </trkpt>
      <trkpt lat="43.64964" lon="1.37984">
        <ele>146</ele>
        <time>2023-05-31T05:34:56Z</time>
      </trkpt>
      <trkpt lat="43.64966" lon="1.37987">
        <ele>146</ele>
        <time>2023-05-31T05:34:57Z</time>
      </trkpt>
      <trkpt lat="43.64967" lon="1.3799">
        <ele>146</ele>
        <time>2023-05-31T05:34:58Z</time>
      </trkpt>
      <trkpt lat="43.64968" lon="1.37993">
        <ele>146</ele>
        <time>2023-05-31T05:34:59Z</time>
      </trkpt>
      <trkpt lat="43.64969" lon="1.37997">
        <ele>146</ele>
        <time>2023-05-31T05:35:00Z</time>
      </trkpt>
      <trkpt lat="43.6497" lon="1.37999">
        <ele>146</ele>
        <time>2023-05-31T05:35:01Z</time>
      </trkpt>
      <trkpt lat="43.64971" lon="1.38002">
        <ele>146</ele>
        <time>2023-05-31T05:35:02Z</time>
      </trkpt>
      <trkpt lat="43.64972" lon="1.38005">
        <ele>146</ele>
        <time>2023-05-31T05:35:03Z</time>
      </trkpt>
      <trkpt lat="43.64972" lon="1.38008">
        <ele>146</ele>
        <time>2023-05-31T05:35:04Z</time>
      </trkpt>
      <trkpt lat="43.64972" lon="1.38008">
        <ele>146</ele>
        <time>2023-05-31T05:35:05Z</time>
      </trkpt>
      <trkpt lat="43.64974" lon="1.38015">
        <ele>146</ele>
        <time>2023-05-31T05:35:06Z</time>
      </trkpt>
      <trkpt lat="43.64974" lon="1.38016">
        <ele>146</ele>
        <time>2023-05-31T05:35:07Z</time>
      </trkpt>
      <trkpt lat="43.64975" lon="1.38019">
        <ele>146</ele>
        <time>2023-05-31T05:35:08Z</time>
      </trkpt>
      <trkpt lat="43.64975" lon="1.38019">
        <ele>146</ele>
        <time>2023-05-31T05:35:09Z</time>
      </trkpt>
      <trkpt lat="43.64975" lon="1.38021">
        <ele>146</ele>
        <time>2023-05-31T05:35:10Z</time>
      </trkpt>
      <trkpt lat="43.64976" lon="1.38024">
        <ele>146</ele>
        <time>2023-05-31T05:35:11Z</time>
      </trkpt>
      <trkpt lat="43.64976" lon="1.38026">
        <ele>146</ele>
        <time>2023-05-31T05:35:12Z</time>
      </trkpt>
      <trkpt lat="43.64977" lon="1.38029">
        <ele>146</ele>
        <time>2023-05-31T05:35:13Z</time>
      </trkpt>
      <trkpt lat="43.64977" lon="1.38031">
        <ele>146</ele>
        <time>2023-05-31T05:35:14Z</time>
      </trkpt>
      <trkpt lat="43.64978" lon="1.38034">
        <ele>146</ele>
        <time>2023-05-31T05:35:15Z</time>
      </trkpt>
      <trkpt lat="43.6498" lon="1.38038">
        <ele>146</ele>
        <time>2023-05-31T05:35:16Z</time>
      </trkpt>
      <trkpt lat="43.64981" lon="1.38041">
        <ele>146</ele>
        <time>2023-05-31T05:35:17Z</time>
      </trkpt>
      <trkpt lat="43.64982" lon="1.38045">
        <ele>146</ele>
        <time>2023-05-31T05:35:18Z</time>
      </trkpt>
      <trkpt lat="43.64983" lon="1.38047">
        <ele>146</ele>
        <time>2023-05-31T05:35:19Z</time>
      </trkpt>
      <trkpt lat="43.64983" lon="1.3805">
        <ele>146</ele>
        <time>2023-05-31T05:35:20Z</time>
      </trkpt>
      <trkpt lat="43.64984" lon="1.38053">
        <ele>146</ele>
        <time>2023-05-31T05:35:21Z</time>
      </trkpt>
      <trkpt lat="43.64985" lon="1.38055">
        <ele>146</ele>
        <time>2023-05-31T05:35:22Z</time>
      </trkpt>
      <trkpt lat="43.64985" lon="1.38058">
        <ele>146</ele>
        <time>2023-05-31T05:35:23Z</time>
      </trkpt>
      <trkpt lat="43.64986" lon="1.38061">
        <ele>146</ele>
        <time>2023-05-31T05:35:24Z</time>
      </trkpt>
      <trkpt lat="43.64987" lon="1.38064">
        <ele>146</ele>
        <time>2023-05-31T05:35:25Z</time>
      </trkpt>
      <trkpt lat="43.64989" lon="1.38067">
        <ele>146</ele>
        <time>2023-05-31T05:35:26Z</time>
      </trkpt>
      <trkpt lat="43.6499" lon="1.3807">
        <ele>146</ele>
        <time>2023-05-31T05:35:27Z</time>
      </trkpt>
      <trkpt lat="43.64991" lon="1.38072">
        <ele>146</ele>
        <time>2023-05-31T05:35:28Z</time>
      </trkpt>
      <trkpt lat="43.64992" lon="1.38075">
        <ele>146</ele>
        <time>2023-05-31T05:35:29Z</time>
      </trkpt>
      <trkpt lat="43.64993" lon="1.38078">
        <ele>146</ele>
        <time>2023-05-31T05:35:30Z</time>
      </trkpt>
      <trkpt lat="43.64994" lon="1.38081">
        <ele>146</ele>
        <time>2023-05-31T05:35:31Z</time>
      </trkpt>
      <trkpt lat="43.64995" lon="1.38085">
        <ele>146</ele>
        <time>2023-05-31T05:35:32Z</time>
      </trkpt>
      <trkpt lat="43.64996" lon="1.38089">
        <ele>146</ele>
        <time>2023-05-31T05:35:33Z</time>
      </trkpt>
      <trkpt lat="43.64997" lon="1.38092">
        <ele>146</ele>
        <time>2023-05-31T05:35:34Z</time>
      </trkpt>
      <trkpt lat="43.64997" lon="1.38092">
        <ele>146</ele>
        <time>2023-05-31T05:35:35Z</time>
      </trkpt>
      <trkpt lat="43.64997" lon="1.38095">
        <ele>146</ele>
        <time>2023-05-31T05:35:36Z</time>
      </trkpt>
      <trkpt lat="43.64998" lon="1.38098">
        <ele>147</ele>
        <time>2023-05-31T05:35:37Z</time>
      </trkpt>
      <trkpt lat="43.64999" lon="1.38101">
        <ele>147</ele>
        <time>2023-05-31T05:35:38Z</time>
      </trkpt>
      <trkpt lat="43.64999" lon="1.38103">
        <ele>147</ele>
        <time>2023-05-31T05:35:39Z</time>
      </trkpt>
      <trkpt lat="43.65" lon="1.38106">
        <ele>147</ele>
        <time>2023-05-31T05:35:40Z</time>
      </trkpt>
      <trkpt lat="43.65003" lon="1.38114">
        <ele>147</ele>
        <time>2023-05-31T05:35:41Z</time>
      </trkpt>
      <trkpt lat="43.65003" lon="1.38115">
        <ele>147</ele>
        <time>2023-05-31T05:35:42Z</time>
      </trkpt>
      <trkpt lat="43.65004" lon="1.38118">
        <ele>147</ele>
        <time>2023-05-31T05:35:43Z</time>
      </trkpt>
      <trkpt lat="43.65004" lon="1.38118">
        <ele>147</ele>
        <time>2023-05-31T05:35:44Z</time>
      </trkpt>
      <trkpt lat="43.65005" lon="1.3812">
        <ele>147</ele>
        <time>2023-05-31T05:35:45Z</time>
      </trkpt>
      <trkpt lat="43.65006" lon="1.38123">
        <ele>147</ele>
        <time>2023-05-31T05:35:46Z</time>
      </trkpt>
      <trkpt lat="43.65007" lon="1.38125">
        <ele>147</ele>
        <time>2023-05-31T05:35:47Z</time>
      </trkpt>
      <trkpt lat="43.65009" lon="1.38127">
        <ele>147</ele>
        <time>2023-05-31T05:35:48Z</time>
      </trkpt>
      <trkpt lat="43.6501" lon="1.38129">
        <ele>146</ele>
        <time>2023-05-31T05:35:49Z</time>
      </trkpt>
      <trkpt lat="43.65011" lon="1.38131">
        <ele>147</ele>
        <time>2023-05-31T05:35:50Z</time>
      </trkpt>
      <trkpt lat="43.65013" lon="1.38132">
        <ele>147</ele>
        <time>2023-05-31T05:35:51Z</time>
      </trkpt>
      <trkpt lat="43.65015" lon="1.38133">
        <ele>147</ele>
        <time>2023-05-31T05:35:52Z</time>
      </trkpt>
      <trkpt lat="43.65016" lon="1.38134">
        <ele>147</ele>
        <time>2023-05-31T05:35:53Z</time>
      </trkpt>
      <trkpt lat="43.65018" lon="1.38135">
        <ele>147</ele>
        <time>2023-05-31T05:35:54Z</time>
      </trkpt>
      <trkpt lat="43.6502" lon="1.38135">
        <ele>147</ele>
        <time>2023-05-31T05:35:55Z</time>
      </trkpt>
      <trkpt lat="43.65021" lon="1.38136">
        <ele>147</ele>
        <time>2023-05-31T05:35:56Z</time>
      </trkpt>
      <trkpt lat="43.65023" lon="1.38136">
        <ele>147</ele>
        <time>2023-05-31T05:35:57Z</time>
      </trkpt>
      <trkpt lat="43.65025" lon="1.38136">
        <ele>147</ele>
        <time>2023-05-31T05:35:58Z</time>
      </trkpt>
      <trkpt lat="43.65026" lon="1.38136">
        <ele>147</ele>
        <time>2023-05-31T05:35:59Z</time>
      </trkpt>
      <trkpt lat="43.65028" lon="1.38136">
        <ele>147</ele>
        <time>2023-05-31T05:36:00Z</time>
      </trkpt>
      <trkpt lat="43.65031" lon="1.38135">
        <ele>147</ele>
        <time>2023-05-31T05:36:01Z</time>
      </trkpt>
      <trkpt lat="43.65033" lon="1.38137">
        <ele>147</ele>
        <time>2023-05-31T05:36:02Z</time>
      </trkpt>
      <trkpt lat="43.65036" lon="1.38142">
        <ele>148</ele>
        <time>2023-05-31T05:36:03Z</time>
      </trkpt>
      <trkpt lat="43.65039" lon="1.38146">
        <ele>148</ele>
        <time>2023-05-31T05:36:04Z</time>
      </trkpt>
      <trkpt lat="43.6504" lon="1.38149">
        <ele>147</ele>
        <time>2023-05-31T05:36:05Z</time>
      </trkpt>
      <trkpt lat="43.6504" lon="1.38149">
        <ele>147</ele>
        <time>2023-05-31T05:36:06Z</time>
      </trkpt>
      <trkpt lat="43.65047" lon="1.38147">
        <ele>147</ele>
        <time>2023-05-31T05:36:07Z</time>
      </trkpt>
      <trkpt lat="43.65048" lon="1.38146">
        <ele>147</ele>
        <time>2023-05-31T05:36:08Z</time>
      </trkpt>
      <trkpt lat="43.6505" lon="1.38144">
        <ele>147</ele>
        <time>2023-05-31T05:36:09Z</time>
      </trkpt>
      <trkpt lat="43.65053" lon="1.38141">
        <ele>147</ele>
        <time>2023-05-31T05:36:10Z</time>
      </trkpt>
      <trkpt lat="43.65053" lon="1.38141">
        <ele>147</ele>
        <time>2023-05-31T05:36:11Z</time>
      </trkpt>
      <trkpt lat="43.65057" lon="1.38139">
        <ele>146</ele>
        <time>2023-05-31T05:36:12Z</time>
      </trkpt>
      <trkpt lat="43.6506" lon="1.38138">
        <ele>146</ele>
        <time>2023-05-31T05:36:13Z</time>
      </trkpt>
      <trkpt lat="43.65062" lon="1.38136">
        <ele>146</ele>
        <time>2023-05-31T05:36:14Z</time>
      </trkpt>
      <trkpt lat="43.65064" lon="1.38135">
        <ele>146</ele>
        <time>2023-05-31T05:36:15Z</time>
      </trkpt>
      <trkpt lat="43.65064" lon="1.38135">
        <ele>146</ele>
        <time>2023-05-31T05:36:16Z</time>
      </trkpt>
      <trkpt lat="43.65066" lon="1.38133">
        <ele>146</ele>
        <time>2023-05-31T05:36:17Z</time>
      </trkpt>
      <trkpt lat="43.6507" lon="1.3813">
        <ele>146</ele>
        <time>2023-05-31T05:36:18Z</time>
      </trkpt>
      <trkpt lat="43.65072" lon="1.38129">
        <ele>146</ele>
        <time>2023-05-31T05:36:19Z</time>
      </trkpt>
      <trkpt lat="43.65074" lon="1.38127">
        <ele>146</ele>
        <time>2023-05-31T05:36:20Z</time>
      </trkpt>
      <trkpt lat="43.65076" lon="1.38125">
        <ele>146</ele>
        <time>2023-05-31T05:36:21Z</time>
      </trkpt>
      <trkpt lat="43.65078" lon="1.38124">
        <ele>146</ele>
        <time>2023-05-31T05:36:22Z</time>
      </trkpt>
      <trkpt lat="43.65078" lon="1.38124">
        <ele>146</ele>
        <time>2023-05-31T05:36:23Z</time>
      </trkpt>
      <trkpt lat="43.65084" lon="1.38121">
        <ele>146</ele>
        <time>2023-05-31T05:36:24Z</time>
      </trkpt>
      <trkpt lat="43.65085" lon="1.3812">
        <ele>146</ele>
        <time>2023-05-31T05:36:25Z</time>
      </trkpt>
      <trkpt lat="43.65087" lon="1.38119">
        <ele>146</ele>
        <time>2023-05-31T05:36:26Z</time>
      </trkpt>
      <trkpt lat="43.65089" lon="1.38117">
        <ele>146</ele>
        <time>2023-05-31T05:36:27Z</time>
      </trkpt>
      <trkpt lat="43.65089" lon="1.38117">
        <ele>146</ele>
        <time>2023-05-31T05:36:28Z</time>
      </trkpt>
      <trkpt lat="43.65095" lon="1.38112">
        <ele>146</ele>
        <time>2023-05-31T05:36:29Z</time>
      </trkpt>
      <trkpt lat="43.65097" lon="1.38111">
        <ele>146</ele>
        <time>2023-05-31T05:36:30Z</time>
      </trkpt>
      <trkpt lat="43.65099" lon="1.38109">
        <ele>146</ele>
        <time>2023-05-31T05:36:31Z</time>
      </trkpt>
      <trkpt lat="43.65101" lon="1.38107">
        <ele>146</ele>
        <time>2023-05-31T05:36:32Z</time>
      </trkpt>
      <trkpt lat="43.65103" lon="1.38106">
        <ele>146</ele>
        <time>2023-05-31T05:36:33Z</time>
      </trkpt>
      <trkpt lat="43.65106" lon="1.38104">
        <ele>146</ele>
        <time>2023-05-31T05:36:34Z</time>
      </trkpt>
      <trkpt lat="43.65106" lon="1.38104">
        <ele>146</ele>
        <time>2023-05-31T05:36:35Z</time>
      </trkpt>
      <trkpt lat="43.6511" lon="1.38101">
        <ele>146</ele>
        <time>2023-05-31T05:36:36Z</time>
      </trkpt>
      <trkpt lat="43.6511" lon="1.38101">
        <ele>146</ele>
        <time>2023-05-31T05:36:37Z</time>
      </trkpt>
      <trkpt lat="43.65114" lon="1.38098">
        <ele>146</ele>
        <time>2023-05-31T05:36:38Z</time>
      </trkpt>
      <trkpt lat="43.65117" lon="1.38097">
        <ele>146</ele>
        <time>2023-05-31T05:36:39Z</time>
      </trkpt>
      <trkpt lat="43.65119" lon="1.38096">
        <ele>146</ele>
        <time>2023-05-31T05:36:40Z</time>
      </trkpt>
      <trkpt lat="43.65121" lon="1.38094">
        <ele>146</ele>
        <time>2023-05-31T05:36:41Z</time>
      </trkpt>
      <trkpt lat="43.65123" lon="1.38093">
        <ele>146</ele>
        <time>2023-05-31T05:36:42Z</time>
      </trkpt>
      <trkpt lat="43.65125" lon="1.38091">
        <ele>146</ele>
        <time>2023-05-31T05:36:43Z</time>
      </trkpt>
      <trkpt lat="43.65125" lon="1.38091">
        <ele>146</ele>
        <time>2023-05-31T05:36:44Z</time>
      </trkpt>
      <trkpt lat="43.65129" lon="1.38089">
        <ele>147</ele>
        <time>2023-05-31T05:36:45Z</time>
      </trkpt>
      <trkpt lat="43.65129" lon="1.38089">
        <ele>147</ele>
        <time>2023-05-31T05:36:46Z</time>
      </trkpt>
      <trkpt lat="43.65134" lon="1.38086">
        <ele>147</ele>
        <time>2023-05-31T05:36:47Z</time>
      </trkpt>
      <trkpt lat="43.65134" lon="1.38086">
        <ele>147</ele>
        <time>2023-05-31T05:36:48Z</time>
      </trkpt>
      <trkpt lat="43.65139" lon="1.38083">
        <ele>147</ele>
        <time>2023-05-31T05:36:49Z</time>
      </trkpt>
      <trkpt lat="43.6514" lon="1.38082">
        <ele>147</ele>
        <time>2023-05-31T05:36:50Z</time>
      </trkpt>
      <trkpt lat="43.65142" lon="1.38081">
        <ele>147</ele>
        <time>2023-05-31T05:36:51Z</time>
      </trkpt>
      <trkpt lat="43.65144" lon="1.3808">
        <ele>147</ele>
        <time>2023-05-31T05:36:52Z</time>
      </trkpt>
      <trkpt lat="43.65144" lon="1.3808">
        <ele>147</ele>
        <time>2023-05-31T05:36:53Z</time>
      </trkpt>
      <trkpt lat="43.65148" lon="1.38077">
        <ele>147</ele>
        <time>2023-05-31T05:36:54Z</time>
      </trkpt>
      <trkpt lat="43.6515" lon="1.38076">
        <ele>147</ele>
        <time>2023-05-31T05:36:55Z</time>
      </trkpt>
      <trkpt lat="43.65152" lon="1.38074">
        <ele>147</ele>
        <time>2023-05-31T05:36:56Z</time>
      </trkpt>
      <trkpt lat="43.65154" lon="1.38073">
        <ele>147</ele>
        <time>2023-05-31T05:36:57Z</time>
      </trkpt>
      <trkpt lat="43.65156" lon="1.38072">
        <ele>147</ele>
        <time>2023-05-31T05:36:58Z</time>
      </trkpt>
      <trkpt lat="43.65159" lon="1.38071">
        <ele>147</ele>
        <time>2023-05-31T05:36:59Z</time>
      </trkpt>
      <trkpt lat="43.65161" lon="1.3807">
        <ele>148</ele>
        <time>2023-05-31T05:37:00Z</time>
      </trkpt>
      <trkpt lat="43.65163" lon="1.38068">
        <ele>148</ele>
        <time>2023-05-31T05:37:01Z</time>
      </trkpt>
      <trkpt lat="43.65165" lon="1.38067">
        <ele>148</ele>
        <time>2023-05-31T05:37:02Z</time>
      </trkpt>
      <trkpt lat="43.65167" lon="1.38065">
        <ele>148</ele>
        <time>2023-05-31T05:37:03Z</time>
      </trkpt>
      <trkpt lat="43.65169" lon="1.38064">
        <ele>148</ele>
        <time>2023-05-31T05:37:04Z</time>
      </trkpt>
      <trkpt lat="43.65171" lon="1.38063">
        <ele>147</ele>
        <time>2023-05-31T05:37:05Z</time>
      </trkpt>
      <trkpt lat="43.65173" lon="1.38061">
        <ele>147</ele>
        <time>2023-05-31T05:37:06Z</time>
      </trkpt>
      <trkpt lat="43.65175" lon="1.3806">
        <ele>147</ele>
        <time>2023-05-31T05:37:07Z</time>
      </trkpt>
      <trkpt lat="43.65175" lon="1.3806">
        <ele>147</ele>
        <time>2023-05-31T05:37:08Z</time>
      </trkpt>
      <trkpt lat="43.65181" lon="1.38057">
        <ele>147</ele>
        <time>2023-05-31T05:37:09Z</time>
      </trkpt>
      <trkpt lat="43.65181" lon="1.38056">
        <ele>148</ele>
        <time>2023-05-31T05:37:10Z</time>
      </trkpt>
      <trkpt lat="43.65183" lon="1.38054">
        <ele>148</ele>
        <time>2023-05-31T05:37:11Z</time>
      </trkpt>
      <trkpt lat="43.65185" lon="1.38053">
        <ele>148</ele>
        <time>2023-05-31T05:37:12Z</time>
      </trkpt>
      <trkpt lat="43.65188" lon="1.38052">
        <ele>148</ele>
        <time>2023-05-31T05:37:13Z</time>
      </trkpt>
      <trkpt lat="43.6519" lon="1.3805">
        <ele>148</ele>
        <time>2023-05-31T05:37:14Z</time>
      </trkpt>
      <trkpt lat="43.65192" lon="1.38049">
        <ele>148</ele>
        <time>2023-05-31T05:37:15Z</time>
      </trkpt>
      <trkpt lat="43.65194" lon="1.38048">
        <ele>148</ele>
        <time>2023-05-31T05:37:16Z</time>
      </trkpt>
      <trkpt lat="43.65196" lon="1.38047">
        <ele>148</ele>
        <time>2023-05-31T05:37:17Z</time>
      </trkpt>
      <trkpt lat="43.65198" lon="1.38045">
        <ele>147</ele>
        <time>2023-05-31T05:37:18Z</time>
      </trkpt>
      <trkpt lat="43.652" lon="1.38044">
        <ele>148</ele>
        <time>2023-05-31T05:37:19Z</time>
      </trkpt>
      <trkpt lat="43.65202" lon="1.38042">
        <ele>148</ele>
        <time>2023-05-31T05:37:20Z</time>
      </trkpt>
      <trkpt lat="43.65202" lon="1.38042">
        <ele>148</ele>
        <time>2023-05-31T05:37:21Z</time>
      </trkpt>
      <trkpt lat="43.65206" lon="1.3804">
        <ele>148</ele>
        <time>2023-05-31T05:37:22Z</time>
      </trkpt>
      <trkpt lat="43.65206" lon="1.3804">
        <ele>148</ele>
        <time>2023-05-31T05:37:23Z</time>
      </trkpt>
      <trkpt lat="43.6521" lon="1.38037">
        <ele>148</ele>
        <time>2023-05-31T05:37:24Z</time>
      </trkpt>
      <trkpt lat="43.6521" lon="1.38037">
        <ele>148</ele>
        <time>2023-05-31T05:37:25Z</time>
      </trkpt>
      <trkpt lat="43.65212" lon="1.38035">
        <ele>148</ele>
        <time>2023-05-31T05:37:26Z</time>
      </trkpt>
      <trkpt lat="43.65218" lon="1.38035">
        <ele>148</ele>
        <time>2023-05-31T05:37:27Z</time>
      </trkpt>
      <trkpt lat="43.65219" lon="1.38035">
        <ele>148</ele>
        <time>2023-05-31T05:37:28Z</time>
      </trkpt>
      <trkpt lat="43.65221" lon="1.38038">
        <ele>148</ele>
        <time>2023-05-31T05:37:29Z</time>
      </trkpt>
      <trkpt lat="43.65223" lon="1.38042">
        <ele>148</ele>
        <time>2023-05-31T05:37:30Z</time>
      </trkpt>
      <trkpt lat="43.65224" lon="1.38046">
        <ele>148</ele>
        <time>2023-05-31T05:37:31Z</time>
      </trkpt>
      <trkpt lat="43.65225" lon="1.38049">
        <ele>148</ele>
        <time>2023-05-31T05:37:32Z</time>
      </trkpt>
      <trkpt lat="43.65226" lon="1.38052">
        <ele>148</ele>
        <time>2023-05-31T05:37:33Z</time>
      </trkpt>
      <trkpt lat="43.65227" lon="1.38055">
        <ele>148</ele>
        <time>2023-05-31T05:37:34Z</time>
      </trkpt>
      <trkpt lat="43.65228" lon="1.38058">
        <ele>148</ele>
        <time>2023-05-31T05:37:35Z</time>
      </trkpt>
      <trkpt lat="43.65229" lon="1.38061">
        <ele>148</ele>
        <time>2023-05-31T05:37:36Z</time>
      </trkpt>
      <trkpt lat="43.6523" lon="1.38065">
        <ele>148</ele>
        <time>2023-05-31T05:37:37Z</time>
      </trkpt>
      <trkpt lat="43.6523" lon="1.38067">
        <ele>148</ele>
        <time>2023-05-31T05:37:38Z</time>
      </trkpt>
      <trkpt lat="43.65231" lon="1.38071">
        <ele>148</ele>
        <time>2023-05-31T05:37:39Z</time>
      </trkpt>
      <trkpt lat="43.65232" lon="1.38074">
        <ele>148</ele>
        <time>2023-05-31T05:37:40Z</time>
      </trkpt>
      <trkpt lat="43.65233" lon="1.38077">
        <ele>147</ele>
        <time>2023-05-31T05:37:41Z</time>
      </trkpt>
      <trkpt lat="43.65234" lon="1.3808">
        <ele>147</ele>
        <time>2023-05-31T05:37:42Z</time>
      </trkpt>
      <trkpt lat="43.65235" lon="1.38083">
        <ele>147</ele>
        <time>2023-05-31T05:37:43Z</time>
      </trkpt>
      <trkpt lat="43.65236" lon="1.38085">
        <ele>147</ele>
        <time>2023-05-31T05:37:44Z</time>
      </trkpt>
      <trkpt lat="43.65237" lon="1.38088">
        <ele>147</ele>
        <time>2023-05-31T05:37:45Z</time>
      </trkpt>
      <trkpt lat="43.65238" lon="1.38091">
        <ele>147</ele>
        <time>2023-05-31T05:37:46Z</time>
      </trkpt>
      <trkpt lat="43.65238" lon="1.38094">
        <ele>147</ele>
        <time>2023-05-31T05:37:47Z</time>
      </trkpt>
      <trkpt lat="43.65239" lon="1.38097">
        <ele>147</ele>
        <time>2023-05-31T05:37:48Z</time>
      </trkpt>
      <trkpt lat="43.6524" lon="1.381">
        <ele>147</ele>
        <time>2023-05-31T05:37:49Z</time>
      </trkpt>
      <trkpt lat="43.65241" lon="1.38103">
        <ele>147</ele>
        <time>2023-05-31T05:37:50Z</time>
      </trkpt>
      <trkpt lat="43.65242" lon="1.38106">
        <ele>148</ele>
        <time>2023-05-31T05:37:51Z</time>
      </trkpt>
      <trkpt lat="43.65243" lon="1.38109">
        <ele>148</ele>
        <time>2023-05-31T05:37:52Z</time>
      </trkpt>
      <trkpt lat="43.65243" lon="1.38109">
        <ele>148</ele>
        <time>2023-05-31T05:37:53Z</time>
      </trkpt>
      <trkpt lat="43.65244" lon="1.38115">
        <ele>148</ele>
        <time>2023-05-31T05:37:54Z</time>
      </trkpt>
      <trkpt lat="43.65245" lon="1.38118">
        <ele>148</ele>
        <time>2023-05-31T05:37:55Z</time>
      </trkpt>
      <trkpt lat="43.65246" lon="1.38121">
        <ele>148</ele>
        <time>2023-05-31T05:37:56Z</time>
      </trkpt>
      <trkpt lat="43.65247" lon="1.38124">
        <ele>148</ele>
        <time>2023-05-31T05:37:57Z</time>
      </trkpt>
      <trkpt lat="43.65247" lon="1.38124">
        <ele>147</ele>
        <time>2023-05-31T05:37:58Z</time>
      </trkpt>
      <trkpt lat="43.65244" lon="1.38132">
        <ele>147</ele>
        <time>2023-05-31T05:37:59Z</time>
      </trkpt>
      <trkpt lat="43.65243" lon="1.38134">
        <ele>147</ele>
        <time>2023-05-31T05:38:00Z</time>
      </trkpt>
      <trkpt lat="43.65243" lon="1.38134">
        <ele>147</ele>
        <time>2023-05-31T05:38:01Z</time>
      </trkpt>
      <trkpt lat="43.65239" lon="1.38137">
        <ele>147</ele>
        <time>2023-05-31T05:38:02Z</time>
      </trkpt>
      <trkpt lat="43.65237" lon="1.38138">
        <ele>147</ele>
        <time>2023-05-31T05:38:03Z</time>
      </trkpt>
      <trkpt lat="43.65234" lon="1.38139">
        <ele>146</ele>
        <time>2023-05-31T05:38:04Z</time>
      </trkpt>
      <trkpt lat="43.65232" lon="1.3814">
        <ele>146</ele>
        <time>2023-05-31T05:38:05Z</time>
      </trkpt>
      <trkpt lat="43.6523" lon="1.38142">
        <ele>146</ele>
        <time>2023-05-31T05:38:06Z</time>
      </trkpt>
      <trkpt lat="43.65228" lon="1.38143">
        <ele>146</ele>
        <time>2023-05-31T05:38:07Z</time>
      </trkpt>
      <trkpt lat="43.65226" lon="1.38145">
        <ele>146</ele>
        <time>2023-05-31T05:38:08Z</time>
      </trkpt>
      <trkpt lat="43.65224" lon="1.38146">
        <ele>146</ele>
        <time>2023-05-31T05:38:09Z</time>
      </trkpt>
      <trkpt lat="43.65221" lon="1.38148">
        <ele>146</ele>
        <time>2023-05-31T05:38:10Z</time>
      </trkpt>
      <trkpt lat="43.65219" lon="1.38149">
        <ele>147</ele>
        <time>2023-05-31T05:38:11Z</time>
      </trkpt>
      <trkpt lat="43.65217" lon="1.38151">
        <ele>147</ele>
        <time>2023-05-31T05:38:12Z</time>
      </trkpt>
      <trkpt lat="43.65215" lon="1.38152">
        <ele>147</ele>
        <time>2023-05-31T05:38:13Z</time>
      </trkpt>
      <trkpt lat="43.65213" lon="1.38154">
        <ele>147</ele>
        <time>2023-05-31T05:38:14Z</time>
      </trkpt>
      <trkpt lat="43.65211" lon="1.38155">
        <ele>147</ele>
        <time>2023-05-31T05:38:15Z</time>
      </trkpt>
      <trkpt lat="43.65208" lon="1.38156">
        <ele>146</ele>
        <time>2023-05-31T05:38:16Z</time>
      </trkpt>
      <trkpt lat="43.65206" lon="1.38158">
        <ele>146</ele>
        <time>2023-05-31T05:38:17Z</time>
      </trkpt>
      <trkpt lat="43.65204" lon="1.38159">
        <ele>146</ele>
        <time>2023-05-31T05:38:18Z</time>
      </trkpt>
      <trkpt lat="43.65202" lon="1.38161">
        <ele>146</ele>
        <time>2023-05-31T05:38:19Z</time>
      </trkpt>
      <trkpt lat="43.652" lon="1.38163">
        <ele>146</ele>
        <time>2023-05-31T05:38:20Z</time>
      </trkpt>
      <trkpt lat="43.652" lon="1.38163">
        <ele>147</ele>
        <time>2023-05-31T05:38:21Z</time>
      </trkpt>
      <trkpt lat="43.65196" lon="1.38168">
        <ele>147</ele>
        <time>2023-05-31T05:38:22Z</time>
      </trkpt>
      <trkpt lat="43.65195" lon="1.38169">
        <ele>147</ele>
        <time>2023-05-31T05:38:23Z</time>
      </trkpt>
      <trkpt lat="43.65193" lon="1.38172">
        <ele>147</ele>
        <time>2023-05-31T05:38:24Z</time>
      </trkpt>
      <trkpt lat="43.65191" lon="1.38174">
        <ele>146</ele>
        <time>2023-05-31T05:38:25Z</time>
      </trkpt>
      <trkpt lat="43.65189" lon="1.38176">
        <ele>146</ele>
        <time>2023-05-31T05:38:26Z</time>
      </trkpt>
      <trkpt lat="43.65187" lon="1.38179">
        <ele>146</ele>
        <time>2023-05-31T05:38:27Z</time>
      </trkpt>
      <trkpt lat="43.65187" lon="1.38179">
        <ele>146</ele>
        <time>2023-05-31T05:38:28Z</time>
      </trkpt>
      <trkpt lat="43.65183" lon="1.38184">
        <ele>146</ele>
        <time>2023-05-31T05:38:29Z</time>
      </trkpt>
      <trkpt lat="43.65182" lon="1.38185">
        <ele>146</ele>
        <time>2023-05-31T05:38:30Z</time>
      </trkpt>
      <trkpt lat="43.6518" lon="1.38187">
        <ele>146</ele>
        <time>2023-05-31T05:38:31Z</time>
      </trkpt>
      <trkpt lat="43.65178" lon="1.38189">
        <ele>146</ele>
        <time>2023-05-31T05:38:32Z</time>
      </trkpt>
      <trkpt lat="43.65178" lon="1.38189">
        <ele>146</ele>
        <time>2023-05-31T05:38:33Z</time>
      </trkpt>
      <trkpt lat="43.65174" lon="1.38193">
        <ele>146</ele>
        <time>2023-05-31T05:38:34Z</time>
      </trkpt>
      <trkpt lat="43.65173" lon="1.38194">
        <ele>146</ele>
        <time>2023-05-31T05:38:35Z</time>
      </trkpt>
      <trkpt lat="43.65171" lon="1.38196">
        <ele>146</ele>
        <time>2023-05-31T05:38:36Z</time>
      </trkpt>
      <trkpt lat="43.65169" lon="1.38198">
        <ele>146</ele>
        <time>2023-05-31T05:38:37Z</time>
      </trkpt>
      <trkpt lat="43.65168" lon="1.382">
        <ele>146</ele>
        <time>2023-05-31T05:38:38Z</time>
      </trkpt>
      <trkpt lat="43.65166" lon="1.38203">
        <ele>146</ele>
        <time>2023-05-31T05:38:39Z</time>
      </trkpt>
      <trkpt lat="43.65166" lon="1.38206">
        <ele>146</ele>
        <time>2023-05-31T05:38:40Z</time>
      </trkpt>
      <trkpt lat="43.65165" lon="1.38209">
        <ele>146</ele>
        <time>2023-05-31T05:38:41Z</time>
      </trkpt>
      <trkpt lat="43.65165" lon="1.38212">
        <ele>146</ele>
        <time>2023-05-31T05:38:42Z</time>
      </trkpt>
      <trkpt lat="43.65165" lon="1.38212">
        <ele>146</ele>
        <time>2023-05-31T05:38:43Z</time>
      </trkpt>
      <trkpt lat="43.65166" lon="1.38219">
        <ele>146</ele>
        <time>2023-05-31T05:38:44Z</time>
      </trkpt>
      <trkpt lat="43.65166" lon="1.38222">
        <ele>146</ele>
        <time>2023-05-31T05:38:45Z</time>
      </trkpt>
      <trkpt lat="43.65166" lon="1.38225">
        <ele>146</ele>
        <time>2023-05-31T05:38:46Z</time>
      </trkpt>
      <trkpt lat="43.65166" lon="1.38228">
        <ele>146</ele>
        <time>2023-05-31T05:38:47Z</time>
      </trkpt>
      <trkpt lat="43.65167" lon="1.38231">
        <ele>146</ele>
        <time>2023-05-31T05:38:48Z</time>
      </trkpt>
      <trkpt lat="43.65167" lon="1.38234">
        <ele>145</ele>
        <time>2023-05-31T05:38:49Z</time>
      </trkpt>
      <trkpt lat="43.65168" lon="1.38238">
        <ele>145</ele>
        <time>2023-05-31T05:38:50Z</time>
      </trkpt>
      <trkpt lat="43.65168" lon="1.38238">
        <ele>145</ele>
        <time>2023-05-31T05:38:51Z</time>
      </trkpt>
      <trkpt lat="43.65169" lon="1.38243">
        <ele>146</ele>
        <time>2023-05-31T05:38:52Z</time>
      </trkpt>
      <trkpt lat="43.6517" lon="1.38246">
        <ele>146</ele>
        <time>2023-05-31T05:38:53Z</time>
      </trkpt>
      <trkpt lat="43.65171" lon="1.38249">
        <ele>146</ele>
        <time>2023-05-31T05:38:54Z</time>
      </trkpt>
      <trkpt lat="43.65171" lon="1.38252">
        <ele>146</ele>
        <time>2023-05-31T05:38:55Z</time>
      </trkpt>
      <trkpt lat="43.65172" lon="1.38255">
        <ele>146</ele>
        <time>2023-05-31T05:38:56Z</time>
      </trkpt>
      <trkpt lat="43.65173" lon="1.38258">
        <ele>146</ele>
        <time>2023-05-31T05:38:57Z</time>
      </trkpt>
      <trkpt lat="43.65173" lon="1.38261">
        <ele>146</ele>
        <time>2023-05-31T05:38:58Z</time>
      </trkpt>
      <trkpt lat="43.65174" lon="1.38264">
        <ele>146</ele>
        <time>2023-05-31T05:38:59Z</time>
      </trkpt>
      <trkpt lat="43.65174" lon="1.38267">
        <ele>145</ele>
        <time>2023-05-31T05:39:00Z</time>
      </trkpt>
      <trkpt lat="43.65175" lon="1.3827">
        <ele>145</ele>
        <time>2023-05-31T05:39:01Z</time>
      </trkpt>
      <trkpt lat="43.65175" lon="1.3827">
        <ele>145</ele>
        <time>2023-05-31T05:39:02Z</time>
      </trkpt>
      <trkpt lat="43.65176" lon="1.38276">
        <ele>145</ele>
        <time>2023-05-31T05:39:03Z</time>
      </trkpt>
      <trkpt lat="43.65177" lon="1.38279">
        <ele>145</ele>
        <time>2023-05-31T05:39:04Z</time>
      </trkpt>
      <trkpt lat="43.65177" lon="1.38282">
        <ele>145</ele>
        <time>2023-05-31T05:39:05Z</time>
      </trkpt>
      <trkpt lat="43.65178" lon="1.38286">
        <ele>145</ele>
        <time>2023-05-31T05:39:06Z</time>
      </trkpt>
      <trkpt lat="43.65179" lon="1.38289">
        <ele>145</ele>
        <time>2023-05-31T05:39:07Z</time>
      </trkpt>
      <trkpt lat="43.65179" lon="1.38292">
        <ele>145</ele>
        <time>2023-05-31T05:39:08Z</time>
      </trkpt>
      <trkpt lat="43.6518" lon="1.38295">
        <ele>145</ele>
        <time>2023-05-31T05:39:09Z</time>
      </trkpt>
      <trkpt lat="43.65181" lon="1.38298">
        <ele>145</ele>
        <time>2023-05-31T05:39:10Z</time>
      </trkpt>
      <trkpt lat="43.65181" lon="1.38301">
        <ele>145</ele>
        <time>2023-05-31T05:39:11Z</time>
      </trkpt>
      <trkpt lat="43.65182" lon="1.38304">
        <ele>145</ele>
        <time>2023-05-31T05:39:12Z</time>
      </trkpt>
      <trkpt lat="43.65182" lon="1.38304">
        <ele>145</ele>
        <time>2023-05-31T05:39:13Z</time>
      </trkpt>
      <trkpt lat="43.65183" lon="1.38312">
        <ele>145</ele>
        <time>2023-05-31T05:39:14Z</time>
      </trkpt>
      <trkpt lat="43.65183" lon="1.38314">
        <ele>145</ele>
        <time>2023-05-31T05:39:15Z</time>
      </trkpt>
      <trkpt lat="43.65183" lon="1.38317">
        <ele>145</ele>
        <time>2023-05-31T05:39:16Z</time>
      </trkpt>
      <trkpt lat="43.65184" lon="1.3832">
        <ele>145</ele>
        <time>2023-05-31T05:39:17Z</time>
      </trkpt>
      <trkpt lat="43.65184" lon="1.3832">
        <ele>146</ele>
        <time>2023-05-31T05:39:18Z</time>
      </trkpt>
      <trkpt lat="43.65185" lon="1.38328">
        <ele>146</ele>
        <time>2023-05-31T05:39:19Z</time>
      </trkpt>
      <trkpt lat="43.65185" lon="1.3833">
        <ele>146</ele>
        <time>2023-05-31T05:39:20Z</time>
      </trkpt>
      <trkpt lat="43.65186" lon="1.38333">
        <ele>146</ele>
        <time>2023-05-31T05:39:21Z</time>
      </trkpt>
      <trkpt lat="43.65186" lon="1.38336">
        <ele>146</ele>
        <time>2023-05-31T05:39:22Z</time>
      </trkpt>
      <trkpt lat="43.65187" lon="1.3834">
        <ele>146</ele>
        <time>2023-05-31T05:39:23Z</time>
      </trkpt>
      <trkpt lat="43.65187" lon="1.38343">
        <ele>146</ele>
        <time>2023-05-31T05:39:24Z</time>
      </trkpt>
      <trkpt lat="43.65188" lon="1.38346">
        <ele>145</ele>
        <time>2023-05-31T05:39:25Z</time>
      </trkpt>
      <trkpt lat="43.65188" lon="1.38349">
        <ele>145</ele>
        <time>2023-05-31T05:39:26Z</time>
      </trkpt>
      <trkpt lat="43.65189" lon="1.38352">
        <ele>146</ele>
        <time>2023-05-31T05:39:27Z</time>
      </trkpt>
      <trkpt lat="43.65189" lon="1.38356">
        <ele>146</ele>
        <time>2023-05-31T05:39:28Z</time>
      </trkpt>
      <trkpt lat="43.65189" lon="1.38359">
        <ele>146</ele>
        <time>2023-05-31T05:39:29Z</time>
      </trkpt>
      <trkpt lat="43.6519" lon="1.38362">
        <ele>146</ele>
        <time>2023-05-31T05:39:30Z</time>
      </trkpt>
      <trkpt lat="43.6519" lon="1.38365">
        <ele>146</ele>
        <time>2023-05-31T05:39:31Z</time>
      </trkpt>
      <trkpt lat="43.6519" lon="1.38365">
        <ele>146</ele>
        <time>2023-05-31T05:39:32Z</time>
      </trkpt>
      <trkpt lat="43.65191" lon="1.38373">
        <ele>146</ele>
        <time>2023-05-31T05:39:33Z</time>
      </trkpt>
      <trkpt lat="43.65191" lon="1.38375">
        <ele>146</ele>
        <time>2023-05-31T05:39:34Z</time>
      </trkpt>
      <trkpt lat="43.65192" lon="1.38378">
        <ele>146</ele>
        <time>2023-05-31T05:39:35Z</time>
      </trkpt>
      <trkpt lat="43.65193" lon="1.38382">
        <ele>146</ele>
        <time>2023-05-31T05:39:36Z</time>
      </trkpt>
      <trkpt lat="43.65194" lon="1.38385">
        <ele>146</ele>
        <time>2023-05-31T05:39:37Z</time>
      </trkpt>
      <trkpt lat="43.65195" lon="1.38388">
        <ele>146</ele>
        <time>2023-05-31T05:39:38Z</time>
      </trkpt>
      <trkpt lat="43.65195" lon="1.38388">
        <ele>146</ele>
        <time>2023-05-31T05:39:39Z</time>
      </trkpt>
      <trkpt lat="43.65198" lon="1.38394">
        <ele>146</ele>
        <time>2023-05-31T05:39:40Z</time>
      </trkpt>
      <trkpt lat="43.65198" lon="1.38394">
        <ele>146</ele>
        <time>2023-05-31T05:39:41Z</time>
      </trkpt>
      <trkpt lat="43.65201" lon="1.384">
        <ele>145</ele>
        <time>2023-05-31T05:39:42Z</time>
      </trkpt>
      <trkpt lat="43.65202" lon="1.38402">
        <ele>145</ele>
        <time>2023-05-31T05:39:43Z</time>
      </trkpt>
      <trkpt lat="43.65204" lon="1.38404">
        <ele>145</ele>
        <time>2023-05-31T05:39:44Z</time>
      </trkpt>
      <trkpt lat="43.65205" lon="1.38407">
        <ele>145</ele>
        <time>2023-05-31T05:39:45Z</time>
      </trkpt>
      <trkpt lat="43.65207" lon="1.38409">
        <ele>145</ele>
        <time>2023-05-31T05:39:46Z</time>
      </trkpt>
      <trkpt lat="43.65208" lon="1.38412">
        <ele>145</ele>
        <time>2023-05-31T05:39:47Z</time>
      </trkpt>
      <trkpt lat="43.65208" lon="1.38412">
        <ele>144</ele>
        <time>2023-05-31T05:39:48Z</time>
      </trkpt>
      <trkpt lat="43.65212" lon="1.38419">
        <ele>143</ele>
        <time>2023-05-31T05:39:49Z</time>
      </trkpt>
      <trkpt lat="43.65212" lon="1.3842">
        <ele>143</ele>
        <time>2023-05-31T05:39:50Z</time>
      </trkpt>
      <trkpt lat="43.65214" lon="1.38423">
        <ele>143</ele>
        <time>2023-05-31T05:39:51Z</time>
      </trkpt>
      <trkpt lat="43.65215" lon="1.38425">
        <ele>143</ele>
        <time>2023-05-31T05:39:52Z</time>
      </trkpt>
      <trkpt lat="43.65215" lon="1.38425">
        <ele>143</ele>
        <time>2023-05-31T05:39:53Z</time>
      </trkpt>
      <trkpt lat="43.65216" lon="1.38427">
        <ele>143</ele>
        <time>2023-05-31T05:39:54Z</time>
      </trkpt>
      <trkpt lat="43.65216" lon="1.38427">
        <ele>143</ele>
        <time>2023-05-31T05:39:55Z</time>
      </trkpt>
      <trkpt lat="43.65217" lon="1.38429">
        <ele>143</ele>
        <time>2023-05-31T05:39:56Z</time>
      </trkpt>
      <trkpt lat="43.65218" lon="1.38434">
        <ele>142</ele>
        <time>2023-05-31T05:39:57Z</time>
      </trkpt>
      <trkpt lat="43.6522" lon="1.38438">
        <ele>142</ele>
        <time>2023-05-31T05:39:58Z</time>
      </trkpt>
      <trkpt lat="43.65221" lon="1.38443">
        <ele>142</ele>
        <time>2023-05-31T05:39:59Z</time>
      </trkpt>
      <trkpt lat="43.65223" lon="1.38445">
        <ele>142</ele>
        <time>2023-05-31T05:40:00Z</time>
      </trkpt>
      <trkpt lat="43.65224" lon="1.38449">
        <ele>142</ele>
        <time>2023-05-31T05:40:01Z</time>
      </trkpt>
      <trkpt lat="43.65225" lon="1.38452">
        <ele>142</ele>
        <time>2023-05-31T05:40:02Z</time>
      </trkpt>
      <trkpt lat="43.65227" lon="1.38454">
        <ele>142</ele>
        <time>2023-05-31T05:40:03Z</time>
      </trkpt>
      <trkpt lat="43.65227" lon="1.38454">
        <ele>142</ele>
        <time>2023-05-31T05:40:04Z</time>
      </trkpt>
      <trkpt lat="43.65228" lon="1.38461">
        <ele>142</ele>
        <time>2023-05-31T05:40:05Z</time>
      </trkpt>
      <trkpt lat="43.65229" lon="1.38463">
        <ele>142</ele>
        <time>2023-05-31T05:40:06Z</time>
      </trkpt>
      <trkpt lat="43.65229" lon="1.38465">
        <ele>141</ele>
        <time>2023-05-31T05:40:07Z</time>
      </trkpt>
      <trkpt lat="43.65229" lon="1.38468">
        <ele>141</ele>
        <time>2023-05-31T05:40:08Z</time>
      </trkpt>
      <trkpt lat="43.6523" lon="1.38471">
        <ele>142</ele>
        <time>2023-05-31T05:40:09Z</time>
      </trkpt>
      <trkpt lat="43.65231" lon="1.38474">
        <ele>142</ele>
        <time>2023-05-31T05:40:10Z</time>
      </trkpt>
      <trkpt lat="43.65231" lon="1.38474">
        <ele>142</ele>
        <time>2023-05-31T05:40:11Z</time>
      </trkpt>
      <trkpt lat="43.65233" lon="1.3848">
        <ele>142</ele>
        <time>2023-05-31T05:40:12Z</time>
      </trkpt>
      <trkpt lat="43.65233" lon="1.3848">
        <ele>142</ele>
        <time>2023-05-31T05:40:13Z</time>
      </trkpt>
      <trkpt lat="43.65234" lon="1.38486">
        <ele>142</ele>
        <time>2023-05-31T05:40:14Z</time>
      </trkpt>
      <trkpt lat="43.65235" lon="1.38487">
        <ele>142</ele>
        <time>2023-05-31T05:40:15Z</time>
      </trkpt>
      <trkpt lat="43.65236" lon="1.3849">
        <ele>142</ele>
        <time>2023-05-31T05:40:16Z</time>
      </trkpt>
      <trkpt lat="43.65237" lon="1.38493">
        <ele>142</ele>
        <time>2023-05-31T05:40:17Z</time>
      </trkpt>
      <trkpt lat="43.65239" lon="1.38497">
        <ele>142</ele>
        <time>2023-05-31T05:40:18Z</time>
      </trkpt>
      <trkpt lat="43.6524" lon="1.385">
        <ele>142</ele>
        <time>2023-05-31T05:40:19Z</time>
      </trkpt>
      <trkpt lat="43.65241" lon="1.38503">
        <ele>142</ele>
        <time>2023-05-31T05:40:20Z</time>
      </trkpt>
      <trkpt lat="43.65241" lon="1.38507">
        <ele>142</ele>
        <time>2023-05-31T05:40:21Z</time>
      </trkpt>
      <trkpt lat="43.65242" lon="1.3851">
        <ele>142</ele>
        <time>2023-05-31T05:40:22Z</time>
      </trkpt>
      <trkpt lat="43.65242" lon="1.3851">
        <ele>142</ele>
        <time>2023-05-31T05:40:23Z</time>
      </trkpt>
      <trkpt lat="43.65243" lon="1.38515">
        <ele>142</ele>
        <time>2023-05-31T05:40:24Z</time>
      </trkpt>
      <trkpt lat="43.65244" lon="1.38518">
        <ele>142</ele>
        <time>2023-05-31T05:40:25Z</time>
      </trkpt>
      <trkpt lat="43.65244" lon="1.38521">
        <ele>142</ele>
        <time>2023-05-31T05:40:26Z</time>
      </trkpt>
      <trkpt lat="43.65245" lon="1.38524">
        <ele>142</ele>
        <time>2023-05-31T05:40:27Z</time>
      </trkpt>
      <trkpt lat="43.65245" lon="1.38524">
        <ele>142</ele>
        <time>2023-05-31T05:40:28Z</time>
      </trkpt>
      <trkpt lat="43.65247" lon="1.38528">
        <ele>142</ele>
        <time>2023-05-31T05:40:29Z</time>
      </trkpt>
      <trkpt lat="43.65248" lon="1.38533">
        <ele>142</ele>
        <time>2023-05-31T05:40:30Z</time>
      </trkpt>
      <trkpt lat="43.65249" lon="1.38537">
        <ele>142</ele>
        <time>2023-05-31T05:40:31Z</time>
      </trkpt>
      <trkpt lat="43.6525" lon="1.38542">
        <ele>142</ele>
        <time>2023-05-31T05:40:32Z</time>
      </trkpt>
      <trkpt lat="43.65252" lon="1.38548">
        <ele>142</ele>
        <time>2023-05-31T05:40:33Z</time>
      </trkpt>
      <trkpt lat="43.65252" lon="1.38549">
        <ele>141</ele>
        <time>2023-05-31T05:40:34Z</time>
      </trkpt>
      <trkpt lat="43.65253" lon="1.38553">
        <ele>141</ele>
        <time>2023-05-31T05:40:35Z</time>
      </trkpt>
      <trkpt lat="43.65254" lon="1.38556">
        <ele>141</ele>
        <time>2023-05-31T05:40:36Z</time>
      </trkpt>
      <trkpt lat="43.65255" lon="1.38559">
        <ele>142</ele>
        <time>2023-05-31T05:40:37Z</time>
      </trkpt>
      <trkpt lat="43.65256" lon="1.38563">
        <ele>142</ele>
        <time>2023-05-31T05:40:38Z</time>
      </trkpt>
      <trkpt lat="43.65257" lon="1.38565">
        <ele>142</ele>
        <time>2023-05-31T05:40:39Z</time>
      </trkpt>
      <trkpt lat="43.65257" lon="1.38565">
        <ele>142</ele>
        <time>2023-05-31T05:40:40Z</time>
      </trkpt>
      <trkpt lat="43.65259" lon="1.38568">
        <ele>141</ele>
        <time>2023-05-31T05:40:41Z</time>
      </trkpt>
      <trkpt lat="43.65261" lon="1.38575">
        <ele>141</ele>
        <time>2023-05-31T05:40:42Z</time>
      </trkpt>
      <trkpt lat="43.65262" lon="1.38577">
        <ele>141</ele>
        <time>2023-05-31T05:40:43Z</time>
      </trkpt>
      <trkpt lat="43.65263" lon="1.38581">
        <ele>141</ele>
        <time>2023-05-31T05:40:44Z</time>
      </trkpt>
      <trkpt lat="43.65263" lon="1.38581">
        <ele>141</ele>
        <time>2023-05-31T05:40:45Z</time>
      </trkpt>
      <trkpt lat="43.65265" lon="1.38588">
        <ele>141</ele>
        <time>2023-05-31T05:40:46Z</time>
      </trkpt>
      <trkpt lat="43.65265" lon="1.38588">
        <ele>141</ele>
        <time>2023-05-31T05:40:47Z</time>
      </trkpt>
      <trkpt lat="43.65268" lon="1.38595">
        <ele>141</ele>
        <time>2023-05-31T05:40:48Z</time>
      </trkpt>
      <trkpt lat="43.65268" lon="1.38595">
        <ele>141</ele>
        <time>2023-05-31T05:40:49Z</time>
      </trkpt>
      <trkpt lat="43.6527" lon="1.386">
        <ele>141</ele>
        <time>2023-05-31T05:40:50Z</time>
      </trkpt>
      <trkpt lat="43.6527" lon="1.386">
        <ele>141</ele>
        <time>2023-05-31T05:40:51Z</time>
      </trkpt>
      <trkpt lat="43.65271" lon="1.38603">
        <ele>141</ele>
        <time>2023-05-31T05:40:52Z</time>
      </trkpt>
      <trkpt lat="43.65271" lon="1.38603">
        <ele>141</ele>
        <time>2023-05-31T05:40:53Z</time>
      </trkpt>
      <trkpt lat="43.65276" lon="1.38611">
        <ele>141</ele>
        <time>2023-05-31T05:40:54Z</time>
      </trkpt>
      <trkpt lat="43.65276" lon="1.38611">
        <ele>141</ele>
        <time>2023-05-31T05:40:55Z</time>
      </trkpt>
      <trkpt lat="43.65276" lon="1.38612">
        <ele>142</ele>
        <time>2023-05-31T05:40:56Z</time>
      </trkpt>
      <trkpt lat="43.65277" lon="1.38613">
        <ele>142</ele>
        <time>2023-05-31T05:40:57Z</time>
      </trkpt>
      <trkpt lat="43.65278" lon="1.38615">
        <ele>142</ele>
        <time>2023-05-31T05:40:58Z</time>
      </trkpt>
      <trkpt lat="43.65279" lon="1.38616">
        <ele>142</ele>
        <time>2023-05-31T05:40:59Z</time>
      </trkpt>
      <trkpt lat="43.65282" lon="1.38621">
        <ele>142</ele>
        <time>2023-05-31T05:41:00Z</time>
      </trkpt>
      <trkpt lat="43.65284" lon="1.38625">
        <ele>142</ele>
        <time>2023-05-31T05:41:01Z</time>
      </trkpt>
      <trkpt lat="43.65287" lon="1.3863">
        <ele>142</ele>
        <time>2023-05-31T05:41:02Z</time>
      </trkpt>
      <trkpt lat="43.65288" lon="1.38631">
        <ele>142</ele>
        <time>2023-05-31T05:41:03Z</time>
      </trkpt>
      <trkpt lat="43.65291" lon="1.38638">
        <ele>142</ele>
        <time>2023-05-31T05:41:04Z</time>
      </trkpt>
      <trkpt lat="43.65292" lon="1.38641">
        <ele>142</ele>
        <time>2023-05-31T05:41:05Z</time>
      </trkpt>
      <trkpt lat="43.65293" lon="1.38644">
        <ele>142</ele>
        <time>2023-05-31T05:41:06Z</time>
      </trkpt>
      <trkpt lat="43.65293" lon="1.38644">
        <ele>142</ele>
        <time>2023-05-31T05:41:07Z</time>
      </trkpt>
      <trkpt lat="43.65295" lon="1.38649">
        <ele>142</ele>
        <time>2023-05-31T05:41:08Z</time>
      </trkpt>
      <trkpt lat="43.65297" lon="1.38655">
        <ele>142</ele>
        <time>2023-05-31T05:41:09Z</time>
      </trkpt>
      <trkpt lat="43.65297" lon="1.38655">
        <ele>142</ele>
        <time>2023-05-31T05:41:10Z</time>
      </trkpt>
      <trkpt lat="43.65299" lon="1.38663">
        <ele>142</ele>
        <time>2023-05-31T05:41:11Z</time>
      </trkpt>
      <trkpt lat="43.65299" lon="1.38664">
        <ele>142</ele>
        <time>2023-05-31T05:41:12Z</time>
      </trkpt>
      <trkpt lat="43.65301" lon="1.38668">
        <ele>142</ele>
        <time>2023-05-31T05:41:13Z</time>
      </trkpt>
      <trkpt lat="43.65302" lon="1.3867">
        <ele>142</ele>
        <time>2023-05-31T05:41:14Z</time>
      </trkpt>
      <trkpt lat="43.65302" lon="1.3867">
        <ele>142</ele>
        <time>2023-05-31T05:41:15Z</time>
      </trkpt>
      <trkpt lat="43.65304" lon="1.38675">
        <ele>142</ele>
        <time>2023-05-31T05:41:16Z</time>
      </trkpt>
      <trkpt lat="43.65305" lon="1.38678">
        <ele>142</ele>
        <time>2023-05-31T05:41:17Z</time>
      </trkpt>
      <trkpt lat="43.65306" lon="1.38681">
        <ele>142</ele>
        <time>2023-05-31T05:41:18Z</time>
      </trkpt>
      <trkpt lat="43.65307" lon="1.38683">
        <ele>141</ele>
        <time>2023-05-31T05:41:19Z</time>
      </trkpt>
      <trkpt lat="43.65308" lon="1.38685">
        <ele>141</ele>
        <time>2023-05-31T05:41:20Z</time>
      </trkpt>
      <trkpt lat="43.65309" lon="1.38688">
        <ele>141</ele>
        <time>2023-05-31T05:41:21Z</time>
      </trkpt>
      <trkpt lat="43.65309" lon="1.38692">
        <ele>141</ele>
        <time>2023-05-31T05:41:22Z</time>
      </trkpt>
      <trkpt lat="43.65311" lon="1.38695">
        <ele>141</ele>
        <time>2023-05-31T05:41:23Z</time>
      </trkpt>
      <trkpt lat="43.65311" lon="1.38698">
        <ele>141</ele>
        <time>2023-05-31T05:41:24Z</time>
      </trkpt>
      <trkpt lat="43.65312" lon="1.38701">
        <ele>141</ele>
        <time>2023-05-31T05:41:25Z</time>
      </trkpt>
      <trkpt lat="43.65312" lon="1.38705">
        <ele>141</ele>
        <time>2023-05-31T05:41:26Z</time>
      </trkpt>
      <trkpt lat="43.65312" lon="1.38705">
        <ele>141</ele>
        <time>2023-05-31T05:41:27Z</time>
      </trkpt>
      <trkpt lat="43.65314" lon="1.38711">
        <ele>141</ele>
        <time>2023-05-31T05:41:28Z</time>
      </trkpt>
      <trkpt lat="43.65314" lon="1.38711">
        <ele>141</ele>
        <time>2023-05-31T05:41:29Z</time>
      </trkpt>
      <trkpt lat="43.65317" lon="1.38718">
        <ele>142</ele>
        <time>2023-05-31T05:41:30Z</time>
      </trkpt>
      <trkpt lat="43.65317" lon="1.38719">
        <ele>142</ele>
        <time>2023-05-31T05:41:31Z</time>
      </trkpt>
      <trkpt lat="43.65317" lon="1.38719">
        <ele>142</ele>
        <time>2023-05-31T05:41:32Z</time>
      </trkpt>
      <trkpt lat="43.65319" lon="1.38725">
        <ele>142</ele>
        <time>2023-05-31T05:41:33Z</time>
      </trkpt>
      <trkpt lat="43.65319" lon="1.38725">
        <ele>142</ele>
        <time>2023-05-31T05:41:34Z</time>
      </trkpt>
      <trkpt lat="43.65321" lon="1.38733">
        <ele>142</ele>
        <time>2023-05-31T05:41:35Z</time>
      </trkpt>
      <trkpt lat="43.65321" lon="1.38735">
        <ele>142</ele>
        <time>2023-05-31T05:41:36Z</time>
      </trkpt>
      <trkpt lat="43.65322" lon="1.38738">
        <ele>142</ele>
        <time>2023-05-31T05:41:37Z</time>
      </trkpt>
      <trkpt lat="43.65323" lon="1.38742">
        <ele>142</ele>
        <time>2023-05-31T05:41:38Z</time>
      </trkpt>
      <trkpt lat="43.65324" lon="1.38745">
        <ele>142</ele>
        <time>2023-05-31T05:41:39Z</time>
      </trkpt>
      <trkpt lat="43.65324" lon="1.38745">
        <ele>142</ele>
        <time>2023-05-31T05:41:40Z</time>
      </trkpt>
      <trkpt lat="43.65326" lon="1.38754">
        <ele>142</ele>
        <time>2023-05-31T05:41:41Z</time>
      </trkpt>
      <trkpt lat="43.65326" lon="1.38755">
        <ele>142</ele>
        <time>2023-05-31T05:41:42Z</time>
      </trkpt>
      <trkpt lat="43.65327" lon="1.38759">
        <ele>142</ele>
        <time>2023-05-31T05:41:43Z</time>
      </trkpt>
      <trkpt lat="43.65328" lon="1.38762">
        <ele>142</ele>
        <time>2023-05-31T05:41:44Z</time>
      </trkpt>
      <trkpt lat="43.65329" lon="1.38766">
        <ele>142</ele>
        <time>2023-05-31T05:41:45Z</time>
      </trkpt>
      <trkpt lat="43.6533" lon="1.38769">
        <ele>143</ele>
        <time>2023-05-31T05:41:46Z</time>
      </trkpt>
      <trkpt lat="43.65331" lon="1.38773">
        <ele>143</ele>
        <time>2023-05-31T05:41:47Z</time>
      </trkpt>
      <trkpt lat="43.65332" lon="1.38776">
        <ele>143</ele>
        <time>2023-05-31T05:41:48Z</time>
      </trkpt>
      <trkpt lat="43.65333" lon="1.3878">
        <ele>143</ele>
        <time>2023-05-31T05:41:49Z</time>
      </trkpt>
      <trkpt lat="43.65334" lon="1.38783">
        <ele>143</ele>
        <time>2023-05-31T05:41:50Z</time>
      </trkpt>
      <trkpt lat="43.65335" lon="1.38786">
        <ele>143</ele>
        <time>2023-05-31T05:41:51Z</time>
      </trkpt>
      <trkpt lat="43.65335" lon="1.38786">
        <ele>143</ele>
        <time>2023-05-31T05:41:52Z</time>
      </trkpt>
      <trkpt lat="43.65337" lon="1.38792">
        <ele>143</ele>
        <time>2023-05-31T05:41:53Z</time>
      </trkpt>
      <trkpt lat="43.65338" lon="1.38794">
        <ele>143</ele>
        <time>2023-05-31T05:41:54Z</time>
      </trkpt>
      <trkpt lat="43.65339" lon="1.38797">
        <ele>143</ele>
        <time>2023-05-31T05:41:55Z</time>
      </trkpt>
      <trkpt lat="43.6534" lon="1.388">
        <ele>143</ele>
        <time>2023-05-31T05:41:56Z</time>
      </trkpt>
      <trkpt lat="43.65341" lon="1.38802">
        <ele>143</ele>
        <time>2023-05-31T05:41:57Z</time>
      </trkpt>
      <trkpt lat="43.65342" lon="1.38805">
        <ele>143</ele>
        <time>2023-05-31T05:41:58Z</time>
      </trkpt>
      <trkpt lat="43.65343" lon="1.38808">
        <ele>144</ele>
        <time>2023-05-31T05:41:59Z</time>
      </trkpt>
      <trkpt lat="43.65343" lon="1.38808">
        <ele>144</ele>
        <time>2023-05-31T05:42:00Z</time>
      </trkpt>
      <trkpt lat="43.65345" lon="1.38815">
        <ele>144</ele>
        <time>2023-05-31T05:42:01Z</time>
      </trkpt>
      <trkpt lat="43.65346" lon="1.38816">
        <ele>144</ele>
        <time>2023-05-31T05:42:02Z</time>
      </trkpt>
      <trkpt lat="43.65347" lon="1.38819">
        <ele>143</ele>
        <time>2023-05-31T05:42:03Z</time>
      </trkpt>
      <trkpt lat="43.65348" lon="1.38822">
        <ele>143</ele>
        <time>2023-05-31T05:42:04Z</time>
      </trkpt>
      <trkpt lat="43.65348" lon="1.38822">
        <ele>143</ele>
        <time>2023-05-31T05:42:05Z</time>
      </trkpt>
      <trkpt lat="43.6535" lon="1.38827">
        <ele>143</ele>
        <time>2023-05-31T05:42:06Z</time>
      </trkpt>
      <trkpt lat="43.6535" lon="1.38827">
        <ele>143</ele>
        <time>2023-05-31T05:42:07Z</time>
      </trkpt>
      <trkpt lat="43.65353" lon="1.38831">
        <ele>143</ele>
        <time>2023-05-31T05:42:08Z</time>
      </trkpt>
      <trkpt lat="43.65355" lon="1.38834">
        <ele>143</ele>
        <time>2023-05-31T05:42:09Z</time>
      </trkpt>
      <trkpt lat="43.65357" lon="1.38835">
        <ele>143</ele>
        <time>2023-05-31T05:42:10Z</time>
      </trkpt>
      <trkpt lat="43.65359" lon="1.38837">
        <ele>143</ele>
        <time>2023-05-31T05:42:11Z</time>
      </trkpt>
      <trkpt lat="43.65359" lon="1.38837">
        <ele>143</ele>
        <time>2023-05-31T05:42:12Z</time>
      </trkpt>
      <trkpt lat="43.65362" lon="1.3884">
        <ele>143</ele>
        <time>2023-05-31T05:42:13Z</time>
      </trkpt>
      <trkpt lat="43.65364" lon="1.38842">
        <ele>143</ele>
        <time>2023-05-31T05:42:14Z</time>
      </trkpt>
      <trkpt lat="43.65364" lon="1.38842">
        <ele>143</ele>
        <time>2023-05-31T05:42:15Z</time>
      </trkpt>
      <trkpt lat="43.65368" lon="1.38845">
        <ele>143</ele>
        <time>2023-05-31T05:42:16Z</time>
      </trkpt>
      <trkpt lat="43.65369" lon="1.38846">
        <ele>143</ele>
        <time>2023-05-31T05:42:17Z</time>
      </trkpt>
      <trkpt lat="43.65372" lon="1.38846">
        <ele>143</ele>
        <time>2023-05-31T05:42:18Z</time>
      </trkpt>
      <trkpt lat="43.65372" lon="1.38846">
        <ele>142</ele>
        <time>2023-05-31T05:42:19Z</time>
      </trkpt>
      <trkpt lat="43.65377" lon="1.38847">
        <ele>142</ele>
        <time>2023-05-31T05:42:20Z</time>
      </trkpt>
      <trkpt lat="43.65377" lon="1.38847">
        <ele>142</ele>
        <time>2023-05-31T05:42:21Z</time>
      </trkpt>
      <trkpt lat="43.65382" lon="1.38847">
        <ele>141</ele>
        <time>2023-05-31T05:42:22Z</time>
      </trkpt>
      <trkpt lat="43.65384" lon="1.38847">
        <ele>141</ele>
        <time>2023-05-31T05:42:23Z</time>
      </trkpt>
      <trkpt lat="43.65386" lon="1.38848">
        <ele>141</ele>
        <time>2023-05-31T05:42:24Z</time>
      </trkpt>
      <trkpt lat="43.65386" lon="1.38848">
        <ele>141</ele>
        <time>2023-05-31T05:42:25Z</time>
      </trkpt>
      <trkpt lat="43.65389" lon="1.38847">
        <ele>141</ele>
        <time>2023-05-31T05:42:26Z</time>
      </trkpt>
      <trkpt lat="43.65391" lon="1.38847">
        <ele>141</ele>
        <time>2023-05-31T05:42:27Z</time>
      </trkpt>
      <trkpt lat="43.65393" lon="1.38847">
        <ele>141</ele>
        <time>2023-05-31T05:42:28Z</time>
      </trkpt>
      <trkpt lat="43.65396" lon="1.38848">
        <ele>142</ele>
        <time>2023-05-31T05:42:29Z</time>
      </trkpt>
      <trkpt lat="43.65399" lon="1.3885">
        <ele>142</ele>
        <time>2023-05-31T05:42:30Z</time>
      </trkpt>
      <trkpt lat="43.65399" lon="1.3885">
        <ele>142</ele>
        <time>2023-05-31T05:42:31Z</time>
      </trkpt>
      <trkpt lat="43.65404" lon="1.38854">
        <ele>142</ele>
        <time>2023-05-31T05:42:32Z</time>
      </trkpt>
      <trkpt lat="43.65407" lon="1.38858">
        <ele>142</ele>
        <time>2023-05-31T05:42:33Z</time>
      </trkpt>
      <trkpt lat="43.65409" lon="1.38862">
        <ele>141</ele>
        <time>2023-05-31T05:42:34Z</time>
      </trkpt>
      <trkpt lat="43.6541" lon="1.38866">
        <ele>140</ele>
        <time>2023-05-31T05:42:35Z</time>
      </trkpt>
      <trkpt lat="43.65411" lon="1.38869">
        <ele>140</ele>
        <time>2023-05-31T05:42:36Z</time>
      </trkpt>
      <trkpt lat="43.65412" lon="1.38873">
        <ele>140</ele>
        <time>2023-05-31T05:42:37Z</time>
      </trkpt>
      <trkpt lat="43.65413" lon="1.38877">
        <ele>140</ele>
        <time>2023-05-31T05:42:38Z</time>
      </trkpt>
      <trkpt lat="43.65414" lon="1.3888">
        <ele>140</ele>
        <time>2023-05-31T05:42:39Z</time>
      </trkpt>
      <trkpt lat="43.65415" lon="1.38883">
        <ele>140</ele>
        <time>2023-05-31T05:42:40Z</time>
      </trkpt>
      <trkpt lat="43.65416" lon="1.38886">
        <ele>140</ele>
        <time>2023-05-31T05:42:41Z</time>
      </trkpt>
      <trkpt lat="43.65416" lon="1.38889">
        <ele>139</ele>
        <time>2023-05-31T05:42:42Z</time>
      </trkpt>
      <trkpt lat="43.65416" lon="1.38889">
        <ele>138</ele>
        <time>2023-05-31T05:42:43Z</time>
      </trkpt>
      <trkpt lat="43.65419" lon="1.38895">
        <ele>138</ele>
        <time>2023-05-31T05:42:44Z</time>
      </trkpt>
      <trkpt lat="43.65419" lon="1.38895">
        <ele>138</ele>
        <time>2023-05-31T05:42:45Z</time>
      </trkpt>
      <trkpt lat="43.65421" lon="1.38898">
        <ele>138</ele>
        <time>2023-05-31T05:42:46Z</time>
      </trkpt>
      <trkpt lat="43.65424" lon="1.38901">
        <ele>138</ele>
        <time>2023-05-31T05:42:47Z</time>
      </trkpt>
      <trkpt lat="43.65426" lon="1.38904">
        <ele>138</ele>
        <time>2023-05-31T05:42:48Z</time>
      </trkpt>
      <trkpt lat="43.65429" lon="1.38907">
        <ele>138</ele>
        <time>2023-05-31T05:42:49Z</time>
      </trkpt>
      <trkpt lat="43.65431" lon="1.38911">
        <ele>138</ele>
        <time>2023-05-31T05:42:50Z</time>
      </trkpt>
      <trkpt lat="43.65432" lon="1.38913">
        <ele>138</ele>
        <time>2023-05-31T05:42:51Z</time>
      </trkpt>
      <trkpt lat="43.65432" lon="1.38913">
        <ele>137</ele>
        <time>2023-05-31T05:42:52Z</time>
      </trkpt>
      <trkpt lat="43.65435" lon="1.38918">
        <ele>137</ele>
        <time>2023-05-31T05:42:53Z</time>
      </trkpt>
      <trkpt lat="43.65436" lon="1.38919">
        <ele>136</ele>
        <time>2023-05-31T05:42:54Z</time>
      </trkpt>
      <trkpt lat="43.65438" lon="1.38922">
        <ele>136</ele>
        <time>2023-05-31T05:42:55Z</time>
      </trkpt>
      <trkpt lat="43.65438" lon="1.38922">
        <ele>135</ele>
        <time>2023-05-31T05:42:56Z</time>
      </trkpt>
      <trkpt lat="43.65442" lon="1.38931">
        <ele>135</ele>
        <time>2023-05-31T05:42:57Z</time>
      </trkpt>
      <trkpt lat="43.65443" lon="1.38933">
        <ele>134</ele>
        <time>2023-05-31T05:42:58Z</time>
      </trkpt>
      <trkpt lat="43.65445" lon="1.38936">
        <ele>134</ele>
        <time>2023-05-31T05:42:59Z</time>
      </trkpt>
      <trkpt lat="43.65445" lon="1.38936">
        <ele>134</ele>
        <time>2023-05-31T05:43:00Z</time>
      </trkpt>
      <trkpt lat="43.65448" lon="1.38944">
        <ele>134</ele>
        <time>2023-05-31T05:43:01Z</time>
      </trkpt>
      <trkpt lat="43.6545" lon="1.38948">
        <ele>133</ele>
        <time>2023-05-31T05:43:02Z</time>
      </trkpt>
      <trkpt lat="43.65453" lon="1.38952">
        <ele>133</ele>
        <time>2023-05-31T05:43:03Z</time>
      </trkpt>
      <trkpt lat="43.65453" lon="1.38952">
        <ele>132</ele>
        <time>2023-05-31T05:43:04Z</time>
      </trkpt>
      <trkpt lat="43.65456" lon="1.3896">
        <ele>131</ele>
        <time>2023-05-31T05:43:05Z</time>
      </trkpt>
      <trkpt lat="43.65457" lon="1.38961">
        <ele>131</ele>
        <time>2023-05-31T05:43:06Z</time>
      </trkpt>
      <trkpt lat="43.65458" lon="1.38965">
        <ele>130</ele>
        <time>2023-05-31T05:43:07Z</time>
      </trkpt>
      <trkpt lat="43.65459" lon="1.38969">
        <ele>130</ele>
        <time>2023-05-31T05:43:08Z</time>
      </trkpt>
      <trkpt lat="43.65459" lon="1.38969">
        <ele>130</ele>
        <time>2023-05-31T05:43:09Z</time>
      </trkpt>
      <trkpt lat="43.65463" lon="1.38979">
        <ele>130</ele>
        <time>2023-05-31T05:43:10Z</time>
      </trkpt>
      <trkpt lat="43.65464" lon="1.38981">
        <ele>130</ele>
        <time>2023-05-31T05:43:11Z</time>
      </trkpt>
      <trkpt lat="43.65466" lon="1.38984">
        <ele>130</ele>
        <time>2023-05-31T05:43:12Z</time>
      </trkpt>
      <trkpt lat="43.65468" lon="1.38987">
        <ele>130</ele>
        <time>2023-05-31T05:43:13Z</time>
      </trkpt>
      <trkpt lat="43.6547" lon="1.38989">
        <ele>130</ele>
        <time>2023-05-31T05:43:14Z</time>
      </trkpt>
      <trkpt lat="43.65472" lon="1.38991">
        <ele>130</ele>
        <time>2023-05-31T05:43:15Z</time>
      </trkpt>
      <trkpt lat="43.65474" lon="1.38993">
        <ele>130</ele>
        <time>2023-05-31T05:43:16Z</time>
      </trkpt>
      <trkpt lat="43.65476" lon="1.38995">
        <ele>130</ele>
        <time>2023-05-31T05:43:17Z</time>
      </trkpt>
      <trkpt lat="43.65478" lon="1.38997">
        <ele>130</ele>
        <time>2023-05-31T05:43:18Z</time>
      </trkpt>
      <trkpt lat="43.65478" lon="1.38997">
        <ele>130</ele>
        <time>2023-05-31T05:43:19Z</time>
      </trkpt>
      <trkpt lat="43.65484" lon="1.39002">
        <ele>130</ele>
        <time>2023-05-31T05:43:20Z</time>
      </trkpt>
      <trkpt lat="43.65485" lon="1.39003">
        <ele>130</ele>
        <time>2023-05-31T05:43:21Z</time>
      </trkpt>
      <trkpt lat="43.65485" lon="1.39003">
        <ele>130</ele>
        <time>2023-05-31T05:43:22Z</time>
      </trkpt>
      <trkpt lat="43.65488" lon="1.39007">
        <ele>129</ele>
        <time>2023-05-31T05:43:23Z</time>
      </trkpt>
      <trkpt lat="43.6549" lon="1.39008">
        <ele>129</ele>
        <time>2023-05-31T05:43:24Z</time>
      </trkpt>
      <trkpt lat="43.65492" lon="1.3901">
        <ele>129</ele>
        <time>2023-05-31T05:43:25Z</time>
      </trkpt>
      <trkpt lat="43.65494" lon="1.39011">
        <ele>129</ele>
        <time>2023-05-31T05:43:26Z</time>
      </trkpt>
      <trkpt lat="43.65497" lon="1.39013">
        <ele>129</ele>
        <time>2023-05-31T05:43:27Z</time>
      </trkpt>
      <trkpt lat="43.65497" lon="1.39013">
        <ele>129</ele>
        <time>2023-05-31T05:43:28Z</time>
      </trkpt>
      <trkpt lat="43.65502" lon="1.39015">
        <ele>129</ele>
        <time>2023-05-31T05:43:29Z</time>
      </trkpt>
      <trkpt lat="43.65502" lon="1.39015">
        <ele>129</ele>
        <time>2023-05-31T05:43:30Z</time>
      </trkpt>
      <trkpt lat="43.65509" lon="1.39016">
        <ele>129</ele>
        <time>2023-05-31T05:43:31Z</time>
      </trkpt>
      <trkpt lat="43.6551" lon="1.39017">
        <ele>129</ele>
        <time>2023-05-31T05:43:32Z</time>
      </trkpt>
      <trkpt lat="43.65513" lon="1.39018">
        <ele>129</ele>
        <time>2023-05-31T05:43:33Z</time>
      </trkpt>
      <trkpt lat="43.65515" lon="1.39019">
        <ele>129</ele>
        <time>2023-05-31T05:43:34Z</time>
      </trkpt>
      <trkpt lat="43.65515" lon="1.39019">
        <ele>129</ele>
        <time>2023-05-31T05:43:35Z</time>
      </trkpt>
      <trkpt lat="43.65522" lon="1.39022">
        <ele>128</ele>
        <time>2023-05-31T05:43:36Z</time>
      </trkpt>
      <trkpt lat="43.65523" lon="1.39023">
        <ele>128</ele>
        <time>2023-05-31T05:43:37Z</time>
      </trkpt>
      <trkpt lat="43.65523" lon="1.39023">
        <ele>128</ele>
        <time>2023-05-31T05:43:38Z</time>
      </trkpt>
      <trkpt lat="43.65529" lon="1.39027">
        <ele>128</ele>
        <time>2023-05-31T05:43:39Z</time>
      </trkpt>
      <trkpt lat="43.6553" lon="1.39028">
        <ele>128</ele>
        <time>2023-05-31T05:43:40Z</time>
      </trkpt>
      <trkpt lat="43.65532" lon="1.39029">
        <ele>128</ele>
        <time>2023-05-31T05:43:41Z</time>
      </trkpt>
      <trkpt lat="43.65534" lon="1.3903">
        <ele>128</ele>
        <time>2023-05-31T05:43:42Z</time>
      </trkpt>
      <trkpt lat="43.65537" lon="1.39031">
        <ele>128</ele>
        <time>2023-05-31T05:43:43Z</time>
      </trkpt>
      <trkpt lat="43.65539" lon="1.39033">
        <ele>128</ele>
        <time>2023-05-31T05:43:44Z</time>
      </trkpt>
      <trkpt lat="43.65542" lon="1.39035">
        <ele>128</ele>
        <time>2023-05-31T05:43:45Z</time>
      </trkpt>
      <trkpt lat="43.65544" lon="1.39036">
        <ele>128</ele>
        <time>2023-05-31T05:43:46Z</time>
      </trkpt>
      <trkpt lat="43.65544" lon="1.39036">
        <ele>128</ele>
        <time>2023-05-31T05:43:47Z</time>
      </trkpt>
      <trkpt lat="43.65548" lon="1.39039">
        <ele>128</ele>
        <time>2023-05-31T05:43:48Z</time>
      </trkpt>
      <trkpt lat="43.65548" lon="1.39039">
        <ele>128</ele>
        <time>2023-05-31T05:43:49Z</time>
      </trkpt>
      <trkpt lat="43.65555" lon="1.39043">
        <ele>128</ele>
        <time>2023-05-31T05:43:50Z</time>
      </trkpt>
      <trkpt lat="43.65556" lon="1.39043">
        <ele>128</ele>
        <time>2023-05-31T05:43:51Z</time>
      </trkpt>
      <trkpt lat="43.65559" lon="1.39045">
        <ele>128</ele>
        <time>2023-05-31T05:43:52Z</time>
      </trkpt>
      <trkpt lat="43.65561" lon="1.39046">
        <ele>128</ele>
        <time>2023-05-31T05:43:53Z</time>
      </trkpt>
      <trkpt lat="43.65563" lon="1.39046">
        <ele>128</ele>
        <time>2023-05-31T05:43:54Z</time>
      </trkpt>
      <trkpt lat="43.65566" lon="1.39048">
        <ele>128</ele>
        <time>2023-05-31T05:43:55Z</time>
      </trkpt>
      <trkpt lat="43.65568" lon="1.3905">
        <ele>128</ele>
        <time>2023-05-31T05:43:56Z</time>
      </trkpt>
      <trkpt lat="43.6557" lon="1.39051">
        <ele>128</ele>
        <time>2023-05-31T05:43:57Z</time>
      </trkpt>
      <trkpt lat="43.65573" lon="1.39053">
        <ele>128</ele>
        <time>2023-05-31T05:43:58Z</time>
      </trkpt>
      <trkpt lat="43.65573" lon="1.39053">
        <ele>128</ele>
        <time>2023-05-31T05:43:59Z</time>
      </trkpt>
      <trkpt lat="43.65578" lon="1.39057">
        <ele>128</ele>
        <time>2023-05-31T05:44:00Z</time>
      </trkpt>
      <trkpt lat="43.65579" lon="1.39058">
        <ele>128</ele>
        <time>2023-05-31T05:44:01Z</time>
      </trkpt>
      <trkpt lat="43.65581" lon="1.3906">
        <ele>128</ele>
        <time>2023-05-31T05:44:02Z</time>
      </trkpt>
      <trkpt lat="43.65584" lon="1.39062">
        <ele>128</ele>
        <time>2023-05-31T05:44:03Z</time>
      </trkpt>
      <trkpt lat="43.65584" lon="1.39062">
        <ele>128</ele>
        <time>2023-05-31T05:44:04Z</time>
      </trkpt>
      <trkpt lat="43.6559" lon="1.39065">
        <ele>128</ele>
        <time>2023-05-31T05:44:05Z</time>
      </trkpt>
      <trkpt lat="43.65591" lon="1.39065">
        <ele>128</ele>
        <time>2023-05-31T05:44:06Z</time>
      </trkpt>
      <trkpt lat="43.65593" lon="1.39067">
        <ele>128</ele>
        <time>2023-05-31T05:44:07Z</time>
      </trkpt>
      <trkpt lat="43.65595" lon="1.39068">
        <ele>128</ele>
        <time>2023-05-31T05:44:08Z</time>
      </trkpt>
      <trkpt lat="43.65597" lon="1.39069">
        <ele>128</ele>
        <time>2023-05-31T05:44:09Z</time>
      </trkpt>
      <trkpt lat="43.656" lon="1.3907">
        <ele>128</ele>
        <time>2023-05-31T05:44:10Z</time>
      </trkpt>
      <trkpt lat="43.65602" lon="1.39072">
        <ele>128</ele>
        <time>2023-05-31T05:44:11Z</time>
      </trkpt>
      <trkpt lat="43.65602" lon="1.39072">
        <ele>128</ele>
        <time>2023-05-31T05:44:12Z</time>
      </trkpt>
      <trkpt lat="43.65606" lon="1.39074">
        <ele>128</ele>
        <time>2023-05-31T05:44:13Z</time>
      </trkpt>
      <trkpt lat="43.65606" lon="1.39074">
        <ele>128</ele>
        <time>2023-05-31T05:44:14Z</time>
      </trkpt>
      <trkpt lat="43.6561" lon="1.39077">
        <ele>128</ele>
        <time>2023-05-31T05:44:15Z</time>
      </trkpt>
      <trkpt lat="43.6561" lon="1.39077">
        <ele>128</ele>
        <time>2023-05-31T05:44:16Z</time>
      </trkpt>
      <trkpt lat="43.65614" lon="1.3908">
        <ele>128</ele>
        <time>2023-05-31T05:44:17Z</time>
      </trkpt>
      <trkpt lat="43.65616" lon="1.39081">
        <ele>128</ele>
        <time>2023-05-31T05:44:18Z</time>
      </trkpt>
      <trkpt lat="43.65618" lon="1.39083">
        <ele>128</ele>
        <time>2023-05-31T05:44:19Z</time>
      </trkpt>
      <trkpt lat="43.6562" lon="1.39084">
        <ele>128</ele>
        <time>2023-05-31T05:44:20Z</time>
      </trkpt>
      <trkpt lat="43.65622" lon="1.39086">
        <ele>128</ele>
        <time>2023-05-31T05:44:21Z</time>
      </trkpt>
      <trkpt lat="43.65622" lon="1.39086">
        <ele>128</ele>
        <time>2023-05-31T05:44:22Z</time>
      </trkpt>
      <trkpt lat="43.65626" lon="1.39089">
        <ele>128</ele>
        <time>2023-05-31T05:44:23Z</time>
      </trkpt>
      <trkpt lat="43.65626" lon="1.39089">
        <ele>128</ele>
        <time>2023-05-31T05:44:24Z</time>
      </trkpt>
      <trkpt lat="43.65631" lon="1.39093">
        <ele>128</ele>
        <time>2023-05-31T05:44:25Z</time>
      </trkpt>
      <trkpt lat="43.65632" lon="1.39094">
        <ele>128</ele>
        <time>2023-05-31T05:44:26Z</time>
      </trkpt>
      <trkpt lat="43.65634" lon="1.39095">
        <ele>128</ele>
        <time>2023-05-31T05:44:27Z</time>
      </trkpt>
      <trkpt lat="43.65636" lon="1.39096">
        <ele>128</ele>
        <time>2023-05-31T05:44:28Z</time>
      </trkpt>
      <trkpt lat="43.65636" lon="1.39096">
        <ele>128</ele>
        <time>2023-05-31T05:44:29Z</time>
      </trkpt>
      <trkpt lat="43.65642" lon="1.39099">
        <ele>128</ele>
        <time>2023-05-31T05:44:30Z</time>
      </trkpt>
      <trkpt lat="43.65644" lon="1.391">
        <ele>128</ele>
        <time>2023-05-31T05:44:31Z</time>
      </trkpt>
      <trkpt lat="43.65647" lon="1.39101">
        <ele>128</ele>
        <time>2023-05-31T05:44:32Z</time>
      </trkpt>
      <trkpt lat="43.65647" lon="1.39101">
        <ele>128</ele>
        <time>2023-05-31T05:44:33Z</time>
      </trkpt>
      <trkpt lat="43.65653" lon="1.39105">
        <ele>128</ele>
        <time>2023-05-31T05:44:34Z</time>
      </trkpt>
      <trkpt lat="43.65654" lon="1.39106">
        <ele>128</ele>
        <time>2023-05-31T05:44:35Z</time>
      </trkpt>
      <trkpt lat="43.65656" lon="1.39108">
        <ele>128</ele>
        <time>2023-05-31T05:44:36Z</time>
      </trkpt>
      <trkpt lat="43.65656" lon="1.39108">
        <ele>128</ele>
        <time>2023-05-31T05:44:37Z</time>
      </trkpt>
      <trkpt lat="43.65661" lon="1.39111">
        <ele>128</ele>
        <time>2023-05-31T05:44:38Z</time>
      </trkpt>
      <trkpt lat="43.65663" lon="1.39112">
        <ele>128</ele>
        <time>2023-05-31T05:44:39Z</time>
      </trkpt>
      <trkpt lat="43.65666" lon="1.39114">
        <ele>128</ele>
        <time>2023-05-31T05:44:40Z</time>
      </trkpt>
      <trkpt lat="43.65668" lon="1.39115">
        <ele>127</ele>
        <time>2023-05-31T05:44:41Z</time>
      </trkpt>
      <trkpt lat="43.6567" lon="1.39116">
        <ele>127</ele>
        <time>2023-05-31T05:44:42Z</time>
      </trkpt>
      <trkpt lat="43.65672" lon="1.39117">
        <ele>127</ele>
        <time>2023-05-31T05:44:43Z</time>
      </trkpt>
      <trkpt lat="43.65675" lon="1.39118">
        <ele>127</ele>
        <time>2023-05-31T05:44:44Z</time>
      </trkpt>
      <trkpt lat="43.65677" lon="1.3912">
        <ele>127</ele>
        <time>2023-05-31T05:44:45Z</time>
      </trkpt>
      <trkpt lat="43.65679" lon="1.39121">
        <ele>127</ele>
        <time>2023-05-31T05:44:46Z</time>
      </trkpt>
      <trkpt lat="43.65682" lon="1.39122">
        <ele>127</ele>
        <time>2023-05-31T05:44:47Z</time>
      </trkpt>
      <trkpt lat="43.65684" lon="1.39123">
        <ele>127</ele>
        <time>2023-05-31T05:44:48Z</time>
      </trkpt>
      <trkpt lat="43.65684" lon="1.39123">
        <ele>127</ele>
        <time>2023-05-31T05:44:49Z</time>
      </trkpt>
      <trkpt lat="43.6569" lon="1.39128">
        <ele>127</ele>
        <time>2023-05-31T05:44:50Z</time>
      </trkpt>
      <trkpt lat="43.65691" lon="1.39129">
        <ele>127</ele>
        <time>2023-05-31T05:44:51Z</time>
      </trkpt>
      <trkpt lat="43.65693" lon="1.3913">
        <ele>127</ele>
        <time>2023-05-31T05:44:52Z</time>
      </trkpt>
      <trkpt lat="43.65694" lon="1.39131">
        <ele>127</ele>
        <time>2023-05-31T05:44:53Z</time>
      </trkpt>
      <trkpt lat="43.65696" lon="1.39132">
        <ele>127</ele>
        <time>2023-05-31T05:44:54Z</time>
      </trkpt>
      <trkpt lat="43.65696" lon="1.39132">
        <ele>127</ele>
        <time>2023-05-31T05:44:55Z</time>
      </trkpt>
      <trkpt lat="43.65702" lon="1.39136">
        <ele>127</ele>
        <time>2023-05-31T05:44:56Z</time>
      </trkpt>
      <trkpt lat="43.65703" lon="1.39137">
        <ele>127</ele>
        <time>2023-05-31T05:44:57Z</time>
      </trkpt>
      <trkpt lat="43.65705" lon="1.39139">
        <ele>127</ele>
        <time>2023-05-31T05:44:58Z</time>
      </trkpt>
      <trkpt lat="43.65707" lon="1.3914">
        <ele>127</ele>
        <time>2023-05-31T05:44:59Z</time>
      </trkpt>
      <trkpt lat="43.65707" lon="1.3914">
        <ele>127</ele>
        <time>2023-05-31T05:45:00Z</time>
      </trkpt>
      <trkpt lat="43.65709" lon="1.39142">
        <ele>127</ele>
        <time>2023-05-31T05:45:01Z</time>
      </trkpt>
      <trkpt lat="43.65711" lon="1.39144">
        <ele>127</ele>
        <time>2023-05-31T05:45:02Z</time>
      </trkpt>
      <trkpt lat="43.65714" lon="1.39146">
        <ele>127</ele>
        <time>2023-05-31T05:45:03Z</time>
      </trkpt>
      <trkpt lat="43.65716" lon="1.39148">
        <ele>127</ele>
        <time>2023-05-31T05:45:04Z</time>
      </trkpt>
      <trkpt lat="43.65717" lon="1.39149">
        <ele>127</ele>
        <time>2023-05-31T05:45:05Z</time>
      </trkpt>
      <trkpt lat="43.65722" lon="1.39152">
        <ele>127</ele>
        <time>2023-05-31T05:45:06Z</time>
      </trkpt>
      <trkpt lat="43.65723" lon="1.39153">
        <ele>127</ele>
        <time>2023-05-31T05:45:07Z</time>
      </trkpt>
      <trkpt lat="43.65725" lon="1.39155">
        <ele>127</ele>
        <time>2023-05-31T05:45:08Z</time>
      </trkpt>
      <trkpt lat="43.65728" lon="1.39157">
        <ele>127</ele>
        <time>2023-05-31T05:45:09Z</time>
      </trkpt>
      <trkpt lat="43.6573" lon="1.39159">
        <ele>127</ele>
        <time>2023-05-31T05:45:10Z</time>
      </trkpt>
      <trkpt lat="43.65732" lon="1.39161">
        <ele>127</ele>
        <time>2023-05-31T05:45:11Z</time>
      </trkpt>
      <trkpt lat="43.65732" lon="1.39161">
        <ele>127</ele>
        <time>2023-05-31T05:45:12Z</time>
      </trkpt>
      <trkpt lat="43.65736" lon="1.39164">
        <ele>127</ele>
        <time>2023-05-31T05:45:13Z</time>
      </trkpt>
      <trkpt lat="43.65736" lon="1.39164">
        <ele>127</ele>
        <time>2023-05-31T05:45:14Z</time>
      </trkpt>
      <trkpt lat="43.65739" lon="1.39166">
        <ele>127</ele>
        <time>2023-05-31T05:45:15Z</time>
      </trkpt>
      <trkpt lat="43.65742" lon="1.39168">
        <ele>127</ele>
        <time>2023-05-31T05:45:16Z</time>
      </trkpt>
      <trkpt lat="43.65744" lon="1.3917">
        <ele>127</ele>
        <time>2023-05-31T05:45:17Z</time>
      </trkpt>
      <trkpt lat="43.65747" lon="1.39172">
        <ele>128</ele>
        <time>2023-05-31T05:45:18Z</time>
      </trkpt>
      <trkpt lat="43.65751" lon="1.39175">
        <ele>128</ele>
        <time>2023-05-31T05:45:19Z</time>
      </trkpt>
      <trkpt lat="43.65752" lon="1.39176">
        <ele>128</ele>
        <time>2023-05-31T05:45:20Z</time>
      </trkpt>
      <trkpt lat="43.65754" lon="1.39177">
        <ele>128</ele>
        <time>2023-05-31T05:45:21Z</time>
      </trkpt>
      <trkpt lat="43.65754" lon="1.39177">
        <ele>128</ele>
        <time>2023-05-31T05:45:22Z</time>
      </trkpt>
      <trkpt lat="43.65761" lon="1.39181">
        <ele>128</ele>
        <time>2023-05-31T05:45:23Z</time>
      </trkpt>
      <trkpt lat="43.65762" lon="1.39182">
        <ele>128</ele>
        <time>2023-05-31T05:45:24Z</time>
      </trkpt>
      <trkpt lat="43.65764" lon="1.39184">
        <ele>128</ele>
        <time>2023-05-31T05:45:25Z</time>
      </trkpt>
      <trkpt lat="43.65767" lon="1.39187">
        <ele>128</ele>
        <time>2023-05-31T05:45:26Z</time>
      </trkpt>
      <trkpt lat="43.65769" lon="1.39189">
        <ele>128</ele>
        <time>2023-05-31T05:45:27Z</time>
      </trkpt>
      <trkpt lat="43.65771" lon="1.39191">
        <ele>128</ele>
        <time>2023-05-31T05:45:28Z</time>
      </trkpt>
      <trkpt lat="43.65774" lon="1.39193">
        <ele>128</ele>
        <time>2023-05-31T05:45:29Z</time>
      </trkpt>
      <trkpt lat="43.65776" lon="1.39195">
        <ele>128</ele>
        <time>2023-05-31T05:45:30Z</time>
      </trkpt>
      <trkpt lat="43.65777" lon="1.39198">
        <ele>128</ele>
        <time>2023-05-31T05:45:31Z</time>
      </trkpt>
      <trkpt lat="43.6578" lon="1.39201">
        <ele>128</ele>
        <time>2023-05-31T05:45:32Z</time>
      </trkpt>
      <trkpt lat="43.65782" lon="1.39204">
        <ele>128</ele>
        <time>2023-05-31T05:45:33Z</time>
      </trkpt>
      <trkpt lat="43.65782" lon="1.39204">
        <ele>128</ele>
        <time>2023-05-31T05:45:34Z</time>
      </trkpt>
      <trkpt lat="43.65785" lon="1.39207">
        <ele>128</ele>
        <time>2023-05-31T05:45:35Z</time>
      </trkpt>
      <trkpt lat="43.65785" lon="1.39207">
        <ele>128</ele>
        <time>2023-05-31T05:45:36Z</time>
      </trkpt>
      <trkpt lat="43.65788" lon="1.39208">
        <ele>128</ele>
        <time>2023-05-31T05:45:37Z</time>
      </trkpt>
      <trkpt lat="43.65791" lon="1.39208">
        <ele>128</ele>
        <time>2023-05-31T05:45:38Z</time>
      </trkpt>
      <trkpt lat="43.65793" lon="1.39209">
        <ele>128</ele>
        <time>2023-05-31T05:45:39Z</time>
      </trkpt>
      <trkpt lat="43.65796" lon="1.3921">
        <ele>128</ele>
        <time>2023-05-31T05:45:40Z</time>
      </trkpt>
      <trkpt lat="43.65796" lon="1.3921">
        <ele>127</ele>
        <time>2023-05-31T05:45:41Z</time>
      </trkpt>
      <trkpt lat="43.65801" lon="1.39212">
        <ele>127</ele>
        <time>2023-05-31T05:45:42Z</time>
      </trkpt>
      <trkpt lat="43.65803" lon="1.39212">
        <ele>127</ele>
        <time>2023-05-31T05:45:43Z</time>
      </trkpt>
      <trkpt lat="43.65805" lon="1.39213">
        <ele>127</ele>
        <time>2023-05-31T05:45:44Z</time>
      </trkpt>
      <trkpt lat="43.65807" lon="1.39214">
        <ele>127</ele>
        <time>2023-05-31T05:45:45Z</time>
      </trkpt>
      <trkpt lat="43.6581" lon="1.39215">
        <ele>127</ele>
        <time>2023-05-31T05:45:46Z</time>
      </trkpt>
      <trkpt lat="43.65812" lon="1.39216">
        <ele>127</ele>
        <time>2023-05-31T05:45:47Z</time>
      </trkpt>
      <trkpt lat="43.65812" lon="1.39216">
        <ele>127</ele>
        <time>2023-05-31T05:45:48Z</time>
      </trkpt>
      <trkpt lat="43.65816" lon="1.39219">
        <ele>126</ele>
        <time>2023-05-31T05:45:49Z</time>
      </trkpt>
      <trkpt lat="43.65816" lon="1.39219">
        <ele>126</ele>
        <time>2023-05-31T05:45:50Z</time>
      </trkpt>
      <trkpt lat="43.6582" lon="1.39219">
        <ele>126</ele>
        <time>2023-05-31T05:45:51Z</time>
      </trkpt>
      <trkpt lat="43.6582" lon="1.39219">
        <ele>126</ele>
        <time>2023-05-31T05:45:52Z</time>
      </trkpt>
      <trkpt lat="43.65823" lon="1.3922">
        <ele>126</ele>
        <time>2023-05-31T05:45:53Z</time>
      </trkpt>
      <trkpt lat="43.65823" lon="1.3922">
        <ele>126</ele>
        <time>2023-05-31T05:45:54Z</time>
      </trkpt>
      <trkpt lat="43.65826" lon="1.39221">
        <ele>126</ele>
        <time>2023-05-31T05:45:55Z</time>
      </trkpt>
      <trkpt lat="43.65828" lon="1.39222">
        <ele>127</ele>
        <time>2023-05-31T05:45:56Z</time>
      </trkpt>
      <trkpt lat="43.65828" lon="1.39222">
        <ele>127</ele>
        <time>2023-05-31T05:45:57Z</time>
      </trkpt>
      <trkpt lat="43.65832" lon="1.39223">
        <ele>127</ele>
        <time>2023-05-31T05:45:58Z</time>
      </trkpt>
      <trkpt lat="43.65836" lon="1.39225">
        <ele>127</ele>
        <time>2023-05-31T05:45:59Z</time>
      </trkpt>
      <trkpt lat="43.65839" lon="1.39227">
        <ele>127</ele>
        <time>2023-05-31T05:46:00Z</time>
      </trkpt>
      <trkpt lat="43.65842" lon="1.39229">
        <ele>127</ele>
        <time>2023-05-31T05:46:01Z</time>
      </trkpt>
      <trkpt lat="43.65844" lon="1.39231">
        <ele>126</ele>
        <time>2023-05-31T05:46:02Z</time>
      </trkpt>
      <trkpt lat="43.65846" lon="1.39233">
        <ele>126</ele>
        <time>2023-05-31T05:46:03Z</time>
      </trkpt>
      <trkpt lat="43.65846" lon="1.39233">
        <ele>126</ele>
        <time>2023-05-31T05:46:04Z</time>
      </trkpt>
      <trkpt lat="43.6585" lon="1.39235">
        <ele>126</ele>
        <time>2023-05-31T05:46:05Z</time>
      </trkpt>
      <trkpt lat="43.65853" lon="1.39238">
        <ele>126</ele>
        <time>2023-05-31T05:46:06Z</time>
      </trkpt>
      <trkpt lat="43.65857" lon="1.3924">
        <ele>126</ele>
        <time>2023-05-31T05:46:07Z</time>
      </trkpt>
      <trkpt lat="43.65859" lon="1.39242">
        <ele>126</ele>
        <time>2023-05-31T05:46:08Z</time>
      </trkpt>
      <trkpt lat="43.65862" lon="1.39243">
        <ele>126</ele>
        <time>2023-05-31T05:46:09Z</time>
      </trkpt>
      <trkpt lat="43.65864" lon="1.39244">
        <ele>126</ele>
        <time>2023-05-31T05:46:10Z</time>
      </trkpt>
      <trkpt lat="43.65867" lon="1.39244">
        <ele>126</ele>
        <time>2023-05-31T05:46:11Z</time>
      </trkpt>
      <trkpt lat="43.65867" lon="1.39244">
        <ele>126</ele>
        <time>2023-05-31T05:46:12Z</time>
      </trkpt>
      <trkpt lat="43.65871" lon="1.39243">
        <ele>126</ele>
        <time>2023-05-31T05:46:13Z</time>
      </trkpt>
      <trkpt lat="43.65873" lon="1.39242">
        <ele>126</ele>
        <time>2023-05-31T05:46:14Z</time>
      </trkpt>
      <trkpt lat="43.65876" lon="1.39242">
        <ele>126</ele>
        <time>2023-05-31T05:46:15Z</time>
      </trkpt>
      <trkpt lat="43.65876" lon="1.39242">
        <ele>126</ele>
        <time>2023-05-31T05:46:16Z</time>
      </trkpt>
      <trkpt lat="43.65881" lon="1.39243">
        <ele>126</ele>
        <time>2023-05-31T05:46:17Z</time>
      </trkpt>
      <trkpt lat="43.65881" lon="1.39243">
        <ele>126</ele>
        <time>2023-05-31T05:46:18Z</time>
      </trkpt>
      <trkpt lat="43.65887" lon="1.39243">
        <ele>126</ele>
        <time>2023-05-31T05:46:19Z</time>
      </trkpt>
      <trkpt lat="43.65887" lon="1.39243">
        <ele>126</ele>
        <time>2023-05-31T05:46:20Z</time>
      </trkpt>
      <trkpt lat="43.65893" lon="1.39244">
        <ele>126</ele>
        <time>2023-05-31T05:46:21Z</time>
      </trkpt>
      <trkpt lat="43.65894" lon="1.39244">
        <ele>126</ele>
        <time>2023-05-31T05:46:22Z</time>
      </trkpt>
      <trkpt lat="43.65897" lon="1.39245">
        <ele>126</ele>
        <time>2023-05-31T05:46:23Z</time>
      </trkpt>
      <trkpt lat="43.65899" lon="1.39246">
        <ele>126</ele>
        <time>2023-05-31T05:46:24Z</time>
      </trkpt>
      <trkpt lat="43.65899" lon="1.39246">
        <ele>126</ele>
        <time>2023-05-31T05:46:25Z</time>
      </trkpt>
      <trkpt lat="43.65905" lon="1.39248">
        <ele>126</ele>
        <time>2023-05-31T05:46:26Z</time>
      </trkpt>
      <trkpt lat="43.65905" lon="1.39248">
        <ele>126</ele>
        <time>2023-05-31T05:46:27Z</time>
      </trkpt>
      <trkpt lat="43.6591" lon="1.39248">
        <ele>126</ele>
        <time>2023-05-31T05:46:28Z</time>
      </trkpt>
      <trkpt lat="43.65912" lon="1.39248">
        <ele>126</ele>
        <time>2023-05-31T05:46:29Z</time>
      </trkpt>
      <trkpt lat="43.65912" lon="1.39248">
        <ele>126</ele>
        <time>2023-05-31T05:46:30Z</time>
      </trkpt>
      <trkpt lat="43.65918" lon="1.39247">
        <ele>126</ele>
        <time>2023-05-31T05:46:31Z</time>
      </trkpt>
      <trkpt lat="43.6592" lon="1.39247">
        <ele>126</ele>
        <time>2023-05-31T05:46:32Z</time>
      </trkpt>
      <trkpt lat="43.6592" lon="1.39247">
        <ele>126</ele>
        <time>2023-05-31T05:46:33Z</time>
      </trkpt>
      <trkpt lat="43.65926" lon="1.39247">
        <ele>126</ele>
        <time>2023-05-31T05:46:34Z</time>
      </trkpt>
      <trkpt lat="43.65927" lon="1.39247">
        <ele>126</ele>
        <time>2023-05-31T05:46:35Z</time>
      </trkpt>
      <trkpt lat="43.65929" lon="1.39247">
        <ele>126</ele>
        <time>2023-05-31T05:46:36Z</time>
      </trkpt>
      <trkpt lat="43.65929" lon="1.39247">
        <ele>126</ele>
        <time>2023-05-31T05:46:37Z</time>
      </trkpt>
      <trkpt lat="43.65931" lon="1.39247">
        <ele>126</ele>
        <time>2023-05-31T05:46:38Z</time>
      </trkpt>
      <trkpt lat="43.65933" lon="1.39248">
        <ele>126</ele>
        <time>2023-05-31T05:46:39Z</time>
      </trkpt>
      <trkpt lat="43.65935" lon="1.39248">
        <ele>126</ele>
        <time>2023-05-31T05:46:40Z</time>
      </trkpt>
      <trkpt lat="43.65937" lon="1.39248">
        <ele>126</ele>
        <time>2023-05-31T05:46:41Z</time>
      </trkpt>
      <trkpt lat="43.65939" lon="1.39249">
        <ele>126</ele>
        <time>2023-05-31T05:46:42Z</time>
      </trkpt>
      <trkpt lat="43.65942" lon="1.39248">
        <ele>126</ele>
        <time>2023-05-31T05:46:43Z</time>
      </trkpt>
      <trkpt lat="43.65945" lon="1.39248">
        <ele>126</ele>
        <time>2023-05-31T05:46:44Z</time>
      </trkpt>
      <trkpt lat="43.65949" lon="1.39248">
        <ele>126</ele>
        <time>2023-05-31T05:46:45Z</time>
      </trkpt>
      <trkpt lat="43.65951" lon="1.39247">
        <ele>126</ele>
        <time>2023-05-31T05:46:46Z</time>
      </trkpt>
      <trkpt lat="43.65955" lon="1.39247">
        <ele>126</ele>
        <time>2023-05-31T05:46:47Z</time>
      </trkpt>
      <trkpt lat="43.65957" lon="1.39246">
        <ele>126</ele>
        <time>2023-05-31T05:46:48Z</time>
      </trkpt>
      <trkpt lat="43.65957" lon="1.39246">
        <ele>126</ele>
        <time>2023-05-31T05:46:49Z</time>
      </trkpt>
      <trkpt lat="43.65962" lon="1.39244">
        <ele>126</ele>
        <time>2023-05-31T05:46:50Z</time>
      </trkpt>
      <trkpt lat="43.65962" lon="1.39244">
        <ele>126</ele>
        <time>2023-05-31T05:46:51Z</time>
      </trkpt>
      <trkpt lat="43.65967" lon="1.3924">
        <ele>126</ele>
        <time>2023-05-31T05:46:52Z</time>
      </trkpt>
      <trkpt lat="43.65968" lon="1.39239">
        <ele>126</ele>
        <time>2023-05-31T05:46:53Z</time>
      </trkpt>
      <trkpt lat="43.6597" lon="1.39239">
        <ele>126</ele>
        <time>2023-05-31T05:46:54Z</time>
      </trkpt>
      <trkpt lat="43.65973" lon="1.39239">
        <ele>126</ele>
        <time>2023-05-31T05:46:55Z</time>
      </trkpt>
      <trkpt lat="43.65975" lon="1.39239">
        <ele>126</ele>
        <time>2023-05-31T05:46:56Z</time>
      </trkpt>
      <trkpt lat="43.65978" lon="1.39239">
        <ele>126</ele>
        <time>2023-05-31T05:46:57Z</time>
      </trkpt>
      <trkpt lat="43.65978" lon="1.39239">
        <ele>126</ele>
        <time>2023-05-31T05:46:58Z</time>
      </trkpt>
      <trkpt lat="43.65985" lon="1.39238">
        <ele>126</ele>
        <time>2023-05-31T05:46:59Z</time>
      </trkpt>
      <trkpt lat="43.65986" lon="1.39237">
        <ele>126</ele>
        <time>2023-05-31T05:47:00Z</time>
      </trkpt>
      <trkpt lat="43.65988" lon="1.39236">
        <ele>126</ele>
        <time>2023-05-31T05:47:01Z</time>
      </trkpt>
      <trkpt lat="43.65991" lon="1.39235">
        <ele>126</ele>
        <time>2023-05-31T05:47:02Z</time>
      </trkpt>
      <trkpt lat="43.65991" lon="1.39235">
        <ele>126</ele>
        <time>2023-05-31T05:47:03Z</time>
      </trkpt>
      <trkpt lat="43.65996" lon="1.39232">
        <ele>126</ele>
        <time>2023-05-31T05:47:04Z</time>
      </trkpt>
      <trkpt lat="43.65997" lon="1.39232">
        <ele>126</ele>
        <time>2023-05-31T05:47:05Z</time>
      </trkpt>
      <trkpt lat="43.65999" lon="1.3923">
        <ele>126</ele>
        <time>2023-05-31T05:47:06Z</time>
      </trkpt>
      <trkpt lat="43.66002" lon="1.39228">
        <ele>126</ele>
        <time>2023-05-31T05:47:07Z</time>
      </trkpt>
      <trkpt lat="43.66004" lon="1.39227">
        <ele>126</ele>
        <time>2023-05-31T05:47:08Z</time>
      </trkpt>
      <trkpt lat="43.66004" lon="1.39227">
        <ele>126</ele>
        <time>2023-05-31T05:47:09Z</time>
      </trkpt>
      <trkpt lat="43.66006" lon="1.39225">
        <ele>126</ele>
        <time>2023-05-31T05:47:10Z</time>
      </trkpt>
      <trkpt lat="43.66006" lon="1.39225">
        <ele>126</ele>
        <time>2023-05-31T05:47:11Z</time>
      </trkpt>
      <trkpt lat="43.66008" lon="1.39224">
        <ele>126</ele>
        <time>2023-05-31T05:47:12Z</time>
      </trkpt>
      <trkpt lat="43.6601" lon="1.39223">
        <ele>126</ele>
        <time>2023-05-31T05:47:13Z</time>
      </trkpt>
      <trkpt lat="43.66012" lon="1.39222">
        <ele>126</ele>
        <time>2023-05-31T05:47:14Z</time>
      </trkpt>
      <trkpt lat="43.66015" lon="1.3922">
        <ele>126</ele>
        <time>2023-05-31T05:47:15Z</time>
      </trkpt>
      <trkpt lat="43.66015" lon="1.3922">
        <ele>126</ele>
        <time>2023-05-31T05:47:16Z</time>
      </trkpt>
      <trkpt lat="43.66018" lon="1.39219">
        <ele>125</ele>
        <time>2023-05-31T05:47:17Z</time>
      </trkpt>
      <trkpt lat="43.6602" lon="1.39218">
        <ele>125</ele>
        <time>2023-05-31T05:47:18Z</time>
      </trkpt>
      <trkpt lat="43.66023" lon="1.39217">
        <ele>125</ele>
        <time>2023-05-31T05:47:19Z</time>
      </trkpt>
      <trkpt lat="43.66026" lon="1.39216">
        <ele>125</ele>
        <time>2023-05-31T05:47:20Z</time>
      </trkpt>
      <trkpt lat="43.66029" lon="1.39215">
        <ele>125</ele>
        <time>2023-05-31T05:47:21Z</time>
      </trkpt>
      <trkpt lat="43.66031" lon="1.39215">
        <ele>125</ele>
        <time>2023-05-31T05:47:22Z</time>
      </trkpt>
      <trkpt lat="43.66034" lon="1.39214">
        <ele>125</ele>
        <time>2023-05-31T05:47:23Z</time>
      </trkpt>
      <trkpt lat="43.66037" lon="1.39214">
        <ele>125</ele>
        <time>2023-05-31T05:47:24Z</time>
      </trkpt>
      <trkpt lat="43.66041" lon="1.39213">
        <ele>125</ele>
        <time>2023-05-31T05:47:25Z</time>
      </trkpt>
      <trkpt lat="43.66044" lon="1.39213">
        <ele>125</ele>
        <time>2023-05-31T05:47:26Z</time>
      </trkpt>
      <trkpt lat="43.66048" lon="1.39212">
        <ele>125</ele>
        <time>2023-05-31T05:47:27Z</time>
      </trkpt>
      <trkpt lat="43.66051" lon="1.39212">
        <ele>125</ele>
        <time>2023-05-31T05:47:28Z</time>
      </trkpt>
      <trkpt lat="43.66054" lon="1.39212">
        <ele>125</ele>
        <time>2023-05-31T05:47:29Z</time>
      </trkpt>
      <trkpt lat="43.66054" lon="1.39212">
        <ele>125</ele>
        <time>2023-05-31T05:47:30Z</time>
      </trkpt>
      <trkpt lat="43.66057" lon="1.39211">
        <ele>125</ele>
        <time>2023-05-31T05:47:31Z</time>
      </trkpt>
      <trkpt lat="43.66059" lon="1.39211">
        <ele>125</ele>
        <time>2023-05-31T05:47:32Z</time>
      </trkpt>
      <trkpt lat="43.66062" lon="1.39211">
        <ele>125</ele>
        <time>2023-05-31T05:47:33Z</time>
      </trkpt>
      <trkpt lat="43.66064" lon="1.3921">
        <ele>125</ele>
        <time>2023-05-31T05:47:34Z</time>
      </trkpt>
      <trkpt lat="43.66066" lon="1.3921">
        <ele>125</ele>
        <time>2023-05-31T05:47:35Z</time>
      </trkpt>
      <trkpt lat="43.66069" lon="1.39209">
        <ele>125</ele>
        <time>2023-05-31T05:47:36Z</time>
      </trkpt>
      <trkpt lat="43.66071" lon="1.39208">
        <ele>125</ele>
        <time>2023-05-31T05:47:37Z</time>
      </trkpt>
      <trkpt lat="43.66073" lon="1.39207">
        <ele>125</ele>
        <time>2023-05-31T05:47:38Z</time>
      </trkpt>
      <trkpt lat="43.66076" lon="1.39206">
        <ele>125</ele>
        <time>2023-05-31T05:47:39Z</time>
      </trkpt>
      <trkpt lat="43.66079" lon="1.39204">
        <ele>125</ele>
        <time>2023-05-31T05:47:40Z</time>
      </trkpt>
      <trkpt lat="43.66082" lon="1.39202">
        <ele>125</ele>
        <time>2023-05-31T05:47:41Z</time>
      </trkpt>
      <trkpt lat="43.66084" lon="1.39201">
        <ele>125</ele>
        <time>2023-05-31T05:47:42Z</time>
      </trkpt>
      <trkpt lat="43.66086" lon="1.39199">
        <ele>125</ele>
        <time>2023-05-31T05:47:43Z</time>
      </trkpt>
      <trkpt lat="43.66088" lon="1.39197">
        <ele>125</ele>
        <time>2023-05-31T05:47:44Z</time>
      </trkpt>
      <trkpt lat="43.6609" lon="1.39195">
        <ele>125</ele>
        <time>2023-05-31T05:47:45Z</time>
      </trkpt>
      <trkpt lat="43.66092" lon="1.39193">
        <ele>125</ele>
        <time>2023-05-31T05:47:46Z</time>
      </trkpt>
      <trkpt lat="43.66092" lon="1.39193">
        <ele>125</ele>
        <time>2023-05-31T05:47:47Z</time>
      </trkpt>
      <trkpt lat="43.66098" lon="1.3919">
        <ele>125</ele>
        <time>2023-05-31T05:47:48Z</time>
      </trkpt>
      <trkpt lat="43.66101" lon="1.3919">
        <ele>125</ele>
        <time>2023-05-31T05:47:49Z</time>
      </trkpt>
      <trkpt lat="43.66104" lon="1.3919">
        <ele>125</ele>
        <time>2023-05-31T05:47:50Z</time>
      </trkpt>
      <trkpt lat="43.66107" lon="1.39189">
        <ele>125</ele>
        <time>2023-05-31T05:47:51Z</time>
      </trkpt>
      <trkpt lat="43.66107" lon="1.39189">
        <ele>125</ele>
        <time>2023-05-31T05:47:52Z</time>
      </trkpt>
      <trkpt lat="43.66112" lon="1.39188">
        <ele>125</ele>
        <time>2023-05-31T05:47:53Z</time>
      </trkpt>
      <trkpt lat="43.66115" lon="1.39188">
        <ele>125</ele>
        <time>2023-05-31T05:47:54Z</time>
      </trkpt>
      <trkpt lat="43.66117" lon="1.39188">
        <ele>125</ele>
        <time>2023-05-31T05:47:55Z</time>
      </trkpt>
      <trkpt lat="43.66117" lon="1.39188">
        <ele>125</ele>
        <time>2023-05-31T05:47:56Z</time>
      </trkpt>
      <trkpt lat="43.66123" lon="1.39187">
        <ele>125</ele>
        <time>2023-05-31T05:47:57Z</time>
      </trkpt>
      <trkpt lat="43.66124" lon="1.39187">
        <ele>125</ele>
        <time>2023-05-31T05:47:58Z</time>
      </trkpt>
      <trkpt lat="43.66127" lon="1.39186">
        <ele>125</ele>
        <time>2023-05-31T05:47:59Z</time>
      </trkpt>
      <trkpt lat="43.66129" lon="1.39185">
        <ele>125</ele>
        <time>2023-05-31T05:48:00Z</time>
      </trkpt>
      <trkpt lat="43.66132" lon="1.39184">
        <ele>125</ele>
        <time>2023-05-31T05:48:01Z</time>
      </trkpt>
      <trkpt lat="43.66134" lon="1.39184">
        <ele>125</ele>
        <time>2023-05-31T05:48:02Z</time>
      </trkpt>
      <trkpt lat="43.66134" lon="1.39184">
        <ele>125</ele>
        <time>2023-05-31T05:48:03Z</time>
      </trkpt>
      <trkpt lat="43.66141" lon="1.39181">
        <ele>125</ele>
        <time>2023-05-31T05:48:04Z</time>
      </trkpt>
      <trkpt lat="43.66142" lon="1.3918">
        <ele>125</ele>
        <time>2023-05-31T05:48:05Z</time>
      </trkpt>
      <trkpt lat="43.66142" lon="1.3918">
        <ele>125</ele>
        <time>2023-05-31T05:48:06Z</time>
      </trkpt>
      <trkpt lat="43.66147" lon="1.39177">
        <ele>125</ele>
        <time>2023-05-31T05:48:07Z</time>
      </trkpt>
      <trkpt lat="43.66148" lon="1.39175">
        <ele>125</ele>
        <time>2023-05-31T05:48:08Z</time>
      </trkpt>
      <trkpt lat="43.6615" lon="1.39174">
        <ele>125</ele>
        <time>2023-05-31T05:48:09Z</time>
      </trkpt>
      <trkpt lat="43.66152" lon="1.39172">
        <ele>125</ele>
        <time>2023-05-31T05:48:10Z</time>
      </trkpt>
      <trkpt lat="43.66154" lon="1.39172">
        <ele>125</ele>
        <time>2023-05-31T05:48:11Z</time>
      </trkpt>
      <trkpt lat="43.66154" lon="1.39172">
        <ele>125</ele>
        <time>2023-05-31T05:48:12Z</time>
      </trkpt>
      <trkpt lat="43.66161" lon="1.39169">
        <ele>125</ele>
        <time>2023-05-31T05:48:13Z</time>
      </trkpt>
      <trkpt lat="43.66162" lon="1.39168">
        <ele>125</ele>
        <time>2023-05-31T05:48:14Z</time>
      </trkpt>
      <trkpt lat="43.66165" lon="1.39167">
        <ele>125</ele>
        <time>2023-05-31T05:48:15Z</time>
      </trkpt>
      <trkpt lat="43.66165" lon="1.39167">
        <ele>125</ele>
        <time>2023-05-31T05:48:16Z</time>
      </trkpt>
      <trkpt lat="43.66169" lon="1.39162">
        <ele>125</ele>
        <time>2023-05-31T05:48:17Z</time>
      </trkpt>
      <trkpt lat="43.6617" lon="1.39162">
        <ele>125</ele>
        <time>2023-05-31T05:48:18Z</time>
      </trkpt>
      <trkpt lat="43.66172" lon="1.3916">
        <ele>125</ele>
        <time>2023-05-31T05:48:19Z</time>
      </trkpt>
      <trkpt lat="43.66172" lon="1.3916">
        <ele>125</ele>
        <time>2023-05-31T05:48:20Z</time>
      </trkpt>
      <trkpt lat="43.66177" lon="1.39155">
        <ele>125</ele>
        <time>2023-05-31T05:48:21Z</time>
      </trkpt>
      <trkpt lat="43.66178" lon="1.39154">
        <ele>125</ele>
        <time>2023-05-31T05:48:22Z</time>
      </trkpt>
      <trkpt lat="43.6618" lon="1.39151">
        <ele>125</ele>
        <time>2023-05-31T05:48:23Z</time>
      </trkpt>
      <trkpt lat="43.66182" lon="1.39149">
        <ele>125</ele>
        <time>2023-05-31T05:48:24Z</time>
      </trkpt>
      <trkpt lat="43.66182" lon="1.39149">
        <ele>125</ele>
        <time>2023-05-31T05:48:25Z</time>
      </trkpt>
      <trkpt lat="43.66186" lon="1.39145">
        <ele>125</ele>
        <time>2023-05-31T05:48:26Z</time>
      </trkpt>
      <trkpt lat="43.66186" lon="1.39145">
        <ele>125</ele>
        <time>2023-05-31T05:48:27Z</time>
      </trkpt>
      <trkpt lat="43.6619" lon="1.39141">
        <ele>125</ele>
        <time>2023-05-31T05:48:28Z</time>
      </trkpt>
      <trkpt lat="43.66191" lon="1.3914">
        <ele>125</ele>
        <time>2023-05-31T05:48:29Z</time>
      </trkpt>
      <trkpt lat="43.66191" lon="1.3914">
        <ele>125</ele>
        <time>2023-05-31T05:48:30Z</time>
      </trkpt>
      <trkpt lat="43.66196" lon="1.39136">
        <ele>125</ele>
        <time>2023-05-31T05:48:31Z</time>
      </trkpt>
      <trkpt lat="43.66197" lon="1.39135">
        <ele>125</ele>
        <time>2023-05-31T05:48:32Z</time>
      </trkpt>
      <trkpt lat="43.662" lon="1.39133">
        <ele>124</ele>
        <time>2023-05-31T05:48:33Z</time>
      </trkpt>
      <trkpt lat="43.66202" lon="1.39132">
        <ele>124</ele>
        <time>2023-05-31T05:48:34Z</time>
      </trkpt>
      <trkpt lat="43.66205" lon="1.39131">
        <ele>124</ele>
        <time>2023-05-31T05:48:35Z</time>
      </trkpt>
      <trkpt lat="43.66205" lon="1.39131">
        <ele>124</ele>
        <time>2023-05-31T05:48:36Z</time>
      </trkpt>
      <trkpt lat="43.6621" lon="1.39133">
        <ele>124</ele>
        <time>2023-05-31T05:48:37Z</time>
      </trkpt>
      <trkpt lat="43.66211" lon="1.39134">
        <ele>125</ele>
        <time>2023-05-31T05:48:38Z</time>
      </trkpt>
      <trkpt lat="43.66213" lon="1.39137">
        <ele>125</ele>
        <time>2023-05-31T05:48:39Z</time>
      </trkpt>
      <trkpt lat="43.66216" lon="1.39139">
        <ele>125</ele>
        <time>2023-05-31T05:48:40Z</time>
      </trkpt>
      <trkpt lat="43.66217" lon="1.39142">
        <ele>125</ele>
        <time>2023-05-31T05:48:41Z</time>
      </trkpt>
      <trkpt lat="43.66219" lon="1.39144">
        <ele>125</ele>
        <time>2023-05-31T05:48:42Z</time>
      </trkpt>
      <trkpt lat="43.66222" lon="1.39147">
        <ele>125</ele>
        <time>2023-05-31T05:48:43Z</time>
      </trkpt>
      <trkpt lat="43.66224" lon="1.39149">
        <ele>125</ele>
        <time>2023-05-31T05:48:44Z</time>
      </trkpt>
      <trkpt lat="43.66226" lon="1.39152">
        <ele>125</ele>
        <time>2023-05-31T05:48:45Z</time>
      </trkpt>
      <trkpt lat="43.66229" lon="1.39154">
        <ele>125</ele>
        <time>2023-05-31T05:48:46Z</time>
      </trkpt>
      <trkpt lat="43.66229" lon="1.39154">
        <ele>124</ele>
        <time>2023-05-31T05:48:47Z</time>
      </trkpt>
      <trkpt lat="43.66233" lon="1.39159">
        <ele>124</ele>
        <time>2023-05-31T05:48:48Z</time>
      </trkpt>
      <trkpt lat="43.66236" lon="1.39162">
        <ele>124</ele>
        <time>2023-05-31T05:48:49Z</time>
      </trkpt>
      <trkpt lat="43.66238" lon="1.39164">
        <ele>124</ele>
        <time>2023-05-31T05:48:50Z</time>
      </trkpt>
      <trkpt lat="43.6624" lon="1.39165">
        <ele>125</ele>
        <time>2023-05-31T05:48:51Z</time>
      </trkpt>
      <trkpt lat="43.6624" lon="1.39165">
        <ele>125</ele>
        <time>2023-05-31T05:48:52Z</time>
      </trkpt>
      <trkpt lat="43.66244" lon="1.39163">
        <ele>125</ele>
        <time>2023-05-31T05:48:53Z</time>
      </trkpt>
      <trkpt lat="43.66244" lon="1.39163">
        <ele>125</ele>
        <time>2023-05-31T05:48:54Z</time>
      </trkpt>
      <trkpt lat="43.66247" lon="1.3916">
        <ele>125</ele>
        <time>2023-05-31T05:48:55Z</time>
      </trkpt>
      <trkpt lat="43.66247" lon="1.3916">
        <ele>125</ele>
        <time>2023-05-31T05:48:56Z</time>
      </trkpt>
      <trkpt lat="43.66254" lon="1.39158">
        <ele>125</ele>
        <time>2023-05-31T05:48:57Z</time>
      </trkpt>
      <trkpt lat="43.66256" lon="1.39159">
        <ele>124</ele>
        <time>2023-05-31T05:48:58Z</time>
      </trkpt>
      <trkpt lat="43.66258" lon="1.39159">
        <ele>124</ele>
        <time>2023-05-31T05:48:59Z</time>
      </trkpt>
      <trkpt lat="43.6626" lon="1.3916">
        <ele>124</ele>
        <time>2023-05-31T05:49:00Z</time>
      </trkpt>
      <trkpt lat="43.66263" lon="1.39161">
        <ele>124</ele>
        <time>2023-05-31T05:49:01Z</time>
      </trkpt>
      <trkpt lat="43.66265" lon="1.39162">
        <ele>124</ele>
        <time>2023-05-31T05:49:02Z</time>
      </trkpt>
      <trkpt lat="43.66265" lon="1.39162">
        <ele>124</ele>
        <time>2023-05-31T05:49:03Z</time>
      </trkpt>
      <trkpt lat="43.66269" lon="1.39166">
        <ele>124</ele>
        <time>2023-05-31T05:49:04Z</time>
      </trkpt>
      <trkpt lat="43.66271" lon="1.39169">
        <ele>124</ele>
        <time>2023-05-31T05:49:05Z</time>
      </trkpt>
      <trkpt lat="43.66273" lon="1.39171">
        <ele>124</ele>
        <time>2023-05-31T05:49:06Z</time>
      </trkpt>
      <trkpt lat="43.66275" lon="1.39174">
        <ele>124</ele>
        <time>2023-05-31T05:49:07Z</time>
      </trkpt>
      <trkpt lat="43.66276" lon="1.39178">
        <ele>124</ele>
        <time>2023-05-31T05:49:08Z</time>
      </trkpt>
      <trkpt lat="43.66277" lon="1.39182">
        <ele>124</ele>
        <time>2023-05-31T05:49:09Z</time>
      </trkpt>
      <trkpt lat="43.66277" lon="1.39185">
        <ele>124</ele>
        <time>2023-05-31T05:49:10Z</time>
      </trkpt>
      <trkpt lat="43.66278" lon="1.39189">
        <ele>124</ele>
        <time>2023-05-31T05:49:11Z</time>
      </trkpt>
      <trkpt lat="43.66278" lon="1.39193">
        <ele>124</ele>
        <time>2023-05-31T05:49:12Z</time>
      </trkpt>
      <trkpt lat="43.66279" lon="1.39196">
        <ele>124</ele>
        <time>2023-05-31T05:49:13Z</time>
      </trkpt>
      <trkpt lat="43.6628" lon="1.392">
        <ele>124</ele>
        <time>2023-05-31T05:49:14Z</time>
      </trkpt>
      <trkpt lat="43.66282" lon="1.39203">
        <ele>123</ele>
        <time>2023-05-31T05:49:15Z</time>
      </trkpt>
      <trkpt lat="43.66283" lon="1.39205">
        <ele>124</ele>
        <time>2023-05-31T05:49:16Z</time>
      </trkpt>
      <trkpt lat="43.66285" lon="1.39209">
        <ele>124</ele>
        <time>2023-05-31T05:49:17Z</time>
      </trkpt>
      <trkpt lat="43.66285" lon="1.39209">
        <ele>124</ele>
        <time>2023-05-31T05:49:18Z</time>
      </trkpt>
      <trkpt lat="43.66287" lon="1.39216">
        <ele>124</ele>
        <time>2023-05-31T05:49:19Z</time>
      </trkpt>
      <trkpt lat="43.66288" lon="1.39218">
        <ele>124</ele>
        <time>2023-05-31T05:49:20Z</time>
      </trkpt>
      <trkpt lat="43.66288" lon="1.39218">
        <ele>124</ele>
        <time>2023-05-31T05:49:21Z</time>
      </trkpt>
      <trkpt lat="43.66289" lon="1.39225">
        <ele>124</ele>
        <time>2023-05-31T05:49:22Z</time>
      </trkpt>
      <trkpt lat="43.66289" lon="1.39227">
        <ele>124</ele>
        <time>2023-05-31T05:49:23Z</time>
      </trkpt>
      <trkpt lat="43.6629" lon="1.3923">
        <ele>124</ele>
        <time>2023-05-31T05:49:24Z</time>
      </trkpt>
      <trkpt lat="43.66291" lon="1.39233">
        <ele>124</ele>
        <time>2023-05-31T05:49:25Z</time>
      </trkpt>
      <trkpt lat="43.66292" lon="1.39236">
        <ele>124</ele>
        <time>2023-05-31T05:49:26Z</time>
      </trkpt>
      <trkpt lat="43.66293" lon="1.39239">
        <ele>124</ele>
        <time>2023-05-31T05:49:27Z</time>
      </trkpt>
      <trkpt lat="43.66295" lon="1.39242">
        <ele>124</ele>
        <time>2023-05-31T05:49:28Z</time>
      </trkpt>
      <trkpt lat="43.66296" lon="1.39245">
        <ele>124</ele>
        <time>2023-05-31T05:49:29Z</time>
      </trkpt>
      <trkpt lat="43.66298" lon="1.39248">
        <ele>125</ele>
        <time>2023-05-31T05:49:30Z</time>
      </trkpt>
      <trkpt lat="43.66299" lon="1.3925">
        <ele>125</ele>
        <time>2023-05-31T05:49:31Z</time>
      </trkpt>
      <trkpt lat="43.663" lon="1.39253">
        <ele>125</ele>
        <time>2023-05-31T05:49:32Z</time>
      </trkpt>
      <trkpt lat="43.66301" lon="1.39256">
        <ele>125</ele>
        <time>2023-05-31T05:49:33Z</time>
      </trkpt>
      <trkpt lat="43.66302" lon="1.39258">
        <ele>125</ele>
        <time>2023-05-31T05:49:34Z</time>
      </trkpt>
      <trkpt lat="43.66302" lon="1.39258">
        <ele>125</ele>
        <time>2023-05-31T05:49:35Z</time>
      </trkpt>
      <trkpt lat="43.66306" lon="1.39264">
        <ele>125</ele>
        <time>2023-05-31T05:49:36Z</time>
      </trkpt>
      <trkpt lat="43.66306" lon="1.39265">
        <ele>125</ele>
        <time>2023-05-31T05:49:37Z</time>
      </trkpt>
      <trkpt lat="43.66306" lon="1.39265">
        <ele>125</ele>
        <time>2023-05-31T05:49:38Z</time>
      </trkpt>
      <trkpt lat="43.6631" lon="1.39271">
        <ele>125</ele>
        <time>2023-05-31T05:49:39Z</time>
      </trkpt>
      <trkpt lat="43.66311" lon="1.39272">
        <ele>125</ele>
        <time>2023-05-31T05:49:40Z</time>
      </trkpt>
      <trkpt lat="43.66313" lon="1.39274">
        <ele>125</ele>
        <time>2023-05-31T05:49:41Z</time>
      </trkpt>
      <trkpt lat="43.66315" lon="1.39276">
        <ele>125</ele>
        <time>2023-05-31T05:49:42Z</time>
      </trkpt>
      <trkpt lat="43.66315" lon="1.39276">
        <ele>125</ele>
        <time>2023-05-31T05:49:43Z</time>
      </trkpt>
      <trkpt lat="43.6632" lon="1.3928">
        <ele>125</ele>
        <time>2023-05-31T05:49:44Z</time>
      </trkpt>
      <trkpt lat="43.66321" lon="1.39281">
        <ele>125</ele>
        <time>2023-05-31T05:49:45Z</time>
      </trkpt>
      <trkpt lat="43.66321" lon="1.39281">
        <ele>125</ele>
        <time>2023-05-31T05:49:46Z</time>
      </trkpt>
      <trkpt lat="43.66325" lon="1.39283">
        <ele>125</ele>
        <time>2023-05-31T05:49:47Z</time>
      </trkpt>
      <trkpt lat="43.66327" lon="1.39283">
        <ele>125</ele>
        <time>2023-05-31T05:49:48Z</time>
      </trkpt>
      <trkpt lat="43.66329" lon="1.39282">
        <ele>125</ele>
        <time>2023-05-31T05:49:49Z</time>
      </trkpt>
      <trkpt lat="43.66329" lon="1.39282">
        <ele>125</ele>
        <time>2023-05-31T05:49:50Z</time>
      </trkpt>
      <trkpt lat="43.66332" lon="1.3928">
        <ele>125</ele>
        <time>2023-05-31T05:49:51Z</time>
      </trkpt>
      <trkpt lat="43.66333" lon="1.39279">
        <ele>124</ele>
        <time>2023-05-31T05:49:52Z</time>
      </trkpt>
      <trkpt lat="43.66333" lon="1.39279">
        <ele>124</ele>
        <time>2023-05-31T05:49:53Z</time>
      </trkpt>
      <trkpt lat="43.66335" lon="1.39279">
        <ele>124</ele>
        <time>2023-05-31T05:49:54Z</time>
      </trkpt>
      <trkpt lat="43.66339" lon="1.39276">
        <ele>124</ele>
        <time>2023-05-31T05:49:55Z</time>
      </trkpt>
      <trkpt lat="43.66341" lon="1.39275">
        <ele>124</ele>
        <time>2023-05-31T05:49:56Z</time>
      </trkpt>
      <trkpt lat="43.66342" lon="1.39273">
        <ele>123</ele>
        <time>2023-05-31T05:49:57Z</time>
      </trkpt>
      <trkpt lat="43.66342" lon="1.39273">
        <ele>123</ele>
        <time>2023-05-31T05:49:58Z</time>
      </trkpt>
      <trkpt lat="43.66346" lon="1.39271">
        <ele>123</ele>
        <time>2023-05-31T05:49:59Z</time>
      </trkpt>
      <trkpt lat="43.66346" lon="1.39271">
        <ele>123</ele>
        <time>2023-05-31T05:50:00Z</time>
      </trkpt>
      <trkpt lat="43.66352" lon="1.3927">
        <ele>123</ele>
        <time>2023-05-31T05:50:01Z</time>
      </trkpt>
      <trkpt lat="43.66354" lon="1.3927">
        <ele>123</ele>
        <time>2023-05-31T05:50:02Z</time>
      </trkpt>
      <trkpt lat="43.66357" lon="1.3927">
        <ele>124</ele>
        <time>2023-05-31T05:50:03Z</time>
      </trkpt>
      <trkpt lat="43.66359" lon="1.39271">
        <ele>124</ele>
        <time>2023-05-31T05:50:04Z</time>
      </trkpt>
      <trkpt lat="43.66362" lon="1.39272">
        <ele>124</ele>
        <time>2023-05-31T05:50:05Z</time>
      </trkpt>
      <trkpt lat="43.66365" lon="1.39274">
        <ele>124</ele>
        <time>2023-05-31T05:50:06Z</time>
      </trkpt>
      <trkpt lat="43.66367" lon="1.39276">
        <ele>124</ele>
        <time>2023-05-31T05:50:07Z</time>
      </trkpt>
      <trkpt lat="43.66369" lon="1.39278">
        <ele>124</ele>
        <time>2023-05-31T05:50:08Z</time>
      </trkpt>
      <trkpt lat="43.66371" lon="1.3928">
        <ele>124</ele>
        <time>2023-05-31T05:50:09Z</time>
      </trkpt>
      <trkpt lat="43.66373" lon="1.39283">
        <ele>124</ele>
        <time>2023-05-31T05:50:10Z</time>
      </trkpt>
      <trkpt lat="43.66376" lon="1.39285">
        <ele>124</ele>
        <time>2023-05-31T05:50:11Z</time>
      </trkpt>
      <trkpt lat="43.66378" lon="1.39287">
        <ele>124</ele>
        <time>2023-05-31T05:50:12Z</time>
      </trkpt>
      <trkpt lat="43.6638" lon="1.39289">
        <ele>124</ele>
        <time>2023-05-31T05:50:13Z</time>
      </trkpt>
      <trkpt lat="43.6638" lon="1.39289">
        <ele>124</ele>
        <time>2023-05-31T05:50:14Z</time>
      </trkpt>
      <trkpt lat="43.66384" lon="1.39292">
        <ele>124</ele>
        <time>2023-05-31T05:50:15Z</time>
      </trkpt>
      <trkpt lat="43.66386" lon="1.39293">
        <ele>124</ele>
        <time>2023-05-31T05:50:16Z</time>
      </trkpt>
      <trkpt lat="43.66388" lon="1.39295">
        <ele>124</ele>
        <time>2023-05-31T05:50:17Z</time>
      </trkpt>
      <trkpt lat="43.6639" lon="1.39297">
        <ele>124</ele>
        <time>2023-05-31T05:50:18Z</time>
      </trkpt>
      <trkpt lat="43.66393" lon="1.393">
        <ele>124</ele>
        <time>2023-05-31T05:50:19Z</time>
      </trkpt>
      <trkpt lat="43.66395" lon="1.39302">
        <ele>124</ele>
        <time>2023-05-31T05:50:20Z</time>
      </trkpt>
      <trkpt lat="43.66397" lon="1.39304">
        <ele>124</ele>
        <time>2023-05-31T05:50:21Z</time>
      </trkpt>
      <trkpt lat="43.66399" lon="1.39306">
        <ele>124</ele>
        <time>2023-05-31T05:50:22Z</time>
      </trkpt>
      <trkpt lat="43.66401" lon="1.39308">
        <ele>124</ele>
        <time>2023-05-31T05:50:23Z</time>
      </trkpt>
      <trkpt lat="43.66403" lon="1.3931">
        <ele>124</ele>
        <time>2023-05-31T05:50:24Z</time>
      </trkpt>
      <trkpt lat="43.66405" lon="1.39311">
        <ele>124</ele>
        <time>2023-05-31T05:50:25Z</time>
      </trkpt>
      <trkpt lat="43.66407" lon="1.39313">
        <ele>124</ele>
        <time>2023-05-31T05:50:26Z</time>
      </trkpt>
      <trkpt lat="43.66409" lon="1.39314">
        <ele>124</ele>
        <time>2023-05-31T05:50:27Z</time>
      </trkpt>
      <trkpt lat="43.66412" lon="1.39315">
        <ele>124</ele>
        <time>2023-05-31T05:50:28Z</time>
      </trkpt>
      <trkpt lat="43.66414" lon="1.39316">
        <ele>124</ele>
        <time>2023-05-31T05:50:29Z</time>
      </trkpt>
      <trkpt lat="43.66416" lon="1.39317">
        <ele>124</ele>
        <time>2023-05-31T05:50:30Z</time>
      </trkpt>
      <trkpt lat="43.66418" lon="1.39317">
        <ele>124</ele>
        <time>2023-05-31T05:50:31Z</time>
      </trkpt>
      <trkpt lat="43.66421" lon="1.39318">
        <ele>124</ele>
        <time>2023-05-31T05:50:32Z</time>
      </trkpt>
      <trkpt lat="43.66421" lon="1.39318">
        <ele>124</ele>
        <time>2023-05-31T05:50:33Z</time>
      </trkpt>
      <trkpt lat="43.66427" lon="1.39319">
        <ele>124</ele>
        <time>2023-05-31T05:50:34Z</time>
      </trkpt>
      <trkpt lat="43.66428" lon="1.39319">
        <ele>124</ele>
        <time>2023-05-31T05:50:35Z</time>
      </trkpt>
      <trkpt lat="43.66431" lon="1.3932">
        <ele>125</ele>
        <time>2023-05-31T05:50:36Z</time>
      </trkpt>
      <trkpt lat="43.66433" lon="1.3932">
        <ele>125</ele>
        <time>2023-05-31T05:50:37Z</time>
      </trkpt>
      <trkpt lat="43.66433" lon="1.3932">
        <ele>124</ele>
        <time>2023-05-31T05:50:38Z</time>
      </trkpt>
      <trkpt lat="43.66438" lon="1.3932">
        <ele>124</ele>
        <time>2023-05-31T05:50:39Z</time>
      </trkpt>
      <trkpt lat="43.6644" lon="1.39319">
        <ele>124</ele>
        <time>2023-05-31T05:50:40Z</time>
      </trkpt>
      <trkpt lat="43.66443" lon="1.3932">
        <ele>124</ele>
        <time>2023-05-31T05:50:41Z</time>
      </trkpt>
      <trkpt lat="43.66444" lon="1.3932">
        <ele>124</ele>
        <time>2023-05-31T05:50:42Z</time>
      </trkpt>
      <trkpt lat="43.66444" lon="1.3932">
        <ele>124</ele>
        <time>2023-05-31T05:50:43Z</time>
      </trkpt>
      <trkpt lat="43.66449" lon="1.3932">
        <ele>124</ele>
        <time>2023-05-31T05:50:44Z</time>
      </trkpt>
      <trkpt lat="43.66449" lon="1.3932">
        <ele>124</ele>
        <time>2023-05-31T05:50:45Z</time>
      </trkpt>
      <trkpt lat="43.66455" lon="1.3932">
        <ele>124</ele>
        <time>2023-05-31T05:50:46Z</time>
      </trkpt>
      <trkpt lat="43.66456" lon="1.3932">
        <ele>124</ele>
        <time>2023-05-31T05:50:47Z</time>
      </trkpt>
      <trkpt lat="43.66459" lon="1.39319">
        <ele>125</ele>
        <time>2023-05-31T05:50:48Z</time>
      </trkpt>
      <trkpt lat="43.66461" lon="1.39319">
        <ele>125</ele>
        <time>2023-05-31T05:50:49Z</time>
      </trkpt>
      <trkpt lat="43.66461" lon="1.39319">
        <ele>124</ele>
        <time>2023-05-31T05:50:50Z</time>
      </trkpt>
      <trkpt lat="43.66466" lon="1.39317">
        <ele>124</ele>
        <time>2023-05-31T05:50:51Z</time>
      </trkpt>
      <trkpt lat="43.66466" lon="1.39317">
        <ele>124</ele>
        <time>2023-05-31T05:50:52Z</time>
      </trkpt>
      <trkpt lat="43.66472" lon="1.39315">
        <ele>124</ele>
        <time>2023-05-31T05:50:53Z</time>
      </trkpt>
      <trkpt lat="43.66474" lon="1.39314">
        <ele>125</ele>
        <time>2023-05-31T05:50:54Z</time>
      </trkpt>
      <trkpt lat="43.66477" lon="1.39312">
        <ele>125</ele>
        <time>2023-05-31T05:50:55Z</time>
      </trkpt>
      <trkpt lat="43.66479" lon="1.39311">
        <ele>125</ele>
        <time>2023-05-31T05:50:56Z</time>
      </trkpt>
      <trkpt lat="43.66479" lon="1.39311">
        <ele>125</ele>
        <time>2023-05-31T05:50:57Z</time>
      </trkpt>
      <trkpt lat="43.66485" lon="1.39308">
        <ele>125</ele>
        <time>2023-05-31T05:50:58Z</time>
      </trkpt>
      <trkpt lat="43.66486" lon="1.39307">
        <ele>125</ele>
        <time>2023-05-31T05:50:59Z</time>
      </trkpt>
      <trkpt lat="43.66486" lon="1.39307">
        <ele>125</ele>
        <time>2023-05-31T05:51:00Z</time>
      </trkpt>
      <trkpt lat="43.6649" lon="1.39305">
        <ele>125</ele>
        <time>2023-05-31T05:51:01Z</time>
      </trkpt>
      <trkpt lat="43.6649" lon="1.39305">
        <ele>125</ele>
        <time>2023-05-31T05:51:02Z</time>
      </trkpt>
      <trkpt lat="43.66493" lon="1.39301">
        <ele>125</ele>
        <time>2023-05-31T05:51:03Z</time>
      </trkpt>
      <trkpt lat="43.66493" lon="1.39301">
        <ele>124</ele>
        <time>2023-05-31T05:51:04Z</time>
      </trkpt>
      <trkpt lat="43.66498" lon="1.39296">
        <ele>124</ele>
        <time>2023-05-31T05:51:05Z</time>
      </trkpt>
      <trkpt lat="43.66498" lon="1.39294">
        <ele>124</ele>
        <time>2023-05-31T05:51:06Z</time>
      </trkpt>
      <trkpt lat="43.665" lon="1.39292">
        <ele>124</ele>
        <time>2023-05-31T05:51:07Z</time>
      </trkpt>
      <trkpt lat="43.66501" lon="1.39289">
        <ele>124</ele>
        <time>2023-05-31T05:51:08Z</time>
      </trkpt>
      <trkpt lat="43.66501" lon="1.39289">
        <ele>124</ele>
        <time>2023-05-31T05:51:09Z</time>
      </trkpt>
      <trkpt lat="43.66503" lon="1.39283">
        <ele>124</ele>
        <time>2023-05-31T05:51:10Z</time>
      </trkpt>
      <trkpt lat="43.66503" lon="1.39283">
        <ele>123</ele>
        <time>2023-05-31T05:51:11Z</time>
      </trkpt>
      <trkpt lat="43.66505" lon="1.39278">
        <ele>124</ele>
        <time>2023-05-31T05:51:12Z</time>
      </trkpt>
      <trkpt lat="43.66506" lon="1.39275">
        <ele>124</ele>
        <time>2023-05-31T05:51:13Z</time>
      </trkpt>
      <trkpt lat="43.66508" lon="1.39271">
        <ele>124</ele>
        <time>2023-05-31T05:51:14Z</time>
      </trkpt>
      <trkpt lat="43.66509" lon="1.39269">
        <ele>124</ele>
        <time>2023-05-31T05:51:15Z</time>
      </trkpt>
      <trkpt lat="43.66509" lon="1.39269">
        <ele>124</ele>
        <time>2023-05-31T05:51:16Z</time>
      </trkpt>
      <trkpt lat="43.66513" lon="1.39263">
        <ele>124</ele>
        <time>2023-05-31T05:51:17Z</time>
      </trkpt>
      <trkpt lat="43.66515" lon="1.39262">
        <ele>123</ele>
        <time>2023-05-31T05:51:18Z</time>
      </trkpt>
      <trkpt lat="43.66517" lon="1.39263">
        <ele>123</ele>
        <time>2023-05-31T05:51:19Z</time>
      </trkpt>
      <trkpt lat="43.6652" lon="1.39264">
        <ele>123</ele>
        <time>2023-05-31T05:51:20Z</time>
      </trkpt>
      <trkpt lat="43.66522" lon="1.39265">
        <ele>123</ele>
        <time>2023-05-31T05:51:21Z</time>
      </trkpt>
      <trkpt lat="43.66522" lon="1.39265">
        <ele>123</ele>
        <time>2023-05-31T05:51:22Z</time>
      </trkpt>
      <trkpt lat="43.66529" lon="1.39267">
        <ele>123</ele>
        <time>2023-05-31T05:51:23Z</time>
      </trkpt>
      <trkpt lat="43.6653" lon="1.39268">
        <ele>123</ele>
        <time>2023-05-31T05:51:24Z</time>
      </trkpt>
      <trkpt lat="43.66532" lon="1.39269">
        <ele>123</ele>
        <time>2023-05-31T05:51:25Z</time>
      </trkpt>
      <trkpt lat="43.66535" lon="1.3927">
        <ele>123</ele>
        <time>2023-05-31T05:51:26Z</time>
      </trkpt>
      <trkpt lat="43.66537" lon="1.3927">
        <ele>123</ele>
        <time>2023-05-31T05:51:27Z</time>
      </trkpt>
      <trkpt lat="43.66539" lon="1.39269">
        <ele>124</ele>
        <time>2023-05-31T05:51:28Z</time>
      </trkpt>
      <trkpt lat="43.66539" lon="1.39269">
        <ele>124</ele>
        <time>2023-05-31T05:51:29Z</time>
      </trkpt>
      <trkpt lat="43.66544" lon="1.39266">
        <ele>124</ele>
        <time>2023-05-31T05:51:30Z</time>
      </trkpt>
      <trkpt lat="43.66546" lon="1.39265">
        <ele>124</ele>
        <time>2023-05-31T05:51:31Z</time>
      </trkpt>
      <trkpt lat="43.66549" lon="1.39264">
        <ele>124</ele>
        <time>2023-05-31T05:51:32Z</time>
      </trkpt>
      <trkpt lat="43.66551" lon="1.39263">
        <ele>124</ele>
        <time>2023-05-31T05:51:33Z</time>
      </trkpt>
      <trkpt lat="43.66553" lon="1.39262">
        <ele>124</ele>
        <time>2023-05-31T05:51:34Z</time>
      </trkpt>
      <trkpt lat="43.66556" lon="1.39262">
        <ele>124</ele>
        <time>2023-05-31T05:51:35Z</time>
      </trkpt>
      <trkpt lat="43.66556" lon="1.39262">
        <ele>124</ele>
        <time>2023-05-31T05:51:36Z</time>
      </trkpt>
      <trkpt lat="43.66562" lon="1.39264">
        <ele>124</ele>
        <time>2023-05-31T05:51:37Z</time>
      </trkpt>
      <trkpt lat="43.66563" lon="1.39265">
        <ele>124</ele>
        <time>2023-05-31T05:51:38Z</time>
      </trkpt>
      <trkpt lat="43.66565" lon="1.39267">
        <ele>124</ele>
        <time>2023-05-31T05:51:39Z</time>
      </trkpt>
      <trkpt lat="43.66567" lon="1.39269">
        <ele>124</ele>
        <time>2023-05-31T05:51:40Z</time>
      </trkpt>
      <trkpt lat="43.66569" lon="1.39271">
        <ele>125</ele>
        <time>2023-05-31T05:51:41Z</time>
      </trkpt>
      <trkpt lat="43.6657" lon="1.39275">
        <ele>125</ele>
        <time>2023-05-31T05:51:42Z</time>
      </trkpt>
      <trkpt lat="43.66571" lon="1.39279">
        <ele>125</ele>
        <time>2023-05-31T05:51:43Z</time>
      </trkpt>
      <trkpt lat="43.66572" lon="1.39282">
        <ele>125</ele>
        <time>2023-05-31T05:51:44Z</time>
      </trkpt>
      <trkpt lat="43.66572" lon="1.39286">
        <ele>125</ele>
        <time>2023-05-31T05:51:45Z</time>
      </trkpt>
      <trkpt lat="43.66572" lon="1.3929">
        <ele>125</ele>
        <time>2023-05-31T05:51:46Z</time>
      </trkpt>
      <trkpt lat="43.66572" lon="1.39294">
        <ele>125</ele>
        <time>2023-05-31T05:51:47Z</time>
      </trkpt>
      <trkpt lat="43.66572" lon="1.39298">
        <ele>125</ele>
        <time>2023-05-31T05:51:48Z</time>
      </trkpt>
      <trkpt lat="43.66572" lon="1.39298">
        <ele>125</ele>
        <time>2023-05-31T05:51:49Z</time>
      </trkpt>
      <trkpt lat="43.66572" lon="1.39305">
        <ele>125</ele>
        <time>2023-05-31T05:51:50Z</time>
      </trkpt>
      <trkpt lat="43.66572" lon="1.39309">
        <ele>125</ele>
        <time>2023-05-31T05:51:51Z</time>
      </trkpt>
      <trkpt lat="43.66572" lon="1.39313">
        <ele>125</ele>
        <time>2023-05-31T05:51:52Z</time>
      </trkpt>
      <trkpt lat="43.66572" lon="1.39317">
        <ele>125</ele>
        <time>2023-05-31T05:51:53Z</time>
      </trkpt>
      <trkpt lat="43.66572" lon="1.39317">
        <ele>125</ele>
        <time>2023-05-31T05:51:54Z</time>
      </trkpt>
      <trkpt lat="43.66572" lon="1.39321">
        <ele>125</ele>
        <time>2023-05-31T05:51:55Z</time>
      </trkpt>
      <trkpt lat="43.66574" lon="1.3933">
        <ele>125</ele>
        <time>2023-05-31T05:51:56Z</time>
      </trkpt>
      <trkpt lat="43.66575" lon="1.39331">
        <ele>126</ele>
        <time>2023-05-31T05:51:57Z</time>
      </trkpt>
      <trkpt lat="43.66576" lon="1.39334">
        <ele>126</ele>
        <time>2023-05-31T05:51:58Z</time>
      </trkpt>
      <trkpt lat="43.66576" lon="1.39338">
        <ele>125</ele>
        <time>2023-05-31T05:51:59Z</time>
      </trkpt>
      <trkpt lat="43.66576" lon="1.39342">
        <ele>125</ele>
        <time>2023-05-31T05:52:00Z</time>
      </trkpt>
      <trkpt lat="43.66576" lon="1.39345">
        <ele>125</ele>
        <time>2023-05-31T05:52:01Z</time>
      </trkpt>
      <trkpt lat="43.66576" lon="1.39345">
        <ele>125</ele>
        <time>2023-05-31T05:52:02Z</time>
      </trkpt>
      <trkpt lat="43.66577" lon="1.39353">
        <ele>125</ele>
        <time>2023-05-31T05:52:03Z</time>
      </trkpt>
      <trkpt lat="43.66577" lon="1.39353">
        <ele>125</ele>
        <time>2023-05-31T05:52:04Z</time>
      </trkpt>
      <trkpt lat="43.66578" lon="1.3936">
        <ele>125</ele>
        <time>2023-05-31T05:52:05Z</time>
      </trkpt>
      <trkpt lat="43.66579" lon="1.39363">
        <ele>125</ele>
        <time>2023-05-31T05:52:06Z</time>
      </trkpt>
      <trkpt lat="43.6658" lon="1.39366">
        <ele>125</ele>
        <time>2023-05-31T05:52:07Z</time>
      </trkpt>
      <trkpt lat="43.66582" lon="1.39369">
        <ele>125</ele>
        <time>2023-05-31T05:52:08Z</time>
      </trkpt>
      <trkpt lat="43.66582" lon="1.39369">
        <ele>125</ele>
        <time>2023-05-31T05:52:09Z</time>
      </trkpt>
      <trkpt lat="43.66583" lon="1.39375">
        <ele>125</ele>
        <time>2023-05-31T05:52:10Z</time>
      </trkpt>
      <trkpt lat="43.66583" lon="1.39375">
        <ele>125</ele>
        <time>2023-05-31T05:52:11Z</time>
      </trkpt>
      <trkpt lat="43.66583" lon="1.39382">
        <ele>125</ele>
        <time>2023-05-31T05:52:12Z</time>
      </trkpt>
      <trkpt lat="43.66583" lon="1.39382">
        <ele>124</ele>
        <time>2023-05-31T05:52:13Z</time>
      </trkpt>
      <trkpt lat="43.66583" lon="1.39389">
        <ele>124</ele>
        <time>2023-05-31T05:52:14Z</time>
      </trkpt>
      <trkpt lat="43.66583" lon="1.39392">
        <ele>125</ele>
        <time>2023-05-31T05:52:15Z</time>
      </trkpt>
      <trkpt lat="43.66583" lon="1.39395">
        <ele>125</ele>
        <time>2023-05-31T05:52:16Z</time>
      </trkpt>
      <trkpt lat="43.66583" lon="1.39395">
        <ele>125</ele>
        <time>2023-05-31T05:52:17Z</time>
      </trkpt>
      <trkpt lat="43.66583" lon="1.39403">
        <ele>125</ele>
        <time>2023-05-31T05:52:18Z</time>
      </trkpt>
      <trkpt lat="43.66583" lon="1.39405">
        <ele>125</ele>
        <time>2023-05-31T05:52:19Z</time>
      </trkpt>
      <trkpt lat="43.66584" lon="1.39408">
        <ele>125</ele>
        <time>2023-05-31T05:52:20Z</time>
      </trkpt>
      <trkpt lat="43.66584" lon="1.39411">
        <ele>125</ele>
        <time>2023-05-31T05:52:21Z</time>
      </trkpt>
      <trkpt lat="43.66585" lon="1.39414">
        <ele>125</ele>
        <time>2023-05-31T05:52:22Z</time>
      </trkpt>
      <trkpt lat="43.66585" lon="1.39418">
        <ele>125</ele>
        <time>2023-05-31T05:52:23Z</time>
      </trkpt>
      <trkpt lat="43.66586" lon="1.39421">
        <ele>125</ele>
        <time>2023-05-31T05:52:24Z</time>
      </trkpt>
      <trkpt lat="43.66587" lon="1.39423">
        <ele>125</ele>
        <time>2023-05-31T05:52:25Z</time>
      </trkpt>
      <trkpt lat="43.66588" lon="1.39426">
        <ele>125</ele>
        <time>2023-05-31T05:52:26Z</time>
      </trkpt>
      <trkpt lat="43.66589" lon="1.3943">
        <ele>125</ele>
        <time>2023-05-31T05:52:27Z</time>
      </trkpt>
      <trkpt lat="43.6659" lon="1.39433">
        <ele>125</ele>
        <time>2023-05-31T05:52:28Z</time>
      </trkpt>
      <trkpt lat="43.66591" lon="1.39437">
        <ele>125</ele>
        <time>2023-05-31T05:52:29Z</time>
      </trkpt>
      <trkpt lat="43.66592" lon="1.39441">
        <ele>125</ele>
        <time>2023-05-31T05:52:30Z</time>
      </trkpt>
      <trkpt lat="43.66592" lon="1.39444">
        <ele>125</ele>
        <time>2023-05-31T05:52:31Z</time>
      </trkpt>
      <trkpt lat="43.66593" lon="1.39448">
        <ele>125</ele>
        <time>2023-05-31T05:52:32Z</time>
      </trkpt>
      <trkpt lat="43.66593" lon="1.39448">
        <ele>125</ele>
        <time>2023-05-31T05:52:33Z</time>
      </trkpt>
      <trkpt lat="43.66594" lon="1.39456">
        <ele>125</ele>
        <time>2023-05-31T05:52:34Z</time>
      </trkpt>
      <trkpt lat="43.66594" lon="1.39456">
        <ele>125</ele>
        <time>2023-05-31T05:52:35Z</time>
      </trkpt>
      <trkpt lat="43.66595" lon="1.39462">
        <ele>125</ele>
        <time>2023-05-31T05:52:36Z</time>
      </trkpt>
      <trkpt lat="43.66595" lon="1.39462">
        <ele>125</ele>
        <time>2023-05-31T05:52:37Z</time>
      </trkpt>
      <trkpt lat="43.66597" lon="1.39468">
        <ele>125</ele>
        <time>2023-05-31T05:52:38Z</time>
      </trkpt>
      <trkpt lat="43.66598" lon="1.3947">
        <ele>125</ele>
        <time>2023-05-31T05:52:39Z</time>
      </trkpt>
      <trkpt lat="43.66599" lon="1.39473">
        <ele>125</ele>
        <time>2023-05-31T05:52:40Z</time>
      </trkpt>
      <trkpt lat="43.666" lon="1.39476">
        <ele>125</ele>
        <time>2023-05-31T05:52:41Z</time>
      </trkpt>
      <trkpt lat="43.666" lon="1.39476">
        <ele>125</ele>
        <time>2023-05-31T05:52:42Z</time>
      </trkpt>
      <trkpt lat="43.66601" lon="1.39484">
        <ele>125</ele>
        <time>2023-05-31T05:52:43Z</time>
      </trkpt>
      <trkpt lat="43.66601" lon="1.39486">
        <ele>125</ele>
        <time>2023-05-31T05:52:44Z</time>
      </trkpt>
      <trkpt lat="43.66602" lon="1.39489">
        <ele>125</ele>
        <time>2023-05-31T05:52:45Z</time>
      </trkpt>
      <trkpt lat="43.66602" lon="1.39489">
        <ele>125</ele>
        <time>2023-05-31T05:52:46Z</time>
      </trkpt>
      <trkpt lat="43.66603" lon="1.39496">
        <ele>125</ele>
        <time>2023-05-31T05:52:47Z</time>
      </trkpt>
      <trkpt lat="43.66603" lon="1.39498">
        <ele>125</ele>
        <time>2023-05-31T05:52:48Z</time>
      </trkpt>
      <trkpt lat="43.66603" lon="1.39498">
        <ele>125</ele>
        <time>2023-05-31T05:52:49Z</time>
      </trkpt>
      <trkpt lat="43.66602" lon="1.39506">
        <ele>125</ele>
        <time>2023-05-31T05:52:50Z</time>
      </trkpt>
      <trkpt lat="43.66602" lon="1.39509">
        <ele>125</ele>
        <time>2023-05-31T05:52:51Z</time>
      </trkpt>
      <trkpt lat="43.66602" lon="1.39513">
        <ele>125</ele>
        <time>2023-05-31T05:52:52Z</time>
      </trkpt>
      <trkpt lat="43.66602" lon="1.39516">
        <ele>125</ele>
        <time>2023-05-31T05:52:53Z</time>
      </trkpt>
      <trkpt lat="43.66602" lon="1.39519">
        <ele>125</ele>
        <time>2023-05-31T05:52:54Z</time>
      </trkpt>
      <trkpt lat="43.66602" lon="1.39523">
        <ele>124</ele>
        <time>2023-05-31T05:52:55Z</time>
      </trkpt>
      <trkpt lat="43.66602" lon="1.39526">
        <ele>124</ele>
        <time>2023-05-31T05:52:56Z</time>
      </trkpt>
      <trkpt lat="43.66603" lon="1.39529">
        <ele>124</ele>
        <time>2023-05-31T05:52:57Z</time>
      </trkpt>
      <trkpt lat="43.66604" lon="1.39532">
        <ele>124</ele>
        <time>2023-05-31T05:52:58Z</time>
      </trkpt>
      <trkpt lat="43.66605" lon="1.39536">
        <ele>125</ele>
        <time>2023-05-31T05:52:59Z</time>
      </trkpt>
      <trkpt lat="43.66606" lon="1.39538">
        <ele>125</ele>
        <time>2023-05-31T05:53:00Z</time>
      </trkpt>
      <trkpt lat="43.66607" lon="1.39541">
        <ele>125</ele>
        <time>2023-05-31T05:53:01Z</time>
      </trkpt>
      <trkpt lat="43.66608" lon="1.39544">
        <ele>126</ele>
        <time>2023-05-31T05:53:02Z</time>
      </trkpt>
      <trkpt lat="43.66608" lon="1.39544">
        <ele>126</ele>
        <time>2023-05-31T05:53:03Z</time>
      </trkpt>
      <trkpt lat="43.66611" lon="1.3955">
        <ele>126</ele>
        <time>2023-05-31T05:53:04Z</time>
      </trkpt>
      <trkpt lat="43.66612" lon="1.39552">
        <ele>126</ele>
        <time>2023-05-31T05:53:05Z</time>
      </trkpt>
      <trkpt lat="43.66613" lon="1.39555">
        <ele>126</ele>
        <time>2023-05-31T05:53:06Z</time>
      </trkpt>
      <trkpt lat="43.66615" lon="1.39559">
        <ele>126</ele>
        <time>2023-05-31T05:53:07Z</time>
      </trkpt>
      <trkpt lat="43.66615" lon="1.39559">
        <ele>126</ele>
        <time>2023-05-31T05:53:08Z</time>
      </trkpt>
      <trkpt lat="43.66616" lon="1.39565">
        <ele>126</ele>
        <time>2023-05-31T05:53:09Z</time>
      </trkpt>
      <trkpt lat="43.66617" lon="1.39567">
        <ele>126</ele>
        <time>2023-05-31T05:53:10Z</time>
      </trkpt>
      <trkpt lat="43.66617" lon="1.39569">
        <ele>126</ele>
        <time>2023-05-31T05:53:11Z</time>
      </trkpt>
      <trkpt lat="43.66618" lon="1.39572">
        <ele>126</ele>
        <time>2023-05-31T05:53:12Z</time>
      </trkpt>
      <trkpt lat="43.66618" lon="1.39576">
        <ele>126</ele>
        <time>2023-05-31T05:53:13Z</time>
      </trkpt>
      <trkpt lat="43.66618" lon="1.3958">
        <ele>126</ele>
        <time>2023-05-31T05:53:14Z</time>
      </trkpt>
      <trkpt lat="43.66619" lon="1.39584">
        <ele>126</ele>
        <time>2023-05-31T05:53:15Z</time>
      </trkpt>
      <trkpt lat="43.66619" lon="1.39588">
        <ele>126</ele>
        <time>2023-05-31T05:53:16Z</time>
      </trkpt>
      <trkpt lat="43.66619" lon="1.39591">
        <ele>126</ele>
        <time>2023-05-31T05:53:17Z</time>
      </trkpt>
      <trkpt lat="43.66619" lon="1.39591">
        <ele>126</ele>
        <time>2023-05-31T05:53:18Z</time>
      </trkpt>
      <trkpt lat="43.66621" lon="1.39597">
        <ele>126</ele>
        <time>2023-05-31T05:53:19Z</time>
      </trkpt>
      <trkpt lat="43.66622" lon="1.396">
        <ele>126</ele>
        <time>2023-05-31T05:53:20Z</time>
      </trkpt>
      <trkpt lat="43.66623" lon="1.39604">
        <ele>125</ele>
        <time>2023-05-31T05:53:21Z</time>
      </trkpt>
      <trkpt lat="43.66623" lon="1.39608">
        <ele>125</ele>
        <time>2023-05-31T05:53:22Z</time>
      </trkpt>
      <trkpt lat="43.66624" lon="1.39612">
        <ele>125</ele>
        <time>2023-05-31T05:53:23Z</time>
      </trkpt>
      <trkpt lat="43.66624" lon="1.39615">
        <ele>125</ele>
        <time>2023-05-31T05:53:24Z</time>
      </trkpt>
      <trkpt lat="43.66625" lon="1.39618">
        <ele>125</ele>
        <time>2023-05-31T05:53:25Z</time>
      </trkpt>
      <trkpt lat="43.66626" lon="1.3962">
        <ele>125</ele>
        <time>2023-05-31T05:53:26Z</time>
      </trkpt>
      <trkpt lat="43.66626" lon="1.3962">
        <ele>125</ele>
        <time>2023-05-31T05:53:27Z</time>
      </trkpt>
      <trkpt lat="43.66627" lon="1.39627">
        <ele>125</ele>
        <time>2023-05-31T05:53:28Z</time>
      </trkpt>
      <trkpt lat="43.66627" lon="1.39627">
        <ele>125</ele>
        <time>2023-05-31T05:53:29Z</time>
      </trkpt>
      <trkpt lat="43.66627" lon="1.39634">
        <ele>125</ele>
        <time>2023-05-31T05:53:30Z</time>
      </trkpt>
      <trkpt lat="43.66627" lon="1.39638">
        <ele>125</ele>
        <time>2023-05-31T05:53:31Z</time>
      </trkpt>
      <trkpt lat="43.66627" lon="1.39641">
        <ele>125</ele>
        <time>2023-05-31T05:53:32Z</time>
      </trkpt>
      <trkpt lat="43.66627" lon="1.39645">
        <ele>126</ele>
        <time>2023-05-31T05:53:33Z</time>
      </trkpt>
      <trkpt lat="43.66627" lon="1.39645">
        <ele>126</ele>
        <time>2023-05-31T05:53:34Z</time>
      </trkpt>
      <trkpt lat="43.66629" lon="1.39653">
        <ele>126</ele>
        <time>2023-05-31T05:53:35Z</time>
      </trkpt>
      <trkpt lat="43.66629" lon="1.39655">
        <ele>126</ele>
        <time>2023-05-31T05:53:36Z</time>
      </trkpt>
      <trkpt lat="43.66629" lon="1.39658">
        <ele>126</ele>
        <time>2023-05-31T05:53:37Z</time>
      </trkpt>
      <trkpt lat="43.66629" lon="1.39658">
        <ele>126</ele>
        <time>2023-05-31T05:53:38Z</time>
      </trkpt>
      <trkpt lat="43.6663" lon="1.39665">
        <ele>126</ele>
        <time>2023-05-31T05:53:39Z</time>
      </trkpt>
      <trkpt lat="43.6663" lon="1.39665">
        <ele>126</ele>
        <time>2023-05-31T05:53:40Z</time>
      </trkpt>
      <trkpt lat="43.66631" lon="1.39673">
        <ele>126</ele>
        <time>2023-05-31T05:53:41Z</time>
      </trkpt>
      <trkpt lat="43.66632" lon="1.39677">
        <ele>126</ele>
        <time>2023-05-31T05:53:42Z</time>
      </trkpt>
      <trkpt lat="43.66633" lon="1.3968">
        <ele>126</ele>
        <time>2023-05-31T05:53:43Z</time>
      </trkpt>
      <trkpt lat="43.66634" lon="1.39684">
        <ele>126</ele>
        <time>2023-05-31T05:53:44Z</time>
      </trkpt>
      <trkpt lat="43.66635" lon="1.39687">
        <ele>125</ele>
        <time>2023-05-31T05:53:45Z</time>
      </trkpt>
      <trkpt lat="43.66635" lon="1.3969">
        <ele>125</ele>
        <time>2023-05-31T05:53:46Z</time>
      </trkpt>
      <trkpt lat="43.66636" lon="1.39694">
        <ele>125</ele>
        <time>2023-05-31T05:53:47Z</time>
      </trkpt>
      <trkpt lat="43.66636" lon="1.39698">
        <ele>125</ele>
        <time>2023-05-31T05:53:48Z</time>
      </trkpt>
      <trkpt lat="43.66636" lon="1.39702">
        <ele>125</ele>
        <time>2023-05-31T05:53:49Z</time>
      </trkpt>
      <trkpt lat="43.66636" lon="1.39706">
        <ele>125</ele>
        <time>2023-05-31T05:53:50Z</time>
      </trkpt>
      <trkpt lat="43.66637" lon="1.3971">
        <ele>125</ele>
        <time>2023-05-31T05:53:51Z</time>
      </trkpt>
      <trkpt lat="43.66637" lon="1.39714">
        <ele>125</ele>
        <time>2023-05-31T05:53:52Z</time>
      </trkpt>
      <trkpt lat="43.66638" lon="1.39717">
        <ele>125</ele>
        <time>2023-05-31T05:53:53Z</time>
      </trkpt>
      <trkpt lat="43.66638" lon="1.3972">
        <ele>125</ele>
        <time>2023-05-31T05:53:54Z</time>
      </trkpt>
      <trkpt lat="43.66638" lon="1.3972">
        <ele>125</ele>
        <time>2023-05-31T05:53:55Z</time>
      </trkpt>
      <trkpt lat="43.66638" lon="1.3973">
        <ele>125</ele>
        <time>2023-05-31T05:53:56Z</time>
      </trkpt>
      <trkpt lat="43.66638" lon="1.39731">
        <ele>125</ele>
        <time>2023-05-31T05:53:57Z</time>
      </trkpt>
      <trkpt lat="43.66638" lon="1.39736">
        <ele>125</ele>
        <time>2023-05-31T05:53:58Z</time>
      </trkpt>
      <trkpt lat="43.66638" lon="1.39736">
        <ele>126</ele>
        <time>2023-05-31T05:53:59Z</time>
      </trkpt>
      <trkpt lat="43.66638" lon="1.39745">
        <ele>125</ele>
        <time>2023-05-31T05:54:00Z</time>
      </trkpt>
      <trkpt lat="43.66638" lon="1.39747">
        <ele>126</ele>
        <time>2023-05-31T05:54:01Z</time>
      </trkpt>
      <trkpt lat="43.66638" lon="1.39751">
        <ele>126</ele>
        <time>2023-05-31T05:54:02Z</time>
      </trkpt>
      <trkpt lat="43.66638" lon="1.39755">
        <ele>126</ele>
        <time>2023-05-31T05:54:03Z</time>
      </trkpt>
      <trkpt lat="43.66637" lon="1.39759">
        <ele>126</ele>
        <time>2023-05-31T05:54:04Z</time>
      </trkpt>
      <trkpt lat="43.66636" lon="1.39762">
        <ele>126</ele>
        <time>2023-05-31T05:54:05Z</time>
      </trkpt>
      <trkpt lat="43.66636" lon="1.39766">
        <ele>126</ele>
        <time>2023-05-31T05:54:06Z</time>
      </trkpt>
      <trkpt lat="43.66636" lon="1.39766">
        <ele>126</ele>
        <time>2023-05-31T05:54:07Z</time>
      </trkpt>
      <trkpt lat="43.66636" lon="1.39773">
        <ele>126</ele>
        <time>2023-05-31T05:54:08Z</time>
      </trkpt>
      <trkpt lat="43.66636" lon="1.39773">
        <ele>126</ele>
        <time>2023-05-31T05:54:09Z</time>
      </trkpt>
      <trkpt lat="43.66636" lon="1.39782">
        <ele>126</ele>
        <time>2023-05-31T05:54:10Z</time>
      </trkpt>
      <trkpt lat="43.66635" lon="1.39784">
        <ele>126</ele>
        <time>2023-05-31T05:54:11Z</time>
      </trkpt>
      <trkpt lat="43.66633" lon="1.39787">
        <ele>126</ele>
        <time>2023-05-31T05:54:12Z</time>
      </trkpt>
      <trkpt lat="43.66632" lon="1.39789">
        <ele>126</ele>
        <time>2023-05-31T05:54:13Z</time>
      </trkpt>
      <trkpt lat="43.66631" lon="1.39792">
        <ele>126</ele>
        <time>2023-05-31T05:54:14Z</time>
      </trkpt>
      <trkpt lat="43.66631" lon="1.39792">
        <ele>126</ele>
        <time>2023-05-31T05:54:15Z</time>
      </trkpt>
      <trkpt lat="43.66633" lon="1.39799">
        <ele>126</ele>
        <time>2023-05-31T05:54:16Z</time>
      </trkpt>
      <trkpt lat="43.66634" lon="1.39803">
        <ele>126</ele>
        <time>2023-05-31T05:54:17Z</time>
      </trkpt>
      <trkpt lat="43.66635" lon="1.39807">
        <ele>126</ele>
        <time>2023-05-31T05:54:18Z</time>
      </trkpt>
      <trkpt lat="43.66635" lon="1.39811">
        <ele>126</ele>
        <time>2023-05-31T05:54:19Z</time>
      </trkpt>
      <trkpt lat="43.66635" lon="1.39815">
        <ele>126</ele>
        <time>2023-05-31T05:54:20Z</time>
      </trkpt>
      <trkpt lat="43.66634" lon="1.39818">
        <ele>126</ele>
        <time>2023-05-31T05:54:21Z</time>
      </trkpt>
      <trkpt lat="43.66634" lon="1.39822">
        <ele>126</ele>
        <time>2023-05-31T05:54:22Z</time>
      </trkpt>
      <trkpt lat="43.66634" lon="1.39825">
        <ele>125</ele>
        <time>2023-05-31T05:54:23Z</time>
      </trkpt>
      <trkpt lat="43.66634" lon="1.39829">
        <ele>125</ele>
        <time>2023-05-31T05:54:24Z</time>
      </trkpt>
      <trkpt lat="43.66634" lon="1.39833">
        <ele>125</ele>
        <time>2023-05-31T05:54:25Z</time>
      </trkpt>
      <trkpt lat="43.66635" lon="1.39837">
        <ele>125</ele>
        <time>2023-05-31T05:54:26Z</time>
      </trkpt>
      <trkpt lat="43.66635" lon="1.39842">
        <ele>125</ele>
        <time>2023-05-31T05:54:27Z</time>
      </trkpt>
      <trkpt lat="43.66636" lon="1.39845">
        <ele>125</ele>
        <time>2023-05-31T05:54:28Z</time>
      </trkpt>
      <trkpt lat="43.66636" lon="1.39845">
        <ele>125</ele>
        <time>2023-05-31T05:54:29Z</time>
      </trkpt>
      <trkpt lat="43.66638" lon="1.39852">
        <ele>125</ele>
        <time>2023-05-31T05:54:30Z</time>
      </trkpt>
      <trkpt lat="43.66638" lon="1.39852">
        <ele>125</ele>
        <time>2023-05-31T05:54:31Z</time>
      </trkpt>
      <trkpt lat="43.66638" lon="1.3986">
        <ele>125</ele>
        <time>2023-05-31T05:54:32Z</time>
      </trkpt>
      <trkpt lat="43.66638" lon="1.3986">
        <ele>125</ele>
        <time>2023-05-31T05:54:33Z</time>
      </trkpt>
      <trkpt lat="43.66637" lon="1.39868">
        <ele>125</ele>
        <time>2023-05-31T05:54:34Z</time>
      </trkpt>
      <trkpt lat="43.66637" lon="1.39868">
        <ele>125</ele>
        <time>2023-05-31T05:54:35Z</time>
      </trkpt>
      <trkpt lat="43.66636" lon="1.39878">
        <ele>125</ele>
        <time>2023-05-31T05:54:36Z</time>
      </trkpt>
      <trkpt lat="43.66635" lon="1.39879">
        <ele>125</ele>
        <time>2023-05-31T05:54:37Z</time>
      </trkpt>
      <trkpt lat="43.66635" lon="1.39883">
        <ele>125</ele>
        <time>2023-05-31T05:54:38Z</time>
      </trkpt>
      <trkpt lat="43.66634" lon="1.39886">
        <ele>125</ele>
        <time>2023-05-31T05:54:39Z</time>
      </trkpt>
      <trkpt lat="43.66633" lon="1.39889">
        <ele>125</ele>
        <time>2023-05-31T05:54:40Z</time>
      </trkpt>
      <trkpt lat="43.66631" lon="1.39893">
        <ele>125</ele>
        <time>2023-05-31T05:54:41Z</time>
      </trkpt>
      <trkpt lat="43.6663" lon="1.39896">
        <ele>125</ele>
        <time>2023-05-31T05:54:42Z</time>
      </trkpt>
      <trkpt lat="43.66628" lon="1.399">
        <ele>125</ele>
        <time>2023-05-31T05:54:43Z</time>
      </trkpt>
      <trkpt lat="43.66627" lon="1.39903">
        <ele>125</ele>
        <time>2023-05-31T05:54:44Z</time>
      </trkpt>
      <trkpt lat="43.66627" lon="1.39903">
        <ele>125</ele>
        <time>2023-05-31T05:54:45Z</time>
      </trkpt>
      <trkpt lat="43.66624" lon="1.39908">
        <ele>125</ele>
        <time>2023-05-31T05:54:46Z</time>
      </trkpt>
      <trkpt lat="43.66622" lon="1.39912">
        <ele>125</ele>
        <time>2023-05-31T05:54:47Z</time>
      </trkpt>
      <trkpt lat="43.66621" lon="1.39915">
        <ele>125</ele>
        <time>2023-05-31T05:54:48Z</time>
      </trkpt>
      <trkpt lat="43.6662" lon="1.39918">
        <ele>125</ele>
        <time>2023-05-31T05:54:49Z</time>
      </trkpt>
      <trkpt lat="43.66618" lon="1.39921">
        <ele>125</ele>
        <time>2023-05-31T05:54:50Z</time>
      </trkpt>
      <trkpt lat="43.66617" lon="1.39923">
        <ele>126</ele>
        <time>2023-05-31T05:54:51Z</time>
      </trkpt>
      <trkpt lat="43.66616" lon="1.39926">
        <ele>126</ele>
        <time>2023-05-31T05:54:52Z</time>
      </trkpt>
      <trkpt lat="43.66616" lon="1.39926">
        <ele>126</ele>
        <time>2023-05-31T05:54:53Z</time>
      </trkpt>
      <trkpt lat="43.66614" lon="1.39936">
        <ele>126</ele>
        <time>2023-05-31T05:54:54Z</time>
      </trkpt>
      <trkpt lat="43.66614" lon="1.39938">
        <ele>126</ele>
        <time>2023-05-31T05:54:55Z</time>
      </trkpt>
      <trkpt lat="43.66613" lon="1.39942">
        <ele>126</ele>
        <time>2023-05-31T05:54:56Z</time>
      </trkpt>
      <trkpt lat="43.66613" lon="1.39945">
        <ele>126</ele>
        <time>2023-05-31T05:54:57Z</time>
      </trkpt>
      <trkpt lat="43.66612" lon="1.39948">
        <ele>126</ele>
        <time>2023-05-31T05:54:58Z</time>
      </trkpt>
      <trkpt lat="43.66612" lon="1.39952">
        <ele>126</ele>
        <time>2023-05-31T05:54:59Z</time>
      </trkpt>
      <trkpt lat="43.66612" lon="1.39952">
        <ele>126</ele>
        <time>2023-05-31T05:55:00Z</time>
      </trkpt>
      <trkpt lat="43.66612" lon="1.39958">
        <ele>126</ele>
        <time>2023-05-31T05:55:01Z</time>
      </trkpt>
      <trkpt lat="43.66611" lon="1.39961">
        <ele>126</ele>
        <time>2023-05-31T05:55:02Z</time>
      </trkpt>
      <trkpt lat="43.6661" lon="1.39964">
        <ele>126</ele>
        <time>2023-05-31T05:55:03Z</time>
      </trkpt>
      <trkpt lat="43.66609" lon="1.39968">
        <ele>126</ele>
        <time>2023-05-31T05:55:04Z</time>
      </trkpt>
      <trkpt lat="43.66609" lon="1.39972">
        <ele>126</ele>
        <time>2023-05-31T05:55:05Z</time>
      </trkpt>
      <trkpt lat="43.66608" lon="1.39975">
        <ele>126</ele>
        <time>2023-05-31T05:55:06Z</time>
      </trkpt>
      <trkpt lat="43.66607" lon="1.39978">
        <ele>126</ele>
        <time>2023-05-31T05:55:07Z</time>
      </trkpt>
      <trkpt lat="43.66606" lon="1.39982">
        <ele>126</ele>
        <time>2023-05-31T05:55:08Z</time>
      </trkpt>
      <trkpt lat="43.66604" lon="1.39984">
        <ele>126</ele>
        <time>2023-05-31T05:55:09Z</time>
      </trkpt>
      <trkpt lat="43.66604" lon="1.39987">
        <ele>126</ele>
        <time>2023-05-31T05:55:10Z</time>
      </trkpt>
      <trkpt lat="43.66603" lon="1.3999">
        <ele>126</ele>
        <time>2023-05-31T05:55:11Z</time>
      </trkpt>
      <trkpt lat="43.66602" lon="1.39993">
        <ele>126</ele>
        <time>2023-05-31T05:55:12Z</time>
      </trkpt>
      <trkpt lat="43.66601" lon="1.39997">
        <ele>126</ele>
        <time>2023-05-31T05:55:13Z</time>
      </trkpt>
      <trkpt lat="43.666" lon="1.4">
        <ele>126</ele>
        <time>2023-05-31T05:55:14Z</time>
      </trkpt>
      <trkpt lat="43.66598" lon="1.40004">
        <ele>126</ele>
        <time>2023-05-31T05:55:15Z</time>
      </trkpt>
      <trkpt lat="43.66597" lon="1.40007">
        <ele>126</ele>
        <time>2023-05-31T05:55:16Z</time>
      </trkpt>
      <trkpt lat="43.66596" lon="1.40011">
        <ele>126</ele>
        <time>2023-05-31T05:55:17Z</time>
      </trkpt>
      <trkpt lat="43.66596" lon="1.40011">
        <ele>126</ele>
        <time>2023-05-31T05:55:18Z</time>
      </trkpt>
      <trkpt lat="43.66593" lon="1.40018">
        <ele>126</ele>
        <time>2023-05-31T05:55:19Z</time>
      </trkpt>
      <trkpt lat="43.66593" lon="1.40019">
        <ele>126</ele>
        <time>2023-05-31T05:55:20Z</time>
      </trkpt>
      <trkpt lat="43.66592" lon="1.40022">
        <ele>126</ele>
        <time>2023-05-31T05:55:21Z</time>
      </trkpt>
      <trkpt lat="43.66591" lon="1.40025">
        <ele>126</ele>
        <time>2023-05-31T05:55:22Z</time>
      </trkpt>
      <trkpt lat="43.66589" lon="1.40027">
        <ele>126</ele>
        <time>2023-05-31T05:55:23Z</time>
      </trkpt>
      <trkpt lat="43.66588" lon="1.4003">
        <ele>126</ele>
        <time>2023-05-31T05:55:24Z</time>
      </trkpt>
      <trkpt lat="43.66586" lon="1.40033">
        <ele>126</ele>
        <time>2023-05-31T05:55:25Z</time>
      </trkpt>
      <trkpt lat="43.66585" lon="1.40036">
        <ele>126</ele>
        <time>2023-05-31T05:55:26Z</time>
      </trkpt>
      <trkpt lat="43.66584" lon="1.40038">
        <ele>126</ele>
        <time>2023-05-31T05:55:27Z</time>
      </trkpt>
      <trkpt lat="43.66584" lon="1.40038">
        <ele>126</ele>
        <time>2023-05-31T05:55:28Z</time>
      </trkpt>
      <trkpt lat="43.66581" lon="1.40042">
        <ele>127</ele>
        <time>2023-05-31T05:55:29Z</time>
      </trkpt>
      <trkpt lat="43.6658" lon="1.40045">
        <ele>127</ele>
        <time>2023-05-31T05:55:30Z</time>
      </trkpt>
      <trkpt lat="43.66579" lon="1.40048">
        <ele>127</ele>
        <time>2023-05-31T05:55:31Z</time>
      </trkpt>
      <trkpt lat="43.66578" lon="1.40051">
        <ele>127</ele>
        <time>2023-05-31T05:55:32Z</time>
      </trkpt>
      <trkpt lat="43.66577" lon="1.40054">
        <ele>127</ele>
        <time>2023-05-31T05:55:33Z</time>
      </trkpt>
      <trkpt lat="43.66575" lon="1.40057">
        <ele>127</ele>
        <time>2023-05-31T05:55:34Z</time>
      </trkpt>
      <trkpt lat="43.66574" lon="1.40059">
        <ele>127</ele>
        <time>2023-05-31T05:55:35Z</time>
      </trkpt>
      <trkpt lat="43.66572" lon="1.40062">
        <ele>127</ele>
        <time>2023-05-31T05:55:36Z</time>
      </trkpt>
      <trkpt lat="43.66571" lon="1.40064">
        <ele>127</ele>
        <time>2023-05-31T05:55:37Z</time>
      </trkpt>
      <trkpt lat="43.66569" lon="1.40067">
        <ele>127</ele>
        <time>2023-05-31T05:55:38Z</time>
      </trkpt>
      <trkpt lat="43.66567" lon="1.40069">
        <ele>127</ele>
        <time>2023-05-31T05:55:39Z</time>
      </trkpt>
      <trkpt lat="43.66565" lon="1.40072">
        <ele>127</ele>
        <time>2023-05-31T05:55:40Z</time>
      </trkpt>
      <trkpt lat="43.66564" lon="1.40075">
        <ele>127</ele>
        <time>2023-05-31T05:55:41Z</time>
      </trkpt>
      <trkpt lat="43.66561" lon="1.40077">
        <ele>127</ele>
        <time>2023-05-31T05:55:42Z</time>
      </trkpt>
      <trkpt lat="43.66559" lon="1.40079">
        <ele>127</ele>
        <time>2023-05-31T05:55:43Z</time>
      </trkpt>
      <trkpt lat="43.66556" lon="1.40082">
        <ele>127</ele>
        <time>2023-05-31T05:55:44Z</time>
      </trkpt>
      <trkpt lat="43.66553" lon="1.40084">
        <ele>127</ele>
        <time>2023-05-31T05:55:45Z</time>
      </trkpt>
      <trkpt lat="43.66551" lon="1.40088">
        <ele>127</ele>
        <time>2023-05-31T05:55:46Z</time>
      </trkpt>
      <trkpt lat="43.66549" lon="1.40091">
        <ele>127</ele>
        <time>2023-05-31T05:55:47Z</time>
      </trkpt>
      <trkpt lat="43.66547" lon="1.40095">
        <ele>127</ele>
        <time>2023-05-31T05:55:48Z</time>
      </trkpt>
      <trkpt lat="43.66546" lon="1.40098">
        <ele>127</ele>
        <time>2023-05-31T05:55:49Z</time>
      </trkpt>
      <trkpt lat="43.66546" lon="1.40098">
        <ele>127</ele>
        <time>2023-05-31T05:55:50Z</time>
      </trkpt>
      <trkpt lat="43.66544" lon="1.40105">
        <ele>127</ele>
        <time>2023-05-31T05:55:51Z</time>
      </trkpt>
      <trkpt lat="43.66543" lon="1.40107">
        <ele>127</ele>
        <time>2023-05-31T05:55:52Z</time>
      </trkpt>
      <trkpt lat="43.66543" lon="1.40107">
        <ele>127</ele>
        <time>2023-05-31T05:55:53Z</time>
      </trkpt>
      <trkpt lat="43.66541" lon="1.40115">
        <ele>127</ele>
        <time>2023-05-31T05:55:54Z</time>
      </trkpt>
      <trkpt lat="43.66541" lon="1.40115">
        <ele>127</ele>
        <time>2023-05-31T05:55:55Z</time>
      </trkpt>
      <trkpt lat="43.66536" lon="1.40124">
        <ele>127</ele>
        <time>2023-05-31T05:55:56Z</time>
      </trkpt>
      <trkpt lat="43.66535" lon="1.40125">
        <ele>127</ele>
        <time>2023-05-31T05:55:57Z</time>
      </trkpt>
      <trkpt lat="43.66534" lon="1.40128">
        <ele>127</ele>
        <time>2023-05-31T05:55:58Z</time>
      </trkpt>
      <trkpt lat="43.66532" lon="1.4013">
        <ele>127</ele>
        <time>2023-05-31T05:55:59Z</time>
      </trkpt>
      <trkpt lat="43.66531" lon="1.40133">
        <ele>127</ele>
        <time>2023-05-31T05:56:00Z</time>
      </trkpt>
      <trkpt lat="43.66529" lon="1.40136">
        <ele>127</ele>
        <time>2023-05-31T05:56:01Z</time>
      </trkpt>
      <trkpt lat="43.66528" lon="1.40139">
        <ele>127</ele>
        <time>2023-05-31T05:56:02Z</time>
      </trkpt>
      <trkpt lat="43.66526" lon="1.40141">
        <ele>127</ele>
        <time>2023-05-31T05:56:03Z</time>
      </trkpt>
      <trkpt lat="43.66526" lon="1.40141">
        <ele>127</ele>
        <time>2023-05-31T05:56:04Z</time>
      </trkpt>
      <trkpt lat="43.66523" lon="1.40148">
        <ele>127</ele>
        <time>2023-05-31T05:56:05Z</time>
      </trkpt>
      <trkpt lat="43.66522" lon="1.40151">
        <ele>127</ele>
        <time>2023-05-31T05:56:06Z</time>
      </trkpt>
      <trkpt lat="43.66521" lon="1.40154">
        <ele>127</ele>
        <time>2023-05-31T05:56:07Z</time>
      </trkpt>
      <trkpt lat="43.6652" lon="1.40157">
        <ele>127</ele>
        <time>2023-05-31T05:56:08Z</time>
      </trkpt>
      <trkpt lat="43.66518" lon="1.40159">
        <ele>126</ele>
        <time>2023-05-31T05:56:09Z</time>
      </trkpt>
      <trkpt lat="43.66517" lon="1.40162">
        <ele>126</ele>
        <time>2023-05-31T05:56:10Z</time>
      </trkpt>
      <trkpt lat="43.66517" lon="1.40162">
        <ele>126</ele>
        <time>2023-05-31T05:56:11Z</time>
      </trkpt>
      <trkpt lat="43.66515" lon="1.40164">
        <ele>126</ele>
        <time>2023-05-31T05:56:12Z</time>
      </trkpt>
      <trkpt lat="43.66512" lon="1.40169">
        <ele>127</ele>
        <time>2023-05-31T05:56:13Z</time>
      </trkpt>
      <trkpt lat="43.66512" lon="1.40169">
        <ele>127</ele>
        <time>2023-05-31T05:56:14Z</time>
      </trkpt>
      <trkpt lat="43.66509" lon="1.40171">
        <ele>127</ele>
        <time>2023-05-31T05:56:15Z</time>
      </trkpt>
      <trkpt lat="43.66507" lon="1.40173">
        <ele>127</ele>
        <time>2023-05-31T05:56:16Z</time>
      </trkpt>
      <trkpt lat="43.66505" lon="1.40175">
        <ele>127</ele>
        <time>2023-05-31T05:56:17Z</time>
      </trkpt>
      <trkpt lat="43.66503" lon="1.40176">
        <ele>127</ele>
        <time>2023-05-31T05:56:18Z</time>
      </trkpt>
      <trkpt lat="43.66502" lon="1.40179">
        <ele>127</ele>
        <time>2023-05-31T05:56:19Z</time>
      </trkpt>
      <trkpt lat="43.66502" lon="1.40179">
        <ele>127</ele>
        <time>2023-05-31T05:56:20Z</time>
      </trkpt>
      <trkpt lat="43.66495" lon="1.40187">
        <ele>127</ele>
        <time>2023-05-31T05:56:21Z</time>
      </trkpt>
      <trkpt lat="43.66494" lon="1.40188">
        <ele>127</ele>
        <time>2023-05-31T05:56:22Z</time>
      </trkpt>
      <trkpt lat="43.66492" lon="1.4019">
        <ele>127</ele>
        <time>2023-05-31T05:56:23Z</time>
      </trkpt>
      <trkpt lat="43.66492" lon="1.4019">
        <ele>127</ele>
        <time>2023-05-31T05:56:24Z</time>
      </trkpt>
      <trkpt lat="43.66485" lon="1.40193">
        <ele>127</ele>
        <time>2023-05-31T05:56:25Z</time>
      </trkpt>
      <trkpt lat="43.66483" lon="1.40194">
        <ele>127</ele>
        <time>2023-05-31T05:56:26Z</time>
      </trkpt>
      <trkpt lat="43.66483" lon="1.40194">
        <ele>127</ele>
        <time>2023-05-31T05:56:27Z</time>
      </trkpt>
      <trkpt lat="43.66481" lon="1.40196">
        <ele>127</ele>
        <time>2023-05-31T05:56:28Z</time>
      </trkpt>
      <trkpt lat="43.66479" lon="1.40198">
        <ele>127</ele>
        <time>2023-05-31T05:56:29Z</time>
      </trkpt>
      <trkpt lat="43.66477" lon="1.402">
        <ele>127</ele>
        <time>2023-05-31T05:56:30Z</time>
      </trkpt>
      <trkpt lat="43.66475" lon="1.40202">
        <ele>126</ele>
        <time>2023-05-31T05:56:31Z</time>
      </trkpt>
      <trkpt lat="43.66473" lon="1.40205">
        <ele>126</ele>
        <time>2023-05-31T05:56:32Z</time>
      </trkpt>
      <trkpt lat="43.66471" lon="1.40209">
        <ele>126</ele>
        <time>2023-05-31T05:56:33Z</time>
      </trkpt>
      <trkpt lat="43.66468" lon="1.40213">
        <ele>126</ele>
        <time>2023-05-31T05:56:34Z</time>
      </trkpt>
      <trkpt lat="43.66466" lon="1.40217">
        <ele>125</ele>
        <time>2023-05-31T05:56:35Z</time>
      </trkpt>
      <trkpt lat="43.66464" lon="1.4022">
        <ele>125</ele>
        <time>2023-05-31T05:56:36Z</time>
      </trkpt>
      <trkpt lat="43.66464" lon="1.4022">
        <ele>126</ele>
        <time>2023-05-31T05:56:37Z</time>
      </trkpt>
      <trkpt lat="43.6646" lon="1.40227">
        <ele>126</ele>
        <time>2023-05-31T05:56:38Z</time>
      </trkpt>
      <trkpt lat="43.66459" lon="1.40228">
        <ele>126</ele>
        <time>2023-05-31T05:56:39Z</time>
      </trkpt>
      <trkpt lat="43.66459" lon="1.40228">
        <ele>126</ele>
        <time>2023-05-31T05:56:40Z</time>
      </trkpt>
      <trkpt lat="43.66456" lon="1.40231">
        <ele>126</ele>
        <time>2023-05-31T05:56:41Z</time>
      </trkpt>
      <trkpt lat="43.66453" lon="1.40234">
        <ele>126</ele>
        <time>2023-05-31T05:56:42Z</time>
      </trkpt>
      <trkpt lat="43.6645" lon="1.40237">
        <ele>126</ele>
        <time>2023-05-31T05:56:43Z</time>
      </trkpt>
      <trkpt lat="43.66447" lon="1.4024">
        <ele>126</ele>
        <time>2023-05-31T05:56:44Z</time>
      </trkpt>
      <trkpt lat="43.66445" lon="1.40243">
        <ele>126</ele>
        <time>2023-05-31T05:56:45Z</time>
      </trkpt>
      <trkpt lat="43.66445" lon="1.40243">
        <ele>126</ele>
        <time>2023-05-31T05:56:46Z</time>
      </trkpt>
      <trkpt lat="43.66438" lon="1.40246">
        <ele>126</ele>
        <time>2023-05-31T05:56:47Z</time>
      </trkpt>
      <trkpt lat="43.66437" lon="1.40246">
        <ele>125</ele>
        <time>2023-05-31T05:56:48Z</time>
      </trkpt>
      <trkpt lat="43.66434" lon="1.40248">
        <ele>125</ele>
        <time>2023-05-31T05:56:49Z</time>
      </trkpt>
      <trkpt lat="43.66431" lon="1.4025">
        <ele>126</ele>
        <time>2023-05-31T05:56:50Z</time>
      </trkpt>
      <trkpt lat="43.66429" lon="1.40252">
        <ele>126</ele>
        <time>2023-05-31T05:56:51Z</time>
      </trkpt>
      <trkpt lat="43.66427" lon="1.40254">
        <ele>126</ele>
        <time>2023-05-31T05:56:52Z</time>
      </trkpt>
      <trkpt lat="43.66425" lon="1.40257">
        <ele>126</ele>
        <time>2023-05-31T05:56:53Z</time>
      </trkpt>
      <trkpt lat="43.66423" lon="1.4026">
        <ele>126</ele>
        <time>2023-05-31T05:56:54Z</time>
      </trkpt>
      <trkpt lat="43.66422" lon="1.40264">
        <ele>126</ele>
        <time>2023-05-31T05:56:55Z</time>
      </trkpt>
      <trkpt lat="43.66422" lon="1.40264">
        <ele>126</ele>
        <time>2023-05-31T05:56:56Z</time>
      </trkpt>
      <trkpt lat="43.66419" lon="1.40271">
        <ele>126</ele>
        <time>2023-05-31T05:56:57Z</time>
      </trkpt>
      <trkpt lat="43.66419" lon="1.40273">
        <ele>126</ele>
        <time>2023-05-31T05:56:58Z</time>
      </trkpt>
      <trkpt lat="43.66418" lon="1.40276">
        <ele>126</ele>
        <time>2023-05-31T05:56:59Z</time>
      </trkpt>
      <trkpt lat="43.66418" lon="1.40276">
        <ele>126</ele>
        <time>2023-05-31T05:57:00Z</time>
      </trkpt>
      <trkpt lat="43.66414" lon="1.40282">
        <ele>126</ele>
        <time>2023-05-31T05:57:01Z</time>
      </trkpt>
      <trkpt lat="43.66413" lon="1.40283">
        <ele>126</ele>
        <time>2023-05-31T05:57:02Z</time>
      </trkpt>
      <trkpt lat="43.66411" lon="1.40285">
        <ele>126</ele>
        <time>2023-05-31T05:57:03Z</time>
      </trkpt>
      <trkpt lat="43.6641" lon="1.40288">
        <ele>126</ele>
        <time>2023-05-31T05:57:04Z</time>
      </trkpt>
      <trkpt lat="43.66409" lon="1.4029">
        <ele>126</ele>
        <time>2023-05-31T05:57:05Z</time>
      </trkpt>
      <trkpt lat="43.66407" lon="1.40293">
        <ele>126</ele>
        <time>2023-05-31T05:57:06Z</time>
      </trkpt>
      <trkpt lat="43.66405" lon="1.40295">
        <ele>126</ele>
        <time>2023-05-31T05:57:07Z</time>
      </trkpt>
      <trkpt lat="43.66404" lon="1.40298">
        <ele>126</ele>
        <time>2023-05-31T05:57:08Z</time>
      </trkpt>
      <trkpt lat="43.66403" lon="1.40301">
        <ele>126</ele>
        <time>2023-05-31T05:57:09Z</time>
      </trkpt>
      <trkpt lat="43.66401" lon="1.40304">
        <ele>126</ele>
        <time>2023-05-31T05:57:10Z</time>
      </trkpt>
      <trkpt lat="43.66399" lon="1.40306">
        <ele>126</ele>
        <time>2023-05-31T05:57:11Z</time>
      </trkpt>
      <trkpt lat="43.66396" lon="1.40307">
        <ele>126</ele>
        <time>2023-05-31T05:57:12Z</time>
      </trkpt>
      <trkpt lat="43.66394" lon="1.40308">
        <ele>126</ele>
        <time>2023-05-31T05:57:13Z</time>
      </trkpt>
      <trkpt lat="43.66393" lon="1.40309">
        <ele>126</ele>
        <time>2023-05-31T05:57:14Z</time>
      </trkpt>
      <trkpt lat="43.66393" lon="1.40309">
        <ele>127</ele>
        <time>2023-05-31T05:57:15Z</time>
      </trkpt>
      <trkpt lat="43.66388" lon="1.40313">
        <ele>127</ele>
        <time>2023-05-31T05:57:16Z</time>
      </trkpt>
      <trkpt lat="43.66388" lon="1.40313">
        <ele>127</ele>
        <time>2023-05-31T05:57:17Z</time>
      </trkpt>
      <trkpt lat="43.66383" lon="1.4032">
        <ele>127</ele>
        <time>2023-05-31T05:57:18Z</time>
      </trkpt>
      <trkpt lat="43.66382" lon="1.40322">
        <ele>127</ele>
        <time>2023-05-31T05:57:19Z</time>
      </trkpt>
      <trkpt lat="43.66379" lon="1.40323">
        <ele>127</ele>
        <time>2023-05-31T05:57:20Z</time>
      </trkpt>
      <trkpt lat="43.66377" lon="1.40325">
        <ele>127</ele>
        <time>2023-05-31T05:57:21Z</time>
      </trkpt>
      <trkpt lat="43.66374" lon="1.40326">
        <ele>127</ele>
        <time>2023-05-31T05:57:22Z</time>
      </trkpt>
      <trkpt lat="43.66371" lon="1.40328">
        <ele>127</ele>
        <time>2023-05-31T05:57:23Z</time>
      </trkpt>
      <trkpt lat="43.66369" lon="1.4033">
        <ele>127</ele>
        <time>2023-05-31T05:57:24Z</time>
      </trkpt>
      <trkpt lat="43.66366" lon="1.40331">
        <ele>127</ele>
        <time>2023-05-31T05:57:25Z</time>
      </trkpt>
      <trkpt lat="43.66364" lon="1.40332">
        <ele>127</ele>
        <time>2023-05-31T05:57:26Z</time>
      </trkpt>
      <trkpt lat="43.66361" lon="1.40332">
        <ele>127</ele>
        <time>2023-05-31T05:57:27Z</time>
      </trkpt>
      <trkpt lat="43.66359" lon="1.40334">
        <ele>127</ele>
        <time>2023-05-31T05:57:28Z</time>
      </trkpt>
      <trkpt lat="43.66356" lon="1.40337">
        <ele>127</ele>
        <time>2023-05-31T05:57:29Z</time>
      </trkpt>
      <trkpt lat="43.66355" lon="1.40341">
        <ele>127</ele>
        <time>2023-05-31T05:57:30Z</time>
      </trkpt>
      <trkpt lat="43.66354" lon="1.40344">
        <ele>127</ele>
        <time>2023-05-31T05:57:31Z</time>
      </trkpt>
      <trkpt lat="43.66353" lon="1.40347">
        <ele>127</ele>
        <time>2023-05-31T05:57:32Z</time>
      </trkpt>
      <trkpt lat="43.66351" lon="1.40349">
        <ele>127</ele>
        <time>2023-05-31T05:57:33Z</time>
      </trkpt>
      <trkpt lat="43.6635" lon="1.40352">
        <ele>127</ele>
        <time>2023-05-31T05:57:34Z</time>
      </trkpt>
      <trkpt lat="43.66348" lon="1.40355">
        <ele>127</ele>
        <time>2023-05-31T05:57:35Z</time>
      </trkpt>
      <trkpt lat="43.66348" lon="1.40355">
        <ele>127</ele>
        <time>2023-05-31T05:57:36Z</time>
      </trkpt>
      <trkpt lat="43.66342" lon="1.40358">
        <ele>127</ele>
        <time>2023-05-31T05:57:37Z</time>
      </trkpt>
      <trkpt lat="43.66342" lon="1.40358">
        <ele>127</ele>
        <time>2023-05-31T05:57:38Z</time>
      </trkpt>
      <trkpt lat="43.66335" lon="1.40361">
        <ele>127</ele>
        <time>2023-05-31T05:57:39Z</time>
      </trkpt>
      <trkpt lat="43.66334" lon="1.40362">
        <ele>127</ele>
        <time>2023-05-31T05:57:40Z</time>
      </trkpt>
      <trkpt lat="43.66334" lon="1.40362">
        <ele>127</ele>
        <time>2023-05-31T05:57:41Z</time>
      </trkpt>
      <trkpt lat="43.66328" lon="1.40368">
        <ele>127</ele>
        <time>2023-05-31T05:57:42Z</time>
      </trkpt>
      <trkpt lat="43.66327" lon="1.40369">
        <ele>127</ele>
        <time>2023-05-31T05:57:43Z</time>
      </trkpt>
      <trkpt lat="43.66326" lon="1.40371">
        <ele>127</ele>
        <time>2023-05-31T05:57:44Z</time>
      </trkpt>
      <trkpt lat="43.66324" lon="1.40373">
        <ele>126</ele>
        <time>2023-05-31T05:57:45Z</time>
      </trkpt>
      <trkpt lat="43.66322" lon="1.40376">
        <ele>126</ele>
        <time>2023-05-31T05:57:46Z</time>
      </trkpt>
      <trkpt lat="43.66321" lon="1.40378">
        <ele>126</ele>
        <time>2023-05-31T05:57:47Z</time>
      </trkpt>
      <trkpt lat="43.66319" lon="1.4038">
        <ele>126</ele>
        <time>2023-05-31T05:57:48Z</time>
      </trkpt>
      <trkpt lat="43.66317" lon="1.40383">
        <ele>126</ele>
        <time>2023-05-31T05:57:49Z</time>
      </trkpt>
      <trkpt lat="43.66316" lon="1.40385">
        <ele>126</ele>
        <time>2023-05-31T05:57:50Z</time>
      </trkpt>
      <trkpt lat="43.66316" lon="1.40385">
        <ele>126</ele>
        <time>2023-05-31T05:57:51Z</time>
      </trkpt>
      <trkpt lat="43.66311" lon="1.40388">
        <ele>126</ele>
        <time>2023-05-31T05:57:52Z</time>
      </trkpt>
      <trkpt lat="43.66311" lon="1.40388">
        <ele>126</ele>
        <time>2023-05-31T05:57:53Z</time>
      </trkpt>
      <trkpt lat="43.66306" lon="1.40392">
        <ele>126</ele>
        <time>2023-05-31T05:57:54Z</time>
      </trkpt>
      <trkpt lat="43.66305" lon="1.40393">
        <ele>126</ele>
        <time>2023-05-31T05:57:55Z</time>
      </trkpt>
      <trkpt lat="43.66303" lon="1.40395">
        <ele>126</ele>
        <time>2023-05-31T05:57:56Z</time>
      </trkpt>
      <trkpt lat="43.66301" lon="1.40398">
        <ele>126</ele>
        <time>2023-05-31T05:57:57Z</time>
      </trkpt>
      <trkpt lat="43.663" lon="1.40401">
        <ele>126</ele>
        <time>2023-05-31T05:57:58Z</time>
      </trkpt>
      <trkpt lat="43.66299" lon="1.40404">
        <ele>126</ele>
        <time>2023-05-31T05:57:59Z</time>
      </trkpt>
      <trkpt lat="43.66297" lon="1.40408">
        <ele>126</ele>
        <time>2023-05-31T05:58:00Z</time>
      </trkpt>
      <trkpt lat="43.66294" lon="1.40411">
        <ele>126</ele>
        <time>2023-05-31T05:58:01Z</time>
      </trkpt>
      <trkpt lat="43.66292" lon="1.40414">
        <ele>126</ele>
        <time>2023-05-31T05:58:02Z</time>
      </trkpt>
      <trkpt lat="43.6629" lon="1.40415">
        <ele>126</ele>
        <time>2023-05-31T05:58:03Z</time>
      </trkpt>
      <trkpt lat="43.66288" lon="1.40417">
        <ele>125</ele>
        <time>2023-05-31T05:58:04Z</time>
      </trkpt>
      <trkpt lat="43.66288" lon="1.40417">
        <ele>125</ele>
        <time>2023-05-31T05:58:05Z</time>
      </trkpt>
      <trkpt lat="43.66283" lon="1.4042">
        <ele>125</ele>
        <time>2023-05-31T05:58:06Z</time>
      </trkpt>
      <trkpt lat="43.66283" lon="1.4042">
        <ele>125</ele>
        <time>2023-05-31T05:58:07Z</time>
      </trkpt>
      <trkpt lat="43.66277" lon="1.40422">
        <ele>125</ele>
        <time>2023-05-31T05:58:08Z</time>
      </trkpt>
      <trkpt lat="43.66274" lon="1.40424">
        <ele>125</ele>
        <time>2023-05-31T05:58:09Z</time>
      </trkpt>
      <trkpt lat="43.66272" lon="1.40425">
        <ele>125</ele>
        <time>2023-05-31T05:58:10Z</time>
      </trkpt>
      <trkpt lat="43.6627" lon="1.40427">
        <ele>125</ele>
        <time>2023-05-31T05:58:11Z</time>
      </trkpt>
      <trkpt lat="43.66267" lon="1.40429">
        <ele>125</ele>
        <time>2023-05-31T05:58:12Z</time>
      </trkpt>
      <trkpt lat="43.66264" lon="1.40431">
        <ele>125</ele>
        <time>2023-05-31T05:58:13Z</time>
      </trkpt>
      <trkpt lat="43.66264" lon="1.40431">
        <ele>126</ele>
        <time>2023-05-31T05:58:14Z</time>
      </trkpt>
      <trkpt lat="43.66258" lon="1.40433">
        <ele>126</ele>
        <time>2023-05-31T05:58:15Z</time>
      </trkpt>
      <trkpt lat="43.66257" lon="1.40434">
        <ele>126</ele>
        <time>2023-05-31T05:58:16Z</time>
      </trkpt>
      <trkpt lat="43.66254" lon="1.40435">
        <ele>126</ele>
        <time>2023-05-31T05:58:17Z</time>
      </trkpt>
      <trkpt lat="43.66252" lon="1.40436">
        <ele>126</ele>
        <time>2023-05-31T05:58:18Z</time>
      </trkpt>
      <trkpt lat="43.6625" lon="1.40437">
        <ele>126</ele>
        <time>2023-05-31T05:58:19Z</time>
      </trkpt>
      <trkpt lat="43.66248" lon="1.40439">
        <ele>126</ele>
        <time>2023-05-31T05:58:20Z</time>
      </trkpt>
      <trkpt lat="43.66246" lon="1.40441">
        <ele>125</ele>
        <time>2023-05-31T05:58:21Z</time>
      </trkpt>
      <trkpt lat="43.66246" lon="1.40441">
        <ele>125</ele>
        <time>2023-05-31T05:58:22Z</time>
      </trkpt>
      <trkpt lat="43.66241" lon="1.40445">
        <ele>125</ele>
        <time>2023-05-31T05:58:23Z</time>
      </trkpt>
      <trkpt lat="43.66238" lon="1.40446">
        <ele>125</ele>
        <time>2023-05-31T05:58:24Z</time>
      </trkpt>
      <trkpt lat="43.66236" lon="1.40448">
        <ele>125</ele>
        <time>2023-05-31T05:58:25Z</time>
      </trkpt>
      <trkpt lat="43.66234" lon="1.4045">
        <ele>125</ele>
        <time>2023-05-31T05:58:26Z</time>
      </trkpt>
      <trkpt lat="43.66234" lon="1.4045">
        <ele>125</ele>
        <time>2023-05-31T05:58:27Z</time>
      </trkpt>
      <trkpt lat="43.66229" lon="1.40453">
        <ele>125</ele>
        <time>2023-05-31T05:58:28Z</time>
      </trkpt>
      <trkpt lat="43.66229" lon="1.40453">
        <ele>125</ele>
        <time>2023-05-31T05:58:29Z</time>
      </trkpt>
      <trkpt lat="43.66225" lon="1.40456">
        <ele>125</ele>
        <time>2023-05-31T05:58:30Z</time>
      </trkpt>
      <trkpt lat="43.66222" lon="1.40458">
        <ele>125</ele>
        <time>2023-05-31T05:58:31Z</time>
      </trkpt>
      <trkpt lat="43.6622" lon="1.4046">
        <ele>125</ele>
        <time>2023-05-31T05:58:32Z</time>
      </trkpt>
      <trkpt lat="43.66217" lon="1.40462">
        <ele>125</ele>
        <time>2023-05-31T05:58:33Z</time>
      </trkpt>
      <trkpt lat="43.66214" lon="1.40465">
        <ele>125</ele>
        <time>2023-05-31T05:58:34Z</time>
      </trkpt>
      <trkpt lat="43.66212" lon="1.40467">
        <ele>126</ele>
        <time>2023-05-31T05:58:35Z</time>
      </trkpt>
      <trkpt lat="43.6621" lon="1.4047">
        <ele>126</ele>
        <time>2023-05-31T05:58:36Z</time>
      </trkpt>
      <trkpt lat="43.66207" lon="1.40471">
        <ele>126</ele>
        <time>2023-05-31T05:58:37Z</time>
      </trkpt>
      <trkpt lat="43.66207" lon="1.40471">
        <ele>126</ele>
        <time>2023-05-31T05:58:38Z</time>
      </trkpt>
      <trkpt lat="43.66201" lon="1.40475">
        <ele>126</ele>
        <time>2023-05-31T05:58:39Z</time>
      </trkpt>
      <trkpt lat="43.66199" lon="1.40475">
        <ele>126</ele>
        <time>2023-05-31T05:58:40Z</time>
      </trkpt>
      <trkpt lat="43.66196" lon="1.40477">
        <ele>126</ele>
        <time>2023-05-31T05:58:41Z</time>
      </trkpt>
      <trkpt lat="43.66193" lon="1.40479">
        <ele>126</ele>
        <time>2023-05-31T05:58:42Z</time>
      </trkpt>
      <trkpt lat="43.66193" lon="1.40479">
        <ele>126</ele>
        <time>2023-05-31T05:58:43Z</time>
      </trkpt>
      <trkpt lat="43.66189" lon="1.40484">
        <ele>125</ele>
        <time>2023-05-31T05:58:44Z</time>
      </trkpt>
      <trkpt lat="43.66189" lon="1.40484">
        <ele>125</ele>
        <time>2023-05-31T05:58:45Z</time>
      </trkpt>
      <trkpt lat="43.66183" lon="1.40489">
        <ele>125</ele>
        <time>2023-05-31T05:58:46Z</time>
      </trkpt>
      <trkpt lat="43.66182" lon="1.4049">
        <ele>125</ele>
        <time>2023-05-31T05:58:47Z</time>
      </trkpt>
      <trkpt lat="43.66179" lon="1.40492">
        <ele>125</ele>
        <time>2023-05-31T05:58:48Z</time>
      </trkpt>
      <trkpt lat="43.66176" lon="1.40494">
        <ele>125</ele>
        <time>2023-05-31T05:58:49Z</time>
      </trkpt>
      <trkpt lat="43.66173" lon="1.40495">
        <ele>125</ele>
        <time>2023-05-31T05:58:50Z</time>
      </trkpt>
      <trkpt lat="43.6617" lon="1.40496">
        <ele>125</ele>
        <time>2023-05-31T05:58:51Z</time>
      </trkpt>
      <trkpt lat="43.6617" lon="1.40496">
        <ele>125</ele>
        <time>2023-05-31T05:58:52Z</time>
      </trkpt>
      <trkpt lat="43.66163" lon="1.40497">
        <ele>125</ele>
        <time>2023-05-31T05:58:53Z</time>
      </trkpt>
      <trkpt lat="43.66161" lon="1.40497">
        <ele>125</ele>
        <time>2023-05-31T05:58:54Z</time>
      </trkpt>
      <trkpt lat="43.66159" lon="1.40499">
        <ele>125</ele>
        <time>2023-05-31T05:58:55Z</time>
      </trkpt>
      <trkpt lat="43.66159" lon="1.40499">
        <ele>125</ele>
        <time>2023-05-31T05:58:56Z</time>
      </trkpt>
      <trkpt lat="43.66151" lon="1.40504">
        <ele>126</ele>
        <time>2023-05-31T05:58:57Z</time>
      </trkpt>
      <trkpt lat="43.6615" lon="1.40505">
        <ele>126</ele>
        <time>2023-05-31T05:58:58Z</time>
      </trkpt>
      <trkpt lat="43.66147" lon="1.40506">
        <ele>126</ele>
        <time>2023-05-31T05:58:59Z</time>
      </trkpt>
      <trkpt lat="43.66145" lon="1.40506">
        <ele>126</ele>
        <time>2023-05-31T05:59:00Z</time>
      </trkpt>
      <trkpt lat="43.66142" lon="1.40507">
        <ele>126</ele>
        <time>2023-05-31T05:59:01Z</time>
      </trkpt>
      <trkpt lat="43.6614" lon="1.40508">
        <ele>126</ele>
        <time>2023-05-31T05:59:02Z</time>
      </trkpt>
      <trkpt lat="43.6614" lon="1.40508">
        <ele>126</ele>
        <time>2023-05-31T05:59:03Z</time>
      </trkpt>
      <trkpt lat="43.66133" lon="1.40509">
        <ele>126</ele>
        <time>2023-05-31T05:59:04Z</time>
      </trkpt>
      <trkpt lat="43.66132" lon="1.40509">
        <ele>126</ele>
        <time>2023-05-31T05:59:05Z</time>
      </trkpt>
      <trkpt lat="43.66129" lon="1.4051">
        <ele>126</ele>
        <time>2023-05-31T05:59:06Z</time>
      </trkpt>
      <trkpt lat="43.66127" lon="1.4051">
        <ele>126</ele>
        <time>2023-05-31T05:59:07Z</time>
      </trkpt>
      <trkpt lat="43.66124" lon="1.40511">
        <ele>126</ele>
        <time>2023-05-31T05:59:08Z</time>
      </trkpt>
      <trkpt lat="43.66122" lon="1.40513">
        <ele>126</ele>
        <time>2023-05-31T05:59:09Z</time>
      </trkpt>
      <trkpt lat="43.66119" lon="1.40514">
        <ele>126</ele>
        <time>2023-05-31T05:59:10Z</time>
      </trkpt>
      <trkpt lat="43.66117" lon="1.40515">
        <ele>126</ele>
        <time>2023-05-31T05:59:11Z</time>
      </trkpt>
      <trkpt lat="43.66115" lon="1.40517">
        <ele>126</ele>
        <time>2023-05-31T05:59:12Z</time>
      </trkpt>
      <trkpt lat="43.66112" lon="1.40518">
        <ele>126</ele>
        <time>2023-05-31T05:59:13Z</time>
      </trkpt>
      <trkpt lat="43.66109" lon="1.40518">
        <ele>126</ele>
        <time>2023-05-31T05:59:14Z</time>
      </trkpt>
      <trkpt lat="43.66107" lon="1.40519">
        <ele>126</ele>
        <time>2023-05-31T05:59:15Z</time>
      </trkpt>
      <trkpt lat="43.66105" lon="1.4052">
        <ele>126</ele>
        <time>2023-05-31T05:59:16Z</time>
      </trkpt>
      <trkpt lat="43.66103" lon="1.40521">
        <ele>126</ele>
        <time>2023-05-31T05:59:17Z</time>
      </trkpt>
      <trkpt lat="43.661" lon="1.40522">
        <ele>126</ele>
        <time>2023-05-31T05:59:18Z</time>
      </trkpt>
      <trkpt lat="43.66098" lon="1.40523">
        <ele>126</ele>
        <time>2023-05-31T05:59:19Z</time>
      </trkpt>
      <trkpt lat="43.66098" lon="1.40523">
        <ele>126</ele>
        <time>2023-05-31T05:59:20Z</time>
      </trkpt>
      <trkpt lat="43.66091" lon="1.4052">
        <ele>126</ele>
        <time>2023-05-31T05:59:21Z</time>
      </trkpt>
      <trkpt lat="43.6609" lon="1.40519">
        <ele>127</ele>
        <time>2023-05-31T05:59:22Z</time>
      </trkpt>
      <trkpt lat="43.66087" lon="1.40518">
        <ele>127</ele>
        <time>2023-05-31T05:59:23Z</time>
      </trkpt>
      <trkpt lat="43.66084" lon="1.40517">
        <ele>127</ele>
        <time>2023-05-31T05:59:24Z</time>
      </trkpt>
      <trkpt lat="43.66082" lon="1.40517">
        <ele>127</ele>
        <time>2023-05-31T05:59:25Z</time>
      </trkpt>
      <trkpt lat="43.6608" lon="1.40517">
        <ele>127</ele>
        <time>2023-05-31T05:59:26Z</time>
      </trkpt>
      <trkpt lat="43.6608" lon="1.40517">
        <ele>127</ele>
        <time>2023-05-31T05:59:27Z</time>
      </trkpt>
      <trkpt lat="43.66076" lon="1.40519">
        <ele>127</ele>
        <time>2023-05-31T05:59:28Z</time>
      </trkpt>
      <trkpt lat="43.66074" lon="1.40519">
        <ele>127</ele>
        <time>2023-05-31T05:59:29Z</time>
      </trkpt>
      <trkpt lat="43.66072" lon="1.40521">
        <ele>127</ele>
        <time>2023-05-31T05:59:30Z</time>
      </trkpt>
      <trkpt lat="43.6607" lon="1.40522">
        <ele>127</ele>
        <time>2023-05-31T05:59:31Z</time>
      </trkpt>
      <trkpt lat="43.66068" lon="1.40523">
        <ele>127</ele>
        <time>2023-05-31T05:59:32Z</time>
      </trkpt>
      <trkpt lat="43.66066" lon="1.40524">
        <ele>127</ele>
        <time>2023-05-31T05:59:33Z</time>
      </trkpt>
      <trkpt lat="43.66062" lon="1.40524">
        <ele>127</ele>
        <time>2023-05-31T05:59:34Z</time>
      </trkpt>
      <trkpt lat="43.66062" lon="1.40524">
        <ele>127</ele>
        <time>2023-05-31T05:59:35Z</time>
      </trkpt>
      <trkpt lat="43.66055" lon="1.40524">
        <ele>127</ele>
        <time>2023-05-31T05:59:36Z</time>
      </trkpt>
      <trkpt lat="43.66054" lon="1.40524">
        <ele>127</ele>
        <time>2023-05-31T05:59:37Z</time>
      </trkpt>
      <trkpt lat="43.66054" lon="1.40524">
        <ele>127</ele>
        <time>2023-05-31T05:59:38Z</time>
      </trkpt>
      <trkpt lat="43.66049" lon="1.40527">
        <ele>128</ele>
        <time>2023-05-31T05:59:39Z</time>
      </trkpt>
      <trkpt lat="43.66047" lon="1.40528">
        <ele>128</ele>
        <time>2023-05-31T05:59:40Z</time>
      </trkpt>
      <trkpt lat="43.66045" lon="1.40529">
        <ele>128</ele>
        <time>2023-05-31T05:59:41Z</time>
      </trkpt>
      <trkpt lat="43.66045" lon="1.40529">
        <ele>127</ele>
        <time>2023-05-31T05:59:42Z</time>
      </trkpt>
      <trkpt lat="43.6604" lon="1.40531">
        <ele>127</ele>
        <time>2023-05-31T05:59:43Z</time>
      </trkpt>
      <trkpt lat="43.6604" lon="1.40531">
        <ele>127</ele>
        <time>2023-05-31T05:59:44Z</time>
      </trkpt>
      <trkpt lat="43.66034" lon="1.40534">
        <ele>127</ele>
        <time>2023-05-31T05:59:45Z</time>
      </trkpt>
      <trkpt lat="43.66032" lon="1.40534">
        <ele>127</ele>
        <time>2023-05-31T05:59:46Z</time>
      </trkpt>
      <trkpt lat="43.66029" lon="1.40534">
        <ele>127</ele>
        <time>2023-05-31T05:59:47Z</time>
      </trkpt>
      <trkpt lat="43.66026" lon="1.40534">
        <ele>127</ele>
        <time>2023-05-31T05:59:48Z</time>
      </trkpt>
      <trkpt lat="43.66026" lon="1.40534">
        <ele>127</ele>
        <time>2023-05-31T05:59:49Z</time>
      </trkpt>
      <trkpt lat="43.66021" lon="1.40533">
        <ele>127</ele>
        <time>2023-05-31T05:59:50Z</time>
      </trkpt>
      <trkpt lat="43.66019" lon="1.40532">
        <ele>127</ele>
        <time>2023-05-31T05:59:51Z</time>
      </trkpt>
      <trkpt lat="43.66019" lon="1.40532">
        <ele>127</ele>
        <time>2023-05-31T05:59:52Z</time>
      </trkpt>
      <trkpt lat="43.66016" lon="1.4053">
        <ele>127</ele>
        <time>2023-05-31T05:59:53Z</time>
      </trkpt>
      <trkpt lat="43.66013" lon="1.40529">
        <ele>127</ele>
        <time>2023-05-31T05:59:54Z</time>
      </trkpt>
      <trkpt lat="43.66008" lon="1.40527">
        <ele>127</ele>
        <time>2023-05-31T05:59:55Z</time>
      </trkpt>
      <trkpt lat="43.66008" lon="1.40527">
        <ele>127</ele>
        <time>2023-05-31T05:59:56Z</time>
      </trkpt>
      <trkpt lat="43.66002" lon="1.40527">
        <ele>126</ele>
        <time>2023-05-31T05:59:57Z</time>
      </trkpt>
      <trkpt lat="43.66001" lon="1.40527">
        <ele>126</ele>
        <time>2023-05-31T05:59:58Z</time>
      </trkpt>
      <trkpt lat="43.65999" lon="1.40527">
        <ele>126</ele>
        <time>2023-05-31T05:59:59Z</time>
      </trkpt>
      <trkpt lat="43.65999" lon="1.40527">
        <ele>126</ele>
        <time>2023-05-31T06:00:00Z</time>
      </trkpt>
      <trkpt lat="43.65997" lon="1.40528">
        <ele>126</ele>
        <time>2023-05-31T06:00:01Z</time>
      </trkpt>
      <trkpt lat="43.65995" lon="1.40528">
        <ele>127</ele>
        <time>2023-05-31T06:00:02Z</time>
      </trkpt>
      <trkpt lat="43.65991" lon="1.40531">
        <ele>127</ele>
        <time>2023-05-31T06:00:03Z</time>
      </trkpt>
      <trkpt lat="43.65988" lon="1.40534">
        <ele>127</ele>
        <time>2023-05-31T06:00:04Z</time>
      </trkpt>
      <trkpt lat="43.65986" lon="1.40536">
        <ele>127</ele>
        <time>2023-05-31T06:00:05Z</time>
      </trkpt>
      <trkpt lat="43.65984" lon="1.40538">
        <ele>127</ele>
        <time>2023-05-31T06:00:06Z</time>
      </trkpt>
      <trkpt lat="43.65982" lon="1.40538">
        <ele>127</ele>
        <time>2023-05-31T06:00:07Z</time>
      </trkpt>
      <trkpt lat="43.65982" lon="1.40538">
        <ele>127</ele>
        <time>2023-05-31T06:00:08Z</time>
      </trkpt>
      <trkpt lat="43.65973" lon="1.40535">
        <ele>127</ele>
        <time>2023-05-31T06:00:09Z</time>
      </trkpt>
      <trkpt lat="43.65972" lon="1.40535">
        <ele>127</ele>
        <time>2023-05-31T06:00:10Z</time>
      </trkpt>
      <trkpt lat="43.65969" lon="1.40534">
        <ele>127</ele>
        <time>2023-05-31T06:00:11Z</time>
      </trkpt>
      <trkpt lat="43.65969" lon="1.40534">
        <ele>126</ele>
        <time>2023-05-31T06:00:12Z</time>
      </trkpt>
      <trkpt lat="43.65964" lon="1.40535">
        <ele>126</ele>
        <time>2023-05-31T06:00:13Z</time>
      </trkpt>
      <trkpt lat="43.65964" lon="1.40535">
        <ele>127</ele>
        <time>2023-05-31T06:00:14Z</time>
      </trkpt>
      <trkpt lat="43.65957" lon="1.40536">
        <ele>127</ele>
        <time>2023-05-31T06:00:15Z</time>
      </trkpt>
      <trkpt lat="43.65955" lon="1.40536">
        <ele>127</ele>
        <time>2023-05-31T06:00:16Z</time>
      </trkpt>
      <trkpt lat="43.65953" lon="1.40536">
        <ele>127</ele>
        <time>2023-05-31T06:00:17Z</time>
      </trkpt>
      <trkpt lat="43.65953" lon="1.40536">
        <ele>127</ele>
        <time>2023-05-31T06:00:18Z</time>
      </trkpt>
      <trkpt lat="43.65951" lon="1.40537">
        <ele>127</ele>
        <time>2023-05-31T06:00:19Z</time>
      </trkpt>
      <trkpt lat="43.65945" lon="1.40538">
        <ele>127</ele>
        <time>2023-05-31T06:00:20Z</time>
      </trkpt>
      <trkpt lat="43.65945" lon="1.40538">
        <ele>127</ele>
        <time>2023-05-31T06:00:21Z</time>
      </trkpt>
      <trkpt lat="43.6594" lon="1.4054">
        <ele>127</ele>
        <time>2023-05-31T06:00:22Z</time>
      </trkpt>
      <trkpt lat="43.6594" lon="1.4054">
        <ele>128</ele>
        <time>2023-05-31T06:00:23Z</time>
      </trkpt>
      <trkpt lat="43.65934" lon="1.40542">
        <ele>128</ele>
        <time>2023-05-31T06:00:24Z</time>
      </trkpt>
      <trkpt lat="43.65934" lon="1.40542">
        <ele>128</ele>
        <time>2023-05-31T06:00:25Z</time>
      </trkpt>
      <trkpt lat="43.65932" lon="1.40542">
        <ele>128</ele>
        <time>2023-05-31T06:00:26Z</time>
      </trkpt>
      <trkpt lat="43.65929" lon="1.40543">
        <ele>128</ele>
        <time>2023-05-31T06:00:27Z</time>
      </trkpt>
      <trkpt lat="43.65922" lon="1.40544">
        <ele>128</ele>
        <time>2023-05-31T06:00:28Z</time>
      </trkpt>
      <trkpt lat="43.6592" lon="1.40545">
        <ele>128</ele>
        <time>2023-05-31T06:00:29Z</time>
      </trkpt>
      <trkpt lat="43.6592" lon="1.40545">
        <ele>127</ele>
        <time>2023-05-31T06:00:30Z</time>
      </trkpt>
      <trkpt lat="43.65917" lon="1.40546">
        <ele>127</ele>
        <time>2023-05-31T06:00:31Z</time>
      </trkpt>
      <trkpt lat="43.65915" lon="1.40546">
        <ele>127</ele>
        <time>2023-05-31T06:00:32Z</time>
      </trkpt>
      <trkpt lat="43.65913" lon="1.40547">
        <ele>127</ele>
        <time>2023-05-31T06:00:33Z</time>
      </trkpt>
      <trkpt lat="43.65906" lon="1.40548">
        <ele>127</ele>
        <time>2023-05-31T06:00:34Z</time>
      </trkpt>
      <trkpt lat="43.65903" lon="1.40549">
        <ele>127</ele>
        <time>2023-05-31T06:00:35Z</time>
      </trkpt>
      <trkpt lat="43.659" lon="1.40549">
        <ele>127</ele>
        <time>2023-05-31T06:00:36Z</time>
      </trkpt>
      <trkpt lat="43.659" lon="1.40549">
        <ele>127</ele>
        <time>2023-05-31T06:00:37Z</time>
      </trkpt>
      <trkpt lat="43.65897" lon="1.40549">
        <ele>127</ele>
        <time>2023-05-31T06:00:38Z</time>
      </trkpt>
      <trkpt lat="43.65894" lon="1.4055">
        <ele>127</ele>
        <time>2023-05-31T06:00:39Z</time>
      </trkpt>
      <trkpt lat="43.65891" lon="1.4055">
        <ele>127</ele>
        <time>2023-05-31T06:00:40Z</time>
      </trkpt>
      <trkpt lat="43.65885" lon="1.40551">
        <ele>127</ele>
        <time>2023-05-31T06:00:41Z</time>
      </trkpt>
      <trkpt lat="43.65885" lon="1.40551">
        <ele>127</ele>
        <time>2023-05-31T06:00:42Z</time>
      </trkpt>
      <trkpt lat="43.65878" lon="1.40553">
        <ele>127</ele>
        <time>2023-05-31T06:00:43Z</time>
      </trkpt>
      <trkpt lat="43.65877" lon="1.40553">
        <ele>127</ele>
        <time>2023-05-31T06:00:44Z</time>
      </trkpt>
      <trkpt lat="43.65877" lon="1.40553">
        <ele>127</ele>
        <time>2023-05-31T06:00:45Z</time>
      </trkpt>
      <trkpt lat="43.65875" lon="1.40554">
        <ele>128</ele>
        <time>2023-05-31T06:00:46Z</time>
      </trkpt>
      <trkpt lat="43.65872" lon="1.40554">
        <ele>128</ele>
        <time>2023-05-31T06:00:47Z</time>
      </trkpt>
      <trkpt lat="43.65867" lon="1.40555">
        <ele>128</ele>
        <time>2023-05-31T06:00:48Z</time>
      </trkpt>
      <trkpt lat="43.65867" lon="1.40555">
        <ele>127</ele>
        <time>2023-05-31T06:00:49Z</time>
      </trkpt>
      <trkpt lat="43.65863" lon="1.40556">
        <ele>127</ele>
        <time>2023-05-31T06:00:50Z</time>
      </trkpt>
      <trkpt lat="43.65863" lon="1.40556">
        <ele>127</ele>
        <time>2023-05-31T06:00:51Z</time>
      </trkpt>
      <trkpt lat="43.6586" lon="1.40557">
        <ele>127</ele>
        <time>2023-05-31T06:00:52Z</time>
      </trkpt>
      <trkpt lat="43.65858" lon="1.40558">
        <ele>127</ele>
        <time>2023-05-31T06:00:53Z</time>
      </trkpt>
      <trkpt lat="43.65856" lon="1.40559">
        <ele>127</ele>
        <time>2023-05-31T06:00:54Z</time>
      </trkpt>
      <trkpt lat="43.65854" lon="1.40566">
        <ele>127</ele>
        <time>2023-05-31T06:00:55Z</time>
      </trkpt>
      <trkpt lat="43.65854" lon="1.40566">
        <ele>127</ele>
        <time>2023-05-31T06:00:56Z</time>
      </trkpt>
      <trkpt lat="43.65851" lon="1.40574">
        <ele>127</ele>
        <time>2023-05-31T06:00:57Z</time>
      </trkpt>
      <trkpt lat="43.6585" lon="1.40575">
        <ele>127</ele>
        <time>2023-05-31T06:00:58Z</time>
      </trkpt>
      <trkpt lat="43.65848" lon="1.40578">
        <ele>127</ele>
        <time>2023-05-31T06:00:59Z</time>
      </trkpt>
      <trkpt lat="43.65848" lon="1.40578">
        <ele>127</ele>
        <time>2023-05-31T06:01:00Z</time>
      </trkpt>
      <trkpt lat="43.65842" lon="1.4058">
        <ele>127</ele>
        <time>2023-05-31T06:01:01Z</time>
      </trkpt>
      <trkpt lat="43.65842" lon="1.4058">
        <ele>127</ele>
        <time>2023-05-31T06:01:02Z</time>
      </trkpt>
      <trkpt lat="43.65836" lon="1.40575">
        <ele>127</ele>
        <time>2023-05-31T06:01:03Z</time>
      </trkpt>
      <trkpt lat="43.65835" lon="1.40574">
        <ele>127</ele>
        <time>2023-05-31T06:01:04Z</time>
      </trkpt>
      <trkpt lat="43.65835" lon="1.40574">
        <ele>127</ele>
        <time>2023-05-31T06:01:05Z</time>
      </trkpt>
      <trkpt lat="43.65829" lon="1.40571">
        <ele>127</ele>
        <time>2023-05-31T06:01:06Z</time>
      </trkpt>
      <trkpt lat="43.65828" lon="1.4057">
        <ele>127</ele>
        <time>2023-05-31T06:01:07Z</time>
      </trkpt>
      <trkpt lat="43.65826" lon="1.40569">
        <ele>127</ele>
        <time>2023-05-31T06:01:08Z</time>
      </trkpt>
      <trkpt lat="43.65824" lon="1.40568">
        <ele>128</ele>
        <time>2023-05-31T06:01:09Z</time>
      </trkpt>
      <trkpt lat="43.65824" lon="1.40568">
        <ele>128</ele>
        <time>2023-05-31T06:01:10Z</time>
      </trkpt>
      <trkpt lat="43.65821" lon="1.40567">
        <ele>128</ele>
        <time>2023-05-31T06:01:11Z</time>
      </trkpt>
      <trkpt lat="43.65819" lon="1.40565">
        <ele>128</ele>
        <time>2023-05-31T06:01:12Z</time>
      </trkpt>
      <trkpt lat="43.65814" lon="1.40562">
        <ele>128</ele>
        <time>2023-05-31T06:01:13Z</time>
      </trkpt>
      <trkpt lat="43.65812" lon="1.40562">
        <ele>129</ele>
        <time>2023-05-31T06:01:14Z</time>
      </trkpt>
      <trkpt lat="43.6581" lon="1.40561">
        <ele>129</ele>
        <time>2023-05-31T06:01:15Z</time>
      </trkpt>
      <trkpt lat="43.65808" lon="1.40561">
        <ele>129</ele>
        <time>2023-05-31T06:01:16Z</time>
      </trkpt>
      <trkpt lat="43.65808" lon="1.40561">
        <ele>129</ele>
        <time>2023-05-31T06:01:17Z</time>
      </trkpt>
      <trkpt lat="43.65803" lon="1.40561">
        <ele>129</ele>
        <time>2023-05-31T06:01:18Z</time>
      </trkpt>
      <trkpt lat="43.65803" lon="1.40561">
        <ele>129</ele>
        <time>2023-05-31T06:01:19Z</time>
      </trkpt>
      <trkpt lat="43.65797" lon="1.40563">
        <ele>129</ele>
        <time>2023-05-31T06:01:20Z</time>
      </trkpt>
      <trkpt lat="43.65797" lon="1.40563">
        <ele>130</ele>
        <time>2023-05-31T06:01:21Z</time>
      </trkpt>
      <trkpt lat="43.65791" lon="1.40565">
        <ele>130</ele>
        <time>2023-05-31T06:01:22Z</time>
      </trkpt>
      <trkpt lat="43.65789" lon="1.40565">
        <ele>130</ele>
        <time>2023-05-31T06:01:23Z</time>
      </trkpt>
      <trkpt lat="43.65787" lon="1.40566">
        <ele>130</ele>
        <time>2023-05-31T06:01:24Z</time>
      </trkpt>
      <trkpt lat="43.65787" lon="1.40566">
        <ele>130</ele>
        <time>2023-05-31T06:01:25Z</time>
      </trkpt>
      <trkpt lat="43.6578" lon="1.40567">
        <ele>129</ele>
        <time>2023-05-31T06:01:26Z</time>
      </trkpt>
      <trkpt lat="43.65779" lon="1.40567">
        <ele>129</ele>
        <time>2023-05-31T06:01:27Z</time>
      </trkpt>
      <trkpt lat="43.65779" lon="1.40567">
        <ele>129</ele>
        <time>2023-05-31T06:01:28Z</time>
      </trkpt>
      <trkpt lat="43.65774" lon="1.40567">
        <ele>129</ele>
        <time>2023-05-31T06:01:29Z</time>
      </trkpt>
      <trkpt lat="43.65774" lon="1.40567">
        <ele>129</ele>
        <time>2023-05-31T06:01:30Z</time>
      </trkpt>
      <trkpt lat="43.65769" lon="1.4057">
        <ele>130</ele>
        <time>2023-05-31T06:01:31Z</time>
      </trkpt>
      <trkpt lat="43.65769" lon="1.4057">
        <ele>130</ele>
        <time>2023-05-31T06:01:32Z</time>
      </trkpt>
      <trkpt lat="43.65763" lon="1.40575">
        <ele>130</ele>
        <time>2023-05-31T06:01:33Z</time>
      </trkpt>
      <trkpt lat="43.65762" lon="1.40575">
        <ele>129</ele>
        <time>2023-05-31T06:01:34Z</time>
      </trkpt>
      <trkpt lat="43.65762" lon="1.40575">
        <ele>129</ele>
        <time>2023-05-31T06:01:35Z</time>
      </trkpt>
      <trkpt lat="43.65756" lon="1.40577">
        <ele>129</ele>
        <time>2023-05-31T06:01:36Z</time>
      </trkpt>
      <trkpt lat="43.65756" lon="1.40577">
        <ele>128</ele>
        <time>2023-05-31T06:01:37Z</time>
      </trkpt>
      <trkpt lat="43.65753" lon="1.4058">
        <ele>128</ele>
        <time>2023-05-31T06:01:38Z</time>
      </trkpt>
      <trkpt lat="43.65753" lon="1.4058">
        <ele>128</ele>
        <time>2023-05-31T06:01:39Z</time>
      </trkpt>
      <trkpt lat="43.65748" lon="1.40586">
        <ele>128</ele>
        <time>2023-05-31T06:01:40Z</time>
      </trkpt>
      <trkpt lat="43.65748" lon="1.40586">
        <ele>128</ele>
        <time>2023-05-31T06:01:41Z</time>
      </trkpt>
      <trkpt lat="43.6574" lon="1.40587">
        <ele>128</ele>
        <time>2023-05-31T06:01:42Z</time>
      </trkpt>
      <trkpt lat="43.65739" lon="1.40587">
        <ele>127</ele>
        <time>2023-05-31T06:01:43Z</time>
      </trkpt>
      <trkpt lat="43.65739" lon="1.40587">
        <ele>127</ele>
        <time>2023-05-31T06:01:44Z</time>
      </trkpt>
      <trkpt lat="43.65736" lon="1.40586">
        <ele>126</ele>
        <time>2023-05-31T06:01:45Z</time>
      </trkpt>
      <trkpt lat="43.65733" lon="1.40586">
        <ele>126</ele>
        <time>2023-05-31T06:01:46Z</time>
      </trkpt>
      <trkpt lat="43.6573" lon="1.40586">
        <ele>126</ele>
        <time>2023-05-31T06:01:47Z</time>
      </trkpt>
      <trkpt lat="43.65725" lon="1.40587">
        <ele>126</ele>
        <time>2023-05-31T06:01:48Z</time>
      </trkpt>
      <trkpt lat="43.65722" lon="1.40588">
        <ele>126</ele>
        <time>2023-05-31T06:01:49Z</time>
      </trkpt>
      <trkpt lat="43.65719" lon="1.4059">
        <ele>126</ele>
        <time>2023-05-31T06:01:50Z</time>
      </trkpt>
      <trkpt lat="43.65717" lon="1.40591">
        <ele>126</ele>
        <time>2023-05-31T06:01:51Z</time>
      </trkpt>
      <trkpt lat="43.65717" lon="1.40591">
        <ele>126</ele>
        <time>2023-05-31T06:01:52Z</time>
      </trkpt>
      <trkpt lat="43.65714" lon="1.40592">
        <ele>126</ele>
        <time>2023-05-31T06:01:53Z</time>
      </trkpt>
      <trkpt lat="43.65712" lon="1.40592">
        <ele>126</ele>
        <time>2023-05-31T06:01:54Z</time>
      </trkpt>
      <trkpt lat="43.65706" lon="1.40595">
        <ele>125</ele>
        <time>2023-05-31T06:01:55Z</time>
      </trkpt>
      <trkpt lat="43.65706" lon="1.40595">
        <ele>125</ele>
        <time>2023-05-31T06:01:56Z</time>
      </trkpt>
      <trkpt lat="43.65701" lon="1.40597">
        <ele>125</ele>
        <time>2023-05-31T06:01:57Z</time>
      </trkpt>
      <trkpt lat="43.65701" lon="1.40597">
        <ele>125</ele>
        <time>2023-05-31T06:01:58Z</time>
      </trkpt>
      <trkpt lat="43.65695" lon="1.40596">
        <ele>125</ele>
        <time>2023-05-31T06:01:59Z</time>
      </trkpt>
      <trkpt lat="43.65693" lon="1.40595">
        <ele>125</ele>
        <time>2023-05-31T06:02:00Z</time>
      </trkpt>
      <trkpt lat="43.65691" lon="1.40593">
        <ele>125</ele>
        <time>2023-05-31T06:02:01Z</time>
      </trkpt>
      <trkpt lat="43.65691" lon="1.40593">
        <ele>125</ele>
        <time>2023-05-31T06:02:02Z</time>
      </trkpt>
      <trkpt lat="43.65688" lon="1.40588">
        <ele>125</ele>
        <time>2023-05-31T06:02:03Z</time>
      </trkpt>
      <trkpt lat="43.65688" lon="1.40588">
        <ele>125</ele>
        <time>2023-05-31T06:02:04Z</time>
      </trkpt>
      <trkpt lat="43.65684" lon="1.40586">
        <ele>125</ele>
        <time>2023-05-31T06:02:05Z</time>
      </trkpt>
      <trkpt lat="43.65684" lon="1.40586">
        <ele>126</ele>
        <time>2023-05-31T06:02:06Z</time>
      </trkpt>
      <trkpt lat="43.65682" lon="1.40587">
        <ele>127</ele>
        <time>2023-05-31T06:02:07Z</time>
      </trkpt>
      <trkpt lat="43.6568" lon="1.40589">
        <ele>127</ele>
        <time>2023-05-31T06:02:08Z</time>
      </trkpt>
      <trkpt lat="43.65678" lon="1.4059">
        <ele>127</ele>
        <time>2023-05-31T06:02:09Z</time>
      </trkpt>
      <trkpt lat="43.65672" lon="1.40593">
        <ele>127</ele>
        <time>2023-05-31T06:02:10Z</time>
      </trkpt>
      <trkpt lat="43.65672" lon="1.40593">
        <ele>127</ele>
        <time>2023-05-31T06:02:11Z</time>
      </trkpt>
      <trkpt lat="43.65664" lon="1.40594">
        <ele>127</ele>
        <time>2023-05-31T06:02:12Z</time>
      </trkpt>
      <trkpt lat="43.65663" lon="1.40594">
        <ele>126</ele>
        <time>2023-05-31T06:02:13Z</time>
      </trkpt>
      <trkpt lat="43.65663" lon="1.40594">
        <ele>125</ele>
        <time>2023-05-31T06:02:14Z</time>
      </trkpt>
      <trkpt lat="43.6566" lon="1.40594">
        <ele>125</ele>
        <time>2023-05-31T06:02:15Z</time>
      </trkpt>
      <trkpt lat="43.65658" lon="1.40593">
        <ele>125</ele>
        <time>2023-05-31T06:02:16Z</time>
      </trkpt>
      <trkpt lat="43.65653" lon="1.40594">
        <ele>125</ele>
        <time>2023-05-31T06:02:17Z</time>
      </trkpt>
      <trkpt lat="43.65653" lon="1.40594">
        <ele>125</ele>
        <time>2023-05-31T06:02:18Z</time>
      </trkpt>
      <trkpt lat="43.65646" lon="1.40594">
        <ele>125</ele>
        <time>2023-05-31T06:02:19Z</time>
      </trkpt>
      <trkpt lat="43.65644" lon="1.40594">
        <ele>125</ele>
        <time>2023-05-31T06:02:20Z</time>
      </trkpt>
      <trkpt lat="43.65644" lon="1.40594">
        <ele>125</ele>
        <time>2023-05-31T06:02:21Z</time>
      </trkpt>
      <trkpt lat="43.65638" lon="1.40596">
        <ele>125</ele>
        <time>2023-05-31T06:02:22Z</time>
      </trkpt>
      <trkpt lat="43.65636" lon="1.40596">
        <ele>125</ele>
        <time>2023-05-31T06:02:23Z</time>
      </trkpt>
      <trkpt lat="43.65634" lon="1.40596">
        <ele>125</ele>
        <time>2023-05-31T06:02:24Z</time>
      </trkpt>
      <trkpt lat="43.65634" lon="1.40596">
        <ele>125</ele>
        <time>2023-05-31T06:02:25Z</time>
      </trkpt>
      <trkpt lat="43.65629" lon="1.40597">
        <ele>125</ele>
        <time>2023-05-31T06:02:26Z</time>
      </trkpt>
      <trkpt lat="43.65629" lon="1.40597">
        <ele>125</ele>
        <time>2023-05-31T06:02:27Z</time>
      </trkpt>
      <trkpt lat="43.65624" lon="1.40596">
        <ele>125</ele>
        <time>2023-05-31T06:02:28Z</time>
      </trkpt>
      <trkpt lat="43.65624" lon="1.40596">
        <ele>125</ele>
        <time>2023-05-31T06:02:29Z</time>
      </trkpt>
      <trkpt lat="43.65622" lon="1.40596">
        <ele>125</ele>
        <time>2023-05-31T06:02:30Z</time>
      </trkpt>
      <trkpt lat="43.65616" lon="1.40595">
        <ele>125</ele>
        <time>2023-05-31T06:02:31Z</time>
      </trkpt>
      <trkpt lat="43.65616" lon="1.40595">
        <ele>125</ele>
        <time>2023-05-31T06:02:32Z</time>
      </trkpt>
      <trkpt lat="43.6561" lon="1.40594">
        <ele>125</ele>
        <time>2023-05-31T06:02:33Z</time>
      </trkpt>
      <trkpt lat="43.6561" lon="1.40594">
        <ele>126</ele>
        <time>2023-05-31T06:02:34Z</time>
      </trkpt>
      <trkpt lat="43.65606" lon="1.40593">
        <ele>126</ele>
        <time>2023-05-31T06:02:35Z</time>
      </trkpt>
      <trkpt lat="43.65606" lon="1.40593">
        <ele>126</ele>
        <time>2023-05-31T06:02:36Z</time>
      </trkpt>
      <trkpt lat="43.65604" lon="1.40592">
        <ele>126</ele>
        <time>2023-05-31T06:02:37Z</time>
      </trkpt>
      <trkpt lat="43.65601" lon="1.40592">
        <ele>126</ele>
        <time>2023-05-31T06:02:38Z</time>
      </trkpt>
      <trkpt lat="43.65597" lon="1.40591">
        <ele>126</ele>
        <time>2023-05-31T06:02:39Z</time>
      </trkpt>
      <trkpt lat="43.65594" lon="1.40591">
        <ele>126</ele>
        <time>2023-05-31T06:02:40Z</time>
      </trkpt>
      <trkpt lat="43.65594" lon="1.40591">
        <ele>126</ele>
        <time>2023-05-31T06:02:41Z</time>
      </trkpt>
      <trkpt lat="43.65587" lon="1.40591">
        <ele>126</ele>
        <time>2023-05-31T06:02:42Z</time>
      </trkpt>
      <trkpt lat="43.65585" lon="1.40591">
        <ele>125</ele>
        <time>2023-05-31T06:02:43Z</time>
      </trkpt>
      <trkpt lat="43.65585" lon="1.40591">
        <ele>125</ele>
        <time>2023-05-31T06:02:44Z</time>
      </trkpt>
      <trkpt lat="43.65579" lon="1.40591">
        <ele>125</ele>
        <time>2023-05-31T06:02:45Z</time>
      </trkpt>
      <trkpt lat="43.65579" lon="1.40591">
        <ele>125</ele>
        <time>2023-05-31T06:02:46Z</time>
      </trkpt>
      <trkpt lat="43.65573" lon="1.40591">
        <ele>125</ele>
        <time>2023-05-31T06:02:47Z</time>
      </trkpt>
      <trkpt lat="43.65573" lon="1.40591">
        <ele>125</ele>
        <time>2023-05-31T06:02:48Z</time>
      </trkpt>
      <trkpt lat="43.65567" lon="1.40592">
        <ele>125</ele>
        <time>2023-05-31T06:02:49Z</time>
      </trkpt>
      <trkpt lat="43.65567" lon="1.40592">
        <ele>125</ele>
        <time>2023-05-31T06:02:50Z</time>
      </trkpt>
      <trkpt lat="43.65564" lon="1.40592">
        <ele>125</ele>
        <time>2023-05-31T06:02:51Z</time>
      </trkpt>
      <trkpt lat="43.65558" lon="1.40591">
        <ele>125</ele>
        <time>2023-05-31T06:02:52Z</time>
      </trkpt>
      <trkpt lat="43.65558" lon="1.40591">
        <ele>125</ele>
        <time>2023-05-31T06:02:53Z</time>
      </trkpt>
      <trkpt lat="43.65552" lon="1.4059">
        <ele>125</ele>
        <time>2023-05-31T06:02:54Z</time>
      </trkpt>
      <trkpt lat="43.65552" lon="1.4059">
        <ele>125</ele>
        <time>2023-05-31T06:02:55Z</time>
      </trkpt>
      <trkpt lat="43.65549" lon="1.4059">
        <ele>125</ele>
        <time>2023-05-31T06:02:56Z</time>
      </trkpt>
      <trkpt lat="43.65543" lon="1.40589">
        <ele>125</ele>
        <time>2023-05-31T06:02:57Z</time>
      </trkpt>
      <trkpt lat="43.6554" lon="1.40588">
        <ele>125</ele>
        <time>2023-05-31T06:02:58Z</time>
      </trkpt>
      <trkpt lat="43.6554" lon="1.40588">
        <ele>125</ele>
        <time>2023-05-31T06:02:59Z</time>
      </trkpt>
      <trkpt lat="43.65534" lon="1.40586">
        <ele>125</ele>
        <time>2023-05-31T06:03:00Z</time>
      </trkpt>
      <trkpt lat="43.65534" lon="1.40586">
        <ele>125</ele>
        <time>2023-05-31T06:03:01Z</time>
      </trkpt>
      <trkpt lat="43.65529" lon="1.40583">
        <ele>125</ele>
        <time>2023-05-31T06:03:02Z</time>
      </trkpt>
      <trkpt lat="43.65529" lon="1.40583">
        <ele>125</ele>
        <time>2023-05-31T06:03:03Z</time>
      </trkpt>
      <trkpt lat="43.65524" lon="1.40578">
        <ele>125</ele>
        <time>2023-05-31T06:03:04Z</time>
      </trkpt>
      <trkpt lat="43.65521" lon="1.40577">
        <ele>125</ele>
        <time>2023-05-31T06:03:05Z</time>
      </trkpt>
      <trkpt lat="43.65521" lon="1.40577">
        <ele>126</ele>
        <time>2023-05-31T06:03:06Z</time>
      </trkpt>
      <trkpt lat="43.65516" lon="1.40575">
        <ele>126</ele>
        <time>2023-05-31T06:03:07Z</time>
      </trkpt>
      <trkpt lat="43.65516" lon="1.40575">
        <ele>126</ele>
        <time>2023-05-31T06:03:08Z</time>
      </trkpt>
      <trkpt lat="43.6551" lon="1.40571">
        <ele>126</ele>
        <time>2023-05-31T06:03:09Z</time>
      </trkpt>
      <trkpt lat="43.65509" lon="1.4057">
        <ele>126</ele>
        <time>2023-05-31T06:03:10Z</time>
      </trkpt>
      <trkpt lat="43.65509" lon="1.4057">
        <ele>126</ele>
        <time>2023-05-31T06:03:11Z</time>
      </trkpt>
      <trkpt lat="43.65503" lon="1.40568">
        <ele>126</ele>
        <time>2023-05-31T06:03:12Z</time>
      </trkpt>
      <trkpt lat="43.65503" lon="1.40568">
        <ele>126</ele>
        <time>2023-05-31T06:03:13Z</time>
      </trkpt>
      <trkpt lat="43.65497" lon="1.40565">
        <ele>126</ele>
        <time>2023-05-31T06:03:14Z</time>
      </trkpt>
      <trkpt lat="43.65496" lon="1.40564">
        <ele>126</ele>
        <time>2023-05-31T06:03:15Z</time>
      </trkpt>
      <trkpt lat="43.65494" lon="1.40562">
        <ele>125</ele>
        <time>2023-05-31T06:03:16Z</time>
      </trkpt>
      <trkpt lat="43.65491" lon="1.4056">
        <ele>125</ele>
        <time>2023-05-31T06:03:17Z</time>
      </trkpt>
      <trkpt lat="43.65491" lon="1.4056">
        <ele>125</ele>
        <time>2023-05-31T06:03:18Z</time>
      </trkpt>
      <trkpt lat="43.65487" lon="1.40557">
        <ele>125</ele>
        <time>2023-05-31T06:03:19Z</time>
      </trkpt>
      <trkpt lat="43.65487" lon="1.40557">
        <ele>126</ele>
        <time>2023-05-31T06:03:20Z</time>
      </trkpt>
      <trkpt lat="43.65482" lon="1.40555">
        <ele>126</ele>
        <time>2023-05-31T06:03:21Z</time>
      </trkpt>
      <trkpt lat="43.65482" lon="1.40555">
        <ele>126</ele>
        <time>2023-05-31T06:03:22Z</time>
      </trkpt>
      <trkpt lat="43.6548" lon="1.40554">
        <ele>126</ele>
        <time>2023-05-31T06:03:23Z</time>
      </trkpt>
      <trkpt lat="43.65478" lon="1.40553">
        <ele>127</ele>
        <time>2023-05-31T06:03:24Z</time>
      </trkpt>
      <trkpt lat="43.65475" lon="1.40553">
        <ele>127</ele>
        <time>2023-05-31T06:03:25Z</time>
      </trkpt>
      <trkpt lat="43.6547" lon="1.40552">
        <ele>126</ele>
        <time>2023-05-31T06:03:26Z</time>
      </trkpt>
      <trkpt lat="43.6547" lon="1.40552">
        <ele>126</ele>
        <time>2023-05-31T06:03:27Z</time>
      </trkpt>
      <trkpt lat="43.65464" lon="1.4055">
        <ele>126</ele>
        <time>2023-05-31T06:03:28Z</time>
      </trkpt>
      <trkpt lat="43.65464" lon="1.4055">
        <ele>126</ele>
        <time>2023-05-31T06:03:29Z</time>
      </trkpt>
      <trkpt lat="43.65457" lon="1.40547">
        <ele>125</ele>
        <time>2023-05-31T06:03:30Z</time>
      </trkpt>
      <trkpt lat="43.65455" lon="1.40546">
        <ele>125</ele>
        <time>2023-05-31T06:03:31Z</time>
      </trkpt>
      <trkpt lat="43.65453" lon="1.40544">
        <ele>125</ele>
        <time>2023-05-31T06:03:32Z</time>
      </trkpt>
      <trkpt lat="43.6545" lon="1.40542">
        <ele>125</ele>
        <time>2023-05-31T06:03:33Z</time>
      </trkpt>
      <trkpt lat="43.6545" lon="1.40542">
        <ele>125</ele>
        <time>2023-05-31T06:03:34Z</time>
      </trkpt>
      <trkpt lat="43.65445" lon="1.40538">
        <ele>125</ele>
        <time>2023-05-31T06:03:35Z</time>
      </trkpt>
      <trkpt lat="43.65444" lon="1.40538">
        <ele>125</ele>
        <time>2023-05-31T06:03:36Z</time>
      </trkpt>
      <trkpt lat="43.65444" lon="1.40538">
        <ele>126</ele>
        <time>2023-05-31T06:03:37Z</time>
      </trkpt>
      <trkpt lat="43.65438" lon="1.40536">
        <ele>126</ele>
        <time>2023-05-31T06:03:38Z</time>
      </trkpt>
      <trkpt lat="43.65438" lon="1.40536">
        <ele>126</ele>
        <time>2023-05-31T06:03:39Z</time>
      </trkpt>
      <trkpt lat="43.65433" lon="1.40533">
        <ele>126</ele>
        <time>2023-05-31T06:03:40Z</time>
      </trkpt>
      <trkpt lat="43.65433" lon="1.40533">
        <ele>126</ele>
        <time>2023-05-31T06:03:41Z</time>
      </trkpt>
      <trkpt lat="43.65428" lon="1.40528">
        <ele>126</ele>
        <time>2023-05-31T06:03:42Z</time>
      </trkpt>
      <trkpt lat="43.65428" lon="1.40528">
        <ele>125</ele>
        <time>2023-05-31T06:03:43Z</time>
      </trkpt>
      <trkpt lat="43.65426" lon="1.40525">
        <ele>125</ele>
        <time>2023-05-31T06:03:44Z</time>
      </trkpt>
      <trkpt lat="43.65422" lon="1.40519">
        <ele>125</ele>
        <time>2023-05-31T06:03:45Z</time>
      </trkpt>
      <trkpt lat="43.65422" lon="1.40519">
        <ele>125</ele>
        <time>2023-05-31T06:03:46Z</time>
      </trkpt>
      <trkpt lat="43.65418" lon="1.40512">
        <ele>126</ele>
        <time>2023-05-31T06:03:47Z</time>
      </trkpt>
      <trkpt lat="43.65417" lon="1.40511">
        <ele>126</ele>
        <time>2023-05-31T06:03:48Z</time>
      </trkpt>
      <trkpt lat="43.65417" lon="1.40511">
        <ele>126</ele>
        <time>2023-05-31T06:03:49Z</time>
      </trkpt>
      <trkpt lat="43.65415" lon="1.40508">
        <ele>126</ele>
        <time>2023-05-31T06:03:50Z</time>
      </trkpt>
      <trkpt lat="43.65411" lon="1.40502">
        <ele>126</ele>
        <time>2023-05-31T06:03:51Z</time>
      </trkpt>
      <trkpt lat="43.65411" lon="1.40502">
        <ele>126</ele>
        <time>2023-05-31T06:03:52Z</time>
      </trkpt>
      <trkpt lat="43.65409" lon="1.40499">
        <ele>126</ele>
        <time>2023-05-31T06:03:53Z</time>
      </trkpt>
      <trkpt lat="43.65407" lon="1.40497">
        <ele>127</ele>
        <time>2023-05-31T06:03:54Z</time>
      </trkpt>
      <trkpt lat="43.65402" lon="1.40493">
        <ele>127</ele>
        <time>2023-05-31T06:03:55Z</time>
      </trkpt>
      <trkpt lat="43.65402" lon="1.40493">
        <ele>127</ele>
        <time>2023-05-31T06:03:56Z</time>
      </trkpt>
      <trkpt lat="43.65397" lon="1.4049">
        <ele>127</ele>
        <time>2023-05-31T06:03:57Z</time>
      </trkpt>
      <trkpt lat="43.65397" lon="1.4049">
        <ele>127</ele>
        <time>2023-05-31T06:03:58Z</time>
      </trkpt>
      <trkpt lat="43.65393" lon="1.40488">
        <ele>126</ele>
        <time>2023-05-31T06:03:59Z</time>
      </trkpt>
      <trkpt lat="43.65393" lon="1.40488">
        <ele>126</ele>
        <time>2023-05-31T06:04:00Z</time>
      </trkpt>
      <trkpt lat="43.65391" lon="1.40488">
        <ele>126</ele>
        <time>2023-05-31T06:04:01Z</time>
      </trkpt>
      <trkpt lat="43.65386" lon="1.40489">
        <ele>126</ele>
        <time>2023-05-31T06:04:02Z</time>
      </trkpt>
      <trkpt lat="43.65386" lon="1.40489">
        <ele>126</ele>
        <time>2023-05-31T06:04:03Z</time>
      </trkpt>
      <trkpt lat="43.65379" lon="1.40488">
        <ele>126</ele>
        <time>2023-05-31T06:04:04Z</time>
      </trkpt>
      <trkpt lat="43.65377" lon="1.40488">
        <ele>125</ele>
        <time>2023-05-31T06:04:05Z</time>
      </trkpt>
      <trkpt lat="43.65374" lon="1.40486">
        <ele>125</ele>
        <time>2023-05-31T06:04:06Z</time>
      </trkpt>
      <trkpt lat="43.65372" lon="1.40485">
        <ele>125</ele>
        <time>2023-05-31T06:04:07Z</time>
      </trkpt>
      <trkpt lat="43.65369" lon="1.40483">
        <ele>125</ele>
        <time>2023-05-31T06:04:08Z</time>
      </trkpt>
      <trkpt lat="43.65367" lon="1.40481">
        <ele>125</ele>
        <time>2023-05-31T06:04:09Z</time>
      </trkpt>
      <trkpt lat="43.65367" lon="1.40481">
        <ele>125</ele>
        <time>2023-05-31T06:04:10Z</time>
      </trkpt>
      <trkpt lat="43.65364" lon="1.40479">
        <ele>125</ele>
        <time>2023-05-31T06:04:11Z</time>
      </trkpt>
      <trkpt lat="43.65361" lon="1.40477">
        <ele>125</ele>
        <time>2023-05-31T06:04:12Z</time>
      </trkpt>
      <trkpt lat="43.65357" lon="1.40473">
        <ele>125</ele>
        <time>2023-05-31T06:04:13Z</time>
      </trkpt>
      <trkpt lat="43.65355" lon="1.40471">
        <ele>125</ele>
        <time>2023-05-31T06:04:14Z</time>
      </trkpt>
      <trkpt lat="43.65355" lon="1.40471">
        <ele>125</ele>
        <time>2023-05-31T06:04:15Z</time>
      </trkpt>
      <trkpt lat="43.65351" lon="1.40466">
        <ele>125</ele>
        <time>2023-05-31T06:04:16Z</time>
      </trkpt>
      <trkpt lat="43.65351" lon="1.40466">
        <ele>126</ele>
        <time>2023-05-31T06:04:17Z</time>
      </trkpt>
      <trkpt lat="43.65346" lon="1.40461">
        <ele>126</ele>
        <time>2023-05-31T06:04:18Z</time>
      </trkpt>
      <trkpt lat="43.65346" lon="1.40461">
        <ele>126</ele>
        <time>2023-05-31T06:04:19Z</time>
      </trkpt>
      <trkpt lat="43.65344" lon="1.40459">
        <ele>126</ele>
        <time>2023-05-31T06:04:20Z</time>
      </trkpt>
      <trkpt lat="43.65339" lon="1.40454">
        <ele>126</ele>
        <time>2023-05-31T06:04:21Z</time>
      </trkpt>
      <trkpt lat="43.65339" lon="1.40454">
        <ele>126</ele>
        <time>2023-05-31T06:04:22Z</time>
      </trkpt>
      <trkpt lat="43.65334" lon="1.4045">
        <ele>126</ele>
        <time>2023-05-31T06:04:23Z</time>
      </trkpt>
      <trkpt lat="43.65334" lon="1.4045">
        <ele>126</ele>
        <time>2023-05-31T06:04:24Z</time>
      </trkpt>
      <trkpt lat="43.6533" lon="1.40445">
        <ele>126</ele>
        <time>2023-05-31T06:04:25Z</time>
      </trkpt>
      <trkpt lat="43.65329" lon="1.40443">
        <ele>126</ele>
        <time>2023-05-31T06:04:26Z</time>
      </trkpt>
      <trkpt lat="43.65327" lon="1.40441">
        <ele>126</ele>
        <time>2023-05-31T06:04:27Z</time>
      </trkpt>
      <trkpt lat="43.65325" lon="1.40438">
        <ele>126</ele>
        <time>2023-05-31T06:04:28Z</time>
      </trkpt>
      <trkpt lat="43.65322" lon="1.40436">
        <ele>127</ele>
        <time>2023-05-31T06:04:29Z</time>
      </trkpt>
      <trkpt lat="43.65322" lon="1.40436">
        <ele>127</ele>
        <time>2023-05-31T06:04:30Z</time>
      </trkpt>
      <trkpt lat="43.65319" lon="1.40431">
        <ele>127</ele>
        <time>2023-05-31T06:04:31Z</time>
      </trkpt>
      <trkpt lat="43.65317" lon="1.40429">
        <ele>127</ele>
        <time>2023-05-31T06:04:32Z</time>
      </trkpt>
      <trkpt lat="43.65316" lon="1.40426">
        <ele>127</ele>
        <time>2023-05-31T06:04:33Z</time>
      </trkpt>
      <trkpt lat="43.65314" lon="1.40423">
        <ele>127</ele>
        <time>2023-05-31T06:04:34Z</time>
      </trkpt>
      <trkpt lat="43.65313" lon="1.40421">
        <ele>127</ele>
        <time>2023-05-31T06:04:35Z</time>
      </trkpt>
      <trkpt lat="43.65311" lon="1.40419">
        <ele>127</ele>
        <time>2023-05-31T06:04:36Z</time>
      </trkpt>
      <trkpt lat="43.65308" lon="1.40417">
        <ele>127</ele>
        <time>2023-05-31T06:04:37Z</time>
      </trkpt>
      <trkpt lat="43.65306" lon="1.40416">
        <ele>127</ele>
        <time>2023-05-31T06:04:38Z</time>
      </trkpt>
      <trkpt lat="43.65306" lon="1.40416">
        <ele>127</ele>
        <time>2023-05-31T06:04:39Z</time>
      </trkpt>
      <trkpt lat="43.65301" lon="1.40411">
        <ele>127</ele>
        <time>2023-05-31T06:04:40Z</time>
      </trkpt>
      <trkpt lat="43.653" lon="1.40411">
        <ele>127</ele>
        <time>2023-05-31T06:04:41Z</time>
      </trkpt>
      <trkpt lat="43.65298" lon="1.40409">
        <ele>127</ele>
        <time>2023-05-31T06:04:42Z</time>
      </trkpt>
      <trkpt lat="43.65295" lon="1.40407">
        <ele>127</ele>
        <time>2023-05-31T06:04:43Z</time>
      </trkpt>
      <trkpt lat="43.65293" lon="1.40406">
        <ele>127</ele>
        <time>2023-05-31T06:04:44Z</time>
      </trkpt>
      <trkpt lat="43.6529" lon="1.40404">
        <ele>127</ele>
        <time>2023-05-31T06:04:45Z</time>
      </trkpt>
      <trkpt lat="43.65287" lon="1.40403">
        <ele>127</ele>
        <time>2023-05-31T06:04:46Z</time>
      </trkpt>
      <trkpt lat="43.65284" lon="1.40402">
        <ele>127</ele>
        <time>2023-05-31T06:04:47Z</time>
      </trkpt>
      <trkpt lat="43.65284" lon="1.40402">
        <ele>127</ele>
        <time>2023-05-31T06:04:48Z</time>
      </trkpt>
      <trkpt lat="43.65282" lon="1.40401">
        <ele>127</ele>
        <time>2023-05-31T06:04:49Z</time>
      </trkpt>
      <trkpt lat="43.65277" lon="1.40396">
        <ele>127</ele>
        <time>2023-05-31T06:04:50Z</time>
      </trkpt>
      <trkpt lat="43.65276" lon="1.40394">
        <ele>127</ele>
        <time>2023-05-31T06:04:51Z</time>
      </trkpt>
      <trkpt lat="43.65274" lon="1.40392">
        <ele>127</ele>
        <time>2023-05-31T06:04:52Z</time>
      </trkpt>
      <trkpt lat="43.65274" lon="1.40392">
        <ele>127</ele>
        <time>2023-05-31T06:04:53Z</time>
      </trkpt>
      <trkpt lat="43.65269" lon="1.40385">
        <ele>127</ele>
        <time>2023-05-31T06:04:54Z</time>
      </trkpt>
      <trkpt lat="43.65268" lon="1.40383">
        <ele>127</ele>
        <time>2023-05-31T06:04:55Z</time>
      </trkpt>
      <trkpt lat="43.65266" lon="1.40381">
        <ele>127</ele>
        <time>2023-05-31T06:04:56Z</time>
      </trkpt>
      <trkpt lat="43.65263" lon="1.40378">
        <ele>127</ele>
        <time>2023-05-31T06:04:57Z</time>
      </trkpt>
      <trkpt lat="43.65263" lon="1.40378">
        <ele>127</ele>
        <time>2023-05-31T06:04:58Z</time>
      </trkpt>
      <trkpt lat="43.65261" lon="1.40376">
        <ele>127</ele>
        <time>2023-05-31T06:04:59Z</time>
      </trkpt>
      <trkpt lat="43.65257" lon="1.40373">
        <ele>127</ele>
        <time>2023-05-31T06:05:00Z</time>
      </trkpt>
      <trkpt lat="43.65255" lon="1.4037">
        <ele>127</ele>
        <time>2023-05-31T06:05:01Z</time>
      </trkpt>
      <trkpt lat="43.65255" lon="1.4037">
        <ele>127</ele>
        <time>2023-05-31T06:05:02Z</time>
      </trkpt>
      <trkpt lat="43.6525" lon="1.40363">
        <ele>127</ele>
        <time>2023-05-31T06:05:03Z</time>
      </trkpt>
      <trkpt lat="43.65249" lon="1.40362">
        <ele>127</ele>
        <time>2023-05-31T06:05:04Z</time>
      </trkpt>
      <trkpt lat="43.65249" lon="1.40362">
        <ele>127</ele>
        <time>2023-05-31T06:05:05Z</time>
      </trkpt>
      <trkpt lat="43.65244" lon="1.40356">
        <ele>127</ele>
        <time>2023-05-31T06:05:06Z</time>
      </trkpt>
      <trkpt lat="43.65243" lon="1.40355">
        <ele>127</ele>
        <time>2023-05-31T06:05:07Z</time>
      </trkpt>
      <trkpt lat="43.65243" lon="1.40355">
        <ele>127</ele>
        <time>2023-05-31T06:05:08Z</time>
      </trkpt>
      <trkpt lat="43.65238" lon="1.40352">
        <ele>127</ele>
        <time>2023-05-31T06:05:09Z</time>
      </trkpt>
      <trkpt lat="43.65235" lon="1.4035">
        <ele>128</ele>
        <time>2023-05-31T06:05:10Z</time>
      </trkpt>
      <trkpt lat="43.65233" lon="1.40347">
        <ele>128</ele>
        <time>2023-05-31T06:05:11Z</time>
      </trkpt>
      <trkpt lat="43.65231" lon="1.40345">
        <ele>128</ele>
        <time>2023-05-31T06:05:12Z</time>
      </trkpt>
      <trkpt lat="43.65229" lon="1.40342">
        <ele>128</ele>
        <time>2023-05-31T06:05:13Z</time>
      </trkpt>
      <trkpt lat="43.65229" lon="1.40342">
        <ele>128</ele>
        <time>2023-05-31T06:05:14Z</time>
      </trkpt>
      <trkpt lat="43.65227" lon="1.4034">
        <ele>128</ele>
        <time>2023-05-31T06:05:15Z</time>
      </trkpt>
      <trkpt lat="43.65225" lon="1.40337">
        <ele>128</ele>
        <time>2023-05-31T06:05:16Z</time>
      </trkpt>
      <trkpt lat="43.65222" lon="1.40335">
        <ele>128</ele>
        <time>2023-05-31T06:05:17Z</time>
      </trkpt>
      <trkpt lat="43.65218" lon="1.40332">
        <ele>128</ele>
        <time>2023-05-31T06:05:18Z</time>
      </trkpt>
      <trkpt lat="43.65218" lon="1.40332">
        <ele>128</ele>
        <time>2023-05-31T06:05:19Z</time>
      </trkpt>
      <trkpt lat="43.65213" lon="1.40326">
        <ele>128</ele>
        <time>2023-05-31T06:05:20Z</time>
      </trkpt>
      <trkpt lat="43.65212" lon="1.40325">
        <ele>128</ele>
        <time>2023-05-31T06:05:21Z</time>
      </trkpt>
      <trkpt lat="43.6521" lon="1.40322">
        <ele>128</ele>
        <time>2023-05-31T06:05:22Z</time>
      </trkpt>
      <trkpt lat="43.65208" lon="1.40319">
        <ele>128</ele>
        <time>2023-05-31T06:05:23Z</time>
      </trkpt>
      <trkpt lat="43.65208" lon="1.40319">
        <ele>128</ele>
        <time>2023-05-31T06:05:24Z</time>
      </trkpt>
      <trkpt lat="43.65203" lon="1.40314">
        <ele>128</ele>
        <time>2023-05-31T06:05:25Z</time>
      </trkpt>
      <trkpt lat="43.65203" lon="1.40314">
        <ele>128</ele>
        <time>2023-05-31T06:05:26Z</time>
      </trkpt>
      <trkpt lat="43.65199" lon="1.40309">
        <ele>128</ele>
        <time>2023-05-31T06:05:27Z</time>
      </trkpt>
      <trkpt lat="43.65199" lon="1.40309">
        <ele>128</ele>
        <time>2023-05-31T06:05:28Z</time>
      </trkpt>
      <trkpt lat="43.65193" lon="1.40304">
        <ele>128</ele>
        <time>2023-05-31T06:05:29Z</time>
      </trkpt>
      <trkpt lat="43.65192" lon="1.40303">
        <ele>128</ele>
        <time>2023-05-31T06:05:30Z</time>
      </trkpt>
      <trkpt lat="43.65192" lon="1.40303">
        <ele>128</ele>
        <time>2023-05-31T06:05:31Z</time>
      </trkpt>
      <trkpt lat="43.65187" lon="1.40299">
        <ele>128</ele>
        <time>2023-05-31T06:05:32Z</time>
      </trkpt>
      <trkpt lat="43.65187" lon="1.40299">
        <ele>128</ele>
        <time>2023-05-31T06:05:33Z</time>
      </trkpt>
      <trkpt lat="43.65181" lon="1.40294">
        <ele>128</ele>
        <time>2023-05-31T06:05:34Z</time>
      </trkpt>
      <trkpt lat="43.6518" lon="1.40293">
        <ele>128</ele>
        <time>2023-05-31T06:05:35Z</time>
      </trkpt>
      <trkpt lat="43.6518" lon="1.40293">
        <ele>128</ele>
        <time>2023-05-31T06:05:36Z</time>
      </trkpt>
      <trkpt lat="43.65174" lon="1.40287">
        <ele>128</ele>
        <time>2023-05-31T06:05:37Z</time>
      </trkpt>
      <trkpt lat="43.65173" lon="1.40286">
        <ele>128</ele>
        <time>2023-05-31T06:05:38Z</time>
      </trkpt>
      <trkpt lat="43.65173" lon="1.40286">
        <ele>128</ele>
        <time>2023-05-31T06:05:39Z</time>
      </trkpt>
      <trkpt lat="43.65171" lon="1.40283">
        <ele>128</ele>
        <time>2023-05-31T06:05:40Z</time>
      </trkpt>
      <trkpt lat="43.65169" lon="1.40281">
        <ele>128</ele>
        <time>2023-05-31T06:05:41Z</time>
      </trkpt>
      <trkpt lat="43.65168" lon="1.40279">
        <ele>128</ele>
        <time>2023-05-31T06:05:42Z</time>
      </trkpt>
      <trkpt lat="43.65166" lon="1.40277">
        <ele>128</ele>
        <time>2023-05-31T06:05:43Z</time>
      </trkpt>
      <trkpt lat="43.65162" lon="1.40273">
        <ele>127</ele>
        <time>2023-05-31T06:05:44Z</time>
      </trkpt>
      <trkpt lat="43.65162" lon="1.40273">
        <ele>128</ele>
        <time>2023-05-31T06:05:45Z</time>
      </trkpt>
      <trkpt lat="43.65157" lon="1.40267">
        <ele>128</ele>
        <time>2023-05-31T06:05:46Z</time>
      </trkpt>
      <trkpt lat="43.65156" lon="1.40265">
        <ele>128</ele>
        <time>2023-05-31T06:05:47Z</time>
      </trkpt>
      <trkpt lat="43.65156" lon="1.40265">
        <ele>128</ele>
        <time>2023-05-31T06:05:48Z</time>
      </trkpt>
      <trkpt lat="43.65152" lon="1.40261">
        <ele>128</ele>
        <time>2023-05-31T06:05:49Z</time>
      </trkpt>
      <trkpt lat="43.65152" lon="1.40261">
        <ele>128</ele>
        <time>2023-05-31T06:05:50Z</time>
      </trkpt>
      <trkpt lat="43.65147" lon="1.40256">
        <ele>128</ele>
        <time>2023-05-31T06:05:51Z</time>
      </trkpt>
      <trkpt lat="43.65147" lon="1.40255">
        <ele>128</ele>
        <time>2023-05-31T06:05:52Z</time>
      </trkpt>
      <trkpt lat="43.65145" lon="1.40253">
        <ele>128</ele>
        <time>2023-05-31T06:05:53Z</time>
      </trkpt>
      <trkpt lat="43.65143" lon="1.40249">
        <ele>128</ele>
        <time>2023-05-31T06:05:54Z</time>
      </trkpt>
      <trkpt lat="43.65143" lon="1.40249">
        <ele>128</ele>
        <time>2023-05-31T06:05:55Z</time>
      </trkpt>
      <trkpt lat="43.65141" lon="1.40247">
        <ele>128</ele>
        <time>2023-05-31T06:05:56Z</time>
      </trkpt>
      <trkpt lat="43.65139" lon="1.40245">
        <ele>128</ele>
        <time>2023-05-31T06:05:57Z</time>
      </trkpt>
      <trkpt lat="43.65135" lon="1.4024">
        <ele>128</ele>
        <time>2023-05-31T06:05:58Z</time>
      </trkpt>
      <trkpt lat="43.65133" lon="1.40238">
        <ele>128</ele>
        <time>2023-05-31T06:05:59Z</time>
      </trkpt>
      <trkpt lat="43.6513" lon="1.40237">
        <ele>128</ele>
        <time>2023-05-31T06:06:00Z</time>
      </trkpt>
      <trkpt lat="43.65128" lon="1.40234">
        <ele>128</ele>
        <time>2023-05-31T06:06:01Z</time>
      </trkpt>
      <trkpt lat="43.65128" lon="1.40234">
        <ele>128</ele>
        <time>2023-05-31T06:06:02Z</time>
      </trkpt>
      <trkpt lat="43.65122" lon="1.40229">
        <ele>128</ele>
        <time>2023-05-31T06:06:03Z</time>
      </trkpt>
      <trkpt lat="43.65121" lon="1.40228">
        <ele>128</ele>
        <time>2023-05-31T06:06:04Z</time>
      </trkpt>
      <trkpt lat="43.65119" lon="1.40226">
        <ele>128</ele>
        <time>2023-05-31T06:06:05Z</time>
      </trkpt>
      <trkpt lat="43.65119" lon="1.40226">
        <ele>128</ele>
        <time>2023-05-31T06:06:06Z</time>
      </trkpt>
      <trkpt lat="43.65117" lon="1.40223">
        <ele>128</ele>
        <time>2023-05-31T06:06:07Z</time>
      </trkpt>
      <trkpt lat="43.65113" lon="1.40218">
        <ele>128</ele>
        <time>2023-05-31T06:06:08Z</time>
      </trkpt>
      <trkpt lat="43.65113" lon="1.40218">
        <ele>128</ele>
        <time>2023-05-31T06:06:09Z</time>
      </trkpt>
      <trkpt lat="43.65109" lon="1.40214">
        <ele>128</ele>
        <time>2023-05-31T06:06:10Z</time>
      </trkpt>
      <trkpt lat="43.65109" lon="1.40214">
        <ele>128</ele>
        <time>2023-05-31T06:06:11Z</time>
      </trkpt>
      <trkpt lat="43.65107" lon="1.40209">
        <ele>128</ele>
        <time>2023-05-31T06:06:12Z</time>
      </trkpt>
      <trkpt lat="43.65107" lon="1.40209">
        <ele>128</ele>
        <time>2023-05-31T06:06:13Z</time>
      </trkpt>
      <trkpt lat="43.65105" lon="1.40205">
        <ele>128</ele>
        <time>2023-05-31T06:06:14Z</time>
      </trkpt>
      <trkpt lat="43.65102" lon="1.40199">
        <ele>128</ele>
        <time>2023-05-31T06:06:15Z</time>
      </trkpt>
      <trkpt lat="43.65102" lon="1.40199">
        <ele>128</ele>
        <time>2023-05-31T06:06:16Z</time>
      </trkpt>
      <trkpt lat="43.65098" lon="1.40194">
        <ele>128</ele>
        <time>2023-05-31T06:06:17Z</time>
      </trkpt>
      <trkpt lat="43.65096" lon="1.40191">
        <ele>128</ele>
        <time>2023-05-31T06:06:18Z</time>
      </trkpt>
      <trkpt lat="43.65093" lon="1.4019">
        <ele>128</ele>
        <time>2023-05-31T06:06:19Z</time>
      </trkpt>
      <trkpt lat="43.65093" lon="1.4019">
        <ele>128</ele>
        <time>2023-05-31T06:06:20Z</time>
      </trkpt>
      <trkpt lat="43.65091" lon="1.40188">
        <ele>128</ele>
        <time>2023-05-31T06:06:21Z</time>
      </trkpt>
      <trkpt lat="43.65089" lon="1.40185">
        <ele>128</ele>
        <time>2023-05-31T06:06:22Z</time>
      </trkpt>
      <trkpt lat="43.65085" lon="1.40181">
        <ele>128</ele>
        <time>2023-05-31T06:06:23Z</time>
      </trkpt>
      <trkpt lat="43.65083" lon="1.4018">
        <ele>128</ele>
        <time>2023-05-31T06:06:24Z</time>
      </trkpt>
      <trkpt lat="43.6508" lon="1.40179">
        <ele>128</ele>
        <time>2023-05-31T06:06:25Z</time>
      </trkpt>
      <trkpt lat="43.65078" lon="1.40177">
        <ele>128</ele>
        <time>2023-05-31T06:06:26Z</time>
      </trkpt>
      <trkpt lat="43.65076" lon="1.40175">
        <ele>128</ele>
        <time>2023-05-31T06:06:27Z</time>
      </trkpt>
      <trkpt lat="43.65076" lon="1.40175">
        <ele>128</ele>
        <time>2023-05-31T06:06:28Z</time>
      </trkpt>
      <trkpt lat="43.65072" lon="1.4017">
        <ele>128</ele>
        <time>2023-05-31T06:06:29Z</time>
      </trkpt>
      <trkpt lat="43.65072" lon="1.4017">
        <ele>128</ele>
        <time>2023-05-31T06:06:30Z</time>
      </trkpt>
      <trkpt lat="43.6507" lon="1.40168">
        <ele>128</ele>
        <time>2023-05-31T06:06:31Z</time>
      </trkpt>
      <trkpt lat="43.65065" lon="1.40165">
        <ele>128</ele>
        <time>2023-05-31T06:06:32Z</time>
      </trkpt>
      <trkpt lat="43.65065" lon="1.40165">
        <ele>128</ele>
        <time>2023-05-31T06:06:33Z</time>
      </trkpt>
      <trkpt lat="43.65059" lon="1.40159">
        <ele>128</ele>
        <time>2023-05-31T06:06:34Z</time>
      </trkpt>
      <trkpt lat="43.65058" lon="1.40158">
        <ele>128</ele>
        <time>2023-05-31T06:06:35Z</time>
      </trkpt>
      <trkpt lat="43.65056" lon="1.40155">
        <ele>128</ele>
        <time>2023-05-31T06:06:36Z</time>
      </trkpt>
      <trkpt lat="43.65054" lon="1.40153">
        <ele>128</ele>
        <time>2023-05-31T06:06:37Z</time>
      </trkpt>
      <trkpt lat="43.65051" lon="1.40152">
        <ele>127</ele>
        <time>2023-05-31T06:06:38Z</time>
      </trkpt>
      <trkpt lat="43.65051" lon="1.40152">
        <ele>127</ele>
        <time>2023-05-31T06:06:39Z</time>
      </trkpt>
      <trkpt lat="43.65048" lon="1.40151">
        <ele>127</ele>
        <time>2023-05-31T06:06:40Z</time>
      </trkpt>
      <trkpt lat="43.65045" lon="1.4015">
        <ele>127</ele>
        <time>2023-05-31T06:06:41Z</time>
      </trkpt>
      <trkpt lat="43.6504" lon="1.40147">
        <ele>127</ele>
        <time>2023-05-31T06:06:42Z</time>
      </trkpt>
      <trkpt lat="43.65037" lon="1.40145">
        <ele>127</ele>
        <time>2023-05-31T06:06:43Z</time>
      </trkpt>
      <trkpt lat="43.65035" lon="1.40143">
        <ele>127</ele>
        <time>2023-05-31T06:06:44Z</time>
      </trkpt>
      <trkpt lat="43.65035" lon="1.40143">
        <ele>127</ele>
        <time>2023-05-31T06:06:45Z</time>
      </trkpt>
      <trkpt lat="43.65033" lon="1.4014">
        <ele>127</ele>
        <time>2023-05-31T06:06:46Z</time>
      </trkpt>
      <trkpt lat="43.6503" lon="1.40134">
        <ele>127</ele>
        <time>2023-05-31T06:06:47Z</time>
      </trkpt>
      <trkpt lat="43.6503" lon="1.40134">
        <ele>127</ele>
        <time>2023-05-31T06:06:48Z</time>
      </trkpt>
      <trkpt lat="43.65027" lon="1.40128">
        <ele>127</ele>
        <time>2023-05-31T06:06:49Z</time>
      </trkpt>
      <trkpt lat="43.65027" lon="1.40128">
        <ele>126</ele>
        <time>2023-05-31T06:06:50Z</time>
      </trkpt>
      <trkpt lat="43.65024" lon="1.40123">
        <ele>127</ele>
        <time>2023-05-31T06:06:51Z</time>
      </trkpt>
      <trkpt lat="43.65022" lon="1.4012">
        <ele>127</ele>
        <time>2023-05-31T06:06:52Z</time>
      </trkpt>
      <trkpt lat="43.6502" lon="1.40116">
        <ele>127</ele>
        <time>2023-05-31T06:06:53Z</time>
      </trkpt>
      <trkpt lat="43.65019" lon="1.40113">
        <ele>127</ele>
        <time>2023-05-31T06:06:54Z</time>
      </trkpt>
      <trkpt lat="43.65019" lon="1.40113">
        <ele>127</ele>
        <time>2023-05-31T06:06:55Z</time>
      </trkpt>
      <trkpt lat="43.65014" lon="1.40107">
        <ele>127</ele>
        <time>2023-05-31T06:06:56Z</time>
      </trkpt>
      <trkpt lat="43.65013" lon="1.40106">
        <ele>127</ele>
        <time>2023-05-31T06:06:57Z</time>
      </trkpt>
      <trkpt lat="43.65011" lon="1.40103">
        <ele>127</ele>
        <time>2023-05-31T06:06:58Z</time>
      </trkpt>
      <trkpt lat="43.65009" lon="1.40101">
        <ele>127</ele>
        <time>2023-05-31T06:06:59Z</time>
      </trkpt>
      <trkpt lat="43.65009" lon="1.40101">
        <ele>128</ele>
        <time>2023-05-31T06:07:00Z</time>
      </trkpt>
      <trkpt lat="43.65004" lon="1.40097">
        <ele>128</ele>
        <time>2023-05-31T06:07:01Z</time>
      </trkpt>
      <trkpt lat="43.65003" lon="1.40096">
        <ele>128</ele>
        <time>2023-05-31T06:07:02Z</time>
      </trkpt>
      <trkpt lat="43.65001" lon="1.40095">
        <ele>129</ele>
        <time>2023-05-31T06:07:03Z</time>
      </trkpt>
      <trkpt lat="43.64998" lon="1.40093">
        <ele>129</ele>
        <time>2023-05-31T06:07:04Z</time>
      </trkpt>
      <trkpt lat="43.64998" lon="1.40093">
        <ele>129</ele>
        <time>2023-05-31T06:07:05Z</time>
      </trkpt>
      <trkpt lat="43.64992" lon="1.40089">
        <ele>129</ele>
        <time>2023-05-31T06:07:06Z</time>
      </trkpt>
      <trkpt lat="43.64991" lon="1.40088">
        <ele>129</ele>
        <time>2023-05-31T06:07:07Z</time>
      </trkpt>
      <trkpt lat="43.64989" lon="1.40086">
        <ele>129</ele>
        <time>2023-05-31T06:07:08Z</time>
      </trkpt>
      <trkpt lat="43.64987" lon="1.40084">
        <ele>128</ele>
        <time>2023-05-31T06:07:09Z</time>
      </trkpt>
      <trkpt lat="43.64984" lon="1.40082">
        <ele>127</ele>
        <time>2023-05-31T06:07:10Z</time>
      </trkpt>
      <trkpt lat="43.64982" lon="1.40079">
        <ele>127</ele>
        <time>2023-05-31T06:07:11Z</time>
      </trkpt>
      <trkpt lat="43.6498" lon="1.40077">
        <ele>127</ele>
        <time>2023-05-31T06:07:12Z</time>
      </trkpt>
      <trkpt lat="43.64977" lon="1.40076">
        <ele>127</ele>
        <time>2023-05-31T06:07:13Z</time>
      </trkpt>
      <trkpt lat="43.64974" lon="1.40075">
        <ele>127</ele>
        <time>2023-05-31T06:07:14Z</time>
      </trkpt>
      <trkpt lat="43.6497" lon="1.40073">
        <ele>127</ele>
        <time>2023-05-31T06:07:15Z</time>
      </trkpt>
      <trkpt lat="43.6497" lon="1.40073">
        <ele>127</ele>
        <time>2023-05-31T06:07:16Z</time>
      </trkpt>
      <trkpt lat="43.64963" lon="1.40071">
        <ele>127</ele>
        <time>2023-05-31T06:07:17Z</time>
      </trkpt>
      <trkpt lat="43.64963" lon="1.40071">
        <ele>126</ele>
        <time>2023-05-31T06:07:18Z</time>
      </trkpt>
      <trkpt lat="43.64958" lon="1.40069">
        <ele>125</ele>
        <time>2023-05-31T06:07:19Z</time>
      </trkpt>
      <trkpt lat="43.64958" lon="1.40069">
        <ele>125</ele>
        <time>2023-05-31T06:07:20Z</time>
      </trkpt>
      <trkpt lat="43.64951" lon="1.40065">
        <ele>125</ele>
        <time>2023-05-31T06:07:21Z</time>
      </trkpt>
      <trkpt lat="43.6495" lon="1.40064">
        <ele>125</ele>
        <time>2023-05-31T06:07:22Z</time>
      </trkpt>
      <trkpt lat="43.64948" lon="1.40062">
        <ele>125</ele>
        <time>2023-05-31T06:07:23Z</time>
      </trkpt>
      <trkpt lat="43.64946" lon="1.40061">
        <ele>125</ele>
        <time>2023-05-31T06:07:24Z</time>
      </trkpt>
      <trkpt lat="43.64946" lon="1.40061">
        <ele>125</ele>
        <time>2023-05-31T06:07:25Z</time>
      </trkpt>
      <trkpt lat="43.64941" lon="1.40057">
        <ele>125</ele>
        <time>2023-05-31T06:07:26Z</time>
      </trkpt>
      <trkpt lat="43.64938" lon="1.40055">
        <ele>125</ele>
        <time>2023-05-31T06:07:27Z</time>
      </trkpt>
      <trkpt lat="43.64936" lon="1.40055">
        <ele>125</ele>
        <time>2023-05-31T06:07:28Z</time>
      </trkpt>
      <trkpt lat="43.64934" lon="1.40054">
        <ele>125</ele>
        <time>2023-05-31T06:07:29Z</time>
      </trkpt>
      <trkpt lat="43.64934" lon="1.40054">
        <ele>125</ele>
        <time>2023-05-31T06:07:30Z</time>
      </trkpt>
      <trkpt lat="43.64928" lon="1.4005">
        <ele>125</ele>
        <time>2023-05-31T06:07:31Z</time>
      </trkpt>
      <trkpt lat="43.64926" lon="1.40049">
        <ele>125</ele>
        <time>2023-05-31T06:07:32Z</time>
      </trkpt>
      <trkpt lat="43.64926" lon="1.40049">
        <ele>125</ele>
        <time>2023-05-31T06:07:33Z</time>
      </trkpt>
      <trkpt lat="43.64922" lon="1.40045">
        <ele>125</ele>
        <time>2023-05-31T06:07:34Z</time>
      </trkpt>
      <trkpt lat="43.64922" lon="1.40045">
        <ele>125</ele>
        <time>2023-05-31T06:07:35Z</time>
      </trkpt>
      <trkpt lat="43.64917" lon="1.4004">
        <ele>125</ele>
        <time>2023-05-31T06:07:36Z</time>
      </trkpt>
      <trkpt lat="43.64917" lon="1.4004">
        <ele>125</ele>
        <time>2023-05-31T06:07:37Z</time>
      </trkpt>
      <trkpt lat="43.64913" lon="1.40036">
        <ele>125</ele>
        <time>2023-05-31T06:07:38Z</time>
      </trkpt>
      <trkpt lat="43.64913" lon="1.40036">
        <ele>125</ele>
        <time>2023-05-31T06:07:39Z</time>
      </trkpt>
      <trkpt lat="43.64909" lon="1.40032">
        <ele>125</ele>
        <time>2023-05-31T06:07:40Z</time>
      </trkpt>
      <trkpt lat="43.64907" lon="1.4003">
        <ele>125</ele>
        <time>2023-05-31T06:07:41Z</time>
      </trkpt>
      <trkpt lat="43.64907" lon="1.4003">
        <ele>126</ele>
        <time>2023-05-31T06:07:42Z</time>
      </trkpt>
      <trkpt lat="43.64903" lon="1.40025">
        <ele>126</ele>
        <time>2023-05-31T06:07:43Z</time>
      </trkpt>
      <trkpt lat="43.64903" lon="1.40025">
        <ele>126</ele>
        <time>2023-05-31T06:07:44Z</time>
      </trkpt>
      <trkpt lat="43.64898" lon="1.4002">
        <ele>126</ele>
        <time>2023-05-31T06:07:45Z</time>
      </trkpt>
      <trkpt lat="43.64897" lon="1.40019">
        <ele>126</ele>
        <time>2023-05-31T06:07:46Z</time>
      </trkpt>
      <trkpt lat="43.64895" lon="1.40017">
        <ele>126</ele>
        <time>2023-05-31T06:07:47Z</time>
      </trkpt>
      <trkpt lat="43.64895" lon="1.40017">
        <ele>126</ele>
        <time>2023-05-31T06:07:48Z</time>
      </trkpt>
      <trkpt lat="43.64893" lon="1.40016">
        <ele>126</ele>
        <time>2023-05-31T06:07:49Z</time>
      </trkpt>
      <trkpt lat="43.64891" lon="1.40014">
        <ele>126</ele>
        <time>2023-05-31T06:07:50Z</time>
      </trkpt>
      <trkpt lat="43.64889" lon="1.40012">
        <ele>126</ele>
        <time>2023-05-31T06:07:51Z</time>
      </trkpt>
      <trkpt lat="43.64887" lon="1.40011">
        <ele>126</ele>
        <time>2023-05-31T06:07:52Z</time>
      </trkpt>
      <trkpt lat="43.64885" lon="1.40009">
        <ele>126</ele>
        <time>2023-05-31T06:07:53Z</time>
      </trkpt>
      <trkpt lat="43.64882" lon="1.40007">
        <ele>126</ele>
        <time>2023-05-31T06:07:54Z</time>
      </trkpt>
      <trkpt lat="43.64879" lon="1.40006">
        <ele>126</ele>
        <time>2023-05-31T06:07:55Z</time>
      </trkpt>
      <trkpt lat="43.64873" lon="1.40004">
        <ele>126</ele>
        <time>2023-05-31T06:07:56Z</time>
      </trkpt>
      <trkpt lat="43.6487" lon="1.40004">
        <ele>126</ele>
        <time>2023-05-31T06:07:57Z</time>
      </trkpt>
      <trkpt lat="43.64867" lon="1.40003">
        <ele>126</ele>
        <time>2023-05-31T06:07:58Z</time>
      </trkpt>
      <trkpt lat="43.64867" lon="1.40003">
        <ele>126</ele>
        <time>2023-05-31T06:07:59Z</time>
      </trkpt>
      <trkpt lat="43.64861" lon="1.4">
        <ele>126</ele>
        <time>2023-05-31T06:08:00Z</time>
      </trkpt>
      <trkpt lat="43.64859" lon="1.39999">
        <ele>127</ele>
        <time>2023-05-31T06:08:01Z</time>
      </trkpt>
      <trkpt lat="43.64856" lon="1.39998">
        <ele>127</ele>
        <time>2023-05-31T06:08:02Z</time>
      </trkpt>
      <trkpt lat="43.64856" lon="1.39998">
        <ele>127</ele>
        <time>2023-05-31T06:08:03Z</time>
      </trkpt>
      <trkpt lat="43.6485" lon="1.39997">
        <ele>127</ele>
        <time>2023-05-31T06:08:04Z</time>
      </trkpt>
      <trkpt lat="43.6485" lon="1.39997">
        <ele>127</ele>
        <time>2023-05-31T06:08:05Z</time>
      </trkpt>
      <trkpt lat="43.64845" lon="1.39995">
        <ele>127</ele>
        <time>2023-05-31T06:08:06Z</time>
      </trkpt>
      <trkpt lat="43.64845" lon="1.39995">
        <ele>127</ele>
        <time>2023-05-31T06:08:07Z</time>
      </trkpt>
      <trkpt lat="43.64839" lon="1.39992">
        <ele>127</ele>
        <time>2023-05-31T06:08:08Z</time>
      </trkpt>
      <trkpt lat="43.64838" lon="1.39992">
        <ele>127</ele>
        <time>2023-05-31T06:08:09Z</time>
      </trkpt>
      <trkpt lat="43.64836" lon="1.3999">
        <ele>128</ele>
        <time>2023-05-31T06:08:10Z</time>
      </trkpt>
      <trkpt lat="43.64836" lon="1.3999">
        <ele>128</ele>
        <time>2023-05-31T06:08:11Z</time>
      </trkpt>
      <trkpt lat="43.64833" lon="1.39989">
        <ele>128</ele>
        <time>2023-05-31T06:08:12Z</time>
      </trkpt>
      <trkpt lat="43.64831" lon="1.39986">
        <ele>128</ele>
        <time>2023-05-31T06:08:13Z</time>
      </trkpt>
      <trkpt lat="43.64826" lon="1.39983">
        <ele>127</ele>
        <time>2023-05-31T06:08:14Z</time>
      </trkpt>
      <trkpt lat="43.64824" lon="1.39981">
        <ele>127</ele>
        <time>2023-05-31T06:08:15Z</time>
      </trkpt>
      <trkpt lat="43.64822" lon="1.39979">
        <ele>127</ele>
        <time>2023-05-31T06:08:16Z</time>
      </trkpt>
      <trkpt lat="43.64822" lon="1.39979">
        <ele>127</ele>
        <time>2023-05-31T06:08:17Z</time>
      </trkpt>
      <trkpt lat="43.64819" lon="1.39977">
        <ele>127</ele>
        <time>2023-05-31T06:08:18Z</time>
      </trkpt>
      <trkpt lat="43.64819" lon="1.39977">
        <ele>128</ele>
        <time>2023-05-31T06:08:19Z</time>
      </trkpt>
      <trkpt lat="43.64817" lon="1.39975">
        <ele>128</ele>
        <time>2023-05-31T06:08:20Z</time>
      </trkpt>
      <trkpt lat="43.64813" lon="1.39973">
        <ele>128</ele>
        <time>2023-05-31T06:08:21Z</time>
      </trkpt>
      <trkpt lat="43.64813" lon="1.39973">
        <ele>128</ele>
        <time>2023-05-31T06:08:22Z</time>
      </trkpt>
      <trkpt lat="43.6481" lon="1.3997">
        <ele>128</ele>
        <time>2023-05-31T06:08:23Z</time>
      </trkpt>
      <trkpt lat="43.6481" lon="1.3997">
        <ele>128</ele>
        <time>2023-05-31T06:08:24Z</time>
      </trkpt>
      <trkpt lat="43.64804" lon="1.39967">
        <ele>128</ele>
        <time>2023-05-31T06:08:25Z</time>
      </trkpt>
      <trkpt lat="43.64804" lon="1.39967">
        <ele>128</ele>
        <time>2023-05-31T06:08:26Z</time>
      </trkpt>
      <trkpt lat="43.64797" lon="1.39964">
        <ele>128</ele>
        <time>2023-05-31T06:08:27Z</time>
      </trkpt>
      <trkpt lat="43.64795" lon="1.39964">
        <ele>128</ele>
        <time>2023-05-31T06:08:28Z</time>
      </trkpt>
      <trkpt lat="43.64792" lon="1.39963">
        <ele>128</ele>
        <time>2023-05-31T06:08:29Z</time>
      </trkpt>
      <trkpt lat="43.64792" lon="1.39963">
        <ele>128</ele>
        <time>2023-05-31T06:08:30Z</time>
      </trkpt>
      <trkpt lat="43.6479" lon="1.39962">
        <ele>128</ele>
        <time>2023-05-31T06:08:31Z</time>
      </trkpt>
      <trkpt lat="43.64787" lon="1.39962">
        <ele>128</ele>
        <time>2023-05-31T06:08:32Z</time>
      </trkpt>
      <trkpt lat="43.6478" lon="1.39961">
        <ele>128</ele>
        <time>2023-05-31T06:08:33Z</time>
      </trkpt>
      <trkpt lat="43.64778" lon="1.39961">
        <ele>128</ele>
        <time>2023-05-31T06:08:34Z</time>
      </trkpt>
      <trkpt lat="43.64775" lon="1.39961">
        <ele>128</ele>
        <time>2023-05-31T06:08:35Z</time>
      </trkpt>
      <trkpt lat="43.64772" lon="1.39959">
        <ele>128</ele>
        <time>2023-05-31T06:08:36Z</time>
      </trkpt>
      <trkpt lat="43.64772" lon="1.39959">
        <ele>128</ele>
        <time>2023-05-31T06:08:37Z</time>
      </trkpt>
      <trkpt lat="43.64765" lon="1.39958">
        <ele>128</ele>
        <time>2023-05-31T06:08:38Z</time>
      </trkpt>
      <trkpt lat="43.64765" lon="1.39958">
        <ele>128</ele>
        <time>2023-05-31T06:08:39Z</time>
      </trkpt>
      <trkpt lat="43.64759" lon="1.39956">
        <ele>128</ele>
        <time>2023-05-31T06:08:40Z</time>
      </trkpt>
      <trkpt lat="43.64759" lon="1.39956">
        <ele>128</ele>
        <time>2023-05-31T06:08:41Z</time>
      </trkpt>
      <trkpt lat="43.64756" lon="1.39956">
        <ele>128</ele>
        <time>2023-05-31T06:08:42Z</time>
      </trkpt>
      <trkpt lat="43.64753" lon="1.39955">
        <ele>128</ele>
        <time>2023-05-31T06:08:43Z</time>
      </trkpt>
      <trkpt lat="43.64747" lon="1.39955">
        <ele>128</ele>
        <time>2023-05-31T06:08:44Z</time>
      </trkpt>
      <trkpt lat="43.64744" lon="1.39953">
        <ele>128</ele>
        <time>2023-05-31T06:08:45Z</time>
      </trkpt>
      <trkpt lat="43.64742" lon="1.39952">
        <ele>128</ele>
        <time>2023-05-31T06:08:46Z</time>
      </trkpt>
      <trkpt lat="43.64742" lon="1.39952">
        <ele>128</ele>
        <time>2023-05-31T06:08:47Z</time>
      </trkpt>
      <trkpt lat="43.64739" lon="1.39951">
        <ele>128</ele>
        <time>2023-05-31T06:08:48Z</time>
      </trkpt>
      <trkpt lat="43.64736" lon="1.39951">
        <ele>128</ele>
        <time>2023-05-31T06:08:49Z</time>
      </trkpt>
      <trkpt lat="43.64732" lon="1.39951">
        <ele>128</ele>
        <time>2023-05-31T06:08:50Z</time>
      </trkpt>
      <trkpt lat="43.64729" lon="1.3995">
        <ele>128</ele>
        <time>2023-05-31T06:08:51Z</time>
      </trkpt>
      <trkpt lat="43.64726" lon="1.3995">
        <ele>128</ele>
        <time>2023-05-31T06:08:52Z</time>
      </trkpt>
      <trkpt lat="43.64723" lon="1.3995">
        <ele>128</ele>
        <time>2023-05-31T06:08:53Z</time>
      </trkpt>
      <trkpt lat="43.64723" lon="1.3995">
        <ele>128</ele>
        <time>2023-05-31T06:08:54Z</time>
      </trkpt>
      <trkpt lat="43.6472" lon="1.3995">
        <ele>128</ele>
        <time>2023-05-31T06:08:55Z</time>
      </trkpt>
      <trkpt lat="43.64717" lon="1.3995">
        <ele>128</ele>
        <time>2023-05-31T06:08:56Z</time>
      </trkpt>
      <trkpt lat="43.64714" lon="1.39949">
        <ele>128</ele>
        <time>2023-05-31T06:08:57Z</time>
      </trkpt>
      <trkpt lat="43.64709" lon="1.39948">
        <ele>129</ele>
        <time>2023-05-31T06:08:58Z</time>
      </trkpt>
      <trkpt lat="43.64706" lon="1.39947">
        <ele>129</ele>
        <time>2023-05-31T06:08:59Z</time>
      </trkpt>
      <trkpt lat="43.64706" lon="1.39947">
        <ele>129</ele>
        <time>2023-05-31T06:09:00Z</time>
      </trkpt>
      <trkpt lat="43.64701" lon="1.39947">
        <ele>129</ele>
        <time>2023-05-31T06:09:01Z</time>
      </trkpt>
      <trkpt lat="43.64699" lon="1.39947">
        <ele>129</ele>
        <time>2023-05-31T06:09:02Z</time>
      </trkpt>
      <trkpt lat="43.64699" lon="1.39947">
        <ele>129</ele>
        <time>2023-05-31T06:09:03Z</time>
      </trkpt>
      <trkpt lat="43.64699" lon="1.39947">
        <ele>129</ele>
        <time>2023-05-31T06:09:04Z</time>
      </trkpt>
      <trkpt lat="43.64696" lon="1.39944">
        <ele>129</ele>
        <time>2023-05-31T06:09:05Z</time>
      </trkpt>
      <trkpt lat="43.64696" lon="1.39944">
        <ele>129</ele>
        <time>2023-05-31T06:09:06Z</time>
      </trkpt>
      <trkpt lat="43.64693" lon="1.39942">
        <ele>129</ele>
        <time>2023-05-31T06:09:07Z</time>
      </trkpt>
      <trkpt lat="43.64693" lon="1.39942">
        <ele>130</ele>
        <time>2023-05-31T06:09:08Z</time>
      </trkpt>
      <trkpt lat="43.6469" lon="1.3994">
        <ele>131</ele>
        <time>2023-05-31T06:09:09Z</time>
      </trkpt>
      <trkpt lat="43.64687" lon="1.3994">
        <ele>131</ele>
        <time>2023-05-31T06:09:10Z</time>
      </trkpt>
      <trkpt lat="43.64685" lon="1.3994">
        <ele>131</ele>
        <time>2023-05-31T06:09:11Z</time>
      </trkpt>
      <trkpt lat="43.64683" lon="1.3994">
        <ele>131</ele>
        <time>2023-05-31T06:09:12Z</time>
      </trkpt>
      <trkpt lat="43.64683" lon="1.3994">
        <ele>132</ele>
        <time>2023-05-31T06:09:13Z</time>
      </trkpt>
      <trkpt lat="43.64676" lon="1.3994">
        <ele>132</ele>
        <time>2023-05-31T06:09:14Z</time>
      </trkpt>
      <trkpt lat="43.64674" lon="1.3994">
        <ele>131</ele>
        <time>2023-05-31T06:09:15Z</time>
      </trkpt>
      <trkpt lat="43.64672" lon="1.3994">
        <ele>131</ele>
        <time>2023-05-31T06:09:16Z</time>
      </trkpt>
      <trkpt lat="43.64669" lon="1.39939">
        <ele>131</ele>
        <time>2023-05-31T06:09:17Z</time>
      </trkpt>
      <trkpt lat="43.64667" lon="1.39939">
        <ele>132</ele>
        <time>2023-05-31T06:09:18Z</time>
      </trkpt>
      <trkpt lat="43.64665" lon="1.39938">
        <ele>132</ele>
        <time>2023-05-31T06:09:19Z</time>
      </trkpt>
      <trkpt lat="43.64665" lon="1.39938">
        <ele>132</ele>
        <time>2023-05-31T06:09:20Z</time>
      </trkpt>
      <trkpt lat="43.64663" lon="1.39937">
        <ele>131</ele>
        <time>2023-05-31T06:09:21Z</time>
      </trkpt>
      <trkpt lat="43.64661" lon="1.39936">
        <ele>132</ele>
        <time>2023-05-31T06:09:22Z</time>
      </trkpt>
      <trkpt lat="43.64656" lon="1.39935">
        <ele>132</ele>
        <time>2023-05-31T06:09:23Z</time>
      </trkpt>
      <trkpt lat="43.64654" lon="1.39935">
        <ele>132</ele>
        <time>2023-05-31T06:09:24Z</time>
      </trkpt>
      <trkpt lat="43.64652" lon="1.39934">
        <ele>132</ele>
        <time>2023-05-31T06:09:25Z</time>
      </trkpt>
      <trkpt lat="43.6465" lon="1.39934">
        <ele>132</ele>
        <time>2023-05-31T06:09:26Z</time>
      </trkpt>
      <trkpt lat="43.64648" lon="1.39933">
        <ele>132</ele>
        <time>2023-05-31T06:09:27Z</time>
      </trkpt>
      <trkpt lat="43.64646" lon="1.39933">
        <ele>132</ele>
        <time>2023-05-31T06:09:28Z</time>
      </trkpt>
      <trkpt lat="43.64646" lon="1.39933">
        <ele>132</ele>
        <time>2023-05-31T06:09:29Z</time>
      </trkpt>
      <trkpt lat="43.64644" lon="1.39932">
        <ele>132</ele>
        <time>2023-05-31T06:09:30Z</time>
      </trkpt>
      <trkpt lat="43.64638" lon="1.39932">
        <ele>131</ele>
        <time>2023-05-31T06:09:31Z</time>
      </trkpt>
      <trkpt lat="43.64638" lon="1.39932">
        <ele>131</ele>
        <time>2023-05-31T06:09:32Z</time>
      </trkpt>
      <trkpt lat="43.6463" lon="1.39934">
        <ele>131</ele>
        <time>2023-05-31T06:09:33Z</time>
      </trkpt>
      <trkpt lat="43.64628" lon="1.39934">
        <ele>131</ele>
        <time>2023-05-31T06:09:34Z</time>
      </trkpt>
      <trkpt lat="43.64626" lon="1.39934">
        <ele>131</ele>
        <time>2023-05-31T06:09:35Z</time>
      </trkpt>
      <trkpt lat="43.64623" lon="1.39935">
        <ele>131</ele>
        <time>2023-05-31T06:09:36Z</time>
      </trkpt>
      <trkpt lat="43.6462" lon="1.39936">
        <ele>131</ele>
        <time>2023-05-31T06:09:37Z</time>
      </trkpt>
      <trkpt lat="43.6462" lon="1.39936">
        <ele>131</ele>
        <time>2023-05-31T06:09:38Z</time>
      </trkpt>
      <trkpt lat="43.64614" lon="1.39939">
        <ele>131</ele>
        <time>2023-05-31T06:09:39Z</time>
      </trkpt>
      <trkpt lat="43.64612" lon="1.3994">
        <ele>131</ele>
        <time>2023-05-31T06:09:40Z</time>
      </trkpt>
      <trkpt lat="43.64612" lon="1.3994">
        <ele>131</ele>
        <time>2023-05-31T06:09:41Z</time>
      </trkpt>
      <trkpt lat="43.64609" lon="1.39943">
        <ele>131</ele>
        <time>2023-05-31T06:09:42Z</time>
      </trkpt>
      <trkpt lat="43.64606" lon="1.39945">
        <ele>131</ele>
        <time>2023-05-31T06:09:43Z</time>
      </trkpt>
      <trkpt lat="43.64603" lon="1.39947">
        <ele>131</ele>
        <time>2023-05-31T06:09:44Z</time>
      </trkpt>
      <trkpt lat="43.64603" lon="1.39947">
        <ele>131</ele>
        <time>2023-05-31T06:09:45Z</time>
      </trkpt>
      <trkpt lat="43.64597" lon="1.3995">
        <ele>131</ele>
        <time>2023-05-31T06:09:46Z</time>
      </trkpt>
      <trkpt lat="43.64596" lon="1.39951">
        <ele>131</ele>
        <time>2023-05-31T06:09:47Z</time>
      </trkpt>
      <trkpt lat="43.64595" lon="1.39952">
        <ele>131</ele>
        <time>2023-05-31T06:09:48Z</time>
      </trkpt>
      <trkpt lat="43.64595" lon="1.39952">
        <ele>131</ele>
        <time>2023-05-31T06:09:49Z</time>
      </trkpt>
      <trkpt lat="43.64591" lon="1.39955">
        <ele>131</ele>
        <time>2023-05-31T06:09:50Z</time>
      </trkpt>
      <trkpt lat="43.64588" lon="1.39956">
        <ele>131</ele>
        <time>2023-05-31T06:09:51Z</time>
      </trkpt>
      <trkpt lat="43.64586" lon="1.39958">
        <ele>131</ele>
        <time>2023-05-31T06:09:52Z</time>
      </trkpt>
      <trkpt lat="43.64584" lon="1.39959">
        <ele>131</ele>
        <time>2023-05-31T06:09:53Z</time>
      </trkpt>
      <trkpt lat="43.64584" lon="1.39959">
        <ele>131</ele>
        <time>2023-05-31T06:09:54Z</time>
      </trkpt>
      <trkpt lat="43.64581" lon="1.39959">
        <ele>131</ele>
        <time>2023-05-31T06:09:55Z</time>
      </trkpt>
      <trkpt lat="43.64575" lon="1.3996">
        <ele>131</ele>
        <time>2023-05-31T06:09:56Z</time>
      </trkpt>
      <trkpt lat="43.64575" lon="1.3996">
        <ele>131</ele>
        <time>2023-05-31T06:09:57Z</time>
      </trkpt>
      <trkpt lat="43.64568" lon="1.39961">
        <ele>131</ele>
        <time>2023-05-31T06:09:58Z</time>
      </trkpt>
      <trkpt lat="43.64567" lon="1.39961">
        <ele>131</ele>
        <time>2023-05-31T06:09:59Z</time>
      </trkpt>
      <trkpt lat="43.64563" lon="1.39962">
        <ele>131</ele>
        <time>2023-05-31T06:10:00Z</time>
      </trkpt>
      <trkpt lat="43.64559" lon="1.39962">
        <ele>131</ele>
        <time>2023-05-31T06:10:01Z</time>
      </trkpt>
      <trkpt lat="43.64559" lon="1.39962">
        <ele>131</ele>
        <time>2023-05-31T06:10:02Z</time>
      </trkpt>
      <trkpt lat="43.64555" lon="1.39962">
        <ele>131</ele>
        <time>2023-05-31T06:10:03Z</time>
      </trkpt>
      <trkpt lat="43.64549" lon="1.39961">
        <ele>132</ele>
        <time>2023-05-31T06:10:04Z</time>
      </trkpt>
      <trkpt lat="43.64549" lon="1.39961">
        <ele>132</ele>
        <time>2023-05-31T06:10:05Z</time>
      </trkpt>
      <trkpt lat="43.64546" lon="1.3996">
        <ele>131</ele>
        <time>2023-05-31T06:10:06Z</time>
      </trkpt>
      <trkpt lat="43.64542" lon="1.3996">
        <ele>131</ele>
        <time>2023-05-31T06:10:07Z</time>
      </trkpt>
      <trkpt lat="43.64539" lon="1.39959">
        <ele>131</ele>
        <time>2023-05-31T06:10:08Z</time>
      </trkpt>
      <trkpt lat="43.64532" lon="1.3996">
        <ele>132</ele>
        <time>2023-05-31T06:10:09Z</time>
      </trkpt>
      <trkpt lat="43.64532" lon="1.3996">
        <ele>132</ele>
        <time>2023-05-31T06:10:10Z</time>
      </trkpt>
      <trkpt lat="43.64524" lon="1.3996">
        <ele>132</ele>
        <time>2023-05-31T06:10:11Z</time>
      </trkpt>
      <trkpt lat="43.64522" lon="1.3996">
        <ele>132</ele>
        <time>2023-05-31T06:10:12Z</time>
      </trkpt>
      <trkpt lat="43.6452" lon="1.3996">
        <ele>131</ele>
        <time>2023-05-31T06:10:13Z</time>
      </trkpt>
      <trkpt lat="43.64517" lon="1.39959">
        <ele>131</ele>
        <time>2023-05-31T06:10:14Z</time>
      </trkpt>
      <trkpt lat="43.64514" lon="1.39958">
        <ele>132</ele>
        <time>2023-05-31T06:10:15Z</time>
      </trkpt>
      <trkpt lat="43.64514" lon="1.39958">
        <ele>132</ele>
        <time>2023-05-31T06:10:16Z</time>
      </trkpt>
      <trkpt lat="43.6451" lon="1.39952">
        <ele>132</ele>
        <time>2023-05-31T06:10:17Z</time>
      </trkpt>
      <trkpt lat="43.6451" lon="1.39952">
        <ele>132</ele>
        <time>2023-05-31T06:10:18Z</time>
      </trkpt>
      <trkpt lat="43.6451" lon="1.39943">
        <ele>132</ele>
        <time>2023-05-31T06:10:19Z</time>
      </trkpt>
      <trkpt lat="43.6451" lon="1.39941">
        <ele>132</ele>
        <time>2023-05-31T06:10:20Z</time>
      </trkpt>
      <trkpt lat="43.6451" lon="1.39941">
        <ele>132</ele>
        <time>2023-05-31T06:10:21Z</time>
      </trkpt>
      <trkpt lat="43.64507" lon="1.39931">
        <ele>132</ele>
        <time>2023-05-31T06:10:22Z</time>
      </trkpt>
      <trkpt lat="43.64506" lon="1.39929">
        <ele>132</ele>
        <time>2023-05-31T06:10:23Z</time>
      </trkpt>
      <trkpt lat="43.64506" lon="1.39929">
        <ele>133</ele>
        <time>2023-05-31T06:10:24Z</time>
      </trkpt>
      <trkpt lat="43.64501" lon="1.39923">
        <ele>133</ele>
        <time>2023-05-31T06:10:25Z</time>
      </trkpt>
      <trkpt lat="43.64501" lon="1.39923">
        <ele>133</ele>
        <time>2023-05-31T06:10:26Z</time>
      </trkpt>
      <trkpt lat="43.64498" lon="1.39916">
        <ele>133</ele>
        <time>2023-05-31T06:10:27Z</time>
      </trkpt>
      <trkpt lat="43.64498" lon="1.39916">
        <ele>133</ele>
        <time>2023-05-31T06:10:28Z</time>
      </trkpt>
      <trkpt lat="43.64497" lon="1.39912">
        <ele>132</ele>
        <time>2023-05-31T06:10:29Z</time>
      </trkpt>
      <trkpt lat="43.64497" lon="1.39907">
        <ele>132</ele>
        <time>2023-05-31T06:10:30Z</time>
      </trkpt>
      <trkpt lat="43.64497" lon="1.39903">
        <ele>132</ele>
        <time>2023-05-31T06:10:31Z</time>
      </trkpt>
      <trkpt lat="43.64497" lon="1.39895">
        <ele>132</ele>
        <time>2023-05-31T06:10:32Z</time>
      </trkpt>
      <trkpt lat="43.64497" lon="1.39892">
        <ele>132</ele>
        <time>2023-05-31T06:10:33Z</time>
      </trkpt>
      <trkpt lat="43.64496" lon="1.39888">
        <ele>132</ele>
        <time>2023-05-31T06:10:34Z</time>
      </trkpt>
      <trkpt lat="43.64496" lon="1.39884">
        <ele>132</ele>
        <time>2023-05-31T06:10:35Z</time>
      </trkpt>
      <trkpt lat="43.64496" lon="1.39884">
        <ele>132</ele>
        <time>2023-05-31T06:10:36Z</time>
      </trkpt>
      <trkpt lat="43.64496" lon="1.39881">
        <ele>132</ele>
        <time>2023-05-31T06:10:37Z</time>
      </trkpt>
      <trkpt lat="43.64496" lon="1.39877">
        <ele>132</ele>
        <time>2023-05-31T06:10:38Z</time>
      </trkpt>
      <trkpt lat="43.64496" lon="1.39869">
        <ele>132</ele>
        <time>2023-05-31T06:10:39Z</time>
      </trkpt>
      <trkpt lat="43.64496" lon="1.39865">
        <ele>132</ele>
        <time>2023-05-31T06:10:40Z</time>
      </trkpt>
      <trkpt lat="43.64496" lon="1.39862">
        <ele>132</ele>
        <time>2023-05-31T06:10:41Z</time>
      </trkpt>
      <trkpt lat="43.64496" lon="1.39858">
        <ele>132</ele>
        <time>2023-05-31T06:10:42Z</time>
      </trkpt>
      <trkpt lat="43.64496" lon="1.39858">
        <ele>132</ele>
        <time>2023-05-31T06:10:43Z</time>
      </trkpt>
      <trkpt lat="43.64496" lon="1.39855">
        <ele>132</ele>
        <time>2023-05-31T06:10:44Z</time>
      </trkpt>
      <trkpt lat="43.64495" lon="1.39851">
        <ele>132</ele>
        <time>2023-05-31T06:10:45Z</time>
      </trkpt>
      <trkpt lat="43.64495" lon="1.39843">
        <ele>132</ele>
        <time>2023-05-31T06:10:46Z</time>
      </trkpt>
      <trkpt lat="43.64495" lon="1.3984">
        <ele>132</ele>
        <time>2023-05-31T06:10:47Z</time>
      </trkpt>
      <trkpt lat="43.64495" lon="1.39836">
        <ele>132</ele>
        <time>2023-05-31T06:10:48Z</time>
      </trkpt>
      <trkpt lat="43.64495" lon="1.39832">
        <ele>133</ele>
        <time>2023-05-31T06:10:49Z</time>
      </trkpt>
      <trkpt lat="43.64495" lon="1.39832">
        <ele>133</ele>
        <time>2023-05-31T06:10:50Z</time>
      </trkpt>
      <trkpt lat="43.64495" lon="1.39825">
        <ele>132</ele>
        <time>2023-05-31T06:10:51Z</time>
      </trkpt>
      <trkpt lat="43.64495" lon="1.39825">
        <ele>132</ele>
        <time>2023-05-31T06:10:52Z</time>
      </trkpt>
      <trkpt lat="43.64496" lon="1.39818">
        <ele>132</ele>
        <time>2023-05-31T06:10:53Z</time>
      </trkpt>
      <trkpt lat="43.64496" lon="1.39818">
        <ele>132</ele>
        <time>2023-05-31T06:10:54Z</time>
      </trkpt>
      <trkpt lat="43.64496" lon="1.39809">
        <ele>132</ele>
        <time>2023-05-31T06:10:55Z</time>
      </trkpt>
      <trkpt lat="43.64496" lon="1.39807">
        <ele>132</ele>
        <time>2023-05-31T06:10:56Z</time>
      </trkpt>
      <trkpt lat="43.64496" lon="1.39807">
        <ele>132</ele>
        <time>2023-05-31T06:10:57Z</time>
      </trkpt>
      <trkpt lat="43.64496" lon="1.39798">
        <ele>132</ele>
        <time>2023-05-31T06:10:58Z</time>
      </trkpt>
      <trkpt lat="43.64496" lon="1.39796">
        <ele>132</ele>
        <time>2023-05-31T06:10:59Z</time>
      </trkpt>
      <trkpt lat="43.64496" lon="1.39796">
        <ele>132</ele>
        <time>2023-05-31T06:11:00Z</time>
      </trkpt>
      <trkpt lat="43.64496" lon="1.39792">
        <ele>132</ele>
        <time>2023-05-31T06:11:01Z</time>
      </trkpt>
      <trkpt lat="43.64496" lon="1.39788">
        <ele>132</ele>
        <time>2023-05-31T06:11:02Z</time>
      </trkpt>
      <trkpt lat="43.64496" lon="1.3978">
        <ele>132</ele>
        <time>2023-05-31T06:11:03Z</time>
      </trkpt>
      <trkpt lat="43.64496" lon="1.3978">
        <ele>132</ele>
        <time>2023-05-31T06:11:04Z</time>
      </trkpt>
      <trkpt lat="43.64497" lon="1.39773">
        <ele>133</ele>
        <time>2023-05-31T06:11:05Z</time>
      </trkpt>
      <trkpt lat="43.64497" lon="1.39773">
        <ele>133</ele>
        <time>2023-05-31T06:11:06Z</time>
      </trkpt>
      <trkpt lat="43.64496" lon="1.3977">
        <ele>133</ele>
        <time>2023-05-31T06:11:07Z</time>
      </trkpt>
      <trkpt lat="43.64497" lon="1.39762">
        <ele>132</ele>
        <time>2023-05-31T06:11:08Z</time>
      </trkpt>
      <trkpt lat="43.64497" lon="1.39759">
        <ele>132</ele>
        <time>2023-05-31T06:11:09Z</time>
      </trkpt>
      <trkpt lat="43.64497" lon="1.39755">
        <ele>132</ele>
        <time>2023-05-31T06:11:10Z</time>
      </trkpt>
      <trkpt lat="43.64497" lon="1.39752">
        <ele>132</ele>
        <time>2023-05-31T06:11:11Z</time>
      </trkpt>
      <trkpt lat="43.64497" lon="1.39748">
        <ele>133</ele>
        <time>2023-05-31T06:11:12Z</time>
      </trkpt>
      <trkpt lat="43.64497" lon="1.39745">
        <ele>133</ele>
        <time>2023-05-31T06:11:13Z</time>
      </trkpt>
      <trkpt lat="43.64497" lon="1.39745">
        <ele>133</ele>
        <time>2023-05-31T06:11:14Z</time>
      </trkpt>
      <trkpt lat="43.64497" lon="1.39737">
        <ele>132</ele>
        <time>2023-05-31T06:11:15Z</time>
      </trkpt>
      <trkpt lat="43.64497" lon="1.39733">
        <ele>132</ele>
        <time>2023-05-31T06:11:16Z</time>
      </trkpt>
      <trkpt lat="43.64497" lon="1.39733">
        <ele>132</ele>
        <time>2023-05-31T06:11:17Z</time>
      </trkpt>
      <trkpt lat="43.64497" lon="1.39726">
        <ele>132</ele>
        <time>2023-05-31T06:11:18Z</time>
      </trkpt>
      <trkpt lat="43.64497" lon="1.39726">
        <ele>132</ele>
        <time>2023-05-31T06:11:19Z</time>
      </trkpt>
      <trkpt lat="43.64498" lon="1.39719">
        <ele>132</ele>
        <time>2023-05-31T06:11:20Z</time>
      </trkpt>
      <trkpt lat="43.64498" lon="1.39719">
        <ele>132</ele>
        <time>2023-05-31T06:11:21Z</time>
      </trkpt>
      <trkpt lat="43.64498" lon="1.39715">
        <ele>132</ele>
        <time>2023-05-31T06:11:22Z</time>
      </trkpt>
      <trkpt lat="43.64498" lon="1.39711">
        <ele>132</ele>
        <time>2023-05-31T06:11:23Z</time>
      </trkpt>
      <trkpt lat="43.64498" lon="1.39708">
        <ele>132</ele>
        <time>2023-05-31T06:11:24Z</time>
      </trkpt>
      <trkpt lat="43.64497" lon="1.39701">
        <ele>132</ele>
        <time>2023-05-31T06:11:25Z</time>
      </trkpt>
      <trkpt lat="43.64497" lon="1.39697">
        <ele>132</ele>
        <time>2023-05-31T06:11:26Z</time>
      </trkpt>
      <trkpt lat="43.64497" lon="1.39693">
        <ele>132</ele>
        <time>2023-05-31T06:11:27Z</time>
      </trkpt>
      <trkpt lat="43.64497" lon="1.39693">
        <ele>132</ele>
        <time>2023-05-31T06:11:28Z</time>
      </trkpt>
      <trkpt lat="43.64497" lon="1.3969">
        <ele>132</ele>
        <time>2023-05-31T06:11:29Z</time>
      </trkpt>
      <trkpt lat="43.64497" lon="1.39686">
        <ele>132</ele>
        <time>2023-05-31T06:11:30Z</time>
      </trkpt>
      <trkpt lat="43.64497" lon="1.39679">
        <ele>132</ele>
        <time>2023-05-31T06:11:31Z</time>
      </trkpt>
      <trkpt lat="43.64497" lon="1.39676">
        <ele>132</ele>
        <time>2023-05-31T06:11:32Z</time>
      </trkpt>
      <trkpt lat="43.64497" lon="1.39676">
        <ele>132</ele>
        <time>2023-05-31T06:11:33Z</time>
      </trkpt>
      <trkpt lat="43.64497" lon="1.39672">
        <ele>132</ele>
        <time>2023-05-31T06:11:34Z</time>
      </trkpt>
      <trkpt lat="43.64497" lon="1.39669">
        <ele>132</ele>
        <time>2023-05-31T06:11:35Z</time>
      </trkpt>
      <trkpt lat="43.64497" lon="1.39665">
        <ele>132</ele>
        <time>2023-05-31T06:11:36Z</time>
      </trkpt>
      <trkpt lat="43.64497" lon="1.39658">
        <ele>132</ele>
        <time>2023-05-31T06:11:37Z</time>
      </trkpt>
      <trkpt lat="43.64497" lon="1.39655">
        <ele>132</ele>
        <time>2023-05-31T06:11:38Z</time>
      </trkpt>
      <trkpt lat="43.64497" lon="1.39651">
        <ele>132</ele>
        <time>2023-05-31T06:11:39Z</time>
      </trkpt>
      <trkpt lat="43.64497" lon="1.39647">
        <ele>132</ele>
        <time>2023-05-31T06:11:40Z</time>
      </trkpt>
      <trkpt lat="43.64497" lon="1.39647">
        <ele>132</ele>
        <time>2023-05-31T06:11:41Z</time>
      </trkpt>
      <trkpt lat="43.64497" lon="1.39644">
        <ele>132</ele>
        <time>2023-05-31T06:11:42Z</time>
      </trkpt>
      <trkpt lat="43.64498" lon="1.3964">
        <ele>132</ele>
        <time>2023-05-31T06:11:43Z</time>
      </trkpt>
      <trkpt lat="43.64497" lon="1.39633">
        <ele>132</ele>
        <time>2023-05-31T06:11:44Z</time>
      </trkpt>
      <trkpt lat="43.64497" lon="1.3963">
        <ele>132</ele>
        <time>2023-05-31T06:11:45Z</time>
      </trkpt>
      <trkpt lat="43.64497" lon="1.39626">
        <ele>132</ele>
        <time>2023-05-31T06:11:46Z</time>
      </trkpt>
      <trkpt lat="43.64497" lon="1.39622">
        <ele>132</ele>
        <time>2023-05-31T06:11:47Z</time>
      </trkpt>
      <trkpt lat="43.64497" lon="1.39622">
        <ele>132</ele>
        <time>2023-05-31T06:11:48Z</time>
      </trkpt>
      <trkpt lat="43.64497" lon="1.39613">
        <ele>132</ele>
        <time>2023-05-31T06:11:49Z</time>
      </trkpt>
      <trkpt lat="43.64497" lon="1.39611">
        <ele>133</ele>
        <time>2023-05-31T06:11:50Z</time>
      </trkpt>
      <trkpt lat="43.64497" lon="1.39611">
        <ele>133</ele>
        <time>2023-05-31T06:11:51Z</time>
      </trkpt>
      <trkpt lat="43.64497" lon="1.39604">
        <ele>133</ele>
        <time>2023-05-31T06:11:52Z</time>
      </trkpt>
      <trkpt lat="43.64497" lon="1.39604">
        <ele>133</ele>
        <time>2023-05-31T06:11:53Z</time>
      </trkpt>
      <trkpt lat="43.64497" lon="1.39601">
        <ele>132</ele>
        <time>2023-05-31T06:11:54Z</time>
      </trkpt>
      <trkpt lat="43.64497" lon="1.39598">
        <ele>133</ele>
        <time>2023-05-31T06:11:55Z</time>
      </trkpt>
      <trkpt lat="43.64497" lon="1.39594">
        <ele>133</ele>
        <time>2023-05-31T06:11:56Z</time>
      </trkpt>
      <trkpt lat="43.64496" lon="1.39587">
        <ele>133</ele>
        <time>2023-05-31T06:11:57Z</time>
      </trkpt>
      <trkpt lat="43.64496" lon="1.39587">
        <ele>133</ele>
        <time>2023-05-31T06:11:58Z</time>
      </trkpt>
      <trkpt lat="43.64496" lon="1.3958">
        <ele>133</ele>
        <time>2023-05-31T06:11:59Z</time>
      </trkpt>
      <trkpt lat="43.64496" lon="1.3958">
        <ele>133</ele>
        <time>2023-05-31T06:12:00Z</time>
      </trkpt>
      <trkpt lat="43.64495" lon="1.39571">
        <ele>133</ele>
        <time>2023-05-31T06:12:01Z</time>
      </trkpt>
      <trkpt lat="43.64495" lon="1.39569">
        <ele>133</ele>
        <time>2023-05-31T06:12:02Z</time>
      </trkpt>
      <trkpt lat="43.64495" lon="1.39569">
        <ele>133</ele>
        <time>2023-05-31T06:12:03Z</time>
      </trkpt>
      <trkpt lat="43.64494" lon="1.39562">
        <ele>133</ele>
        <time>2023-05-31T06:12:04Z</time>
      </trkpt>
      <trkpt lat="43.64494" lon="1.39559">
        <ele>133</ele>
        <time>2023-05-31T06:12:05Z</time>
      </trkpt>
      <trkpt lat="43.64493" lon="1.39555">
        <ele>133</ele>
        <time>2023-05-31T06:12:06Z</time>
      </trkpt>
      <trkpt lat="43.64493" lon="1.39555">
        <ele>132</ele>
        <time>2023-05-31T06:12:07Z</time>
      </trkpt>
      <trkpt lat="43.64493" lon="1.39552">
        <ele>132</ele>
        <time>2023-05-31T06:12:08Z</time>
      </trkpt>
      <trkpt lat="43.64492" lon="1.39544">
        <ele>132</ele>
        <time>2023-05-31T06:12:09Z</time>
      </trkpt>
      <trkpt lat="43.64492" lon="1.39544">
        <ele>132</ele>
        <time>2023-05-31T06:12:10Z</time>
      </trkpt>
      <trkpt lat="43.64491" lon="1.39535">
        <ele>132</ele>
        <time>2023-05-31T06:12:11Z</time>
      </trkpt>
      <trkpt lat="43.64491" lon="1.39533">
        <ele>133</ele>
        <time>2023-05-31T06:12:12Z</time>
      </trkpt>
      <trkpt lat="43.64491" lon="1.3953">
        <ele>133</ele>
        <time>2023-05-31T06:12:13Z</time>
      </trkpt>
      <trkpt lat="43.6449" lon="1.39526">
        <ele>133</ele>
        <time>2023-05-31T06:12:14Z</time>
      </trkpt>
      <trkpt lat="43.64489" lon="1.39523">
        <ele>133</ele>
        <time>2023-05-31T06:12:15Z</time>
      </trkpt>
      <trkpt lat="43.64489" lon="1.39523">
        <ele>133</ele>
        <time>2023-05-31T06:12:16Z</time>
      </trkpt>
      <trkpt lat="43.64489" lon="1.39516">
        <ele>133</ele>
        <time>2023-05-31T06:12:17Z</time>
      </trkpt>
      <trkpt lat="43.64489" lon="1.39516">
        <ele>132</ele>
        <time>2023-05-31T06:12:18Z</time>
      </trkpt>
      <trkpt lat="43.64487" lon="1.39507">
        <ele>132</ele>
        <time>2023-05-31T06:12:19Z</time>
      </trkpt>
      <trkpt lat="43.64487" lon="1.39505">
        <ele>132</ele>
        <time>2023-05-31T06:12:20Z</time>
      </trkpt>
      <trkpt lat="43.64487" lon="1.39505">
        <ele>132</ele>
        <time>2023-05-31T06:12:21Z</time>
      </trkpt>
      <trkpt lat="43.64487" lon="1.39502">
        <ele>132</ele>
        <time>2023-05-31T06:12:22Z</time>
      </trkpt>
      <trkpt lat="43.64486" lon="1.39498">
        <ele>132</ele>
        <time>2023-05-31T06:12:23Z</time>
      </trkpt>
      <trkpt lat="43.64485" lon="1.39491">
        <ele>132</ele>
        <time>2023-05-31T06:12:24Z</time>
      </trkpt>
      <trkpt lat="43.64485" lon="1.39491">
        <ele>133</ele>
        <time>2023-05-31T06:12:25Z</time>
      </trkpt>
      <trkpt lat="43.64484" lon="1.39484">
        <ele>133</ele>
        <time>2023-05-31T06:12:26Z</time>
      </trkpt>
      <trkpt lat="43.64484" lon="1.39484">
        <ele>133</ele>
        <time>2023-05-31T06:12:27Z</time>
      </trkpt>
      <trkpt lat="43.64484" lon="1.3948">
        <ele>133</ele>
        <time>2023-05-31T06:12:28Z</time>
      </trkpt>
      <trkpt lat="43.64483" lon="1.39476">
        <ele>133</ele>
        <time>2023-05-31T06:12:29Z</time>
      </trkpt>
      <trkpt lat="43.64483" lon="1.39469">
        <ele>133</ele>
        <time>2023-05-31T06:12:30Z</time>
      </trkpt>
      <trkpt lat="43.64482" lon="1.39466">
        <ele>133</ele>
        <time>2023-05-31T06:12:31Z</time>
      </trkpt>
      <trkpt lat="43.64481" lon="1.39462">
        <ele>133</ele>
        <time>2023-05-31T06:12:32Z</time>
      </trkpt>
      <trkpt lat="43.64481" lon="1.39462">
        <ele>133</ele>
        <time>2023-05-31T06:12:33Z</time>
      </trkpt>
      <trkpt lat="43.6448" lon="1.39455">
        <ele>133</ele>
        <time>2023-05-31T06:12:34Z</time>
      </trkpt>
      <trkpt lat="43.6448" lon="1.39455">
        <ele>133</ele>
        <time>2023-05-31T06:12:35Z</time>
      </trkpt>
      <trkpt lat="43.64479" lon="1.39448">
        <ele>133</ele>
        <time>2023-05-31T06:12:36Z</time>
      </trkpt>
      <trkpt lat="43.64479" lon="1.39448">
        <ele>133</ele>
        <time>2023-05-31T06:12:37Z</time>
      </trkpt>
      <trkpt lat="43.64478" lon="1.39441">
        <ele>133</ele>
        <time>2023-05-31T06:12:38Z</time>
      </trkpt>
      <trkpt lat="43.64478" lon="1.39441">
        <ele>133</ele>
        <time>2023-05-31T06:12:39Z</time>
      </trkpt>
      <trkpt lat="43.64477" lon="1.39438">
        <ele>133</ele>
        <time>2023-05-31T06:12:40Z</time>
      </trkpt>
      <trkpt lat="43.64475" lon="1.3943">
        <ele>133</ele>
        <time>2023-05-31T06:12:41Z</time>
      </trkpt>
      <trkpt lat="43.64475" lon="1.3943">
        <ele>133</ele>
        <time>2023-05-31T06:12:42Z</time>
      </trkpt>
      <trkpt lat="43.64474" lon="1.39423">
        <ele>133</ele>
        <time>2023-05-31T06:12:43Z</time>
      </trkpt>
      <trkpt lat="43.64474" lon="1.39423">
        <ele>133</ele>
        <time>2023-05-31T06:12:44Z</time>
      </trkpt>
      <trkpt lat="43.64473" lon="1.39416">
        <ele>133</ele>
        <time>2023-05-31T06:12:45Z</time>
      </trkpt>
      <trkpt lat="43.64473" lon="1.39416">
        <ele>133</ele>
        <time>2023-05-31T06:12:46Z</time>
      </trkpt>
      <trkpt lat="43.64473" lon="1.39412">
        <ele>133</ele>
        <time>2023-05-31T06:12:47Z</time>
      </trkpt>
      <trkpt lat="43.64472" lon="1.39409">
        <ele>133</ele>
        <time>2023-05-31T06:12:48Z</time>
      </trkpt>
      <trkpt lat="43.64471" lon="1.39402">
        <ele>133</ele>
        <time>2023-05-31T06:12:49Z</time>
      </trkpt>
      <trkpt lat="43.6447" lon="1.39399">
        <ele>133</ele>
        <time>2023-05-31T06:12:50Z</time>
      </trkpt>
      <trkpt lat="43.6447" lon="1.39399">
        <ele>133</ele>
        <time>2023-05-31T06:12:51Z</time>
      </trkpt>
      <trkpt lat="43.64469" lon="1.39393">
        <ele>133</ele>
        <time>2023-05-31T06:12:52Z</time>
      </trkpt>
      <trkpt lat="43.64469" lon="1.39393">
        <ele>133</ele>
        <time>2023-05-31T06:12:53Z</time>
      </trkpt>
      <trkpt lat="43.64468" lon="1.39384">
        <ele>133</ele>
        <time>2023-05-31T06:12:54Z</time>
      </trkpt>
      <trkpt lat="43.64468" lon="1.39382">
        <ele>133</ele>
        <time>2023-05-31T06:12:55Z</time>
      </trkpt>
      <trkpt lat="43.64467" lon="1.39379">
        <ele>133</ele>
        <time>2023-05-31T06:12:56Z</time>
      </trkpt>
      <trkpt lat="43.64466" lon="1.39375">
        <ele>133</ele>
        <time>2023-05-31T06:12:57Z</time>
      </trkpt>
      <trkpt lat="43.64466" lon="1.39375">
        <ele>133</ele>
        <time>2023-05-31T06:12:58Z</time>
      </trkpt>
      <trkpt lat="43.64465" lon="1.39368">
        <ele>132</ele>
        <time>2023-05-31T06:12:59Z</time>
      </trkpt>
      <trkpt lat="43.64465" lon="1.39368">
        <ele>132</ele>
        <time>2023-05-31T06:13:00Z</time>
      </trkpt>
      <trkpt lat="43.64464" lon="1.39361">
        <ele>132</ele>
        <time>2023-05-31T06:13:01Z</time>
      </trkpt>
      <trkpt lat="43.64464" lon="1.39361">
        <ele>132</ele>
        <time>2023-05-31T06:13:02Z</time>
      </trkpt>
      <trkpt lat="43.64462" lon="1.39351">
        <ele>132</ele>
        <time>2023-05-31T06:13:03Z</time>
      </trkpt>
      <trkpt lat="43.64461" lon="1.39349">
        <ele>132</ele>
        <time>2023-05-31T06:13:04Z</time>
      </trkpt>
      <trkpt lat="43.64461" lon="1.39349">
        <ele>132</ele>
        <time>2023-05-31T06:13:05Z</time>
      </trkpt>
      <trkpt lat="43.6446" lon="1.39342">
        <ele>133</ele>
        <time>2023-05-31T06:13:06Z</time>
      </trkpt>
      <trkpt lat="43.6446" lon="1.39342">
        <ele>133</ele>
        <time>2023-05-31T06:13:07Z</time>
      </trkpt>
      <trkpt lat="43.64458" lon="1.39333">
        <ele>133</ele>
        <time>2023-05-31T06:13:08Z</time>
      </trkpt>
      <trkpt lat="43.64458" lon="1.39332">
        <ele>133</ele>
        <time>2023-05-31T06:13:09Z</time>
      </trkpt>
      <trkpt lat="43.64458" lon="1.39332">
        <ele>133</ele>
        <time>2023-05-31T06:13:10Z</time>
      </trkpt>
      <trkpt lat="43.64456" lon="1.39323">
        <ele>133</ele>
        <time>2023-05-31T06:13:11Z</time>
      </trkpt>
      <trkpt lat="43.64455" lon="1.39321">
        <ele>133</ele>
        <time>2023-05-31T06:13:12Z</time>
      </trkpt>
      <trkpt lat="43.64454" lon="1.39317">
        <ele>133</ele>
        <time>2023-05-31T06:13:13Z</time>
      </trkpt>
      <trkpt lat="43.64453" lon="1.39313">
        <ele>133</ele>
        <time>2023-05-31T06:13:14Z</time>
      </trkpt>
      <trkpt lat="43.64453" lon="1.39309">
        <ele>133</ele>
        <time>2023-05-31T06:13:15Z</time>
      </trkpt>
      <trkpt lat="43.64453" lon="1.39309">
        <ele>133</ele>
        <time>2023-05-31T06:13:16Z</time>
      </trkpt>
      <trkpt lat="43.64452" lon="1.39305">
        <ele>133</ele>
        <time>2023-05-31T06:13:17Z</time>
      </trkpt>
      <trkpt lat="43.64451" lon="1.39298">
        <ele>133</ele>
        <time>2023-05-31T06:13:18Z</time>
      </trkpt>
      <trkpt lat="43.64451" lon="1.39298">
        <ele>134</ele>
        <time>2023-05-31T06:13:19Z</time>
      </trkpt>
      <trkpt lat="43.64448" lon="1.39288">
        <ele>134</ele>
        <time>2023-05-31T06:13:20Z</time>
      </trkpt>
      <trkpt lat="43.64448" lon="1.39287">
        <ele>134</ele>
        <time>2023-05-31T06:13:21Z</time>
      </trkpt>
      <trkpt lat="43.64447" lon="1.39283">
        <ele>134</ele>
        <time>2023-05-31T06:13:22Z</time>
      </trkpt>
      <trkpt lat="43.64446" lon="1.3928">
        <ele>133</ele>
        <time>2023-05-31T06:13:23Z</time>
      </trkpt>
      <trkpt lat="43.64446" lon="1.3928">
        <ele>133</ele>
        <time>2023-05-31T06:13:24Z</time>
      </trkpt>
      <trkpt lat="43.64444" lon="1.39273">
        <ele>133</ele>
        <time>2023-05-31T06:13:25Z</time>
      </trkpt>
      <trkpt lat="43.64443" lon="1.3927">
        <ele>133</ele>
        <time>2023-05-31T06:13:26Z</time>
      </trkpt>
      <trkpt lat="43.64442" lon="1.39266">
        <ele>133</ele>
        <time>2023-05-31T06:13:27Z</time>
      </trkpt>
      <trkpt lat="43.64442" lon="1.39266">
        <ele>133</ele>
        <time>2023-05-31T06:13:28Z</time>
      </trkpt>
      <trkpt lat="43.64441" lon="1.39262">
        <ele>133</ele>
        <time>2023-05-31T06:13:29Z</time>
      </trkpt>
      <trkpt lat="43.6444" lon="1.39258">
        <ele>133</ele>
        <time>2023-05-31T06:13:30Z</time>
      </trkpt>
      <trkpt lat="43.64438" lon="1.39252">
        <ele>133</ele>
        <time>2023-05-31T06:13:31Z</time>
      </trkpt>
      <trkpt lat="43.64436" lon="1.39248">
        <ele>133</ele>
        <time>2023-05-31T06:13:32Z</time>
      </trkpt>
      <trkpt lat="43.64435" lon="1.39245">
        <ele>133</ele>
        <time>2023-05-31T06:13:33Z</time>
      </trkpt>
      <trkpt lat="43.64434" lon="1.39242">
        <ele>133</ele>
        <time>2023-05-31T06:13:34Z</time>
      </trkpt>
      <trkpt lat="43.64434" lon="1.39242">
        <ele>133</ele>
        <time>2023-05-31T06:13:35Z</time>
      </trkpt>
      <trkpt lat="43.6443" lon="1.39236">
        <ele>133</ele>
        <time>2023-05-31T06:13:36Z</time>
      </trkpt>
      <trkpt lat="43.6443" lon="1.39236">
        <ele>133</ele>
        <time>2023-05-31T06:13:37Z</time>
      </trkpt>
      <trkpt lat="43.64429" lon="1.39233">
        <ele>133</ele>
        <time>2023-05-31T06:13:38Z</time>
      </trkpt>
      <trkpt lat="43.64427" lon="1.39229">
        <ele>133</ele>
        <time>2023-05-31T06:13:39Z</time>
      </trkpt>
      <trkpt lat="43.64424" lon="1.39223">
        <ele>133</ele>
        <time>2023-05-31T06:13:40Z</time>
      </trkpt>
      <trkpt lat="43.64423" lon="1.3922">
        <ele>133</ele>
        <time>2023-05-31T06:13:41Z</time>
      </trkpt>
      <trkpt lat="43.64421" lon="1.39217">
        <ele>134</ele>
        <time>2023-05-31T06:13:42Z</time>
      </trkpt>
      <trkpt lat="43.6442" lon="1.39213">
        <ele>134</ele>
        <time>2023-05-31T06:13:43Z</time>
      </trkpt>
      <trkpt lat="43.64419" lon="1.3921">
        <ele>134</ele>
        <time>2023-05-31T06:13:44Z</time>
      </trkpt>
      <trkpt lat="43.64419" lon="1.3921">
        <ele>134</ele>
        <time>2023-05-31T06:13:45Z</time>
      </trkpt>
      <trkpt lat="43.64416" lon="1.39204">
        <ele>134</ele>
        <time>2023-05-31T06:13:46Z</time>
      </trkpt>
      <trkpt lat="43.64416" lon="1.39204">
        <ele>134</ele>
        <time>2023-05-31T06:13:47Z</time>
      </trkpt>
      <trkpt lat="43.64412" lon="1.39196">
        <ele>134</ele>
        <time>2023-05-31T06:13:48Z</time>
      </trkpt>
      <trkpt lat="43.64412" lon="1.39194">
        <ele>134</ele>
        <time>2023-05-31T06:13:49Z</time>
      </trkpt>
      <trkpt lat="43.64412" lon="1.39194">
        <ele>135</ele>
        <time>2023-05-31T06:13:50Z</time>
      </trkpt>
      <trkpt lat="43.64409" lon="1.39187">
        <ele>135</ele>
        <time>2023-05-31T06:13:51Z</time>
      </trkpt>
      <trkpt lat="43.64409" lon="1.39187">
        <ele>135</ele>
        <time>2023-05-31T06:13:52Z</time>
      </trkpt>
      <trkpt lat="43.64407" lon="1.39178">
        <ele>136</ele>
        <time>2023-05-31T06:13:53Z</time>
      </trkpt>
      <trkpt lat="43.64406" lon="1.39176">
        <ele>136</ele>
        <time>2023-05-31T06:13:54Z</time>
      </trkpt>
      <trkpt lat="43.64406" lon="1.39172">
        <ele>137</ele>
        <time>2023-05-31T06:13:55Z</time>
      </trkpt>
      <trkpt lat="43.64406" lon="1.39172">
        <ele>137</ele>
        <time>2023-05-31T06:13:56Z</time>
      </trkpt>
      <trkpt lat="43.64406" lon="1.39163">
        <ele>137</ele>
        <time>2023-05-31T06:13:57Z</time>
      </trkpt>
      <trkpt lat="43.64406" lon="1.39161">
        <ele>137</ele>
        <time>2023-05-31T06:13:58Z</time>
      </trkpt>
      <trkpt lat="43.64406" lon="1.39161">
        <ele>137</ele>
        <time>2023-05-31T06:13:59Z</time>
      </trkpt>
      <trkpt lat="43.64407" lon="1.39155">
        <ele>137</ele>
        <time>2023-05-31T06:14:00Z</time>
      </trkpt>
      <trkpt lat="43.64407" lon="1.39155">
        <ele>137</ele>
        <time>2023-05-31T06:14:01Z</time>
      </trkpt>
      <trkpt lat="43.64408" lon="1.39146">
        <ele>137</ele>
        <time>2023-05-31T06:14:02Z</time>
      </trkpt>
      <trkpt lat="43.64409" lon="1.39144">
        <ele>138</ele>
        <time>2023-05-31T06:14:03Z</time>
      </trkpt>
      <trkpt lat="43.64409" lon="1.39144">
        <ele>138</ele>
        <time>2023-05-31T06:14:04Z</time>
      </trkpt>
      <trkpt lat="43.64411" lon="1.39138">
        <ele>138</ele>
        <time>2023-05-31T06:14:05Z</time>
      </trkpt>
      <trkpt lat="43.64411" lon="1.39138">
        <ele>139</ele>
        <time>2023-05-31T06:14:06Z</time>
      </trkpt>
      <trkpt lat="43.64412" lon="1.39133">
        <ele>139</ele>
        <time>2023-05-31T06:14:07Z</time>
      </trkpt>
      <trkpt lat="43.64412" lon="1.3913">
        <ele>140</ele>
        <time>2023-05-31T06:14:08Z</time>
      </trkpt>
      <trkpt lat="43.64412" lon="1.3913">
        <ele>141</ele>
        <time>2023-05-31T06:14:09Z</time>
      </trkpt>
      <trkpt lat="43.64412" lon="1.39127">
        <ele>141</ele>
        <time>2023-05-31T06:14:10Z</time>
      </trkpt>
      <trkpt lat="43.64413" lon="1.39125">
        <ele>141</ele>
        <time>2023-05-31T06:14:11Z</time>
      </trkpt>
      <trkpt lat="43.64415" lon="1.39119">
        <ele>141</ele>
        <time>2023-05-31T06:14:12Z</time>
      </trkpt>
      <trkpt lat="43.64415" lon="1.39119">
        <ele>142</ele>
        <time>2023-05-31T06:14:13Z</time>
      </trkpt>
      <trkpt lat="43.64416" lon="1.39113">
        <ele>142</ele>
        <time>2023-05-31T06:14:14Z</time>
      </trkpt>
      <trkpt lat="43.64416" lon="1.39113">
        <ele>142</ele>
        <time>2023-05-31T06:14:15Z</time>
      </trkpt>
      <trkpt lat="43.64418" lon="1.3911">
        <ele>142</ele>
        <time>2023-05-31T06:14:16Z</time>
      </trkpt>
      <trkpt lat="43.64422" lon="1.39102">
        <ele>142</ele>
        <time>2023-05-31T06:14:17Z</time>
      </trkpt>
      <trkpt lat="43.64422" lon="1.39102">
        <ele>143</ele>
        <time>2023-05-31T06:14:18Z</time>
      </trkpt>
      <trkpt lat="43.64426" lon="1.39093">
        <ele>143</ele>
        <time>2023-05-31T06:14:19Z</time>
      </trkpt>
      <trkpt lat="43.64426" lon="1.39091">
        <ele>143</ele>
        <time>2023-05-31T06:14:20Z</time>
      </trkpt>
      <trkpt lat="43.64428" lon="1.39088">
        <ele>143</ele>
        <time>2023-05-31T06:14:21Z</time>
      </trkpt>
      <trkpt lat="43.6443" lon="1.39085">
        <ele>144</ele>
        <time>2023-05-31T06:14:22Z</time>
      </trkpt>
      <trkpt lat="43.6443" lon="1.39085">
        <ele>144</ele>
        <time>2023-05-31T06:14:23Z</time>
      </trkpt>
      <trkpt lat="43.64435" lon="1.39077">
        <ele>144</ele>
        <time>2023-05-31T06:14:24Z</time>
      </trkpt>
      <trkpt lat="43.64436" lon="1.39075">
        <ele>144</ele>
        <time>2023-05-31T06:14:25Z</time>
      </trkpt>
      <trkpt lat="43.64438" lon="1.39072">
        <ele>144</ele>
        <time>2023-05-31T06:14:26Z</time>
      </trkpt>
      <trkpt lat="43.6444" lon="1.39069">
        <ele>144</ele>
        <time>2023-05-31T06:14:27Z</time>
      </trkpt>
      <trkpt lat="43.6444" lon="1.39069">
        <ele>144</ele>
        <time>2023-05-31T06:14:28Z</time>
      </trkpt>
      <trkpt lat="43.64443" lon="1.39063">
        <ele>145</ele>
        <time>2023-05-31T06:14:29Z</time>
      </trkpt>
      <trkpt lat="43.64443" lon="1.39063">
        <ele>145</ele>
        <time>2023-05-31T06:14:30Z</time>
      </trkpt>
      <trkpt lat="43.64446" lon="1.39058">
        <ele>145</ele>
        <time>2023-05-31T06:14:31Z</time>
      </trkpt>
      <trkpt lat="43.64446" lon="1.39058">
        <ele>145</ele>
        <time>2023-05-31T06:14:32Z</time>
      </trkpt>
      <trkpt lat="43.64451" lon="1.3905">
        <ele>146</ele>
        <time>2023-05-31T06:14:33Z</time>
      </trkpt>
      <trkpt lat="43.64452" lon="1.39049">
        <ele>146</ele>
        <time>2023-05-31T06:14:34Z</time>
      </trkpt>
      <trkpt lat="43.64454" lon="1.39046">
        <ele>146</ele>
        <time>2023-05-31T06:14:35Z</time>
      </trkpt>
      <trkpt lat="43.64457" lon="1.39045">
        <ele>146</ele>
        <time>2023-05-31T06:14:36Z</time>
      </trkpt>
      <trkpt lat="43.64457" lon="1.39045">
        <ele>146</ele>
        <time>2023-05-31T06:14:37Z</time>
      </trkpt>
      <trkpt lat="43.6446" lon="1.39044">
        <ele>146</ele>
        <time>2023-05-31T06:14:38Z</time>
      </trkpt>
      <trkpt lat="43.64465" lon="1.39041">
        <ele>146</ele>
        <time>2023-05-31T06:14:39Z</time>
      </trkpt>
      <trkpt lat="43.64467" lon="1.3904">
        <ele>146</ele>
        <time>2023-05-31T06:14:40Z</time>
      </trkpt>
      <trkpt lat="43.64469" lon="1.39038">
        <ele>146</ele>
        <time>2023-05-31T06:14:41Z</time>
      </trkpt>
      <trkpt lat="43.64469" lon="1.39038">
        <ele>146</ele>
        <time>2023-05-31T06:14:42Z</time>
      </trkpt>
      <trkpt lat="43.64473" lon="1.39032">
        <ele>146</ele>
        <time>2023-05-31T06:14:43Z</time>
      </trkpt>
      <trkpt lat="43.64473" lon="1.39032">
        <ele>146</ele>
        <time>2023-05-31T06:14:44Z</time>
      </trkpt>
      <trkpt lat="43.64477" lon="1.39023">
        <ele>146</ele>
        <time>2023-05-31T06:14:45Z</time>
      </trkpt>
      <trkpt lat="43.64478" lon="1.39022">
        <ele>146</ele>
        <time>2023-05-31T06:14:46Z</time>
      </trkpt>
      <trkpt lat="43.64478" lon="1.39022">
        <ele>146</ele>
        <time>2023-05-31T06:14:47Z</time>
      </trkpt>
      <trkpt lat="43.64478" lon="1.39018">
        <ele>146</ele>
        <time>2023-05-31T06:14:48Z</time>
      </trkpt>
      <trkpt lat="43.64479" lon="1.39015">
        <ele>146</ele>
        <time>2023-05-31T06:14:49Z</time>
      </trkpt>
      <trkpt lat="43.64482" lon="1.39009">
        <ele>146</ele>
        <time>2023-05-31T06:14:50Z</time>
      </trkpt>
      <trkpt lat="43.64482" lon="1.39005">
        <ele>146</ele>
        <time>2023-05-31T06:14:51Z</time>
      </trkpt>
      <trkpt lat="43.64484" lon="1.39002">
        <ele>146</ele>
        <time>2023-05-31T06:14:52Z</time>
      </trkpt>
      <trkpt lat="43.64485" lon="1.38999">
        <ele>146</ele>
        <time>2023-05-31T06:14:53Z</time>
      </trkpt>
      <trkpt lat="43.64486" lon="1.38995">
        <ele>146</ele>
        <time>2023-05-31T06:14:54Z</time>
      </trkpt>
      <trkpt lat="43.64486" lon="1.38995">
        <ele>146</ele>
        <time>2023-05-31T06:14:55Z</time>
      </trkpt>
      <trkpt lat="43.64488" lon="1.38991">
        <ele>146</ele>
        <time>2023-05-31T06:14:56Z</time>
      </trkpt>
      <trkpt lat="43.6449" lon="1.38984">
        <ele>146</ele>
        <time>2023-05-31T06:14:57Z</time>
      </trkpt>
      <trkpt lat="43.64492" lon="1.3898">
        <ele>146</ele>
        <time>2023-05-31T06:14:58Z</time>
      </trkpt>
      <trkpt lat="43.64494" lon="1.38976">
        <ele>146</ele>
        <time>2023-05-31T06:14:59Z</time>
      </trkpt>
      <trkpt lat="43.64495" lon="1.38973">
        <ele>146</ele>
        <time>2023-05-31T06:15:00Z</time>
      </trkpt>
      <trkpt lat="43.64495" lon="1.38973">
        <ele>146</ele>
        <time>2023-05-31T06:15:01Z</time>
      </trkpt>
      <trkpt lat="43.64498" lon="1.38965">
        <ele>146</ele>
        <time>2023-05-31T06:15:02Z</time>
      </trkpt>
      <trkpt lat="43.64498" lon="1.38965">
        <ele>146</ele>
        <time>2023-05-31T06:15:03Z</time>
      </trkpt>
      <trkpt lat="43.64501" lon="1.38958">
        <ele>146</ele>
        <time>2023-05-31T06:15:04Z</time>
      </trkpt>
      <trkpt lat="43.64501" lon="1.38958">
        <ele>146</ele>
        <time>2023-05-31T06:15:05Z</time>
      </trkpt>
      <trkpt lat="43.64503" lon="1.38949">
        <ele>146</ele>
        <time>2023-05-31T06:15:06Z</time>
      </trkpt>
      <trkpt lat="43.64504" lon="1.38947">
        <ele>146</ele>
        <time>2023-05-31T06:15:07Z</time>
      </trkpt>
      <trkpt lat="43.64504" lon="1.38947">
        <ele>146</ele>
        <time>2023-05-31T06:15:08Z</time>
      </trkpt>
      <trkpt lat="43.64507" lon="1.3894">
        <ele>146</ele>
        <time>2023-05-31T06:15:09Z</time>
      </trkpt>
      <trkpt lat="43.64507" lon="1.3894">
        <ele>146</ele>
        <time>2023-05-31T06:15:10Z</time>
      </trkpt>
      <trkpt lat="43.64509" lon="1.38933">
        <ele>146</ele>
        <time>2023-05-31T06:15:11Z</time>
      </trkpt>
      <trkpt lat="43.64509" lon="1.38933">
        <ele>146</ele>
        <time>2023-05-31T06:15:12Z</time>
      </trkpt>
      <trkpt lat="43.6451" lon="1.38923">
        <ele>146</ele>
        <time>2023-05-31T06:15:13Z</time>
      </trkpt>
      <trkpt lat="43.6451" lon="1.38921">
        <ele>146</ele>
        <time>2023-05-31T06:15:14Z</time>
      </trkpt>
      <trkpt lat="43.6451" lon="1.38921">
        <ele>146</ele>
        <time>2023-05-31T06:15:15Z</time>
      </trkpt>
      <trkpt lat="43.6451" lon="1.38917">
        <ele>146</ele>
        <time>2023-05-31T06:15:16Z</time>
      </trkpt>
      <trkpt lat="43.64509" lon="1.38914">
        <ele>146</ele>
        <time>2023-05-31T06:15:17Z</time>
      </trkpt>
      <trkpt lat="43.64508" lon="1.38906">
        <ele>146</ele>
        <time>2023-05-31T06:15:18Z</time>
      </trkpt>
      <trkpt lat="43.64507" lon="1.38903">
        <ele>146</ele>
        <time>2023-05-31T06:15:19Z</time>
      </trkpt>
      <trkpt lat="43.64507" lon="1.38903">
        <ele>146</ele>
        <time>2023-05-31T06:15:20Z</time>
      </trkpt>
      <trkpt lat="43.64507" lon="1.38899">
        <ele>146</ele>
        <time>2023-05-31T06:15:21Z</time>
      </trkpt>
      <trkpt lat="43.64505" lon="1.38895">
        <ele>146</ele>
        <time>2023-05-31T06:15:22Z</time>
      </trkpt>
      <trkpt lat="43.64504" lon="1.38888">
        <ele>146</ele>
        <time>2023-05-31T06:15:23Z</time>
      </trkpt>
      <trkpt lat="43.64504" lon="1.38883">
        <ele>146</ele>
        <time>2023-05-31T06:15:24Z</time>
      </trkpt>
      <trkpt lat="43.64503" lon="1.38879">
        <ele>146</ele>
        <time>2023-05-31T06:15:25Z</time>
      </trkpt>
      <trkpt lat="43.64503" lon="1.38879">
        <ele>146</ele>
        <time>2023-05-31T06:15:26Z</time>
      </trkpt>
      <trkpt lat="43.64503" lon="1.38876">
        <ele>146</ele>
        <time>2023-05-31T06:15:27Z</time>
      </trkpt>
      <trkpt lat="43.64503" lon="1.38868">
        <ele>146</ele>
        <time>2023-05-31T06:15:28Z</time>
      </trkpt>
      <trkpt lat="43.64503" lon="1.38868">
        <ele>146</ele>
        <time>2023-05-31T06:15:29Z</time>
      </trkpt>
      <trkpt lat="43.64507" lon="1.38861">
        <ele>146</ele>
        <time>2023-05-31T06:15:30Z</time>
      </trkpt>
      <trkpt lat="43.64509" lon="1.38859">
        <ele>146</ele>
        <time>2023-05-31T06:15:31Z</time>
      </trkpt>
      <trkpt lat="43.64509" lon="1.38859">
        <ele>146</ele>
        <time>2023-05-31T06:15:32Z</time>
      </trkpt>
      <trkpt lat="43.64511" lon="1.38858">
        <ele>146</ele>
        <time>2023-05-31T06:15:33Z</time>
      </trkpt>
      <trkpt lat="43.64517" lon="1.38856">
        <ele>146</ele>
        <time>2023-05-31T06:15:34Z</time>
      </trkpt>
      <trkpt lat="43.64517" lon="1.38856">
        <ele>146</ele>
        <time>2023-05-31T06:15:35Z</time>
      </trkpt>
      <trkpt lat="43.6452" lon="1.38855">
        <ele>146</ele>
        <time>2023-05-31T06:15:36Z</time>
      </trkpt>
      <trkpt lat="43.64523" lon="1.38854">
        <ele>146</ele>
        <time>2023-05-31T06:15:37Z</time>
      </trkpt>
      <trkpt lat="43.64528" lon="1.38853">
        <ele>146</ele>
        <time>2023-05-31T06:15:38Z</time>
      </trkpt>
      <trkpt lat="43.64528" lon="1.38853">
        <ele>146</ele>
        <time>2023-05-31T06:15:39Z</time>
      </trkpt>
      <trkpt lat="43.64534" lon="1.38851">
        <ele>146</ele>
        <time>2023-05-31T06:15:40Z</time>
      </trkpt>
      <trkpt lat="43.64534" lon="1.38851">
        <ele>146</ele>
        <time>2023-05-31T06:15:41Z</time>
      </trkpt>
      <trkpt lat="43.64539" lon="1.38849">
        <ele>146</ele>
        <time>2023-05-31T06:15:42Z</time>
      </trkpt>
      <trkpt lat="43.64539" lon="1.38849">
        <ele>146</ele>
        <time>2023-05-31T06:15:43Z</time>
      </trkpt>
      <trkpt lat="43.64542" lon="1.38846">
        <ele>146</ele>
        <time>2023-05-31T06:15:44Z</time>
      </trkpt>
      <trkpt lat="43.64547" lon="1.38842">
        <ele>146</ele>
        <time>2023-05-31T06:15:45Z</time>
      </trkpt>
      <trkpt lat="43.64547" lon="1.38842">
        <ele>146</ele>
        <time>2023-05-31T06:15:46Z</time>
      </trkpt>
      <trkpt lat="43.64549" lon="1.38841">
        <ele>146</ele>
        <time>2023-05-31T06:15:47Z</time>
      </trkpt>
      <trkpt lat="43.64552" lon="1.3884">
        <ele>146</ele>
        <time>2023-05-31T06:15:48Z</time>
      </trkpt>
      <trkpt lat="43.64559" lon="1.38839">
        <ele>146</ele>
        <time>2023-05-31T06:15:49Z</time>
      </trkpt>
      <trkpt lat="43.64562" lon="1.38838">
        <ele>146</ele>
        <time>2023-05-31T06:15:50Z</time>
      </trkpt>
      <trkpt lat="43.64564" lon="1.38838">
        <ele>146</ele>
        <time>2023-05-31T06:15:51Z</time>
      </trkpt>
      <trkpt lat="43.64564" lon="1.38838">
        <ele>146</ele>
        <time>2023-05-31T06:15:52Z</time>
      </trkpt>
      <trkpt lat="43.64567" lon="1.38838">
        <ele>146</ele>
        <time>2023-05-31T06:15:53Z</time>
      </trkpt>
      <trkpt lat="43.6457" lon="1.38837">
        <ele>146</ele>
        <time>2023-05-31T06:15:54Z</time>
      </trkpt>
      <trkpt lat="43.64575" lon="1.38836">
        <ele>146</ele>
        <time>2023-05-31T06:15:55Z</time>
      </trkpt>
      <trkpt lat="43.64575" lon="1.38836">
        <ele>146</ele>
        <time>2023-05-31T06:15:56Z</time>
      </trkpt>
      <trkpt lat="43.64582" lon="1.38835">
        <ele>146</ele>
        <time>2023-05-31T06:15:57Z</time>
      </trkpt>
      <trkpt lat="43.64584" lon="1.38835">
        <ele>146</ele>
        <time>2023-05-31T06:15:58Z</time>
      </trkpt>
      <trkpt lat="43.64586" lon="1.38835">
        <ele>146</ele>
        <time>2023-05-31T06:15:59Z</time>
      </trkpt>
      <trkpt lat="43.64588" lon="1.38834">
        <ele>146</ele>
        <time>2023-05-31T06:16:00Z</time>
      </trkpt>
      <trkpt lat="43.64588" lon="1.38834">
        <ele>146</ele>
        <time>2023-05-31T06:16:01Z</time>
      </trkpt>
      <trkpt lat="43.64594" lon="1.38831">
        <ele>146</ele>
        <time>2023-05-31T06:16:02Z</time>
      </trkpt>
      <trkpt lat="43.64594" lon="1.38831">
        <ele>146</ele>
        <time>2023-05-31T06:16:03Z</time>
      </trkpt>
      <trkpt lat="43.64599" lon="1.3883">
        <ele>146</ele>
        <time>2023-05-31T06:16:04Z</time>
      </trkpt>
      <trkpt lat="43.64599" lon="1.3883">
        <ele>146</ele>
        <time>2023-05-31T06:16:05Z</time>
      </trkpt>
      <trkpt lat="43.64604" lon="1.38828">
        <ele>146</ele>
        <time>2023-05-31T06:16:06Z</time>
      </trkpt>
      <trkpt lat="43.64604" lon="1.38828">
        <ele>146</ele>
        <time>2023-05-31T06:16:07Z</time>
      </trkpt>
      <trkpt lat="43.64607" lon="1.38828">
        <ele>146</ele>
        <time>2023-05-31T06:16:08Z</time>
      </trkpt>
      <trkpt lat="43.64612" lon="1.38826">
        <ele>146</ele>
        <time>2023-05-31T06:16:09Z</time>
      </trkpt>
      <trkpt lat="43.64612" lon="1.38826">
        <ele>146</ele>
        <time>2023-05-31T06:16:10Z</time>
      </trkpt>
      <trkpt lat="43.64618" lon="1.38823">
        <ele>146</ele>
        <time>2023-05-31T06:16:11Z</time>
      </trkpt>
      <trkpt lat="43.6462" lon="1.38822">
        <ele>146</ele>
        <time>2023-05-31T06:16:12Z</time>
      </trkpt>
      <trkpt lat="43.6462" lon="1.38822">
        <ele>146</ele>
        <time>2023-05-31T06:16:13Z</time>
      </trkpt>
      <trkpt lat="43.64625" lon="1.3882">
        <ele>146</ele>
        <time>2023-05-31T06:16:14Z</time>
      </trkpt>
      <trkpt lat="43.64628" lon="1.3882">
        <ele>146</ele>
        <time>2023-05-31T06:16:15Z</time>
      </trkpt>
      <trkpt lat="43.6463" lon="1.38819">
        <ele>146</ele>
        <time>2023-05-31T06:16:16Z</time>
      </trkpt>
      <trkpt lat="43.6463" lon="1.38819">
        <ele>146</ele>
        <time>2023-05-31T06:16:17Z</time>
      </trkpt>
      <trkpt lat="43.64634" lon="1.38818">
        <ele>146</ele>
        <time>2023-05-31T06:16:18Z</time>
      </trkpt>
      <trkpt lat="43.64634" lon="1.38818">
        <ele>146</ele>
        <time>2023-05-31T06:16:19Z</time>
      </trkpt>
      <trkpt lat="43.6464" lon="1.38815">
        <ele>146</ele>
        <time>2023-05-31T06:16:20Z</time>
      </trkpt>
      <trkpt lat="43.6464" lon="1.38815">
        <ele>146</ele>
        <time>2023-05-31T06:16:21Z</time>
      </trkpt>
      <trkpt lat="43.64643" lon="1.38813">
        <ele>146</ele>
        <time>2023-05-31T06:16:22Z</time>
      </trkpt>
      <trkpt lat="43.64649" lon="1.3881">
        <ele>146</ele>
        <time>2023-05-31T06:16:23Z</time>
      </trkpt>
      <trkpt lat="43.64652" lon="1.3881">
        <ele>147</ele>
        <time>2023-05-31T06:16:24Z</time>
      </trkpt>
      <trkpt lat="43.64655" lon="1.38809">
        <ele>147</ele>
        <time>2023-05-31T06:16:25Z</time>
      </trkpt>
      <trkpt lat="43.64658" lon="1.38808">
        <ele>146</ele>
        <time>2023-05-31T06:16:26Z</time>
      </trkpt>
      <trkpt lat="43.64658" lon="1.38808">
        <ele>147</ele>
        <time>2023-05-31T06:16:27Z</time>
      </trkpt>
      <trkpt lat="43.64665" lon="1.38805">
        <ele>147</ele>
        <time>2023-05-31T06:16:28Z</time>
      </trkpt>
      <trkpt lat="43.64666" lon="1.38804">
        <ele>147</ele>
        <time>2023-05-31T06:16:29Z</time>
      </trkpt>
      <trkpt lat="43.64666" lon="1.38804">
        <ele>147</ele>
        <time>2023-05-31T06:16:30Z</time>
      </trkpt>
      <trkpt lat="43.64672" lon="1.38802">
        <ele>147</ele>
        <time>2023-05-31T06:16:31Z</time>
      </trkpt>
      <trkpt lat="43.64672" lon="1.38802">
        <ele>147</ele>
        <time>2023-05-31T06:16:32Z</time>
      </trkpt>
      <trkpt lat="43.64678" lon="1.38799">
        <ele>147</ele>
        <time>2023-05-31T06:16:33Z</time>
      </trkpt>
      <trkpt lat="43.64678" lon="1.38799">
        <ele>147</ele>
        <time>2023-05-31T06:16:34Z</time>
      </trkpt>
      <trkpt lat="43.64681" lon="1.38798">
        <ele>147</ele>
        <time>2023-05-31T06:16:35Z</time>
      </trkpt>
      <trkpt lat="43.64687" lon="1.38796">
        <ele>147</ele>
        <time>2023-05-31T06:16:36Z</time>
      </trkpt>
      <trkpt lat="43.64687" lon="1.38796">
        <ele>147</ele>
        <time>2023-05-31T06:16:37Z</time>
      </trkpt>
      <trkpt lat="43.64689" lon="1.38795">
        <ele>147</ele>
        <time>2023-05-31T06:16:38Z</time>
      </trkpt>
      <trkpt lat="43.64692" lon="1.38793">
        <ele>146</ele>
        <time>2023-05-31T06:16:39Z</time>
      </trkpt>
      <trkpt lat="43.64698" lon="1.3879">
        <ele>146</ele>
        <time>2023-05-31T06:16:40Z</time>
      </trkpt>
      <trkpt lat="43.64701" lon="1.38789">
        <ele>146</ele>
        <time>2023-05-31T06:16:41Z</time>
      </trkpt>
      <trkpt lat="43.64704" lon="1.38788">
        <ele>146</ele>
        <time>2023-05-31T06:16:42Z</time>
      </trkpt>
      <trkpt lat="43.64707" lon="1.38787">
        <ele>146</ele>
        <time>2023-05-31T06:16:43Z</time>
      </trkpt>
      <trkpt lat="43.64707" lon="1.38787">
        <ele>146</ele>
        <time>2023-05-31T06:16:44Z</time>
      </trkpt>
      <trkpt lat="43.64712" lon="1.38784">
        <ele>147</ele>
        <time>2023-05-31T06:16:45Z</time>
      </trkpt>
      <trkpt lat="43.64712" lon="1.38784">
        <ele>147</ele>
        <time>2023-05-31T06:16:46Z</time>
      </trkpt>
      <trkpt lat="43.64719" lon="1.38779">
        <ele>147</ele>
        <time>2023-05-31T06:16:47Z</time>
      </trkpt>
      <trkpt lat="43.6472" lon="1.38778">
        <ele>147</ele>
        <time>2023-05-31T06:16:48Z</time>
      </trkpt>
      <trkpt lat="43.64723" lon="1.38777">
        <ele>147</ele>
        <time>2023-05-31T06:16:49Z</time>
      </trkpt>
      <trkpt lat="43.64725" lon="1.38775">
        <ele>147</ele>
        <time>2023-05-31T06:16:50Z</time>
      </trkpt>
      <trkpt lat="43.64725" lon="1.38775">
        <ele>147</ele>
        <time>2023-05-31T06:16:51Z</time>
      </trkpt>
      <trkpt lat="43.64732" lon="1.38771">
        <ele>147</ele>
        <time>2023-05-31T06:16:52Z</time>
      </trkpt>
      <trkpt lat="43.64733" lon="1.3877">
        <ele>147</ele>
        <time>2023-05-31T06:16:53Z</time>
      </trkpt>
      <trkpt lat="43.64735" lon="1.38768">
        <ele>147</ele>
        <time>2023-05-31T06:16:54Z</time>
      </trkpt>
      <trkpt lat="43.64738" lon="1.38766">
        <ele>147</ele>
        <time>2023-05-31T06:16:55Z</time>
      </trkpt>
      <trkpt lat="43.64738" lon="1.38766">
        <ele>147</ele>
        <time>2023-05-31T06:16:56Z</time>
      </trkpt>
      <trkpt lat="43.6474" lon="1.38764">
        <ele>147</ele>
        <time>2023-05-31T06:16:57Z</time>
      </trkpt>
      <trkpt lat="43.64745" lon="1.38759">
        <ele>147</ele>
        <time>2023-05-31T06:16:58Z</time>
      </trkpt>
      <trkpt lat="43.64745" lon="1.38759">
        <ele>147</ele>
        <time>2023-05-31T06:16:59Z</time>
      </trkpt>
      <trkpt lat="43.64752" lon="1.38755">
        <ele>147</ele>
        <time>2023-05-31T06:17:00Z</time>
      </trkpt>
      <trkpt lat="43.64753" lon="1.38754">
        <ele>147</ele>
        <time>2023-05-31T06:17:01Z</time>
      </trkpt>
      <trkpt lat="43.64755" lon="1.38753">
        <ele>147</ele>
        <time>2023-05-31T06:17:02Z</time>
      </trkpt>
      <trkpt lat="43.64755" lon="1.38753">
        <ele>147</ele>
        <time>2023-05-31T06:17:03Z</time>
      </trkpt>
      <trkpt lat="43.6476" lon="1.38751">
        <ele>147</ele>
        <time>2023-05-31T06:17:04Z</time>
      </trkpt>
      <trkpt lat="43.6476" lon="1.38751">
        <ele>147</ele>
        <time>2023-05-31T06:17:05Z</time>
      </trkpt>
      <trkpt lat="43.64766" lon="1.38747">
        <ele>147</ele>
        <time>2023-05-31T06:17:06Z</time>
      </trkpt>
      <trkpt lat="43.64766" lon="1.38747">
        <ele>147</ele>
        <time>2023-05-31T06:17:07Z</time>
      </trkpt>
      <trkpt lat="43.64772" lon="1.38742">
        <ele>147</ele>
        <time>2023-05-31T06:17:08Z</time>
      </trkpt>
      <trkpt lat="43.64774" lon="1.38741">
        <ele>147</ele>
        <time>2023-05-31T06:17:09Z</time>
      </trkpt>
      <trkpt lat="43.64776" lon="1.3874">
        <ele>147</ele>
        <time>2023-05-31T06:17:10Z</time>
      </trkpt>
      <trkpt lat="43.64779" lon="1.38738">
        <ele>147</ele>
        <time>2023-05-31T06:17:11Z</time>
      </trkpt>
      <trkpt lat="43.64779" lon="1.38738">
        <ele>147</ele>
        <time>2023-05-31T06:17:12Z</time>
      </trkpt>
      <trkpt lat="43.64785" lon="1.38734">
        <ele>147</ele>
        <time>2023-05-31T06:17:13Z</time>
      </trkpt>
      <trkpt lat="43.64785" lon="1.38734">
        <ele>147</ele>
        <time>2023-05-31T06:17:14Z</time>
      </trkpt>
      <trkpt lat="43.64789" lon="1.3873">
        <ele>147</ele>
        <time>2023-05-31T06:17:15Z</time>
      </trkpt>
      <trkpt lat="43.64789" lon="1.3873">
        <ele>147</ele>
        <time>2023-05-31T06:17:16Z</time>
      </trkpt>
      <trkpt lat="43.64795" lon="1.38725">
        <ele>147</ele>
        <time>2023-05-31T06:17:17Z</time>
      </trkpt>
      <trkpt lat="43.64797" lon="1.38725">
        <ele>147</ele>
        <time>2023-05-31T06:17:18Z</time>
      </trkpt>
      <trkpt lat="43.64797" lon="1.38725">
        <ele>147</ele>
        <time>2023-05-31T06:17:19Z</time>
      </trkpt>
      <trkpt lat="43.64804" lon="1.3872">
        <ele>147</ele>
        <time>2023-05-31T06:17:20Z</time>
      </trkpt>
      <trkpt lat="43.64805" lon="1.38719">
        <ele>147</ele>
        <time>2023-05-31T06:17:21Z</time>
      </trkpt>
      <trkpt lat="43.64805" lon="1.38719">
        <ele>147</ele>
        <time>2023-05-31T06:17:22Z</time>
      </trkpt>
      <trkpt lat="43.64811" lon="1.38715">
        <ele>147</ele>
        <time>2023-05-31T06:17:23Z</time>
      </trkpt>
      <trkpt lat="43.64813" lon="1.38713">
        <ele>147</ele>
        <time>2023-05-31T06:17:24Z</time>
      </trkpt>
      <trkpt lat="43.64816" lon="1.38711">
        <ele>147</ele>
        <time>2023-05-31T06:17:25Z</time>
      </trkpt>
      <trkpt lat="43.64819" lon="1.3871">
        <ele>147</ele>
        <time>2023-05-31T06:17:26Z</time>
      </trkpt>
      <trkpt lat="43.64819" lon="1.3871">
        <ele>147</ele>
        <time>2023-05-31T06:17:27Z</time>
      </trkpt>
      <trkpt lat="43.64823" lon="1.38705">
        <ele>147</ele>
        <time>2023-05-31T06:17:28Z</time>
      </trkpt>
      <trkpt lat="43.64823" lon="1.38705">
        <ele>147</ele>
        <time>2023-05-31T06:17:29Z</time>
      </trkpt>
      <trkpt lat="43.64826" lon="1.38703">
        <ele>147</ele>
        <time>2023-05-31T06:17:30Z</time>
      </trkpt>
      <trkpt lat="43.64828" lon="1.38701">
        <ele>147</ele>
        <time>2023-05-31T06:17:31Z</time>
      </trkpt>
      <trkpt lat="43.64833" lon="1.38698">
        <ele>147</ele>
        <time>2023-05-31T06:17:32Z</time>
      </trkpt>
      <trkpt lat="43.64835" lon="1.38696">
        <ele>147</ele>
        <time>2023-05-31T06:17:33Z</time>
      </trkpt>
      <trkpt lat="43.64837" lon="1.38695">
        <ele>147</ele>
        <time>2023-05-31T06:17:34Z</time>
      </trkpt>
      <trkpt lat="43.64841" lon="1.38693">
        <ele>147</ele>
        <time>2023-05-31T06:17:35Z</time>
      </trkpt>
      <trkpt lat="43.64841" lon="1.38693">
        <ele>147</ele>
        <time>2023-05-31T06:17:36Z</time>
      </trkpt>
      <trkpt lat="43.64846" lon="1.3869">
        <ele>147</ele>
        <time>2023-05-31T06:17:37Z</time>
      </trkpt>
      <trkpt lat="43.64846" lon="1.3869">
        <ele>147</ele>
        <time>2023-05-31T06:17:38Z</time>
      </trkpt>
      <trkpt lat="43.64851" lon="1.38687">
        <ele>147</ele>
        <time>2023-05-31T06:17:39Z</time>
      </trkpt>
      <trkpt lat="43.64851" lon="1.38687">
        <ele>147</ele>
        <time>2023-05-31T06:17:40Z</time>
      </trkpt>
      <trkpt lat="43.64858" lon="1.38683">
        <ele>147</ele>
        <time>2023-05-31T06:17:41Z</time>
      </trkpt>
      <trkpt lat="43.64859" lon="1.38683">
        <ele>147</ele>
        <time>2023-05-31T06:17:42Z</time>
      </trkpt>
      <trkpt lat="43.64859" lon="1.38683">
        <ele>147</ele>
        <time>2023-05-31T06:17:43Z</time>
      </trkpt>
      <trkpt lat="43.64864" lon="1.38679">
        <ele>147</ele>
        <time>2023-05-31T06:17:44Z</time>
      </trkpt>
      <trkpt lat="43.64867" lon="1.38677">
        <ele>147</ele>
        <time>2023-05-31T06:17:45Z</time>
      </trkpt>
      <trkpt lat="43.64869" lon="1.38676">
        <ele>147</ele>
        <time>2023-05-31T06:17:46Z</time>
      </trkpt>
      <trkpt lat="43.64872" lon="1.38674">
        <ele>147</ele>
        <time>2023-05-31T06:17:47Z</time>
      </trkpt>
      <trkpt lat="43.64872" lon="1.38674">
        <ele>147</ele>
        <time>2023-05-31T06:17:48Z</time>
      </trkpt>
      <trkpt lat="43.64875" lon="1.38672">
        <ele>147</ele>
        <time>2023-05-31T06:17:49Z</time>
      </trkpt>
      <trkpt lat="43.64877" lon="1.38671">
        <ele>147</ele>
        <time>2023-05-31T06:17:50Z</time>
      </trkpt>
      <trkpt lat="43.64883" lon="1.38667">
        <ele>147</ele>
        <time>2023-05-31T06:17:51Z</time>
      </trkpt>
      <trkpt lat="43.64886" lon="1.38665">
        <ele>147</ele>
        <time>2023-05-31T06:17:52Z</time>
      </trkpt>
      <trkpt lat="43.64886" lon="1.38665">
        <ele>147</ele>
        <time>2023-05-31T06:17:53Z</time>
      </trkpt>
      <trkpt lat="43.64891" lon="1.38661">
        <ele>147</ele>
        <time>2023-05-31T06:17:54Z</time>
      </trkpt>
      <trkpt lat="43.64891" lon="1.38661">
        <ele>147</ele>
        <time>2023-05-31T06:17:55Z</time>
      </trkpt>
      <trkpt lat="43.64893" lon="1.3866">
        <ele>147</ele>
        <time>2023-05-31T06:17:56Z</time>
      </trkpt>
      <trkpt lat="43.64898" lon="1.38657">
        <ele>147</ele>
        <time>2023-05-31T06:17:57Z</time>
      </trkpt>
      <trkpt lat="43.64898" lon="1.38657">
        <ele>147</ele>
        <time>2023-05-31T06:17:58Z</time>
      </trkpt>
      <trkpt lat="43.64904" lon="1.38653">
        <ele>147</ele>
        <time>2023-05-31T06:17:59Z</time>
      </trkpt>
      <trkpt lat="43.64904" lon="1.38653">
        <ele>147</ele>
        <time>2023-05-31T06:18:00Z</time>
      </trkpt>
      <trkpt lat="43.64909" lon="1.38649">
        <ele>147</ele>
        <time>2023-05-31T06:18:01Z</time>
      </trkpt>
      <trkpt lat="43.64909" lon="1.38649">
        <ele>147</ele>
        <time>2023-05-31T06:18:02Z</time>
      </trkpt>
      <trkpt lat="43.64911" lon="1.38647">
        <ele>147</ele>
        <time>2023-05-31T06:18:03Z</time>
      </trkpt>
      <trkpt lat="43.64916" lon="1.38645">
        <ele>147</ele>
        <time>2023-05-31T06:18:04Z</time>
      </trkpt>
      <trkpt lat="43.64916" lon="1.38645">
        <ele>147</ele>
        <time>2023-05-31T06:18:05Z</time>
      </trkpt>
      <trkpt lat="43.64923" lon="1.3864">
        <ele>147</ele>
        <time>2023-05-31T06:18:06Z</time>
      </trkpt>
      <trkpt lat="43.64924" lon="1.38639">
        <ele>147</ele>
        <time>2023-05-31T06:18:07Z</time>
      </trkpt>
      <trkpt lat="43.64924" lon="1.38639">
        <ele>147</ele>
        <time>2023-05-31T06:18:08Z</time>
      </trkpt>
      <trkpt lat="43.64927" lon="1.38637">
        <ele>147</ele>
        <time>2023-05-31T06:18:09Z</time>
      </trkpt>
      <trkpt lat="43.64933" lon="1.38634">
        <ele>147</ele>
        <time>2023-05-31T06:18:10Z</time>
      </trkpt>
      <trkpt lat="43.64933" lon="1.38634">
        <ele>147</ele>
        <time>2023-05-31T06:18:11Z</time>
      </trkpt>
      <trkpt lat="43.64939" lon="1.38631">
        <ele>147</ele>
        <time>2023-05-31T06:18:12Z</time>
      </trkpt>
      <trkpt lat="43.64939" lon="1.38631">
        <ele>147</ele>
        <time>2023-05-31T06:18:13Z</time>
      </trkpt>
      <trkpt lat="43.64946" lon="1.38626">
        <ele>147</ele>
        <time>2023-05-31T06:18:14Z</time>
      </trkpt>
      <trkpt lat="43.64947" lon="1.38625">
        <ele>147</ele>
        <time>2023-05-31T06:18:15Z</time>
      </trkpt>
      <trkpt lat="43.64947" lon="1.38625">
        <ele>147</ele>
        <time>2023-05-31T06:18:16Z</time>
      </trkpt>
      <trkpt lat="43.64951" lon="1.38621">
        <ele>147</ele>
        <time>2023-05-31T06:18:17Z</time>
      </trkpt>
      <trkpt lat="43.64951" lon="1.38621">
        <ele>147</ele>
        <time>2023-05-31T06:18:18Z</time>
      </trkpt>
      <trkpt lat="43.64956" lon="1.38619">
        <ele>147</ele>
        <time>2023-05-31T06:18:19Z</time>
      </trkpt>
      <trkpt lat="43.64956" lon="1.38619">
        <ele>147</ele>
        <time>2023-05-31T06:18:20Z</time>
      </trkpt>
      <trkpt lat="43.64963" lon="1.38616">
        <ele>147</ele>
        <time>2023-05-31T06:18:21Z</time>
      </trkpt>
      <trkpt lat="43.64964" lon="1.38615">
        <ele>147</ele>
        <time>2023-05-31T06:18:22Z</time>
      </trkpt>
      <trkpt lat="43.64964" lon="1.38615">
        <ele>147</ele>
        <time>2023-05-31T06:18:23Z</time>
      </trkpt>
      <trkpt lat="43.64969" lon="1.38612">
        <ele>147</ele>
        <time>2023-05-31T06:18:24Z</time>
      </trkpt>
      <trkpt lat="43.64969" lon="1.38612">
        <ele>147</ele>
        <time>2023-05-31T06:18:25Z</time>
      </trkpt>
      <trkpt lat="43.64976" lon="1.38609">
        <ele>147</ele>
        <time>2023-05-31T06:18:26Z</time>
      </trkpt>
      <trkpt lat="43.64977" lon="1.38608">
        <ele>147</ele>
        <time>2023-05-31T06:18:27Z</time>
      </trkpt>
      <trkpt lat="43.64977" lon="1.38608">
        <ele>147</ele>
        <time>2023-05-31T06:18:28Z</time>
      </trkpt>
      <trkpt lat="43.64983" lon="1.38604">
        <ele>147</ele>
        <time>2023-05-31T06:18:29Z</time>
      </trkpt>
      <trkpt lat="43.64983" lon="1.38604">
        <ele>147</ele>
        <time>2023-05-31T06:18:30Z</time>
      </trkpt>
      <trkpt lat="43.64991" lon="1.38599">
        <ele>147</ele>
        <time>2023-05-31T06:18:31Z</time>
      </trkpt>
      <trkpt lat="43.64992" lon="1.38598">
        <ele>147</ele>
        <time>2023-05-31T06:18:32Z</time>
      </trkpt>
      <trkpt lat="43.64992" lon="1.38598">
        <ele>146</ele>
        <time>2023-05-31T06:18:33Z</time>
      </trkpt>
      <trkpt lat="43.64995" lon="1.38596">
        <ele>146</ele>
        <time>2023-05-31T06:18:34Z</time>
      </trkpt>
      <trkpt lat="43.64998" lon="1.38594">
        <ele>146</ele>
        <time>2023-05-31T06:18:35Z</time>
      </trkpt>
      <trkpt lat="43.65005" lon="1.3859">
        <ele>147</ele>
        <time>2023-05-31T06:18:36Z</time>
      </trkpt>
      <trkpt lat="43.65008" lon="1.38588">
        <ele>147</ele>
        <time>2023-05-31T06:18:37Z</time>
      </trkpt>
      <trkpt lat="43.65011" lon="1.38587">
        <ele>147</ele>
        <time>2023-05-31T06:18:38Z</time>
      </trkpt>
      <trkpt lat="43.65014" lon="1.38585">
        <ele>147</ele>
        <time>2023-05-31T06:18:39Z</time>
      </trkpt>
      <trkpt lat="43.65014" lon="1.38585">
        <ele>146</ele>
        <time>2023-05-31T06:18:40Z</time>
      </trkpt>
      <trkpt lat="43.65021" lon="1.38581">
        <ele>146</ele>
        <time>2023-05-31T06:18:41Z</time>
      </trkpt>
      <trkpt lat="43.65022" lon="1.3858">
        <ele>146</ele>
        <time>2023-05-31T06:18:42Z</time>
      </trkpt>
      <trkpt lat="43.65025" lon="1.38578">
        <ele>146</ele>
        <time>2023-05-31T06:18:43Z</time>
      </trkpt>
      <trkpt lat="43.65025" lon="1.38578">
        <ele>146</ele>
        <time>2023-05-31T06:18:44Z</time>
      </trkpt>
      <trkpt lat="43.6503" lon="1.38574">
        <ele>146</ele>
        <time>2023-05-31T06:18:45Z</time>
      </trkpt>
      <trkpt lat="43.6503" lon="1.38574">
        <ele>146</ele>
        <time>2023-05-31T06:18:46Z</time>
      </trkpt>
      <trkpt lat="43.65033" lon="1.38572">
        <ele>146</ele>
        <time>2023-05-31T06:18:47Z</time>
      </trkpt>
      <trkpt lat="43.65039" lon="1.38569">
        <ele>146</ele>
        <time>2023-05-31T06:18:48Z</time>
      </trkpt>
      <trkpt lat="43.65039" lon="1.38569">
        <ele>146</ele>
        <time>2023-05-31T06:18:49Z</time>
      </trkpt>
      <trkpt lat="43.65044" lon="1.38565">
        <ele>146</ele>
        <time>2023-05-31T06:18:50Z</time>
      </trkpt>
      <trkpt lat="43.65044" lon="1.38565">
        <ele>146</ele>
        <time>2023-05-31T06:18:51Z</time>
      </trkpt>
      <trkpt lat="43.65049" lon="1.38562">
        <ele>146</ele>
        <time>2023-05-31T06:18:52Z</time>
      </trkpt>
      <trkpt lat="43.65049" lon="1.38562">
        <ele>146</ele>
        <time>2023-05-31T06:18:53Z</time>
      </trkpt>
      <trkpt lat="43.65055" lon="1.3856">
        <ele>146</ele>
        <time>2023-05-31T06:18:54Z</time>
      </trkpt>
      <trkpt lat="43.65055" lon="1.3856">
        <ele>146</ele>
        <time>2023-05-31T06:18:55Z</time>
      </trkpt>
      <trkpt lat="43.6506" lon="1.38557">
        <ele>146</ele>
        <time>2023-05-31T06:18:56Z</time>
      </trkpt>
      <trkpt lat="43.65063" lon="1.38555">
        <ele>146</ele>
        <time>2023-05-31T06:18:57Z</time>
      </trkpt>
      <trkpt lat="43.65063" lon="1.38555">
        <ele>146</ele>
        <time>2023-05-31T06:18:58Z</time>
      </trkpt>
      <trkpt lat="43.65066" lon="1.38553">
        <ele>146</ele>
        <time>2023-05-31T06:18:59Z</time>
      </trkpt>
      <trkpt lat="43.65068" lon="1.38552">
        <ele>146</ele>
        <time>2023-05-31T06:19:00Z</time>
      </trkpt>
      <trkpt lat="43.65071" lon="1.3855">
        <ele>146</ele>
        <time>2023-05-31T06:19:01Z</time>
      </trkpt>
      <trkpt lat="43.65073" lon="1.38548">
        <ele>146</ele>
        <time>2023-05-31T06:19:02Z</time>
      </trkpt>
      <trkpt lat="43.65079" lon="1.38544">
        <ele>146</ele>
        <time>2023-05-31T06:19:03Z</time>
      </trkpt>
      <trkpt lat="43.65082" lon="1.38542">
        <ele>146</ele>
        <time>2023-05-31T06:19:04Z</time>
      </trkpt>
      <trkpt lat="43.65084" lon="1.38541">
        <ele>146</ele>
        <time>2023-05-31T06:19:05Z</time>
      </trkpt>
      <trkpt lat="43.65084" lon="1.38541">
        <ele>146</ele>
        <time>2023-05-31T06:19:06Z</time>
      </trkpt>
      <trkpt lat="43.65087" lon="1.38539">
        <ele>146</ele>
        <time>2023-05-31T06:19:07Z</time>
      </trkpt>
      <trkpt lat="43.65091" lon="1.38533">
        <ele>146</ele>
        <time>2023-05-31T06:19:08Z</time>
      </trkpt>
      <trkpt lat="43.65092" lon="1.38529">
        <ele>146</ele>
        <time>2023-05-31T06:19:09Z</time>
      </trkpt>
      <trkpt lat="43.65092" lon="1.38529">
        <ele>146</ele>
        <time>2023-05-31T06:19:10Z</time>
      </trkpt>
      <trkpt lat="43.65093" lon="1.38526">
        <ele>146</ele>
        <time>2023-05-31T06:19:11Z</time>
      </trkpt>
      <trkpt lat="43.65094" lon="1.38519">
        <ele>146</ele>
        <time>2023-05-31T06:19:12Z</time>
      </trkpt>
      <trkpt lat="43.65094" lon="1.38519">
        <ele>146</ele>
        <time>2023-05-31T06:19:13Z</time>
      </trkpt>
      <trkpt lat="43.65095" lon="1.3851">
        <ele>146</ele>
        <time>2023-05-31T06:19:14Z</time>
      </trkpt>
      <trkpt lat="43.65095" lon="1.38508">
        <ele>146</ele>
        <time>2023-05-31T06:19:15Z</time>
      </trkpt>
      <trkpt lat="43.65095" lon="1.38504">
        <ele>146</ele>
        <time>2023-05-31T06:19:16Z</time>
      </trkpt>
      <trkpt lat="43.65093" lon="1.38499">
        <ele>147</ele>
        <time>2023-05-31T06:19:17Z</time>
      </trkpt>
      <trkpt lat="43.65093" lon="1.38499">
        <ele>147</ele>
        <time>2023-05-31T06:19:18Z</time>
      </trkpt>
      <trkpt lat="43.65091" lon="1.38492">
        <ele>147</ele>
        <time>2023-05-31T06:19:19Z</time>
      </trkpt>
      <trkpt lat="43.65091" lon="1.38492">
        <ele>147</ele>
        <time>2023-05-31T06:19:20Z</time>
      </trkpt>
      <trkpt lat="43.65088" lon="1.38482">
        <ele>147</ele>
        <time>2023-05-31T06:19:21Z</time>
      </trkpt>
      <trkpt lat="43.65087" lon="1.3848">
        <ele>147</ele>
        <time>2023-05-31T06:19:22Z</time>
      </trkpt>
      <trkpt lat="43.65087" lon="1.3848">
        <ele>147</ele>
        <time>2023-05-31T06:19:23Z</time>
      </trkpt>
      <trkpt lat="43.65084" lon="1.38471">
        <ele>147</ele>
        <time>2023-05-31T06:19:24Z</time>
      </trkpt>
      <trkpt lat="43.65084" lon="1.38471">
        <ele>147</ele>
        <time>2023-05-31T06:19:25Z</time>
      </trkpt>
      <trkpt lat="43.65082" lon="1.38463">
        <ele>147</ele>
        <time>2023-05-31T06:19:26Z</time>
      </trkpt>
      <trkpt lat="43.65082" lon="1.38463">
        <ele>147</ele>
        <time>2023-05-31T06:19:27Z</time>
      </trkpt>
      <trkpt lat="43.6508" lon="1.38454">
        <ele>147</ele>
        <time>2023-05-31T06:19:28Z</time>
      </trkpt>
      <trkpt lat="43.65079" lon="1.38453">
        <ele>147</ele>
        <time>2023-05-31T06:19:29Z</time>
      </trkpt>
      <trkpt lat="43.65079" lon="1.38453">
        <ele>147</ele>
        <time>2023-05-31T06:19:30Z</time>
      </trkpt>
      <trkpt lat="43.65077" lon="1.38449">
        <ele>147</ele>
        <time>2023-05-31T06:19:31Z</time>
      </trkpt>
      <trkpt lat="43.65076" lon="1.38446">
        <ele>147</ele>
        <time>2023-05-31T06:19:32Z</time>
      </trkpt>
      <trkpt lat="43.65073" lon="1.38439">
        <ele>147</ele>
        <time>2023-05-31T06:19:33Z</time>
      </trkpt>
      <trkpt lat="43.65072" lon="1.38435">
        <ele>147</ele>
        <time>2023-05-31T06:19:34Z</time>
      </trkpt>
      <trkpt lat="43.65072" lon="1.38435">
        <ele>147</ele>
        <time>2023-05-31T06:19:35Z</time>
      </trkpt>
      <trkpt lat="43.6507" lon="1.38431">
        <ele>147</ele>
        <time>2023-05-31T06:19:36Z</time>
      </trkpt>
      <trkpt lat="43.65069" lon="1.38428">
        <ele>147</ele>
        <time>2023-05-31T06:19:37Z</time>
      </trkpt>
      <trkpt lat="43.65067" lon="1.3842">
        <ele>147</ele>
        <time>2023-05-31T06:19:38Z</time>
      </trkpt>
      <trkpt lat="43.65066" lon="1.38415">
        <ele>147</ele>
        <time>2023-05-31T06:19:39Z</time>
      </trkpt>
      <trkpt lat="43.65065" lon="1.38412">
        <ele>147</ele>
        <time>2023-05-31T06:19:40Z</time>
      </trkpt>
      <trkpt lat="43.65064" lon="1.38408">
        <ele>147</ele>
        <time>2023-05-31T06:19:41Z</time>
      </trkpt>
      <trkpt lat="43.65064" lon="1.38408">
        <ele>147</ele>
        <time>2023-05-31T06:19:42Z</time>
      </trkpt>
      <trkpt lat="43.65063" lon="1.38404">
        <ele>147</ele>
        <time>2023-05-31T06:19:43Z</time>
      </trkpt>
      <trkpt lat="43.65062" lon="1.384">
        <ele>147</ele>
        <time>2023-05-31T06:19:44Z</time>
      </trkpt>
      <trkpt lat="43.6506" lon="1.38391">
        <ele>147</ele>
        <time>2023-05-31T06:19:45Z</time>
      </trkpt>
      <trkpt lat="43.6506" lon="1.38391">
        <ele>147</ele>
        <time>2023-05-31T06:19:46Z</time>
      </trkpt>
      <trkpt lat="43.65058" lon="1.38384">
        <ele>147</ele>
        <time>2023-05-31T06:19:47Z</time>
      </trkpt>
      <trkpt lat="43.65056" lon="1.3838">
        <ele>147</ele>
        <time>2023-05-31T06:19:48Z</time>
      </trkpt>
      <trkpt lat="43.65056" lon="1.3838">
        <ele>147</ele>
        <time>2023-05-31T06:19:49Z</time>
      </trkpt>
      <trkpt lat="43.65053" lon="1.38373">
        <ele>147</ele>
        <time>2023-05-31T06:19:50Z</time>
      </trkpt>
      <trkpt lat="43.65053" lon="1.38373">
        <ele>147</ele>
        <time>2023-05-31T06:19:51Z</time>
      </trkpt>
      <trkpt lat="43.65051" lon="1.38369">
        <ele>147</ele>
        <time>2023-05-31T06:19:52Z</time>
      </trkpt>
      <trkpt lat="43.65048" lon="1.38361">
        <ele>147</ele>
        <time>2023-05-31T06:19:53Z</time>
      </trkpt>
      <trkpt lat="43.65048" lon="1.38361">
        <ele>147</ele>
        <time>2023-05-31T06:19:54Z</time>
      </trkpt>
      <trkpt lat="43.65046" lon="1.38353">
        <ele>147</ele>
        <time>2023-05-31T06:19:55Z</time>
      </trkpt>
      <trkpt lat="43.65046" lon="1.38353">
        <ele>147</ele>
        <time>2023-05-31T06:19:56Z</time>
      </trkpt>
      <trkpt lat="43.65045" lon="1.3835">
        <ele>147</ele>
        <time>2023-05-31T06:19:57Z</time>
      </trkpt>
      <trkpt lat="43.65043" lon="1.38342">
        <ele>147</ele>
        <time>2023-05-31T06:19:58Z</time>
      </trkpt>
      <trkpt lat="43.65043" lon="1.38342">
        <ele>147</ele>
        <time>2023-05-31T06:19:59Z</time>
      </trkpt>
      <trkpt lat="43.65041" lon="1.38335">
        <ele>147</ele>
        <time>2023-05-31T06:20:00Z</time>
      </trkpt>
      <trkpt lat="43.65041" lon="1.38335">
        <ele>147</ele>
        <time>2023-05-31T06:20:01Z</time>
      </trkpt>
      <trkpt lat="43.65039" lon="1.38327">
        <ele>147</ele>
        <time>2023-05-31T06:20:02Z</time>
      </trkpt>
      <trkpt lat="43.65039" lon="1.38327">
        <ele>147</ele>
        <time>2023-05-31T06:20:03Z</time>
      </trkpt>
      <trkpt lat="43.65038" lon="1.38323">
        <ele>147</ele>
        <time>2023-05-31T06:20:04Z</time>
      </trkpt>
      <trkpt lat="43.65037" lon="1.38319">
        <ele>147</ele>
        <time>2023-05-31T06:20:05Z</time>
      </trkpt>
      <trkpt lat="43.65036" lon="1.38315">
        <ele>147</ele>
        <time>2023-05-31T06:20:06Z</time>
      </trkpt>
      <trkpt lat="43.65032" lon="1.38309">
        <ele>147</ele>
        <time>2023-05-31T06:20:07Z</time>
      </trkpt>
      <trkpt lat="43.65031" lon="1.38305">
        <ele>147</ele>
        <time>2023-05-31T06:20:08Z</time>
      </trkpt>
      <trkpt lat="43.65031" lon="1.38305">
        <ele>147</ele>
        <time>2023-05-31T06:20:09Z</time>
      </trkpt>
      <trkpt lat="43.6503" lon="1.38301">
        <ele>147</ele>
        <time>2023-05-31T06:20:10Z</time>
      </trkpt>
      <trkpt lat="43.65028" lon="1.38297">
        <ele>147</ele>
        <time>2023-05-31T06:20:11Z</time>
      </trkpt>
      <trkpt lat="43.65027" lon="1.38294">
        <ele>147</ele>
        <time>2023-05-31T06:20:12Z</time>
      </trkpt>
      <trkpt lat="43.65026" lon="1.3829">
        <ele>147</ele>
        <time>2023-05-31T06:20:13Z</time>
      </trkpt>
      <trkpt lat="43.65024" lon="1.38283">
        <ele>147</ele>
        <time>2023-05-31T06:20:14Z</time>
      </trkpt>
      <trkpt lat="43.65023" lon="1.38279">
        <ele>147</ele>
        <time>2023-05-31T06:20:15Z</time>
      </trkpt>
      <trkpt lat="43.65022" lon="1.38275">
        <ele>147</ele>
        <time>2023-05-31T06:20:16Z</time>
      </trkpt>
      <trkpt lat="43.65021" lon="1.38271">
        <ele>147</ele>
        <time>2023-05-31T06:20:17Z</time>
      </trkpt>
      <trkpt lat="43.65021" lon="1.38271">
        <ele>148</ele>
        <time>2023-05-31T06:20:18Z</time>
      </trkpt>
      <trkpt lat="43.65018" lon="1.38263">
        <ele>148</ele>
        <time>2023-05-31T06:20:19Z</time>
      </trkpt>
      <trkpt lat="43.65017" lon="1.38259">
        <ele>148</ele>
        <time>2023-05-31T06:20:20Z</time>
      </trkpt>
      <trkpt lat="43.65016" lon="1.38256">
        <ele>148</ele>
        <time>2023-05-31T06:20:21Z</time>
      </trkpt>
      <trkpt lat="43.65015" lon="1.38252">
        <ele>148</ele>
        <time>2023-05-31T06:20:22Z</time>
      </trkpt>
      <trkpt lat="43.65014" lon="1.38248">
        <ele>148</ele>
        <time>2023-05-31T06:20:23Z</time>
      </trkpt>
      <trkpt lat="43.65014" lon="1.38248">
        <ele>148</ele>
        <time>2023-05-31T06:20:24Z</time>
      </trkpt>
      <trkpt lat="43.65013" lon="1.3824">
        <ele>148</ele>
        <time>2023-05-31T06:20:25Z</time>
      </trkpt>
      <trkpt lat="43.65013" lon="1.3824">
        <ele>148</ele>
        <time>2023-05-31T06:20:26Z</time>
      </trkpt>
      <trkpt lat="43.6501" lon="1.38233">
        <ele>148</ele>
        <time>2023-05-31T06:20:27Z</time>
      </trkpt>
      <trkpt lat="43.6501" lon="1.38233">
        <ele>148</ele>
        <time>2023-05-31T06:20:28Z</time>
      </trkpt>
      <trkpt lat="43.65009" lon="1.38229">
        <ele>148</ele>
        <time>2023-05-31T06:20:29Z</time>
      </trkpt>
      <trkpt lat="43.65007" lon="1.38226">
        <ele>148</ele>
        <time>2023-05-31T06:20:30Z</time>
      </trkpt>
      <trkpt lat="43.65005" lon="1.38222">
        <ele>148</ele>
        <time>2023-05-31T06:20:31Z</time>
      </trkpt>
      <trkpt lat="43.65003" lon="1.38215">
        <ele>148</ele>
        <time>2023-05-31T06:20:32Z</time>
      </trkpt>
      <trkpt lat="43.65002" lon="1.38212">
        <ele>148</ele>
        <time>2023-05-31T06:20:33Z</time>
      </trkpt>
      <trkpt lat="43.65" lon="1.38208">
        <ele>148</ele>
        <time>2023-05-31T06:20:34Z</time>
      </trkpt>
      <trkpt lat="43.64999" lon="1.38204">
        <ele>148</ele>
        <time>2023-05-31T06:20:35Z</time>
      </trkpt>
      <trkpt lat="43.64998" lon="1.382">
        <ele>148</ele>
        <time>2023-05-31T06:20:36Z</time>
      </trkpt>
      <trkpt lat="43.64998" lon="1.382">
        <ele>148</ele>
        <time>2023-05-31T06:20:37Z</time>
      </trkpt>
      <trkpt lat="43.64996" lon="1.38196">
        <ele>148</ele>
        <time>2023-05-31T06:20:38Z</time>
      </trkpt>
      <trkpt lat="43.64994" lon="1.38189">
        <ele>148</ele>
        <time>2023-05-31T06:20:39Z</time>
      </trkpt>
      <trkpt lat="43.64992" lon="1.38186">
        <ele>148</ele>
        <time>2023-05-31T06:20:40Z</time>
      </trkpt>
      <trkpt lat="43.6499" lon="1.38183">
        <ele>147</ele>
        <time>2023-05-31T06:20:41Z</time>
      </trkpt>
      <trkpt lat="43.64989" lon="1.3818">
        <ele>148</ele>
        <time>2023-05-31T06:20:42Z</time>
      </trkpt>
      <trkpt lat="43.64989" lon="1.3818">
        <ele>148</ele>
        <time>2023-05-31T06:20:43Z</time>
      </trkpt>
      <trkpt lat="43.64988" lon="1.38176">
        <ele>148</ele>
        <time>2023-05-31T06:20:44Z</time>
      </trkpt>
      <trkpt lat="43.64987" lon="1.38172">
        <ele>148</ele>
        <time>2023-05-31T06:20:45Z</time>
      </trkpt>
      <trkpt lat="43.64987" lon="1.38166">
        <ele>147</ele>
        <time>2023-05-31T06:20:46Z</time>
      </trkpt>
      <trkpt lat="43.64988" lon="1.38162">
        <ele>147</ele>
        <time>2023-05-31T06:20:47Z</time>
      </trkpt>
      <trkpt lat="43.64989" lon="1.38159">
        <ele>147</ele>
        <time>2023-05-31T06:20:48Z</time>
      </trkpt>
      <trkpt lat="43.64989" lon="1.38159">
        <ele>147</ele>
        <time>2023-05-31T06:20:49Z</time>
      </trkpt>
      <trkpt lat="43.6499" lon="1.38155">
        <ele>147</ele>
        <time>2023-05-31T06:20:50Z</time>
      </trkpt>
      <trkpt lat="43.64992" lon="1.38152">
        <ele>147</ele>
        <time>2023-05-31T06:20:51Z</time>
      </trkpt>
      <trkpt lat="43.64993" lon="1.38148">
        <ele>147</ele>
        <time>2023-05-31T06:20:52Z</time>
      </trkpt>
      <trkpt lat="43.64993" lon="1.38139">
        <ele>147</ele>
        <time>2023-05-31T06:20:53Z</time>
      </trkpt>
      <trkpt lat="43.64992" lon="1.38135">
        <ele>147</ele>
        <time>2023-05-31T06:20:54Z</time>
      </trkpt>
      <trkpt lat="43.64992" lon="1.38135">
        <ele>147</ele>
        <time>2023-05-31T06:20:55Z</time>
      </trkpt>
      <trkpt lat="43.64991" lon="1.38131">
        <ele>147</ele>
        <time>2023-05-31T06:20:56Z</time>
      </trkpt>
      <trkpt lat="43.6499" lon="1.38127">
        <ele>147</ele>
        <time>2023-05-31T06:20:57Z</time>
      </trkpt>
      <trkpt lat="43.64988" lon="1.38118">
        <ele>147</ele>
        <time>2023-05-31T06:20:58Z</time>
      </trkpt>
      <trkpt lat="43.64988" lon="1.38118">
        <ele>147</ele>
        <time>2023-05-31T06:20:59Z</time>
      </trkpt>
      <trkpt lat="43.64985" lon="1.38108">
        <ele>147</ele>
        <time>2023-05-31T06:21:00Z</time>
      </trkpt>
      <trkpt lat="43.64985" lon="1.38106">
        <ele>147</ele>
        <time>2023-05-31T06:21:01Z</time>
      </trkpt>
      <trkpt lat="43.64985" lon="1.38106">
        <ele>147</ele>
        <time>2023-05-31T06:21:02Z</time>
      </trkpt>
      <trkpt lat="43.64982" lon="1.38097">
        <ele>147</ele>
        <time>2023-05-31T06:21:03Z</time>
      </trkpt>
      <trkpt lat="43.64981" lon="1.38095">
        <ele>147</ele>
        <time>2023-05-31T06:21:04Z</time>
      </trkpt>
      <trkpt lat="43.6498" lon="1.38092">
        <ele>147</ele>
        <time>2023-05-31T06:21:05Z</time>
      </trkpt>
      <trkpt lat="43.6498" lon="1.38092">
        <ele>147</ele>
        <time>2023-05-31T06:21:06Z</time>
      </trkpt>
      <trkpt lat="43.64978" lon="1.38089">
        <ele>147</ele>
        <time>2023-05-31T06:21:07Z</time>
      </trkpt>
      <trkpt lat="43.64977" lon="1.38085">
        <ele>147</ele>
        <time>2023-05-31T06:21:08Z</time>
      </trkpt>
      <trkpt lat="43.64976" lon="1.38081">
        <ele>147</ele>
        <time>2023-05-31T06:21:09Z</time>
      </trkpt>
      <trkpt lat="43.64973" lon="1.38073">
        <ele>147</ele>
        <time>2023-05-31T06:21:10Z</time>
      </trkpt>
      <trkpt lat="43.64971" lon="1.38069">
        <ele>147</ele>
        <time>2023-05-31T06:21:11Z</time>
      </trkpt>
      <trkpt lat="43.6497" lon="1.38065">
        <ele>147</ele>
        <time>2023-05-31T06:21:12Z</time>
      </trkpt>
      <trkpt lat="43.64969" lon="1.38061">
        <ele>147</ele>
        <time>2023-05-31T06:21:13Z</time>
      </trkpt>
      <trkpt lat="43.64969" lon="1.38061">
        <ele>147</ele>
        <time>2023-05-31T06:21:14Z</time>
      </trkpt>
      <trkpt lat="43.64966" lon="1.38053">
        <ele>147</ele>
        <time>2023-05-31T06:21:15Z</time>
      </trkpt>
      <trkpt lat="43.64966" lon="1.38053">
        <ele>147</ele>
        <time>2023-05-31T06:21:16Z</time>
      </trkpt>
      <trkpt lat="43.64964" lon="1.38043">
        <ele>147</ele>
        <time>2023-05-31T06:21:17Z</time>
      </trkpt>
      <trkpt lat="43.64963" lon="1.38041">
        <ele>147</ele>
        <time>2023-05-31T06:21:18Z</time>
      </trkpt>
      <trkpt lat="43.64963" lon="1.38041">
        <ele>147</ele>
        <time>2023-05-31T06:21:19Z</time>
      </trkpt>
      <trkpt lat="43.6496" lon="1.38033">
        <ele>147</ele>
        <time>2023-05-31T06:21:20Z</time>
      </trkpt>
      <trkpt lat="43.6496" lon="1.38033">
        <ele>147</ele>
        <time>2023-05-31T06:21:21Z</time>
      </trkpt>
      <trkpt lat="43.64957" lon="1.38025">
        <ele>147</ele>
        <time>2023-05-31T06:21:22Z</time>
      </trkpt>
      <trkpt lat="43.64957" lon="1.38025">
        <ele>147</ele>
        <time>2023-05-31T06:21:23Z</time>
      </trkpt>
      <trkpt lat="43.64954" lon="1.38017">
        <ele>147</ele>
        <time>2023-05-31T06:21:24Z</time>
      </trkpt>
      <trkpt lat="43.64954" lon="1.38017">
        <ele>147</ele>
        <time>2023-05-31T06:21:25Z</time>
      </trkpt>
      <trkpt lat="43.64953" lon="1.38013">
        <ele>147</ele>
        <time>2023-05-31T06:21:26Z</time>
      </trkpt>
      <trkpt lat="43.6495" lon="1.38007">
        <ele>147</ele>
        <time>2023-05-31T06:21:27Z</time>
      </trkpt>
      <trkpt lat="43.6495" lon="1.38007">
        <ele>147</ele>
        <time>2023-05-31T06:21:28Z</time>
      </trkpt>
      <trkpt lat="43.64946" lon="1.38">
        <ele>147</ele>
        <time>2023-05-31T06:21:29Z</time>
      </trkpt>
      <trkpt lat="43.64946" lon="1.38">
        <ele>147</ele>
        <time>2023-05-31T06:21:30Z</time>
      </trkpt>
      <trkpt lat="43.64945" lon="1.37997">
        <ele>147</ele>
        <time>2023-05-31T06:21:31Z</time>
      </trkpt>
      <trkpt lat="43.64943" lon="1.37992">
        <ele>147</ele>
        <time>2023-05-31T06:21:32Z</time>
      </trkpt>
      <trkpt lat="43.6494" lon="1.37983">
        <ele>147</ele>
        <time>2023-05-31T06:21:33Z</time>
      </trkpt>
      <trkpt lat="43.64939" lon="1.37978">
        <ele>147</ele>
        <time>2023-05-31T06:21:34Z</time>
      </trkpt>
      <trkpt lat="43.64939" lon="1.37974">
        <ele>147</ele>
        <time>2023-05-31T06:21:35Z</time>
      </trkpt>
      <trkpt lat="43.64939" lon="1.37969">
        <ele>147</ele>
        <time>2023-05-31T06:21:36Z</time>
      </trkpt>
      <trkpt lat="43.64939" lon="1.37969">
        <ele>147</ele>
        <time>2023-05-31T06:21:37Z</time>
      </trkpt>
      <trkpt lat="43.64939" lon="1.37965">
        <ele>147</ele>
        <time>2023-05-31T06:21:38Z</time>
      </trkpt>
      <trkpt lat="43.64938" lon="1.37956">
        <ele>147</ele>
        <time>2023-05-31T06:21:39Z</time>
      </trkpt>
      <trkpt lat="43.64938" lon="1.37956">
        <ele>147</ele>
        <time>2023-05-31T06:21:40Z</time>
      </trkpt>
      <trkpt lat="43.64936" lon="1.37945">
        <ele>147</ele>
        <time>2023-05-31T06:21:41Z</time>
      </trkpt>
      <trkpt lat="43.64935" lon="1.37943">
        <ele>147</ele>
        <time>2023-05-31T06:21:42Z</time>
      </trkpt>
      <trkpt lat="43.64935" lon="1.37943">
        <ele>147</ele>
        <time>2023-05-31T06:21:43Z</time>
      </trkpt>
      <trkpt lat="43.64932" lon="1.37933">
        <ele>147</ele>
        <time>2023-05-31T06:21:44Z</time>
      </trkpt>
      <trkpt lat="43.64931" lon="1.37931">
        <ele>147</ele>
        <time>2023-05-31T06:21:45Z</time>
      </trkpt>
      <trkpt lat="43.64931" lon="1.37931">
        <ele>147</ele>
        <time>2023-05-31T06:21:46Z</time>
      </trkpt>
      <trkpt lat="43.6493" lon="1.37927">
        <ele>147</ele>
        <time>2023-05-31T06:21:47Z</time>
      </trkpt>
      <trkpt lat="43.64928" lon="1.37923">
        <ele>147</ele>
        <time>2023-05-31T06:21:48Z</time>
      </trkpt>
      <trkpt lat="43.64926" lon="1.37914">
        <ele>147</ele>
        <time>2023-05-31T06:21:49Z</time>
      </trkpt>
      <trkpt lat="43.64926" lon="1.37909">
        <ele>147</ele>
        <time>2023-05-31T06:21:50Z</time>
      </trkpt>
      <trkpt lat="43.64925" lon="1.37905">
        <ele>147</ele>
        <time>2023-05-31T06:21:51Z</time>
      </trkpt>
      <trkpt lat="43.64924" lon="1.37901">
        <ele>147</ele>
        <time>2023-05-31T06:21:52Z</time>
      </trkpt>
      <trkpt lat="43.64923" lon="1.37897">
        <ele>147</ele>
        <time>2023-05-31T06:21:53Z</time>
      </trkpt>
      <trkpt lat="43.64923" lon="1.37897">
        <ele>147</ele>
        <time>2023-05-31T06:21:54Z</time>
      </trkpt>
      <trkpt lat="43.64922" lon="1.37893">
        <ele>147</ele>
        <time>2023-05-31T06:21:55Z</time>
      </trkpt>
      <trkpt lat="43.6492" lon="1.37885">
        <ele>147</ele>
        <time>2023-05-31T06:21:56Z</time>
      </trkpt>
      <trkpt lat="43.6492" lon="1.37885">
        <ele>147</ele>
        <time>2023-05-31T06:21:57Z</time>
      </trkpt>
      <trkpt lat="43.64918" lon="1.37875">
        <ele>147</ele>
        <time>2023-05-31T06:21:58Z</time>
      </trkpt>
      <trkpt lat="43.64918" lon="1.37873">
        <ele>147</ele>
        <time>2023-05-31T06:21:59Z</time>
      </trkpt>
      <trkpt lat="43.64918" lon="1.37873">
        <ele>147</ele>
        <time>2023-05-31T06:22:00Z</time>
      </trkpt>
      <trkpt lat="43.64916" lon="1.37863">
        <ele>147</ele>
        <time>2023-05-31T06:22:01Z</time>
      </trkpt>
      <trkpt lat="43.64915" lon="1.37861">
        <ele>147</ele>
        <time>2023-05-31T06:22:02Z</time>
      </trkpt>
      <trkpt lat="43.64915" lon="1.37861">
        <ele>147</ele>
        <time>2023-05-31T06:22:03Z</time>
      </trkpt>
      <trkpt lat="43.64913" lon="1.37853">
        <ele>147</ele>
        <time>2023-05-31T06:22:04Z</time>
      </trkpt>
      <trkpt lat="43.64911" lon="1.37849">
        <ele>147</ele>
        <time>2023-05-31T06:22:05Z</time>
      </trkpt>
      <trkpt lat="43.64911" lon="1.37845">
        <ele>147</ele>
        <time>2023-05-31T06:22:06Z</time>
      </trkpt>
      <trkpt lat="43.6491" lon="1.37842">
        <ele>147</ele>
        <time>2023-05-31T06:22:07Z</time>
      </trkpt>
      <trkpt lat="43.6491" lon="1.37842">
        <ele>147</ele>
        <time>2023-05-31T06:22:08Z</time>
      </trkpt>
      <trkpt lat="43.64908" lon="1.37838">
        <ele>147</ele>
        <time>2023-05-31T06:22:09Z</time>
      </trkpt>
      <trkpt lat="43.64908" lon="1.37834">
        <ele>147</ele>
        <time>2023-05-31T06:22:10Z</time>
      </trkpt>
      <trkpt lat="43.64906" lon="1.37827">
        <ele>148</ele>
        <time>2023-05-31T06:22:11Z</time>
      </trkpt>
      <trkpt lat="43.64905" lon="1.37822">
        <ele>148</ele>
        <time>2023-05-31T06:22:12Z</time>
      </trkpt>
      <trkpt lat="43.64904" lon="1.37818">
        <ele>148</ele>
        <time>2023-05-31T06:22:13Z</time>
      </trkpt>
      <trkpt lat="43.64903" lon="1.37814">
        <ele>148</ele>
        <time>2023-05-31T06:22:14Z</time>
      </trkpt>
      <trkpt lat="43.64903" lon="1.37814">
        <ele>148</ele>
        <time>2023-05-31T06:22:15Z</time>
      </trkpt>
      <trkpt lat="43.64901" lon="1.37805">
        <ele>148</ele>
        <time>2023-05-31T06:22:16Z</time>
      </trkpt>
      <trkpt lat="43.64901" lon="1.37804">
        <ele>148</ele>
        <time>2023-05-31T06:22:17Z</time>
      </trkpt>
      <trkpt lat="43.64901" lon="1.37804">
        <ele>148</ele>
        <time>2023-05-31T06:22:18Z</time>
      </trkpt>
      <trkpt lat="43.64898" lon="1.37794">
        <ele>148</ele>
        <time>2023-05-31T06:22:19Z</time>
      </trkpt>
      <trkpt lat="43.64898" lon="1.37792">
        <ele>148</ele>
        <time>2023-05-31T06:22:20Z</time>
      </trkpt>
      <trkpt lat="43.64898" lon="1.37792">
        <ele>148</ele>
        <time>2023-05-31T06:22:21Z</time>
      </trkpt>
      <trkpt lat="43.64896" lon="1.37789">
        <ele>148</ele>
        <time>2023-05-31T06:22:22Z</time>
      </trkpt>
      <trkpt lat="43.64895" lon="1.37785">
        <ele>148</ele>
        <time>2023-05-31T06:22:23Z</time>
      </trkpt>
      <trkpt lat="43.64894" lon="1.37778">
        <ele>148</ele>
        <time>2023-05-31T06:22:24Z</time>
      </trkpt>
      <trkpt lat="43.64894" lon="1.37778">
        <ele>148</ele>
        <time>2023-05-31T06:22:25Z</time>
      </trkpt>
      <trkpt lat="43.64892" lon="1.3777">
        <ele>148</ele>
        <time>2023-05-31T06:22:26Z</time>
      </trkpt>
      <trkpt lat="43.64892" lon="1.3777">
        <ele>148</ele>
        <time>2023-05-31T06:22:27Z</time>
      </trkpt>
      <trkpt lat="43.6489" lon="1.37761">
        <ele>148</ele>
        <time>2023-05-31T06:22:28Z</time>
      </trkpt>
      <trkpt lat="43.6489" lon="1.37761">
        <ele>148</ele>
        <time>2023-05-31T06:22:29Z</time>
      </trkpt>
      <trkpt lat="43.64889" lon="1.37757">
        <ele>148</ele>
        <time>2023-05-31T06:22:30Z</time>
      </trkpt>
      <trkpt lat="43.64887" lon="1.3775">
        <ele>148</ele>
        <time>2023-05-31T06:22:31Z</time>
      </trkpt>
      <trkpt lat="43.64887" lon="1.3775">
        <ele>148</ele>
        <time>2023-05-31T06:22:32Z</time>
      </trkpt>
      <trkpt lat="43.64884" lon="1.3774">
        <ele>148</ele>
        <time>2023-05-31T06:22:33Z</time>
      </trkpt>
      <trkpt lat="43.64884" lon="1.37738">
        <ele>148</ele>
        <time>2023-05-31T06:22:34Z</time>
      </trkpt>
      <trkpt lat="43.64883" lon="1.37735">
        <ele>148</ele>
        <time>2023-05-31T06:22:35Z</time>
      </trkpt>
      <trkpt lat="43.64882" lon="1.37731">
        <ele>148</ele>
        <time>2023-05-31T06:22:36Z</time>
      </trkpt>
      <trkpt lat="43.6488" lon="1.37727">
        <ele>148</ele>
        <time>2023-05-31T06:22:37Z</time>
      </trkpt>
      <trkpt lat="43.6488" lon="1.37727">
        <ele>148</ele>
        <time>2023-05-31T06:22:38Z</time>
      </trkpt>
      <trkpt lat="43.64879" lon="1.37724">
        <ele>148</ele>
        <time>2023-05-31T06:22:39Z</time>
      </trkpt>
      <trkpt lat="43.64878" lon="1.3772">
        <ele>148</ele>
        <time>2023-05-31T06:22:40Z</time>
      </trkpt>
      <trkpt lat="43.64878" lon="1.37716">
        <ele>148</ele>
        <time>2023-05-31T06:22:41Z</time>
      </trkpt>
      <trkpt lat="43.64877" lon="1.37712">
        <ele>148</ele>
        <time>2023-05-31T06:22:42Z</time>
      </trkpt>
      <trkpt lat="43.64876" lon="1.37703">
        <ele>148</ele>
        <time>2023-05-31T06:22:43Z</time>
      </trkpt>
      <trkpt lat="43.64875" lon="1.37698">
        <ele>148</ele>
        <time>2023-05-31T06:22:44Z</time>
      </trkpt>
      <trkpt lat="43.64875" lon="1.37698">
        <ele>148</ele>
        <time>2023-05-31T06:22:45Z</time>
      </trkpt>
      <trkpt lat="43.64874" lon="1.37694">
        <ele>148</ele>
        <time>2023-05-31T06:22:46Z</time>
      </trkpt>
      <trkpt lat="43.64873" lon="1.3769">
        <ele>148</ele>
        <time>2023-05-31T06:22:47Z</time>
      </trkpt>
      <trkpt lat="43.64872" lon="1.37683">
        <ele>148</ele>
        <time>2023-05-31T06:22:48Z</time>
      </trkpt>
      <trkpt lat="43.64871" lon="1.37679">
        <ele>148</ele>
        <time>2023-05-31T06:22:49Z</time>
      </trkpt>
      <trkpt lat="43.64871" lon="1.37675">
        <ele>149</ele>
        <time>2023-05-31T06:22:50Z</time>
      </trkpt>
      <trkpt lat="43.6487" lon="1.37671">
        <ele>149</ele>
        <time>2023-05-31T06:22:51Z</time>
      </trkpt>
      <trkpt lat="43.6487" lon="1.37671">
        <ele>149</ele>
        <time>2023-05-31T06:22:52Z</time>
      </trkpt>
      <trkpt lat="43.64869" lon="1.37667">
        <ele>149</ele>
        <time>2023-05-31T06:22:53Z</time>
      </trkpt>
      <trkpt lat="43.64865" lon="1.37659">
        <ele>149</ele>
        <time>2023-05-31T06:22:54Z</time>
      </trkpt>
      <trkpt lat="43.64863" lon="1.37656">
        <ele>149</ele>
        <time>2023-05-31T06:22:55Z</time>
      </trkpt>
      <trkpt lat="43.64863" lon="1.37656">
        <ele>149</ele>
        <time>2023-05-31T06:22:56Z</time>
      </trkpt>
      <trkpt lat="43.64857" lon="1.37651">
        <ele>149</ele>
        <time>2023-05-31T06:22:57Z</time>
      </trkpt>
      <trkpt lat="43.64856" lon="1.3765">
        <ele>149</ele>
        <time>2023-05-31T06:22:58Z</time>
      </trkpt>
      <trkpt lat="43.64853" lon="1.37649">
        <ele>149</ele>
        <time>2023-05-31T06:22:59Z</time>
      </trkpt>
      <trkpt lat="43.64851" lon="1.37647">
        <ele>149</ele>
        <time>2023-05-31T06:23:00Z</time>
      </trkpt>
      <trkpt lat="43.64851" lon="1.37647">
        <ele>149</ele>
        <time>2023-05-31T06:23:01Z</time>
      </trkpt>
      <trkpt lat="43.64849" lon="1.37644">
        <ele>149</ele>
        <time>2023-05-31T06:23:02Z</time>
      </trkpt>
      <trkpt lat="43.64847" lon="1.37642">
        <ele>149</ele>
        <time>2023-05-31T06:23:03Z</time>
      </trkpt>
      <trkpt lat="43.64842" lon="1.37638">
        <ele>148</ele>
        <time>2023-05-31T06:23:04Z</time>
      </trkpt>
      <trkpt lat="43.64842" lon="1.37638">
        <ele>148</ele>
        <time>2023-05-31T06:23:05Z</time>
      </trkpt>
      <trkpt lat="43.64837" lon="1.37634">
        <ele>149</ele>
        <time>2023-05-31T06:23:06Z</time>
      </trkpt>
      <trkpt lat="43.64835" lon="1.37633">
        <ele>149</ele>
        <time>2023-05-31T06:23:07Z</time>
      </trkpt>
      <trkpt lat="43.64835" lon="1.37633">
        <ele>149</ele>
        <time>2023-05-31T06:23:08Z</time>
      </trkpt>
      <trkpt lat="43.64833" lon="1.37632">
        <ele>149</ele>
        <time>2023-05-31T06:23:09Z</time>
      </trkpt>
      <trkpt lat="43.64831" lon="1.37631">
        <ele>149</ele>
        <time>2023-05-31T06:23:10Z</time>
      </trkpt>
      <trkpt lat="43.64829" lon="1.3763">
        <ele>149</ele>
        <time>2023-05-31T06:23:11Z</time>
      </trkpt>
      <trkpt lat="43.64824" lon="1.37626">
        <ele>149</ele>
        <time>2023-05-31T06:23:12Z</time>
      </trkpt>
      <trkpt lat="43.64821" lon="1.37624">
        <ele>149</ele>
        <time>2023-05-31T06:23:13Z</time>
      </trkpt>
      <trkpt lat="43.64819" lon="1.37623">
        <ele>149</ele>
        <time>2023-05-31T06:23:14Z</time>
      </trkpt>
      <trkpt lat="43.64819" lon="1.37623">
        <ele>149</ele>
        <time>2023-05-31T06:23:15Z</time>
      </trkpt>
      <trkpt lat="43.64813" lon="1.37619">
        <ele>149</ele>
        <time>2023-05-31T06:23:16Z</time>
      </trkpt>
      <trkpt lat="43.64813" lon="1.37619">
        <ele>149</ele>
        <time>2023-05-31T06:23:17Z</time>
      </trkpt>
      <trkpt lat="43.64808" lon="1.37615">
        <ele>149</ele>
        <time>2023-05-31T06:23:18Z</time>
      </trkpt>
      <trkpt lat="43.64808" lon="1.37615">
        <ele>149</ele>
        <time>2023-05-31T06:23:19Z</time>
      </trkpt>
      <trkpt lat="43.64804" lon="1.37612">
        <ele>149</ele>
        <time>2023-05-31T06:23:20Z</time>
      </trkpt>
      <trkpt lat="43.64804" lon="1.37612">
        <ele>149</ele>
        <time>2023-05-31T06:23:21Z</time>
      </trkpt>
      <trkpt lat="43.64798" lon="1.37614">
        <ele>149</ele>
        <time>2023-05-31T06:23:22Z</time>
      </trkpt>
      <trkpt lat="43.64798" lon="1.37614">
        <ele>149</ele>
        <time>2023-05-31T06:23:23Z</time>
      </trkpt>
      <trkpt lat="43.64791" lon="1.37617">
        <ele>149</ele>
        <time>2023-05-31T06:23:24Z</time>
      </trkpt>
      <trkpt lat="43.64788" lon="1.37618">
        <ele>149</ele>
        <time>2023-05-31T06:23:25Z</time>
      </trkpt>
      <trkpt lat="43.64788" lon="1.37618">
        <ele>149</ele>
        <time>2023-05-31T06:23:26Z</time>
      </trkpt>
      <trkpt lat="43.64782" lon="1.37621">
        <ele>149</ele>
        <time>2023-05-31T06:23:27Z</time>
      </trkpt>
      <trkpt lat="43.64782" lon="1.37621">
        <ele>149</ele>
        <time>2023-05-31T06:23:28Z</time>
      </trkpt>
      <trkpt lat="43.64774" lon="1.37623">
        <ele>149</ele>
        <time>2023-05-31T06:23:29Z</time>
      </trkpt>
      <trkpt lat="43.64772" lon="1.37623">
        <ele>149</ele>
        <time>2023-05-31T06:23:30Z</time>
      </trkpt>
      <trkpt lat="43.64769" lon="1.37623">
        <ele>149</ele>
        <time>2023-05-31T06:23:31Z</time>
      </trkpt>
      <trkpt lat="43.64765" lon="1.37624">
        <ele>149</ele>
        <time>2023-05-31T06:23:32Z</time>
      </trkpt>
      <trkpt lat="43.64761" lon="1.37626">
        <ele>149</ele>
        <time>2023-05-31T06:23:33Z</time>
      </trkpt>
      <trkpt lat="43.64761" lon="1.37626">
        <ele>149</ele>
        <time>2023-05-31T06:23:34Z</time>
      </trkpt>
      <trkpt lat="43.64756" lon="1.37628">
        <ele>149</ele>
        <time>2023-05-31T06:23:35Z</time>
      </trkpt>
      <trkpt lat="43.64753" lon="1.37629">
        <ele>149</ele>
        <time>2023-05-31T06:23:36Z</time>
      </trkpt>
      <trkpt lat="43.6475" lon="1.3763">
        <ele>149</ele>
        <time>2023-05-31T06:23:37Z</time>
      </trkpt>
      <trkpt lat="43.64747" lon="1.37631">
        <ele>149</ele>
        <time>2023-05-31T06:23:38Z</time>
      </trkpt>
      <trkpt lat="43.64747" lon="1.37631">
        <ele>149</ele>
        <time>2023-05-31T06:23:39Z</time>
      </trkpt>
      <trkpt lat="43.64744" lon="1.37632">
        <ele>149</ele>
        <time>2023-05-31T06:23:40Z</time>
      </trkpt>
      <trkpt lat="43.64739" lon="1.37635">
        <ele>149</ele>
        <time>2023-05-31T06:23:41Z</time>
      </trkpt>
      <trkpt lat="43.64736" lon="1.37636">
        <ele>149</ele>
        <time>2023-05-31T06:23:42Z</time>
      </trkpt>
      <trkpt lat="43.64736" lon="1.37636">
        <ele>149</ele>
        <time>2023-05-31T06:23:43Z</time>
      </trkpt>
      <trkpt lat="43.6473" lon="1.37638">
        <ele>149</ele>
        <time>2023-05-31T06:23:44Z</time>
      </trkpt>
      <trkpt lat="43.6473" lon="1.37638">
        <ele>148</ele>
        <time>2023-05-31T06:23:45Z</time>
      </trkpt>
      <trkpt lat="43.64723" lon="1.37641">
        <ele>148</ele>
        <time>2023-05-31T06:23:46Z</time>
      </trkpt>
      <trkpt lat="43.64723" lon="1.37641">
        <ele>148</ele>
        <time>2023-05-31T06:23:47Z</time>
      </trkpt>
      <trkpt lat="43.64716" lon="1.37643">
        <ele>148</ele>
        <time>2023-05-31T06:23:48Z</time>
      </trkpt>
      <trkpt lat="43.64714" lon="1.37644">
        <ele>148</ele>
        <time>2023-05-31T06:23:49Z</time>
      </trkpt>
      <trkpt lat="43.64714" lon="1.37644">
        <ele>148</ele>
        <time>2023-05-31T06:23:50Z</time>
      </trkpt>
      <trkpt lat="43.64709" lon="1.37646">
        <ele>148</ele>
        <time>2023-05-31T06:23:51Z</time>
      </trkpt>
      <trkpt lat="43.64707" lon="1.37647">
        <ele>149</ele>
        <time>2023-05-31T06:23:52Z</time>
      </trkpt>
      <trkpt lat="43.64707" lon="1.37647">
        <ele>149</ele>
        <time>2023-05-31T06:23:53Z</time>
      </trkpt>
      <trkpt lat="43.64704" lon="1.37648">
        <ele>149</ele>
        <time>2023-05-31T06:23:54Z</time>
      </trkpt>
      <trkpt lat="43.64702" lon="1.37649">
        <ele>148</ele>
        <time>2023-05-31T06:23:55Z</time>
      </trkpt>
      <trkpt lat="43.64697" lon="1.37651">
        <ele>148</ele>
        <time>2023-05-31T06:23:56Z</time>
      </trkpt>
      <trkpt lat="43.64694" lon="1.37652">
        <ele>148</ele>
        <time>2023-05-31T06:23:57Z</time>
      </trkpt>
      <trkpt lat="43.64691" lon="1.37653">
        <ele>148</ele>
        <time>2023-05-31T06:23:58Z</time>
      </trkpt>
      <trkpt lat="43.64691" lon="1.37653">
        <ele>148</ele>
        <time>2023-05-31T06:23:59Z</time>
      </trkpt>
      <trkpt lat="43.64688" lon="1.37654">
        <ele>148</ele>
        <time>2023-05-31T06:24:00Z</time>
      </trkpt>
      <trkpt lat="43.64685" lon="1.37655">
        <ele>148</ele>
        <time>2023-05-31T06:24:01Z</time>
      </trkpt>
      <trkpt lat="43.6468" lon="1.37657">
        <ele>148</ele>
        <time>2023-05-31T06:24:02Z</time>
      </trkpt>
      <trkpt lat="43.64678" lon="1.37658">
        <ele>148</ele>
        <time>2023-05-31T06:24:03Z</time>
      </trkpt>
      <trkpt lat="43.64675" lon="1.37658">
        <ele>148</ele>
        <time>2023-05-31T06:24:04Z</time>
      </trkpt>
      <trkpt lat="43.64673" lon="1.37659">
        <ele>148</ele>
        <time>2023-05-31T06:24:05Z</time>
      </trkpt>
      <trkpt lat="43.64673" lon="1.37659">
        <ele>148</ele>
        <time>2023-05-31T06:24:06Z</time>
      </trkpt>
      <trkpt lat="43.6467" lon="1.37659">
        <ele>148</ele>
        <time>2023-05-31T06:24:07Z</time>
      </trkpt>
      <trkpt lat="43.6467" lon="1.37659">
        <ele>148</ele>
        <time>2023-05-31T06:24:08Z</time>
      </trkpt>
      <trkpt lat="43.64664" lon="1.37659">
        <ele>148</ele>
        <time>2023-05-31T06:24:09Z</time>
      </trkpt>
      <trkpt lat="43.64664" lon="1.37659">
        <ele>148</ele>
        <time>2023-05-31T06:24:10Z</time>
      </trkpt>
      <trkpt lat="43.64657" lon="1.37661">
        <ele>148</ele>
        <time>2023-05-31T06:24:11Z</time>
      </trkpt>
      <trkpt lat="43.64656" lon="1.37661">
        <ele>148</ele>
        <time>2023-05-31T06:24:12Z</time>
      </trkpt>
      <trkpt lat="43.64652" lon="1.37662">
        <ele>148</ele>
        <time>2023-05-31T06:24:13Z</time>
      </trkpt>
      <trkpt lat="43.64649" lon="1.37665">
        <ele>148</ele>
        <time>2023-05-31T06:24:14Z</time>
      </trkpt>
      <trkpt lat="43.64649" lon="1.37665">
        <ele>148</ele>
        <time>2023-05-31T06:24:15Z</time>
      </trkpt>
      <trkpt lat="43.64639" lon="1.3767">
        <ele>148</ele>
        <time>2023-05-31T06:24:16Z</time>
      </trkpt>
      <trkpt lat="43.64638" lon="1.37671">
        <ele>148</ele>
        <time>2023-05-31T06:24:17Z</time>
      </trkpt>
      <trkpt lat="43.64634" lon="1.37674">
        <ele>148</ele>
        <time>2023-05-31T06:24:18Z</time>
      </trkpt>
      <trkpt lat="43.64634" lon="1.37674">
        <ele>148</ele>
        <time>2023-05-31T06:24:19Z</time>
      </trkpt>
      <trkpt lat="43.6463" lon="1.37676">
        <ele>148</ele>
        <time>2023-05-31T06:24:20Z</time>
      </trkpt>
      <trkpt lat="43.64627" lon="1.37678">
        <ele>148</ele>
        <time>2023-05-31T06:24:21Z</time>
      </trkpt>
      <trkpt lat="43.64623" lon="1.3768">
        <ele>148</ele>
        <time>2023-05-31T06:24:22Z</time>
      </trkpt>
      <trkpt lat="43.64617" lon="1.37683">
        <ele>148</ele>
        <time>2023-05-31T06:24:23Z</time>
      </trkpt>
      <trkpt lat="43.64617" lon="1.37683">
        <ele>148</ele>
        <time>2023-05-31T06:24:24Z</time>
      </trkpt>
      <trkpt lat="43.64611" lon="1.37684">
        <ele>148</ele>
        <time>2023-05-31T06:24:25Z</time>
      </trkpt>
      <trkpt lat="43.6461" lon="1.37684">
        <ele>148</ele>
        <time>2023-05-31T06:24:26Z</time>
      </trkpt>
      <trkpt lat="43.6461" lon="1.37684">
        <ele>148</ele>
        <time>2023-05-31T06:24:27Z</time>
      </trkpt>
      <trkpt lat="43.64608" lon="1.37684">
        <ele>148</ele>
        <time>2023-05-31T06:24:28Z</time>
      </trkpt>
      <trkpt lat="43.64606" lon="1.37684">
        <ele>149</ele>
        <time>2023-05-31T06:24:29Z</time>
      </trkpt>
      <trkpt lat="43.646" lon="1.37683">
        <ele>149</ele>
        <time>2023-05-31T06:24:30Z</time>
      </trkpt>
      <trkpt lat="43.646" lon="1.37683">
        <ele>149</ele>
        <time>2023-05-31T06:24:31Z</time>
      </trkpt>
      <trkpt lat="43.64597" lon="1.37682">
        <ele>149</ele>
        <time>2023-05-31T06:24:32Z</time>
      </trkpt>
      <trkpt lat="43.64595" lon="1.37682">
        <ele>148</ele>
        <time>2023-05-31T06:24:33Z</time>
      </trkpt>
      <trkpt lat="43.6459" lon="1.3768">
        <ele>147</ele>
        <time>2023-05-31T06:24:34Z</time>
      </trkpt>
      <trkpt lat="43.6459" lon="1.3768">
        <ele>148</ele>
        <time>2023-05-31T06:24:35Z</time>
      </trkpt>
      <trkpt lat="43.64584" lon="1.37678">
        <ele>148</ele>
        <time>2023-05-31T06:24:36Z</time>
      </trkpt>
      <trkpt lat="43.64584" lon="1.37678">
        <ele>148</ele>
        <time>2023-05-31T06:24:37Z</time>
      </trkpt>
      <trkpt lat="43.64578" lon="1.37675">
        <ele>148</ele>
        <time>2023-05-31T06:24:38Z</time>
      </trkpt>
      <trkpt lat="43.64578" lon="1.37675">
        <ele>148</ele>
        <time>2023-05-31T06:24:39Z</time>
      </trkpt>
      <trkpt lat="43.64574" lon="1.37673">
        <ele>148</ele>
        <time>2023-05-31T06:24:40Z</time>
      </trkpt>
      <trkpt lat="43.64571" lon="1.37672">
        <ele>148</ele>
        <time>2023-05-31T06:24:41Z</time>
      </trkpt>
      <trkpt lat="43.64567" lon="1.37671">
        <ele>148</ele>
        <time>2023-05-31T06:24:42Z</time>
      </trkpt>
      <trkpt lat="43.6456" lon="1.37668">
        <ele>148</ele>
        <time>2023-05-31T06:24:43Z</time>
      </trkpt>
      <trkpt lat="43.64556" lon="1.37666">
        <ele>148</ele>
        <time>2023-05-31T06:24:44Z</time>
      </trkpt>
      <trkpt lat="43.64553" lon="1.37665">
        <ele>148</ele>
        <time>2023-05-31T06:24:45Z</time>
      </trkpt>
      <trkpt lat="43.6455" lon="1.37663">
        <ele>148</ele>
        <time>2023-05-31T06:24:46Z</time>
      </trkpt>
      <trkpt lat="43.64546" lon="1.37663">
        <ele>148</ele>
        <time>2023-05-31T06:24:47Z</time>
      </trkpt>
      <trkpt lat="43.64546" lon="1.37663">
        <ele>148</ele>
        <time>2023-05-31T06:24:48Z</time>
      </trkpt>
      <trkpt lat="43.6454" lon="1.37663">
        <ele>148</ele>
        <time>2023-05-31T06:24:49Z</time>
      </trkpt>
      <trkpt lat="43.6454" lon="1.37663">
        <ele>148</ele>
        <time>2023-05-31T06:24:50Z</time>
      </trkpt>
      <trkpt lat="43.64532" lon="1.37665">
        <ele>148</ele>
        <time>2023-05-31T06:24:51Z</time>
      </trkpt>
      <trkpt lat="43.64532" lon="1.37665">
        <ele>148</ele>
        <time>2023-05-31T06:24:52Z</time>
      </trkpt>
      <trkpt lat="43.64526" lon="1.37671">
        <ele>148</ele>
        <time>2023-05-31T06:24:53Z</time>
      </trkpt>
      <trkpt lat="43.64526" lon="1.37671">
        <ele>149</ele>
        <time>2023-05-31T06:24:54Z</time>
      </trkpt>
      <trkpt lat="43.64521" lon="1.3768">
        <ele>149</ele>
        <time>2023-05-31T06:24:55Z</time>
      </trkpt>
      <trkpt lat="43.6452" lon="1.37682">
        <ele>149</ele>
        <time>2023-05-31T06:24:56Z</time>
      </trkpt>
      <trkpt lat="43.6452" lon="1.37682">
        <ele>149</ele>
        <time>2023-05-31T06:24:57Z</time>
      </trkpt>
      <trkpt lat="43.64516" lon="1.37691">
        <ele>149</ele>
        <time>2023-05-31T06:24:58Z</time>
      </trkpt>
      <trkpt lat="43.64515" lon="1.37693">
        <ele>149</ele>
        <time>2023-05-31T06:24:59Z</time>
      </trkpt>
      <trkpt lat="43.64514" lon="1.37697">
        <ele>149</ele>
        <time>2023-05-31T06:25:00Z</time>
      </trkpt>
      <trkpt lat="43.64512" lon="1.37701">
        <ele>149</ele>
        <time>2023-05-31T06:25:01Z</time>
      </trkpt>
      <trkpt lat="43.6451" lon="1.37704">
        <ele>149</ele>
        <time>2023-05-31T06:25:02Z</time>
      </trkpt>
      <trkpt lat="43.6451" lon="1.37704">
        <ele>149</ele>
        <time>2023-05-31T06:25:03Z</time>
      </trkpt>
      <trkpt lat="43.64508" lon="1.37708">
        <ele>149</ele>
        <time>2023-05-31T06:25:04Z</time>
      </trkpt>
      <trkpt lat="43.64507" lon="1.37712">
        <ele>149</ele>
        <time>2023-05-31T06:25:05Z</time>
      </trkpt>
      <trkpt lat="43.64504" lon="1.3772">
        <ele>149</ele>
        <time>2023-05-31T06:25:06Z</time>
      </trkpt>
      <trkpt lat="43.64502" lon="1.37724">
        <ele>149</ele>
        <time>2023-05-31T06:25:07Z</time>
      </trkpt>
      <trkpt lat="43.64501" lon="1.37728">
        <ele>149</ele>
        <time>2023-05-31T06:25:08Z</time>
      </trkpt>
      <trkpt lat="43.64501" lon="1.37728">
        <ele>149</ele>
        <time>2023-05-31T06:25:09Z</time>
      </trkpt>
      <trkpt lat="43.64497" lon="1.37735">
        <ele>149</ele>
        <time>2023-05-31T06:25:10Z</time>
      </trkpt>
      <trkpt lat="43.64497" lon="1.37735">
        <ele>149</ele>
        <time>2023-05-31T06:25:11Z</time>
      </trkpt>
      <trkpt lat="43.64495" lon="1.37742">
        <ele>149</ele>
        <time>2023-05-31T06:25:12Z</time>
      </trkpt>
      <trkpt lat="43.64495" lon="1.37742">
        <ele>149</ele>
        <time>2023-05-31T06:25:13Z</time>
      </trkpt>
      <trkpt lat="43.64493" lon="1.37745">
        <ele>149</ele>
        <time>2023-05-31T06:25:14Z</time>
      </trkpt>
      <trkpt lat="43.64491" lon="1.37753">
        <ele>149</ele>
        <time>2023-05-31T06:25:15Z</time>
      </trkpt>
      <trkpt lat="43.64491" lon="1.37753">
        <ele>148</ele>
        <time>2023-05-31T06:25:16Z</time>
      </trkpt>
      <trkpt lat="43.64488" lon="1.37762">
        <ele>148</ele>
        <time>2023-05-31T06:25:17Z</time>
      </trkpt>
      <trkpt lat="43.64487" lon="1.37764">
        <ele>148</ele>
        <time>2023-05-31T06:25:18Z</time>
      </trkpt>
      <trkpt lat="43.64486" lon="1.37767">
        <ele>148</ele>
        <time>2023-05-31T06:25:19Z</time>
      </trkpt>
      <trkpt lat="43.64486" lon="1.37767">
        <ele>148</ele>
        <time>2023-05-31T06:25:20Z</time>
      </trkpt>
      <trkpt lat="43.64484" lon="1.37772">
        <ele>148</ele>
        <time>2023-05-31T06:25:21Z</time>
      </trkpt>
      <trkpt lat="43.64483" lon="1.37776">
        <ele>148</ele>
        <time>2023-05-31T06:25:22Z</time>
      </trkpt>
      <trkpt lat="43.64481" lon="1.37786">
        <ele>148</ele>
        <time>2023-05-31T06:25:23Z</time>
      </trkpt>
      <trkpt lat="43.6448" lon="1.37791">
        <ele>148</ele>
        <time>2023-05-31T06:25:24Z</time>
      </trkpt>
      <trkpt lat="43.64478" lon="1.37796">
        <ele>148</ele>
        <time>2023-05-31T06:25:25Z</time>
      </trkpt>
      <trkpt lat="43.64476" lon="1.378">
        <ele>148</ele>
        <time>2023-05-31T06:25:26Z</time>
      </trkpt>
      <trkpt lat="43.64473" lon="1.37805">
        <ele>148</ele>
        <time>2023-05-31T06:25:27Z</time>
      </trkpt>
      <trkpt lat="43.64473" lon="1.37805">
        <ele>148</ele>
        <time>2023-05-31T06:25:28Z</time>
      </trkpt>
      <trkpt lat="43.64469" lon="1.37817">
        <ele>148</ele>
        <time>2023-05-31T06:25:29Z</time>
      </trkpt>
      <trkpt lat="43.64468" lon="1.37819">
        <ele>148</ele>
        <time>2023-05-31T06:25:30Z</time>
      </trkpt>
      <trkpt lat="43.64468" lon="1.37819">
        <ele>148</ele>
        <time>2023-05-31T06:25:31Z</time>
      </trkpt>
      <trkpt lat="43.64466" lon="1.37829">
        <ele>148</ele>
        <time>2023-05-31T06:25:32Z</time>
      </trkpt>
      <trkpt lat="43.64466" lon="1.37829">
        <ele>148</ele>
        <time>2023-05-31T06:25:33Z</time>
      </trkpt>
      <trkpt lat="43.64463" lon="1.37838">
        <ele>148</ele>
        <time>2023-05-31T06:25:34Z</time>
      </trkpt>
      <trkpt lat="43.64463" lon="1.37838">
        <ele>149</ele>
        <time>2023-05-31T06:25:35Z</time>
      </trkpt>
      <trkpt lat="43.64458" lon="1.37849">
        <ele>149</ele>
        <time>2023-05-31T06:25:36Z</time>
      </trkpt>
      <trkpt lat="43.64457" lon="1.37851">
        <ele>149</ele>
        <time>2023-05-31T06:25:37Z</time>
      </trkpt>
      <trkpt lat="43.64456" lon="1.37855">
        <ele>149</ele>
        <time>2023-05-31T06:25:38Z</time>
      </trkpt>
      <trkpt lat="43.64456" lon="1.37855">
        <ele>149</ele>
        <time>2023-05-31T06:25:39Z</time>
      </trkpt>
      <trkpt lat="43.64454" lon="1.37859">
        <ele>149</ele>
        <time>2023-05-31T06:25:40Z</time>
      </trkpt>
      <trkpt lat="43.64453" lon="1.37863">
        <ele>149</ele>
        <time>2023-05-31T06:25:41Z</time>
      </trkpt>
      <trkpt lat="43.64452" lon="1.37868">
        <ele>149</ele>
        <time>2023-05-31T06:25:42Z</time>
      </trkpt>
      <trkpt lat="43.6445" lon="1.37876">
        <ele>149</ele>
        <time>2023-05-31T06:25:43Z</time>
      </trkpt>
      <trkpt lat="43.64449" lon="1.3788">
        <ele>149</ele>
        <time>2023-05-31T06:25:44Z</time>
      </trkpt>
      <trkpt lat="43.64449" lon="1.3788">
        <ele>149</ele>
        <time>2023-05-31T06:25:45Z</time>
      </trkpt>
      <trkpt lat="43.64447" lon="1.37888">
        <ele>149</ele>
        <time>2023-05-31T06:25:46Z</time>
      </trkpt>
      <trkpt lat="43.64447" lon="1.37888">
        <ele>149</ele>
        <time>2023-05-31T06:25:47Z</time>
      </trkpt>
      <trkpt lat="43.64443" lon="1.37897">
        <ele>149</ele>
        <time>2023-05-31T06:25:48Z</time>
      </trkpt>
      <trkpt lat="43.64442" lon="1.379">
        <ele>148</ele>
        <time>2023-05-31T06:25:49Z</time>
      </trkpt>
      <trkpt lat="43.64441" lon="1.37903">
        <ele>148</ele>
        <time>2023-05-31T06:25:50Z</time>
      </trkpt>
      <trkpt lat="43.64439" lon="1.37908">
        <ele>148</ele>
        <time>2023-05-31T06:25:51Z</time>
      </trkpt>
      <trkpt lat="43.64439" lon="1.37908">
        <ele>148</ele>
        <time>2023-05-31T06:25:52Z</time>
      </trkpt>
      <trkpt lat="43.64438" lon="1.37911">
        <ele>148</ele>
        <time>2023-05-31T06:25:53Z</time>
      </trkpt>
      <trkpt lat="43.64436" lon="1.37915">
        <ele>148</ele>
        <time>2023-05-31T06:25:54Z</time>
      </trkpt>
      <trkpt lat="43.64434" lon="1.37923">
        <ele>148</ele>
        <time>2023-05-31T06:25:55Z</time>
      </trkpt>
      <trkpt lat="43.64433" lon="1.37927">
        <ele>148</ele>
        <time>2023-05-31T06:25:56Z</time>
      </trkpt>
      <trkpt lat="43.64432" lon="1.3793">
        <ele>147</ele>
        <time>2023-05-31T06:25:57Z</time>
      </trkpt>
      <trkpt lat="43.64431" lon="1.37934">
        <ele>147</ele>
        <time>2023-05-31T06:25:58Z</time>
      </trkpt>
      <trkpt lat="43.64431" lon="1.37934">
        <ele>147</ele>
        <time>2023-05-31T06:25:59Z</time>
      </trkpt>
      <trkpt lat="43.64429" lon="1.37943">
        <ele>147</ele>
        <time>2023-05-31T06:26:00Z</time>
      </trkpt>
      <trkpt lat="43.64429" lon="1.37943">
        <ele>147</ele>
        <time>2023-05-31T06:26:01Z</time>
      </trkpt>
      <trkpt lat="43.64425" lon="1.37955">
        <ele>147</ele>
        <time>2023-05-31T06:26:02Z</time>
      </trkpt>
      <trkpt lat="43.64424" lon="1.37957">
        <ele>147</ele>
        <time>2023-05-31T06:26:03Z</time>
      </trkpt>
      <trkpt lat="43.64423" lon="1.37961">
        <ele>147</ele>
        <time>2023-05-31T06:26:04Z</time>
      </trkpt>
      <trkpt lat="43.64421" lon="1.37965">
        <ele>147</ele>
        <time>2023-05-31T06:26:05Z</time>
      </trkpt>
      <trkpt lat="43.64421" lon="1.37965">
        <ele>147</ele>
        <time>2023-05-31T06:26:06Z</time>
      </trkpt>
      <trkpt lat="43.64417" lon="1.37973">
        <ele>147</ele>
        <time>2023-05-31T06:26:07Z</time>
      </trkpt>
      <trkpt lat="43.64417" lon="1.37973">
        <ele>147</ele>
        <time>2023-05-31T06:26:08Z</time>
      </trkpt>
      <trkpt lat="43.64414" lon="1.37982">
        <ele>147</ele>
        <time>2023-05-31T06:26:09Z</time>
      </trkpt>
      <trkpt lat="43.64414" lon="1.37982">
        <ele>147</ele>
        <time>2023-05-31T06:26:10Z</time>
      </trkpt>
      <trkpt lat="43.64413" lon="1.37992">
        <ele>148</ele>
        <time>2023-05-31T06:26:11Z</time>
      </trkpt>
      <trkpt lat="43.64413" lon="1.37994">
        <ele>148</ele>
        <time>2023-05-31T06:26:12Z</time>
      </trkpt>
      <trkpt lat="43.64413" lon="1.37994">
        <ele>148</ele>
        <time>2023-05-31T06:26:13Z</time>
      </trkpt>
      <trkpt lat="43.6441" lon="1.38003">
        <ele>148</ele>
        <time>2023-05-31T06:26:14Z</time>
      </trkpt>
      <trkpt lat="43.64409" lon="1.38007">
        <ele>148</ele>
        <time>2023-05-31T06:26:15Z</time>
      </trkpt>
      <trkpt lat="43.64409" lon="1.38011">
        <ele>148</ele>
        <time>2023-05-31T06:26:16Z</time>
      </trkpt>
      <trkpt lat="43.64407" lon="1.38015">
        <ele>148</ele>
        <time>2023-05-31T06:26:17Z</time>
      </trkpt>
      <trkpt lat="43.64407" lon="1.38015">
        <ele>148</ele>
        <time>2023-05-31T06:26:18Z</time>
      </trkpt>
      <trkpt lat="43.64403" lon="1.3802">
        <ele>148</ele>
        <time>2023-05-31T06:26:19Z</time>
      </trkpt>
      <trkpt lat="43.64403" lon="1.3802">
        <ele>149</ele>
        <time>2023-05-31T06:26:20Z</time>
      </trkpt>
      <trkpt lat="43.64403" lon="1.3802">
        <ele>149</ele>
        <time>2023-05-31T06:26:21Z</time>
      </trkpt>
      <trkpt lat="43.64404" lon="1.38016">
        <ele>148</ele>
        <time>2023-05-31T06:26:22Z</time>
      </trkpt>
      <trkpt lat="43.64404" lon="1.38012">
        <ele>148</ele>
        <time>2023-05-31T06:26:23Z</time>
      </trkpt>
      <trkpt lat="43.64405" lon="1.38008">
        <ele>148</ele>
        <time>2023-05-31T06:26:24Z</time>
      </trkpt>
      <trkpt lat="43.64405" lon="1.38008">
        <ele>148</ele>
        <time>2023-05-31T06:26:25Z</time>
      </trkpt>
      <trkpt lat="43.64406" lon="1.38003">
        <ele>148</ele>
        <time>2023-05-31T06:26:26Z</time>
      </trkpt>
      <trkpt lat="43.64407" lon="1.37999">
        <ele>148</ele>
        <time>2023-05-31T06:26:27Z</time>
      </trkpt>
      <trkpt lat="43.64408" lon="1.3799">
        <ele>148</ele>
        <time>2023-05-31T06:26:28Z</time>
      </trkpt>
      <trkpt lat="43.64409" lon="1.37986">
        <ele>148</ele>
        <time>2023-05-31T06:26:29Z</time>
      </trkpt>
      <trkpt lat="43.6441" lon="1.37981">
        <ele>149</ele>
        <time>2023-05-31T06:26:30Z</time>
      </trkpt>
      <trkpt lat="43.6441" lon="1.37981">
        <ele>149</ele>
        <time>2023-05-31T06:26:31Z</time>
      </trkpt>
      <trkpt lat="43.64411" lon="1.37976">
        <ele>148</ele>
        <time>2023-05-31T06:26:32Z</time>
      </trkpt>
      <trkpt lat="43.64413" lon="1.37967">
        <ele>148</ele>
        <time>2023-05-31T06:26:33Z</time>
      </trkpt>
      <trkpt lat="43.64414" lon="1.37963">
        <ele>148</ele>
        <time>2023-05-31T06:26:34Z</time>
      </trkpt>
      <trkpt lat="43.64416" lon="1.37958">
        <ele>148</ele>
        <time>2023-05-31T06:26:35Z</time>
      </trkpt>
      <trkpt lat="43.64416" lon="1.37958">
        <ele>147</ele>
        <time>2023-05-31T06:26:36Z</time>
      </trkpt>
      <trkpt lat="43.64419" lon="1.37948">
        <ele>147</ele>
        <time>2023-05-31T06:26:37Z</time>
      </trkpt>
      <trkpt lat="43.6442" lon="1.37946">
        <ele>148</ele>
        <time>2023-05-31T06:26:38Z</time>
      </trkpt>
      <trkpt lat="43.6442" lon="1.37946">
        <ele>148</ele>
        <time>2023-05-31T06:26:39Z</time>
      </trkpt>
      <trkpt lat="43.64422" lon="1.37939">
        <ele>148</ele>
        <time>2023-05-31T06:26:40Z</time>
      </trkpt>
      <trkpt lat="43.64422" lon="1.37939">
        <ele>148</ele>
        <time>2023-05-31T06:26:41Z</time>
      </trkpt>
      <trkpt lat="43.64426" lon="1.3793">
        <ele>148</ele>
        <time>2023-05-31T06:26:42Z</time>
      </trkpt>
      <trkpt lat="43.64426" lon="1.37928">
        <ele>148</ele>
        <time>2023-05-31T06:26:43Z</time>
      </trkpt>
      <trkpt lat="43.64426" lon="1.37928">
        <ele>148</ele>
        <time>2023-05-31T06:26:44Z</time>
      </trkpt>
      <trkpt lat="43.64428" lon="1.37924">
        <ele>148</ele>
        <time>2023-05-31T06:26:45Z</time>
      </trkpt>
      <trkpt lat="43.64429" lon="1.3792">
        <ele>148</ele>
        <time>2023-05-31T06:26:46Z</time>
      </trkpt>
      <trkpt lat="43.64432" lon="1.37912">
        <ele>148</ele>
        <time>2023-05-31T06:26:47Z</time>
      </trkpt>
      <trkpt lat="43.64433" lon="1.37909">
        <ele>148</ele>
        <time>2023-05-31T06:26:48Z</time>
      </trkpt>
      <trkpt lat="43.64433" lon="1.37909">
        <ele>148</ele>
        <time>2023-05-31T06:26:49Z</time>
      </trkpt>
      <trkpt lat="43.64438" lon="1.379">
        <ele>148</ele>
        <time>2023-05-31T06:26:50Z</time>
      </trkpt>
      <trkpt lat="43.64439" lon="1.37898">
        <ele>148</ele>
        <time>2023-05-31T06:26:51Z</time>
      </trkpt>
      <trkpt lat="43.6444" lon="1.37895">
        <ele>148</ele>
        <time>2023-05-31T06:26:52Z</time>
      </trkpt>
      <trkpt lat="43.64441" lon="1.3789">
        <ele>148</ele>
        <time>2023-05-31T06:26:53Z</time>
      </trkpt>
      <trkpt lat="43.64443" lon="1.37886">
        <ele>149</ele>
        <time>2023-05-31T06:26:54Z</time>
      </trkpt>
      <trkpt lat="43.64443" lon="1.37886">
        <ele>149</ele>
        <time>2023-05-31T06:26:55Z</time>
      </trkpt>
      <trkpt lat="43.64444" lon="1.37882">
        <ele>148</ele>
        <time>2023-05-31T06:26:56Z</time>
      </trkpt>
      <trkpt lat="43.64446" lon="1.37874">
        <ele>148</ele>
        <time>2023-05-31T06:26:57Z</time>
      </trkpt>
      <trkpt lat="43.64446" lon="1.37874">
        <ele>148</ele>
        <time>2023-05-31T06:26:58Z</time>
      </trkpt>
      <trkpt lat="43.64448" lon="1.37866">
        <ele>148</ele>
        <time>2023-05-31T06:26:59Z</time>
      </trkpt>
      <trkpt lat="43.64448" lon="1.37866">
        <ele>148</ele>
        <time>2023-05-31T06:27:00Z</time>
      </trkpt>
      <trkpt lat="43.64449" lon="1.37862">
        <ele>148</ele>
        <time>2023-05-31T06:27:01Z</time>
      </trkpt>
      <trkpt lat="43.64451" lon="1.37853">
        <ele>148</ele>
        <time>2023-05-31T06:27:02Z</time>
      </trkpt>
      <trkpt lat="43.64451" lon="1.37853">
        <ele>148</ele>
        <time>2023-05-31T06:27:03Z</time>
      </trkpt>
      <trkpt lat="43.64454" lon="1.37842">
        <ele>148</ele>
        <time>2023-05-31T06:27:04Z</time>
      </trkpt>
      <trkpt lat="43.64455" lon="1.3784">
        <ele>149</ele>
        <time>2023-05-31T06:27:05Z</time>
      </trkpt>
      <trkpt lat="43.64455" lon="1.3784">
        <ele>149</ele>
        <time>2023-05-31T06:27:06Z</time>
      </trkpt>
      <trkpt lat="43.64456" lon="1.37836">
        <ele>149</ele>
        <time>2023-05-31T06:27:07Z</time>
      </trkpt>
      <trkpt lat="43.64457" lon="1.37832">
        <ele>148</ele>
        <time>2023-05-31T06:27:08Z</time>
      </trkpt>
      <trkpt lat="43.64459" lon="1.37828">
        <ele>148</ele>
        <time>2023-05-31T06:27:09Z</time>
      </trkpt>
      <trkpt lat="43.64461" lon="1.37821">
        <ele>148</ele>
        <time>2023-05-31T06:27:10Z</time>
      </trkpt>
      <trkpt lat="43.64463" lon="1.37816">
        <ele>148</ele>
        <time>2023-05-31T06:27:11Z</time>
      </trkpt>
      <trkpt lat="43.64465" lon="1.37812">
        <ele>149</ele>
        <time>2023-05-31T06:27:12Z</time>
      </trkpt>
      <trkpt lat="43.64465" lon="1.37812">
        <ele>149</ele>
        <time>2023-05-31T06:27:13Z</time>
      </trkpt>
      <trkpt lat="43.64466" lon="1.37808">
        <ele>149</ele>
        <time>2023-05-31T06:27:14Z</time>
      </trkpt>
      <trkpt lat="43.64467" lon="1.37803">
        <ele>149</ele>
        <time>2023-05-31T06:27:15Z</time>
      </trkpt>
      <trkpt lat="43.64469" lon="1.37799">
        <ele>149</ele>
        <time>2023-05-31T06:27:16Z</time>
      </trkpt>
      <trkpt lat="43.64471" lon="1.37791">
        <ele>149</ele>
        <time>2023-05-31T06:27:17Z</time>
      </trkpt>
      <trkpt lat="43.64472" lon="1.37786">
        <ele>149</ele>
        <time>2023-05-31T06:27:18Z</time>
      </trkpt>
      <trkpt lat="43.64472" lon="1.37782">
        <ele>149</ele>
        <time>2023-05-31T06:27:19Z</time>
      </trkpt>
      <trkpt lat="43.64473" lon="1.37778">
        <ele>149</ele>
        <time>2023-05-31T06:27:20Z</time>
      </trkpt>
      <trkpt lat="43.64474" lon="1.37775">
        <ele>149</ele>
        <time>2023-05-31T06:27:21Z</time>
      </trkpt>
      <trkpt lat="43.64474" lon="1.37775">
        <ele>148</ele>
        <time>2023-05-31T06:27:22Z</time>
      </trkpt>
      <trkpt lat="43.64477" lon="1.37768">
        <ele>148</ele>
        <time>2023-05-31T06:27:23Z</time>
      </trkpt>
      <trkpt lat="43.64477" lon="1.37768">
        <ele>148</ele>
        <time>2023-05-31T06:27:24Z</time>
      </trkpt>
      <trkpt lat="43.64478" lon="1.37761">
        <ele>148</ele>
        <time>2023-05-31T06:27:25Z</time>
      </trkpt>
      <trkpt lat="43.64478" lon="1.37761">
        <ele>148</ele>
        <time>2023-05-31T06:27:26Z</time>
      </trkpt>
      <trkpt lat="43.64481" lon="1.37751">
        <ele>148</ele>
        <time>2023-05-31T06:27:27Z</time>
      </trkpt>
      <trkpt lat="43.64482" lon="1.37749">
        <ele>148</ele>
        <time>2023-05-31T06:27:28Z</time>
      </trkpt>
      <trkpt lat="43.64482" lon="1.37749">
        <ele>148</ele>
        <time>2023-05-31T06:27:29Z</time>
      </trkpt>
      <trkpt lat="43.64484" lon="1.37742">
        <ele>149</ele>
        <time>2023-05-31T06:27:30Z</time>
      </trkpt>
      <trkpt lat="43.64485" lon="1.37739">
        <ele>149</ele>
        <time>2023-05-31T06:27:31Z</time>
      </trkpt>
      <trkpt lat="43.64486" lon="1.37735">
        <ele>149</ele>
        <time>2023-05-31T06:27:32Z</time>
      </trkpt>
      <trkpt lat="43.64487" lon="1.3773">
        <ele>149</ele>
        <time>2023-05-31T06:27:33Z</time>
      </trkpt>
      <trkpt lat="43.64487" lon="1.3773">
        <ele>149</ele>
        <time>2023-05-31T06:27:34Z</time>
      </trkpt>
      <trkpt lat="43.64489" lon="1.37725">
        <ele>149</ele>
        <time>2023-05-31T06:27:35Z</time>
      </trkpt>
      <trkpt lat="43.64492" lon="1.3772">
        <ele>149</ele>
        <time>2023-05-31T06:27:36Z</time>
      </trkpt>
      <trkpt lat="43.64496" lon="1.37712">
        <ele>149</ele>
        <time>2023-05-31T06:27:37Z</time>
      </trkpt>
      <trkpt lat="43.64498" lon="1.37709">
        <ele>148</ele>
        <time>2023-05-31T06:27:38Z</time>
      </trkpt>
      <trkpt lat="43.64498" lon="1.37709">
        <ele>148</ele>
        <time>2023-05-31T06:27:39Z</time>
      </trkpt>
      <trkpt lat="43.64501" lon="1.377">
        <ele>148</ele>
        <time>2023-05-31T06:27:40Z</time>
      </trkpt>
      <trkpt lat="43.64501" lon="1.377">
        <ele>148</ele>
        <time>2023-05-31T06:27:41Z</time>
      </trkpt>
      <trkpt lat="43.64502" lon="1.37696">
        <ele>148</ele>
        <time>2023-05-31T06:27:42Z</time>
      </trkpt>
      <trkpt lat="43.64505" lon="1.37692">
        <ele>148</ele>
        <time>2023-05-31T06:27:43Z</time>
      </trkpt>
      <trkpt lat="43.64507" lon="1.37685">
        <ele>148</ele>
        <time>2023-05-31T06:27:44Z</time>
      </trkpt>
      <trkpt lat="43.64509" lon="1.37681">
        <ele>148</ele>
        <time>2023-05-31T06:27:45Z</time>
      </trkpt>
      <trkpt lat="43.64511" lon="1.37677">
        <ele>149</ele>
        <time>2023-05-31T06:27:46Z</time>
      </trkpt>
      <trkpt lat="43.64511" lon="1.37677">
        <ele>149</ele>
        <time>2023-05-31T06:27:47Z</time>
      </trkpt>
      <trkpt lat="43.64514" lon="1.37674">
        <ele>149</ele>
        <time>2023-05-31T06:27:48Z</time>
      </trkpt>
      <trkpt lat="43.64518" lon="1.37668">
        <ele>149</ele>
        <time>2023-05-31T06:27:49Z</time>
      </trkpt>
      <trkpt lat="43.64522" lon="1.37665">
        <ele>148</ele>
        <time>2023-05-31T06:27:50Z</time>
      </trkpt>
      <trkpt lat="43.64524" lon="1.37664">
        <ele>148</ele>
        <time>2023-05-31T06:27:51Z</time>
      </trkpt>
      <trkpt lat="43.64526" lon="1.37663">
        <ele>148</ele>
        <time>2023-05-31T06:27:52Z</time>
      </trkpt>
      <trkpt lat="43.64526" lon="1.37663">
        <ele>148</ele>
        <time>2023-05-31T06:27:53Z</time>
      </trkpt>
      <trkpt lat="43.64531" lon="1.37661">
        <ele>148</ele>
        <time>2023-05-31T06:27:54Z</time>
      </trkpt>
      <trkpt lat="43.64531" lon="1.37661">
        <ele>148</ele>
        <time>2023-05-31T06:27:55Z</time>
      </trkpt>
      <trkpt lat="43.64537" lon="1.37663">
        <ele>148</ele>
        <time>2023-05-31T06:27:56Z</time>
      </trkpt>
      <trkpt lat="43.64537" lon="1.37663">
        <ele>148</ele>
        <time>2023-05-31T06:27:57Z</time>
      </trkpt>
      <trkpt lat="43.64546" lon="1.37668">
        <ele>149</ele>
        <time>2023-05-31T06:27:58Z</time>
      </trkpt>
      <trkpt lat="43.64548" lon="1.37668">
        <ele>149</ele>
        <time>2023-05-31T06:27:59Z</time>
      </trkpt>
      <trkpt lat="43.64548" lon="1.37668">
        <ele>149</ele>
        <time>2023-05-31T06:28:00Z</time>
      </trkpt>
      <trkpt lat="43.64556" lon="1.37671">
        <ele>149</ele>
        <time>2023-05-31T06:28:01Z</time>
      </trkpt>
      <trkpt lat="43.64556" lon="1.37671">
        <ele>149</ele>
        <time>2023-05-31T06:28:02Z</time>
      </trkpt>
      <trkpt lat="43.64565" lon="1.37675">
        <ele>149</ele>
        <time>2023-05-31T06:28:03Z</time>
      </trkpt>
      <trkpt lat="43.64566" lon="1.37675">
        <ele>149</ele>
        <time>2023-05-31T06:28:04Z</time>
      </trkpt>
      <trkpt lat="43.64566" lon="1.37675">
        <ele>149</ele>
        <time>2023-05-31T06:28:05Z</time>
      </trkpt>
      <trkpt lat="43.64569" lon="1.37677">
        <ele>149</ele>
        <time>2023-05-31T06:28:06Z</time>
      </trkpt>
      <trkpt lat="43.64577" lon="1.3768">
        <ele>149</ele>
        <time>2023-05-31T06:28:07Z</time>
      </trkpt>
      <trkpt lat="43.64577" lon="1.3768">
        <ele>149</ele>
        <time>2023-05-31T06:28:08Z</time>
      </trkpt>
      <trkpt lat="43.64586" lon="1.37684">
        <ele>149</ele>
        <time>2023-05-31T06:28:09Z</time>
      </trkpt>
      <trkpt lat="43.64588" lon="1.37684">
        <ele>149</ele>
        <time>2023-05-31T06:28:10Z</time>
      </trkpt>
      <trkpt lat="43.64592" lon="1.37685">
        <ele>149</ele>
        <time>2023-05-31T06:28:11Z</time>
      </trkpt>
      <trkpt lat="43.64592" lon="1.37685">
        <ele>148</ele>
        <time>2023-05-31T06:28:12Z</time>
      </trkpt>
      <trkpt lat="43.646" lon="1.37686">
        <ele>148</ele>
        <time>2023-05-31T06:28:13Z</time>
      </trkpt>
      <trkpt lat="43.646" lon="1.37686">
        <ele>148</ele>
        <time>2023-05-31T06:28:14Z</time>
      </trkpt>
      <trkpt lat="43.64609" lon="1.37684">
        <ele>148</ele>
        <time>2023-05-31T06:28:15Z</time>
      </trkpt>
      <trkpt lat="43.6461" lon="1.37684">
        <ele>148</ele>
        <time>2023-05-31T06:28:16Z</time>
      </trkpt>
      <trkpt lat="43.6461" lon="1.37684">
        <ele>148</ele>
        <time>2023-05-31T06:28:17Z</time>
      </trkpt>
      <trkpt lat="43.6461" lon="1.37684">
        <ele>148</ele>
        <time>2023-05-31T06:28:18Z</time>
      </trkpt>
    </trkseg>
  </trk>
</gpx>